# Wetter Temperatur Luftdruck Luftfeuchtigkeit Sichtweite Windgeschwindigkeit Windrichtung Zeit
1 Clouds 23 1016 69 10000 4.1 100 22:25 24.01.2020
2 Rain 23 1016 77 0 6.01 58 21:56 24.01.2020
3 Rain 23 1016 77 0 6.01 58 21:38 24.01.2020
4 Clouds 25 1016 61 10000 4.1 100 21:18 24.01.2020
5 Clouds 25 1016 61 10000 4.1 100 20:42 24.01.2020
6 Clouds 25 1016 61 10000 4.1 100 20:21 24.01.2020
7 Rain 23 1016 76 0 5.29 72 19:57 24.01.2020
8 Rain 23 1016 76 0 5.29 72 19:39 24.01.2020
9 Clouds 24 1018 64 10000 4.6 100 19:21 24.01.2020
10 Clouds 24 1018 64 10000 4.6 100 18:43 24.01.2020
11 Clouds 24 1018 64 10000 4.6 100 18:43 24.01.2020
12 Rain 23 1016 76 0 5.29 72 18:24 24.01.2020
13 Rain 23 1016 76 0 5.29 72 17:56 24.01.2020
14 Rain 23 1016 76 0 5.29 72 17:38 24.01.2020
15 Clouds 24 1018 69 10000 5.1 110 17:18 24.01.2020
16 Clear 22 1018 78 0 6.85 78 16:39 24.01.2020
17 Clear 22 1018 78 0 6.85 78 16:20 24.01.2020
18 Clear 22 1018 78 0 6.85 78 15:43 24.01.2020
19 Clear 22 1018 78 0 6.85 78 15:23 24.01.2020
20 Clear 22 1018 78 0 6.85 78 14:58 24.01.2020
21 Clear 22 1018 78 0 6.85 78 14:40 24.01.2020
22 Clouds 20 1017 88 10000 2.6 120 14:21 24.01.2020
23 Clouds 20 1017 88 10000 2.6 120 13:43 24.01.2020
24 Clouds 20 1017 88 10000 2.6 120 13:23 24.01.2020
25 Clouds 20 1016 88 10000 2.1 100 12:44 24.01.2020
26 Clouds 20 1016 88 10000 2.1 100 12:22 24.01.2020
27 Clouds 20 1015 88 10000 2.6 120 11:45 24.01.2020
28 Clouds 20 1015 88 10000 2.6 120 11:20 24.01.2020
29 Clear 22 1015 77 0 7.18 68 10:59 24.01.2020
30 Clear 22 1015 77 0 7.18 68 10:41 24.01.2020
31 Clear 22 1015 77 0 7.18 68 10:19 24.01.2020
32 Clear 22 1015 77 0 7.18 68 09:42 24.01.2020
33 Clear 22 1015 77 0 7.18 68 09:42 24.01.2020
34 Clouds 21 1016 77 10000 3.1 100 09:24 24.01.2020
35 Clouds 21 1016 77 10000 3.1 100 08:59 24.01.2020
36 Clouds 21 1016 77 10000 3.1 100 08:36 24.01.2020
37 Clouds 21 1016 77 10000 3.1 100 08:18 24.01.2020
38 Clouds 22 1016 73 10000 4.1 100 07:42 24.01.2020
39 Clouds 22 1016 73 10000 4.1 100 07:18 24.01.2020
40 Clouds 22 1017 73 10000 4.1 90 06:42 24.01.2020
41 Clouds 22 1017 73 10000 4.1 90 06:18 24.01.2020
42 Clouds 22 1017 73 10000 4.1 90 05:20 24.01.2020
43 Clouds 23 1016 69 10000 4.6 80 02:56 24.01.2020
44 Clouds 23 1016 69 10000 4.6 80 02:38 24.01.2020
45 Clouds 23 1016 69 10000 4.6 80 02:18 24.01.2020
46 Clouds 23 1016 64 10000 5.7 80 01:37 24.01.2020
47 Clouds 23 1015 64 10000 4.1 80 00:39 24.01.2020
48 Clouds 24 1015 60 10000 5.7 90 23:59 23.01.2020
49 Clouds 24 1015 60 10000 5.7 90 23:59 23.01.2020
50 Clouds 24 1015 60 10000 5.7 90 23:40 23.01.2020
51 Clouds 24 1015 60 10000 5.7 90 23:21 23.01.2020
52 Clouds 25 1014 57 10000 6.2 70 22:58 23.01.2020
53 Clouds 25 1014 57 10000 6.2 70 22:36 23.01.2020
54 Clouds 25 1014 57 10000 6.2 70 22:18 23.01.2020
55 Clouds 25 1014 57 10000 6.2 70 22:18 23.01.2020
56 Clouds 25 1014 57 10000 6.7 90 21:54 23.01.2020
57 Clouds 25 1014 57 10000 6.7 90 21:36 23.01.2020
58 Clouds 25 1014 57 10000 6.7 90 21:18 23.01.2020
59 Clouds 24 1014 60 10000 7.2 90 20:39 23.01.2020
60 Clouds 24 1014 60 10000 7.2 90 20:39 23.01.2020
61 Clouds 24 1014 60 10000 7.2 90 20:21 23.01.2020
62 Clouds 24 1015 64 10000 7.2 90 19:56 23.01.2020
63 Clouds 24 1015 64 10000 7.2 90 19:38 23.01.2020
64 Clouds 24 1015 64 10000 7.2 90 19:20 23.01.2020
65 Clouds 24 1016 64 10000 8.7 90 18:56 23.01.2020
66 Clouds 24 1016 64 10000 8.7 90 18:37 23.01.2020
67 Clouds 24 1016 64 10000 8.7 90 18:19 23.01.2020
68 Clouds 24 1016 64 10000 7.2 90 17:43 23.01.2020
69 Clouds 24 1016 64 10000 7.2 90 17:20 23.01.2020
70 Clouds 23 1016 64 10000 8.2 90 16:58 23.01.2020
71 Clouds 23 1016 64 10000 8.2 90 16:37 23.01.2020
72 Clouds 23 1016 64 10000 8.2 90 16:18 23.01.2020
73 Clouds 23 1016 64 10000 8.2 70 15:57 23.01.2020
74 Clouds 23 1016 64 10000 8.2 70 15:37 23.01.2020
75 Clouds 23 1016 64 10000 8.2 70 15:18 23.01.2020
76 Rain 22 1015 73 10000 8.2 60 14:56 23.01.2020
77 Rain 22 1015 73 10000 8.2 60 14:38 23.01.2020
78 Rain 22 1015 73 10000 8.2 60 14:20 23.01.2020
79 Clouds 21 1015 77 10000 7.2 60 13:43 23.01.2020
80 Clouds 21 1015 77 10000 7.2 60 13:20 23.01.2020
81 Clouds 22 1015 64 10000 6.7 50 12:47 23.01.2020
82 Clouds 22 1015 64 10000 6.7 50 12:26 23.01.2020
83 Clouds 22 1014 64 10000 7.2 60 11:59 23.01.2020
84 Clouds 22 1014 64 10000 7.2 60 11:59 23.01.2020
85 Clouds 22 1014 64 10000 7.2 60 11:39 23.01.2020
86 Clouds 22 1014 64 10000 7.2 60 11:20 23.01.2020
87 Clouds 22 1014 64 10000 6.7 50 10:55 23.01.2020
88 Clouds 22 1014 64 10000 6.7 50 10:36 23.01.2020
89 Clouds 22 1014 64 10000 6.7 50 10:18 23.01.2020
90 Clouds 21 1014 68 10000 6.7 50 09:39 23.01.2020
91 Clouds 21 1014 68 10000 6.7 50 09:20 23.01.2020
92 Clouds 21 1015 68 10000 6.2 40 08:43 23.01.2020
93 Clouds 21 1015 68 10000 6.2 40 08:43 23.01.2020
94 Clouds 21 1015 68 10000 6.2 40 08:24 23.01.2020
95 Clouds 22 1015 56 10000 6.7 50 07:49 23.01.2020
96 Clouds 22 1015 56 10000 6.7 50 07:27 23.01.2020
97 Clear 22 1015 71 0 10.92 32 06:54 23.01.2020
98 Clouds 21 1015 68 10000 6.2 40 06:24 23.01.2020
99 Clouds 21 1015 68 10000 6.2 40 05:58 23.01.2020
100 Clouds 21 1015 64 10000 6.2 30 04:24 23.01.2020
101 Clouds 19 1015 82 10000 6.2 350 02:45 23.01.2020
102 Clouds 19 1014 72 10000 6.7 340 01:44 23.01.2020
103 Clouds 19 1013 72 10000 7.7 310 00:28 23.01.2020
104 Clouds 19 1013 72 10000 8.2 330 23:54 22.01.2020
105 Clouds 19 1013 72 10000 8.2 330 23:36 22.01.2020
106 Clouds 19 1013 72 10000 8.2 330 23:18 22.01.2020
107 Clouds 21 1013 68 10000 9.3 330 22:41 22.01.2020
108 Clouds 21 1013 68 10000 9.3 330 22:23 22.01.2020
109 Clouds 20 1013 72 10000 8.7 320 21:42 22.01.2020
110 Clouds 20 1013 72 10000 8.7 320 21:23 22.01.2020
111 Clouds 19 1013 68 10000 10.3 320 20:59 22.01.2020
112 Clouds 19 1013 68 10000 10.3 320 20:41 22.01.2020
113 Clouds 19 1013 68 10000 10.3 320 20:23 22.01.2020
114 Clouds 20 1014 60 10000 9.8 320 19:57 22.01.2020
115 Rain 19 1013 70 0 11.73 298 19:39 22.01.2020
116 Clouds 20 1014 60 10000 10.8 320 19:19 22.01.2020
117 Clouds 20 1014 60 10000 10.8 320 18:57 22.01.2020
118 Clouds 20 1014 60 10000 10.8 320 18:38 22.01.2020
119 Clouds 20 1014 60 10000 10.8 320 18:20 22.01.2020
120 Clouds 19 1014 59 10000 11.8 330 17:55 22.01.2020
121 Clouds 19 1014 59 10000 11.8 330 17:37 22.01.2020
122 Clouds 19 1014 59 10000 11.8 330 17:19 22.01.2020
123 Clouds 18 1014 68 10000 12.9 340 16:43 22.01.2020
124 Clouds 18 1014 68 10000 12.9 340 16:23 22.01.2020
125 Clouds 17 1014 72 10000 9.8 330 15:59 22.01.2020
126 Clouds 17 1014 72 10000 9.8 330 15:40 22.01.2020
127 Clouds 17 1014 72 10000 9.8 330 15:40 22.01.2020
128 Clouds 17 1014 72 10000 9.8 330 15:22 22.01.2020
129 Rain 16 1013 77 10000 8.7 330 14:56 22.01.2020
130 Rain 16 1013 77 10000 8.7 330 14:36 22.01.2020
131 Rain 16 1013 77 10000 8.7 330 14:18 22.01.2020
132 Rain 17 1014 73 0 13.61 310 13:54 22.01.2020
133 Rain 17 1014 73 0 13.61 310 13:36 22.01.2020
134 Rain 17 1015 73 0 13.6 312 13:18 22.01.2020
135 Rain 17 1015 73 0 13.6 312 13:18 22.01.2020
136 Rain 17 1015 73 0 13.6 312 12:54 22.01.2020
137 Rain 17 1015 73 0 13.6 312 12:36 22.01.2020
138 Clouds 17 1013 45 10000 7.7 320 12:18 22.01.2020
139 Clouds 17 1013 45 10000 7.7 320 11:54 22.01.2020
140 Rain 17 1015 73 0 13.6 312 11:36 22.01.2020
141 Clouds 17 1013 45 10000 8.7 320 11:18 22.01.2020
142 Rain 17 1013 69 0 12.23 307 10:41 22.01.2020
143 Rain 17 1013 69 0 12.23 307 10:19 22.01.2020
144 Rain 17 1013 69 0 12.23 307 09:42 22.01.2020
145 Rain 17 1013 69 0 12.23 307 09:24 22.01.2020
146 Rain 17 1013 69 0 12.23 307 08:57 22.01.2020
147 Rain 17 1013 69 0 12.23 307 08:38 22.01.2020
148 Rain 18 1014 78 0 13.14 312 08:20 22.01.2020
149 Rain 18 1014 77 0 12.87 316 07:46 22.01.2020
150 Clouds 18 1015 72 10000 9.3 340 07:27 22.01.2020
151 Clouds 18 1015 72 10000 9.3 340 06:38 22.01.2020
152 Clouds 18 1015 72 10000 9.3 340 06:20 22.01.2020
153 Clouds 20 1015 68 10000 8.2 350 05:19 22.01.2020
154 Clouds 20 1015 72 10000 9.8 350 03:29 22.01.2020
155 Clouds 21 1014 73 10000 8.7 330 02:49 22.01.2020
156 Clouds 21 1014 73 10000 8.2 320 01:35 22.01.2020
157 Clouds 22 1014 73 10000 8.2 320 00:42 22.01.2020
158 Clouds 22 1014 73 10000 8.2 320 00:23 22.01.2020
159 Clouds 22 1014 68 10000 7.2 320 23:38 21.01.2020
160 Clouds 22 1014 68 10000 7.2 320 23:38 21.01.2020
161 Clouds 22 1014 68 10000 7.2 320 23:20 21.01.2020
162 Clouds 23 1014 64 10000 7.2 320 22:42 21.01.2020
163 Clouds 24 1015 60 10000 6.7 310 22:24 21.01.2020
164 Clouds 24 1015 60 10000 6.7 310 21:59 21.01.2020
165 Clouds 24 1015 60 10000 6.7 310 21:59 21.01.2020
166 Clouds 24 1015 60 10000 6.7 310 21:40 21.01.2020
167 Clouds 24 1015 60 10000 6.7 310 21:21 21.01.2020
168 Clouds 23 1015 60 10000 5.1 310 20:59 21.01.2020
169 Clouds 23 1015 60 10000 5.1 310 20:39 21.01.2020
170 Clouds 23 1015 60 10000 5.1 310 20:20 21.01.2020
171 Clouds 23 1016 53 10000 4.6 330 19:58 21.01.2020
172 Clouds 23 1016 53 10000 4.6 330 19:39 21.01.2020
173 Clouds 24 1016 53 10000 4.6 330 19:21 21.01.2020
174 Clouds 23 1017 56 10000 5.1 360 18:57 21.01.2020
175 Clouds 23 1017 56 10000 5.1 360 18:38 21.01.2020
176 Clouds 23 1017 56 10000 5.1 360 18:20 21.01.2020
177 Clouds 23 1018 60 10000 5.1 340 17:56 21.01.2020
178 Clouds 23 1018 60 10000 5.1 340 17:37 21.01.2020
179 Clouds 23 1018 60 10000 5.1 340 17:18 21.01.2020
180 Clouds 23 1017 68 0 1.79 347 16:37 21.01.2020
181 Clouds 23 1018 60 10000 3.6 30 16:19 21.01.2020
182 Clouds 23 1018 60 10000 3.6 30 15:57 21.01.2020
183 Clouds 23 1018 60 10000 3.6 30 15:37 21.01.2020
184 Clouds 23 1018 60 10000 3.6 30 15:19 21.01.2020
185 Clouds 21 1017 60 10000 3.1 30 14:39 21.01.2020
186 Clouds 21 1017 60 10000 3.1 30 14:20 21.01.2020
187 Clouds 21 1017 68 10000 7.11 356 13:41 21.01.2020
188 Clouds 21 1017 68 10000 6.7 350 13:19 21.01.2020
189 Clouds 21 1017 68 10000 4.6 10 12:56 21.01.2020
190 Clouds 21 1017 68 10000 4.6 10 12:38 21.01.2020
191 Clouds 21 1017 68 10000 4.6 10 12:19 21.01.2020
192 Clouds 21 1016 73 10000 3.6 10 11:40 21.01.2020
193 Clouds 21 1016 73 10000 3.6 10 11:21 21.01.2020
194 Clouds 21 1017 73 10000 3.6 30 10:57 21.01.2020
195 Clouds 21 1017 73 10000 3.6 30 10:57 21.01.2020
196 Clouds 21 1017 73 10000 3.6 30 10:57 21.01.2020
197 Clouds 21 1017 73 10000 3.6 30 10:57 21.01.2020
198 Clouds 21 1017 73 10000 3.6 30 10:39 21.01.2020
199 Clouds 21 1017 73 10000 3.6 30 10:20 21.01.2020
200 Clouds 21 1017 73 10000 3.6 30 09:42 21.01.2020
201 Clouds 21 1017 77 10000 4.1 20 09:23 21.01.2020
202 Clouds 22 1017 78 10000 4.6 20 08:50 21.01.2020
203 Clouds 22 1017 78 10000 4.6 20 08:32 21.01.2020
204 Clouds 22 1018 78 10000 4.1 20 07:59 21.01.2020
205 Clouds 22 1018 78 10000 4.1 20 07:40 21.01.2020
206 Clouds 22 1018 78 10000 4.1 20 07:22 21.01.2020
207 Clouds 22 1018 78 10000 3.6 30 06:49 21.01.2020
208 Clouds 22 1018 78 10000 3.6 30 06:29 21.01.2020
209 Clouds 22 1018 78 10000 3.6 30 06:29 21.01.2020
210 Clouds 22 1018 78 10000 3.6 30 06:29 21.01.2020
211 Clouds 23 1019 73 10000 4.1 30 05:42 21.01.2020
212 Clouds 23 1019 73 10000 4.1 30 05:42 21.01.2020
213 Clouds 23 1019 73 10000 3.6 30 04:40 21.01.2020
214 Clouds 23 1018 78 10000 4.1 30 02:56 21.01.2020
215 Clouds 23 1018 78 10000 4.1 10 01:53 21.01.2020
216 Clouds 23 1018 78 10000 4.1 10 01:18 21.01.2020
217 Rain 23 1017 73 10000 3.1 360 00:36 21.01.2020
218 Rain 23 1017 83 10000 4.1 350 23:58 20.01.2020
219 Rain 23 1017 83 10000 4.1 350 23:38 20.01.2020
220 Rain 23 1017 83 10000 4.1 350 23:19 20.01.2020
221 Rain 23 1017 83 10000 7.2 360 22:56 20.01.2020
222 Rain 23 1017 83 10000 7.2 360 22:37 20.01.2020
223 Rain 23 1017 83 10000 7.2 360 22:19 20.01.2020
224 Rain 25 1017 69 10000 5.1 330 21:57 20.01.2020
225 Rain 25 1017 69 10000 5.1 330 21:37 20.01.2020
226 Rain 25 1017 69 10000 5.1 330 21:37 20.01.2020
227 Rain 25 1017 69 10000 5.1 330 21:18 20.01.2020
228 Clouds 26 1017 57 10000 3.6 290 20:55 20.01.2020
229 Clouds 26 1017 57 10000 3.6 290 20:36 20.01.2020
230 Clouds 26 1017 57 10000 3.6 290 20:18 20.01.2020
231 Clouds 26 1018 57 10000 3.6 310 19:56 20.01.2020
232 Rain 24 1016 78 0 0.45 115 19:37 20.01.2020
233 Rain 24 1016 78 0 1.07 253 19:18 20.01.2020
234 Rain 24 1017 78 0 1.07 253 18:42 20.01.2020
235 Clouds 24 1019 69 10000 4.1 310 18:21 20.01.2020
236 Clouds 25 1019 69 10000 4.1 310 17:39 20.01.2020
237 Clouds 25 1019 69 10000 4.1 310 17:19 20.01.2020
238 Clouds 24 1018 78 0 1.34 27 16:58 20.01.2020
239 Clouds 24 1018 75 0 2.58 268 16:37 20.01.2020
240 Clouds 24 1019 78 10000 1.5 250 16:18 20.01.2020
241 Clouds 24 1019 78 10000 1.5 250 15:41 20.01.2020
242 Clouds 24 1019 78 10000 1.5 250 15:22 20.01.2020
243 Clouds 23 1018 60 0 2.58 268 14:59 20.01.2020
244 Clouds 22 1018 57 0 2.58 268 14:41 20.01.2020
245 Clouds 20 1018 100 10000 2.51 221 14:21 20.01.2020
246 Clouds 19 1018 100 10000 2.51 221 13:57 20.01.2020
247 Clouds 19 1018 100 10000 2.51 221 13:38 20.01.2020
248 Clouds 17 1018 100 10000 2.8 211 13:20 20.01.2020
249 Clouds 23 1018 76 0 2.8 211 12:42 20.01.2020
250 Clouds 18 1018 93 10000 2.8 211 12:23 20.01.2020
251 Clouds 18 1018 93 10000 2.8 211 11:55 20.01.2020
252 Clouds 18 1018 93 10000 2.8 211 11:36 20.01.2020
253 Clouds 18 1018 93 10000 3.73 194 11:18 20.01.2020
254 Clouds 19 1018 100 10000 1.5 190 10:46 20.01.2020
255 Clouds 19 1018 100 10000 1.5 190 10:20 20.01.2020
256 Clouds 19 1018 93 10000 1 0 09:42 20.01.2020
257 Clouds 19 1018 93 10000 1 0 09:42 20.01.2020
258 Clouds 19 1018 93 10000 1 0 09:24 20.01.2020
259 Clouds 19 1018 93 10000 1.5 180 08:55 20.01.2020
260 Clouds 19 1018 93 10000 1.5 180 08:34 20.01.2020
261 Clouds 19 1019 93 10000 2.6 160 07:56 20.01.2020
262 Clouds 19 1019 93 10000 2.6 160 07:38 20.01.2020
263 Clouds 19 1019 93 10000 2.6 160 07:19 20.01.2020
264 Clouds 20 1020 88 10000 1 0 06:40 20.01.2020
265 Clouds 20 1020 88 10000 1 0 06:20 20.01.2020
266 Clouds 20 1020 88 10000 1.5 170 05:38 20.01.2020
267 Clouds 20 1020 88 10000 1.5 170 05:19 20.01.2020
268 Clouds 20 1020 94 10000 2.1 160 03:55 20.01.2020
269 Clouds 21 1019 83 10000 2.6 160 01:58 20.01.2020
270 Clouds 21 1019 83 10000 2.6 160 01:39 20.01.2020
271 Clouds 22 1019 78 10000 3.1 170 00:55 20.01.2020
272 Clouds 22 1019 78 10000 3.1 170 00:28 20.01.2020
273 Clouds 23 1019 69 10000 4.1 180 23:56 19.01.2020
274 Clouds 23 1019 69 10000 4.1 180 23:37 19.01.2020
275 Clouds 24 1019 69 10000 4.1 180 23:18 19.01.2020
276 Clouds 25 1019 61 10000 5.7 170 22:55 19.01.2020
277 Clouds 25 1019 61 10000 5.7 170 22:36 19.01.2020
278 Clouds 25 1019 61 10000 5.7 170 22:18 19.01.2020
279 Clouds 26 1019 57 10000 5.7 170 21:55 19.01.2020
280 Clouds 26 1019 57 10000 5.7 170 21:55 19.01.2020
281 Clouds 26 1019 57 10000 5.7 170 21:37 19.01.2020
282 Clouds 26 1019 57 10000 5.7 170 21:19 19.01.2020
283 Clouds 26 1020 54 10000 5.1 170 20:55 19.01.2020
284 Clear 26 1018 67 0 0.89 205 20:37 19.01.2020
285 Clouds 26 1020 57 0 5.1 160 20:18 19.01.2020
286 Clouds 26 1020 57 0 5.1 160 19:54 19.01.2020
287 Clouds 26 1020 57 0 5.1 160 19:36 19.01.2020
288 Clouds 26 1020 57 0 5.1 160 19:18 19.01.2020
289 Clouds 25 1022 61 0 5.1 160 18:54 19.01.2020
290 Clouds 25 1022 61 0 5.1 160 18:36 19.01.2020
291 Clouds 25 1022 61 0 5.1 160 18:18 19.01.2020
292 Clouds 25 1022 54 10000 5.7 140 17:56 19.01.2020
293 Clouds 25 1022 54 10000 5.7 140 17:38 19.01.2020
294 Clouds 25 1022 54 10000 5.7 140 17:18 19.01.2020
295 Clouds 24 1023 57 10000 4.1 120 16:54 19.01.2020
296 Clouds 24 1023 57 10000 4.1 120 16:54 19.01.2020
297 Clear 24 1022 77 0 1.34 55 16:36 19.01.2020
298 Clear 24 1022 77 0 1.34 94 16:18 19.01.2020
299 Clear 23 1022 76 0 2.24 352 15:40 19.01.2020
300 Clear 23 1022 77 0 1.34 56 15:22 19.01.2020
301 Clear 23 1021 75 0 1.34 104 14:59 19.01.2020
302 Clear 23 1021 75 0 1.34 104 14:59 19.01.2020
303 Clear 23 1021 75 0 5.51 131 14:40 19.01.2020
304 Clouds 22 1022 82 10000 2.1 120 14:19 19.01.2020
305 Clouds 21 1022 82 10000 2.1 120 13:58 19.01.2020
306 Clouds 21 1022 82 10000 2.1 120 13:38 19.01.2020
307 Clouds 20 1022 82 10000 2.1 120 13:20 19.01.2020
308 Clouds 16 1021 87 10000 0.5 0 12:56 19.01.2020
309 Clouds 16 1021 87 10000 0.5 0 12:37 19.01.2020
310 Clouds 16 1021 87 10000 0.5 0 12:37 19.01.2020
311 Clouds 16 1021 87 10000 0.5 0 12:19 19.01.2020
312 Clouds 16 1021 93 10000 5.94 121 11:43 19.01.2020
313 Clouds 16 1021 93 10000 5.77 109 11:21 19.01.2020
314 Clouds 20 1022 77 10000 2.6 90 10:57 19.01.2020
315 Clouds 20 1022 77 10000 2.6 90 10:39 19.01.2020
316 Clouds 20 1022 77 10000 2.6 90 10:19 19.01.2020
317 Clouds 20 1022 77 10000 2.1 90 09:56 19.01.2020
318 Clouds 20 1022 77 10000 2.1 90 09:56 19.01.2020
319 Clouds 20 1022 77 10000 2.1 90 09:56 19.01.2020
320 Clouds 20 1022 77 10000 2.1 90 09:56 19.01.2020
321 Clouds 20 1022 77 10000 2.1 90 09:37 19.01.2020
322 Clouds 20 1022 77 10000 2.1 90 09:19 19.01.2020
323 Clear 23 1021 70 0 5.77 109 08:52 19.01.2020
324 Clouds 21 1023 73 10000 1.5 80 08:30 19.01.2020
325 Clouds 21 1023 73 10000 1.5 80 07:46 19.01.2020
326 Clouds 21 1023 73 10000 1.5 80 07:26 19.01.2020
327 Clouds 21 1024 73 10000 3.1 120 06:54 19.01.2020
328 Clouds 21 1024 73 10000 3.1 120 06:21 19.01.2020
329 Clouds 21 1025 68 10000 3.6 110 03:28 19.01.2020
330 Clouds 22 1025 68 10000 5.1 100 02:26 19.01.2020
331 Clouds 22 1024 64 10000 5.1 100 01:28 19.01.2020
332 Clouds 22 1024 64 10000 5.1 100 00:54 19.01.2020
333 Clouds 22 1024 60 10000 6.7 110 00:29 19.01.2020
334 Clouds 22 1024 60 10000 6.7 110 23:59 18.01.2020
335 Clouds 22 1024 60 10000 6.7 110 23:41 18.01.2020
336 Clouds 22 1024 60 10000 6.7 110 23:23 18.01.2020
337 Clouds 22 1024 60 10000 8.2 100 22:55 18.01.2020
338 Clouds 23 1024 60 10000 8.2 100 22:37 18.01.2020
339 Clouds 23 1024 60 10000 8.2 100 22:37 18.01.2020
340 Clouds 23 1024 60 10000 8.2 100 22:19 18.01.2020
341 Rain 22 1023 71 0 2.68 345 21:57 18.01.2020
342 Rain 22 1023 72 0 3.13 110 21:37 18.01.2020
343 Clouds 23 1024 57 10000 7.7 110 21:19 18.01.2020
344 Clouds 23 1024 57 10000 7.7 110 20:43 18.01.2020
345 Clouds 23 1024 57 10000 7.7 110 20:21 18.01.2020
346 Clouds 24 1025 57 10000 7.7 100 19:57 18.01.2020
347 Clouds 24 1025 57 10000 7.7 100 19:39 18.01.2020
348 Clouds 24 1025 57 10000 7.7 100 19:39 18.01.2020
349 Clouds 24 1025 57 10000 7.7 100 19:21 18.01.2020
350 Clouds 23 1026 60 10000 8.7 110 18:42 18.01.2020
351 Clouds 23 1026 60 10000 8.7 110 18:21 18.01.2020
352 Clouds 23 1027 60 10000 9.3 100 17:55 18.01.2020
353 Clouds 23 1027 60 10000 9.3 100 17:37 18.01.2020
354 Clouds 23 1027 60 10000 9.3 100 17:18 18.01.2020
355 Clouds 23 1027 60 10000 8.2 110 16:41 18.01.2020
356 Clouds 23 1027 60 10000 8.2 110 16:23 18.01.2020
357 Clouds 22 1027 60 10000 8.2 110 15:59 18.01.2020
358 Clouds 22 1027 60 10000 8.2 110 15:40 18.01.2020
359 Clouds 21 1026 64 10000 6.7 110 15:22 18.01.2020
360 Clouds 21 1026 64 10000 6.7 110 14:44 18.01.2020
361 Clouds 21 1026 64 10000 6.7 110 14:24 18.01.2020
362 Clouds 21 1026 64 10000 6.2 100 13:59 18.01.2020
363 Clouds 21 1026 64 10000 6.2 100 13:41 18.01.2020
364 Clouds 21 1026 64 10000 6.2 100 13:21 18.01.2020
365 Clouds 21 1026 64 10000 7.7 90 12:55 18.01.2020
366 Clouds 21 1026 64 10000 7.7 90 12:36 18.01.2020
367 Clouds 21 1026 64 10000 7.7 90 12:18 18.01.2020
368 Clouds 21 1025 60 10000 6.2 100 11:43 18.01.2020
369 Clouds 21 1025 60 10000 6.2 100 11:21 18.01.2020
370 Clouds 22 1025 64 10000 7.2 90 10:45 18.01.2020
371 Clouds 22 1025 64 10000 7.2 90 10:22 18.01.2020
372 Clouds 22 1026 56 10000 8.7 90 09:59 18.01.2020
373 Clouds 22 1026 56 10000 8.7 90 09:41 18.01.2020
374 Clouds 22 1026 56 10000 8.7 90 09:19 18.01.2020
375 Clouds 22 1026 64 10000 7.7 90 08:42 18.01.2020
376 Clouds 22 1026 64 10000 7.7 90 08:20 18.01.2020
377 Clouds 22 1026 60 10000 8.7 90 07:59 18.01.2020
378 Clouds 22 1026 60 10000 8.7 90 07:39 18.01.2020
379 Clouds 22 1026 64 10000 7.7 90 06:52 18.01.2020
380 Clouds 22 1026 64 10000 7.7 90 06:33 18.01.2020
381 Clouds 22 1027 60 10000 8.2 80 05:49 18.01.2020
382 Clouds 22 1026 64 10000 8.2 80 04:24 18.01.2020
383 Clouds 23 1026 64 10000 13.38 67 02:33 18.01.2020
384 Rain 22 1025 75 0 6.71 51 01:39 18.01.2020
385 Clouds 23 1025 69 10000 7.2 90 00:39 18.01.2020
386 Clouds 23 1025 69 10000 7.2 90 00:19 18.01.2020
387 Clouds 23 1024 69 10000 7.2 70 23:56 17.01.2020
388 Clouds 23 1024 69 10000 7.2 70 23:38 17.01.2020
389 Clouds 23 1024 69 10000 7.2 70 23:18 17.01.2020
390 Rain 23 1024 78 10000 8.2 70 22:40 17.01.2020
391 Rain 23 1024 78 10000 8.2 70 22:19 17.01.2020
392 Rain 23 1024 78 10000 8.2 70 22:19 17.01.2020
393 Rain 22 1022 68 0 5.81 27 21:43 17.01.2020
394 Rain 22 1024 78 10000 3.1 50 21:24 17.01.2020
395 Rain 23 1024 78 10000 3.1 50 20:59 17.01.2020
396 Rain 23 1024 78 10000 3.1 50 20:41 17.01.2020
397 Rain 23 1024 78 10000 3.1 50 20:20 17.01.2020
398 Rain 23 1024 83 10000 4.1 50 19:57 17.01.2020
399 Rain 23 1023 75 0 1.79 53 19:38 17.01.2020
400 Clouds 23 1025 78 10000 4.1 70 19:19 17.01.2020
401 Clouds 24 1025 78 10000 4.1 70 18:57 17.01.2020
402 Clouds 24 1025 78 10000 4.1 70 18:37 17.01.2020
403 Clouds 24 1025 78 10000 4.1 70 18:19 17.01.2020
404 Clouds 25 1025 65 10000 3.6 80 17:39 17.01.2020
405 Clouds 25 1025 65 10000 3.6 80 17:21 17.01.2020
406 Clouds 24 1025 69 10000 3.1 80 16:44 17.01.2020
407 Clouds 24 1025 69 10000 3.1 80 16:21 17.01.2020
408 Clouds 24 1025 73 10000 1.5 130 15:58 17.01.2020
409 Clouds 24 1025 73 10000 1.5 130 15:40 17.01.2020
410 Clouds 24 1025 73 10000 1.5 130 15:22 17.01.2020
411 Clouds 21 1024 93 10000 5.53 58 14:43 17.01.2020
412 Clouds 21 1024 93 10000 5.53 58 14:25 17.01.2020
413 Clouds 19 1024 93 10000 1 0 13:46 17.01.2020
414 Clear 22 1023 78 0 0.45 63 13:23 17.01.2020
415 Clear 23 1023 72 0 5.8 56 12:48 17.01.2020
416 Clear 23 1023 72 0 5.8 56 12:24 17.01.2020
417 Clear 23 1023 72 0 5.8 56 11:56 17.01.2020
418 Clear 23 1023 72 0 5.8 56 11:37 17.01.2020
419 Clear 23 1022 71 0 5.58 58 11:18 17.01.2020
420 Clear 23 1022 71 0 5.58 58 10:42 17.01.2020
421 Clear 23 1022 71 0 5.58 58 10:42 17.01.2020
422 Clear 23 1022 71 0 5.58 58 10:22 17.01.2020
423 Clear 23 1022 71 0 5.58 58 09:56 17.01.2020
424 Clear 23 1022 71 0 5.58 58 09:37 17.01.2020
425 Clear 23 1022 71 0 5.58 58 09:18 17.01.2020
426 Clear 23 1022 71 0 5.58 58 08:42 17.01.2020
427 Clear 23 1022 72 0 6.12 53 08:23 17.01.2020
428 Clear 23 1023 68 0 6.47 52 07:51 17.01.2020
429 Clouds 22 1024 68 10000 2.6 90 07:31 17.01.2020
430 Clouds 22 1024 68 10000 2.6 90 06:56 17.01.2020
431 Clouds 22 1024 68 10000 2.6 90 06:37 17.01.2020
432 Clouds 23 1024 64 10000 2.6 70 05:27 17.01.2020
433 Clear 22 1023 76 0 2.68 64 03:38 17.01.2020
434 Clear 23 1023 76 0 2.24 31 02:43 17.01.2020
435 Clouds 23 1023 76 0 2.68 65 01:45 17.01.2020
436 Clouds 23 1023 76 0 2.68 70 01:27 17.01.2020
437 Clear 23 1023 77 0 2.68 55 00:43 17.01.2020
438 Clouds 24 1023 61 10000 4.1 70 00:19 17.01.2020
439 Clouds 24 1023 61 10000 4.1 70 23:41 16.01.2020
440 Clouds 24 1023 61 10000 4.1 70 23:41 16.01.2020
441 Clouds 24 1023 61 10000 4.1 70 23:23 16.01.2020
442 Clouds 24 1023 65 10000 4.6 50 22:43 16.01.2020
443 Clouds 24 1023 65 10000 4.6 50 22:22 16.01.2020
444 Clear 24 1022 73 0 1.79 56 21:57 16.01.2020
445 Clear 24 1022 73 0 1.79 30 21:38 16.01.2020
446 Clouds 25 1023 65 10000 5.1 50 21:19 16.01.2020
447 Clear 24 1022 71 0 0.89 67 20:58 16.01.2020
448 Clear 24 1022 72 0 0.89 68 20:39 16.01.2020
449 Clouds 25 1024 61 10000 5.7 50 20:19 16.01.2020
450 Clouds 25 1024 61 10000 5.7 50 19:56 16.01.2020
451 Clouds 26 1024 61 10000 5.7 50 19:38 16.01.2020
452 Clouds 26 1024 61 10000 5.7 50 19:19 16.01.2020
453 Clouds 25 1024 65 10000 5.1 50 18:55 16.01.2020
454 Clouds 25 1024 65 10000 5.1 50 18:37 16.01.2020
455 Clouds 25 1024 65 10000 5.1 50 18:18 16.01.2020
456 Clouds 25 1025 61 10000 5.1 60 17:42 16.01.2020
457 Clouds 25 1025 61 10000 5.1 60 17:23 16.01.2020
458 Clouds 25 1025 61 10000 4.6 70 16:57 16.01.2020
459 Clouds 25 1025 61 10000 4.6 70 16:39 16.01.2020
460 Clouds 24 1025 61 10000 4.6 70 16:19 16.01.2020
461 Clouds 24 1025 64 10000 3.1 80 15:44 16.01.2020
462 Clouds 24 1025 64 10000 3.1 80 15:23 16.01.2020
463 Clouds 22 1024 94 10000 2.1 80 14:57 16.01.2020
464 Clouds 22 1024 94 10000 2.1 80 14:39 16.01.2020
465 Clouds 22 1024 94 10000 2.1 80 14:20 16.01.2020
466 Clouds 20 1024 88 10000 1.5 80 13:45 16.01.2020
467 Clouds 20 1024 88 10000 1.5 80 13:26 16.01.2020
468 Clouds 18 1023 82 10000 1 0 12:47 16.01.2020
469 Clouds 18 1023 82 10000 1 0 12:28 16.01.2020
470 Clouds 18 1023 82 10000 1 0 11:58 16.01.2020
471 Clouds 18 1023 82 10000 1 0 11:39 16.01.2020
472 Clouds 18 1023 82 10000 1 0 11:21 16.01.2020
473 Clouds 21 1023 73 10000 2.1 70 10:40 16.01.2020
474 Clouds 21 1023 73 10000 2.1 70 10:22 16.01.2020
475 Clear 23 1022 73 0 6.1 70 09:58 16.01.2020
476 Clear 23 1022 73 0 6.1 70 09:40 16.01.2020
477 Clear 23 1022 73 0 6.1 70 09:22 16.01.2020
478 Clear 23 1022 73 0 6.1 70 08:53 16.01.2020
479 Clear 23 1022 73 0 6.1 70 08:35 16.01.2020
480 Clouds 22 1024 64 10000 3.6 100 07:59 16.01.2020
481 Clouds 22 1024 64 10000 3.6 100 07:39 16.01.2020
482 Clouds 22 1024 64 10000 3.6 100 07:21 16.01.2020
483 Clouds 21 1024 73 10000 2.1 100 06:43 16.01.2020
484 Clouds 21 1024 73 10000 2.1 100 06:22 16.01.2020
485 Clouds 21 1025 77 10000 3.1 90 05:46 16.01.2020
486 Clouds 22 1025 73 10000 2.6 90 04:40 16.01.2020
487 Clear 22 1024 68 10000 2.6 90 03:28 16.01.2020
488 Clear 23 1023 78 0 1.79 88 02:43 16.01.2020
489 Clear 23 1023 69 10000 3.1 100 01:24 16.01.2020
490 Clouds 24 1023 60 10000 3.6 90 00:25 16.01.2020
491 Clouds 24 1022 57 10000 5.1 110 23:56 15.01.2020
492 Clouds 24 1022 57 10000 5.1 110 23:38 15.01.2020
493 Clouds 24 1022 57 10000 5.1 110 23:18 15.01.2020
494 Clouds 25 1022 50 0 5.1 100 22:42 15.01.2020
495 Clouds 25 1022 50 0 5.1 100 22:20 15.01.2020
496 Clear 24 1021 74 0 1.79 55 21:59 15.01.2020
497 Clear 25 1021 70 0 1.34 115 21:40 15.01.2020
498 Clouds 25 1022 57 10000 5.7 100 21:22 15.01.2020
499 Clouds 25 1022 57 10000 5.7 100 20:58 15.01.2020
500 Clouds 25 1022 57 10000 5.7 100 20:40 15.01.2020
501 Clouds 25 1022 57 10000 5.7 100 20:22 15.01.2020
502 Clouds 25 1023 50 10000 6.2 70 19:57 15.01.2020
503 Clouds 25 1023 50 10000 6.2 70 19:38 15.01.2020
504 Clouds 25 1023 50 10000 6.2 70 19:20 15.01.2020
505 Clouds 25 1023 50 10000 6.2 70 19:20 15.01.2020
506 Clouds 25 1023 73 10000 5.7 120 18:57 15.01.2020
507 Clouds 25 1023 73 10000 5.7 120 18:57 15.01.2020
508 Clouds 25 1023 73 10000 5.7 120 18:38 15.01.2020
509 Clouds 25 1023 73 10000 5.7 120 18:20 15.01.2020
510 Clouds 26 1024 44 10000 4.6 100 17:58 15.01.2020
511 Clouds 26 1024 44 10000 4.6 100 17:40 15.01.2020
512 Clouds 26 1024 44 10000 4.6 100 17:21 15.01.2020
513 Clouds 25 1024 61 10000 4.6 110 16:55 15.01.2020
514 Clouds 25 1024 61 10000 4.6 110 16:55 15.01.2020
515 Clouds 25 1024 61 10000 4.6 110 16:36 15.01.2020
516 Clouds 25 1024 61 10000 4.6 110 16:18 15.01.2020
517 Clouds 24 1024 61 10000 2.6 110 15:42 15.01.2020
518 Clouds 24 1024 61 10000 2.6 110 15:20 15.01.2020
519 Clouds 23 1024 78 10000 1.5 90 14:45 15.01.2020
520 Clouds 23 1024 78 10000 1.5 90 14:21 15.01.2020
521 Clouds 23 1024 78 10000 2.1 90 13:56 15.01.2020
522 Clouds 23 1023 78 0 6.38 85 13:38 15.01.2020
523 Clouds 21 1023 82 10000 2.1 90 13:20 15.01.2020
524 Clouds 20 1023 82 10000 2.1 90 12:54 15.01.2020
525 Clouds 20 1023 82 10000 2.1 90 12:36 15.01.2020
526 Clouds 20 1023 82 10000 2.1 90 12:18 15.01.2020
527 Clouds 19 1023 82 10000 1.5 80 11:38 15.01.2020
528 Clouds 19 1023 82 10000 1.5 80 11:38 15.01.2020
529 Clouds 19 1023 82 10000 1.5 80 11:19 15.01.2020
530 Clouds 22 1023 68 10000 2.1 80 10:46 15.01.2020
531 Clouds 22 1023 68 10000 2.1 80 10:28 15.01.2020
532 Clouds 23 1022 71 0 6.51 75 09:55 15.01.2020
533 Clouds 23 1022 71 0 6.51 75 09:37 15.01.2020
534 Clouds 23 1022 71 0 6.51 75 09:19 15.01.2020
535 Clouds 23 1022 71 0 6.51 75 08:41 15.01.2020
536 Clouds 23 1022 71 0 6.51 75 08:41 15.01.2020
537 Clouds 23 1024 64 10000 2.6 80 08:23 15.01.2020
538 Clouds 23 1024 64 10000 2.6 80 07:53 15.01.2020
539 Clouds 22 1024 64 10000 2.6 80 07:32 15.01.2020
540 Clouds 22 1024 73 10000 1.5 70 06:47 15.01.2020
541 Clouds 22 1024 73 10000 1.5 70 06:21 15.01.2020
542 Clouds 23 1024 73 10000 3.1 90 04:45 15.01.2020
543 Clouds 23 1024 78 10000 3.1 90 02:39 15.01.2020
544 Clouds 23 1024 78 10000 4.1 90 01:28 15.01.2020
545 Clouds 24 1024 69 10000 3.1 100 00:47 15.01.2020
546 Clouds 24 1024 69 10000 3.1 100 00:27 15.01.2020
547 Clouds 24 1023 61 10000 6.2 130 23:57 14.01.2020
548 Clouds 24 1023 61 10000 6.2 130 23:38 14.01.2020
549 Clouds 24 1023 61 10000 6.2 130 23:19 14.01.2020
550 Clouds 26 1023 57 10000 5.7 130 22:41 14.01.2020
551 Clouds 25 1023 57 10000 5.7 130 22:19 14.01.2020
552 Clouds 26 1023 57 10000 7.2 130 21:58 14.01.2020
553 Clear 26 1022 66 0 1.79 170 21:40 14.01.2020
554 Clouds 26 1023 54 10000 7.7 130 21:21 14.01.2020
555 Clouds 26 1023 54 10000 7.7 130 21:21 14.01.2020
556 Clouds 26 1023 54 10000 7.7 130 20:59 14.01.2020
557 Clear 26 1022 68 0 1.79 70 20:40 14.01.2020
558 Clear 26 1022 67 0 1.79 53 20:20 14.01.2020
559 Clear 26 1022 65 0 2.24 123 19:56 14.01.2020
560 Clear 26 1022 64 0 1.79 123 19:37 14.01.2020
561 Clouds 26 1025 65 10000 7.7 130 19:18 14.01.2020
562 Clouds 26 1025 65 10000 7.7 130 18:55 14.01.2020
563 Clear 26 1023 68 0 1.79 74 18:37 14.01.2020
564 Clouds 26 1026 61 10000 7.7 120 18:18 14.01.2020
565 Clouds 26 1026 61 10000 7.7 120 17:38 14.01.2020
566 Clouds 26 1026 61 10000 7.7 120 17:19 14.01.2020
567 Clouds 26 1026 57 10000 8.2 120 16:55 14.01.2020
568 Clouds 26 1026 57 10000 8.2 120 16:37 14.01.2020
569 Clouds 26 1026 57 10000 8.2 120 16:18 14.01.2020
570 Clear 25 1026 69 10000 7.2 120 15:42 14.01.2020
571 Clear 25 1026 69 10000 7.2 120 15:19 14.01.2020
572 Clear 24 1026 73 10000 5.1 110 14:46 14.01.2020
573 Clear 24 1026 73 10000 5.1 110 14:23 14.01.2020
574 Clouds 23 1026 78 10000 4.6 110 13:59 14.01.2020
575 Clouds 23 1026 78 10000 4.6 110 13:40 14.01.2020
576 Clouds 23 1026 78 10000 4.6 110 13:19 14.01.2020
577 Clouds 23 1026 78 10000 4.6 110 13:19 14.01.2020
578 Clouds 23 1025 73 10000 4.1 110 12:42 14.01.2020
579 Clouds 23 1025 73 10000 4.1 110 12:22 14.01.2020
580 Clouds 23 1022 73 10000 4.6 120 11:56 14.01.2020
581 Clouds 23 1022 73 10000 4.6 120 11:37 14.01.2020
582 Clouds 23 1022 73 10000 4.6 120 11:37 14.01.2020
583 Clouds 23 1022 73 10000 4.6 120 11:19 14.01.2020
584 Clouds 24 1025 78 10000 4.6 120 10:41 14.01.2020
585 Clouds 24 1025 78 10000 4.6 120 10:20 14.01.2020
586 Clouds 23 1025 83 10000 5.1 120 09:59 14.01.2020
587 Clouds 23 1025 83 10000 5.1 120 09:40 14.01.2020
588 Clouds 23 1025 83 10000 5.1 120 09:21 14.01.2020
589 Clouds 24 1026 78 10000 4.6 120 08:56 14.01.2020
590 Clouds 24 1026 78 10000 4.6 120 08:38 14.01.2020
591 Clouds 24 1026 78 10000 4.6 120 08:19 14.01.2020
592 Clouds 24 1026 83 10000 4.6 110 07:37 14.01.2020
593 Clouds 24 1026 83 10000 3.6 110 06:57 14.01.2020
594 Clouds 23 1026 83 10000 3.6 110 06:39 14.01.2020
595 Clouds 24 1027 83 10000 4.1 100 05:33 14.01.2020
596 Rain 24 1027 88 10000 5.1 110 04:22 14.01.2020
597 Clouds 24 1026 83 10000 5.1 110 03:35 14.01.2020
598 Clouds 24 1026 83 10000 5.1 100 02:26 14.01.2020
599 Clouds 25 1026 78 10000 6.7 110 01:18 14.01.2020
600 Clouds 24 1026 78 10000 6.7 110 00:38 14.01.2020
601 Clouds 25 1025 74 10000 6.7 110 23:56 13.01.2020
602 Clouds 25 1025 74 10000 6.7 110 23:37 13.01.2020
603 Clouds 25 1025 74 10000 6.7 110 23:18 13.01.2020
604 Clouds 25 1025 74 10000 6.7 110 23:18 13.01.2020
605 Clouds 25 1025 74 10000 8.7 120 22:43 13.01.2020
606 Clouds 26 1025 74 10000 7.7 120 22:22 13.01.2020
607 Clouds 26 1025 74 10000 7.7 120 21:57 13.01.2020
608 Clouds 26 1025 74 10000 7.7 120 21:38 13.01.2020
609 Clouds 26 1025 74 10000 7.7 120 21:19 13.01.2020
610 Clouds 26 1025 74 10000 8.2 120 20:59 13.01.2020
611 Clouds 26 1025 74 10000 8.2 120 20:59 13.01.2020
612 Clouds 26 1025 74 10000 8.2 120 20:41 13.01.2020
613 Clouds 26 1025 74 10000 8.2 120 20:22 13.01.2020
614 -273 0 0 0 0 0 20:22 13.01.2020
615 Rain 26 1026 78 10000 6.7 120 19:59 13.01.2020
616 Rain 26 1026 78 10000 6.7 120 19:39 13.01.2020
617 Rain 25 1026 78 10000 6.7 120 19:20 13.01.2020
618 Rain 25 1026 78 10000 6.7 120 19:20 13.01.2020
619 Clouds 26 1027 74 10000 5.7 100 18:56 13.01.2020
620 Clouds 25 1027 74 10000 5.7 100 18:37 13.01.2020
621 Clouds 25 1027 74 10000 5.7 100 18:18 13.01.2020
622 Clouds 25 1028 74 10000 6.2 110 17:43 13.01.2020
623 Clouds 25 1028 74 10000 6.2 110 17:24 13.01.2020
624 Clouds 25 1028 74 10000 6.2 110 17:24 13.01.2020
625 Clouds 25 1028 73 10000 5.7 100 16:57 13.01.2020
626 Clouds 25 1027 78 0 2.24 33 16:38 13.01.2020
627 Clouds 25 1027 77 0 1.79 87 16:20 13.01.2020
628 Clouds 24 1027 78 0 2.68 39 15:44 13.01.2020
629 Clouds 25 1027 79 0 8.51 85 15:23 13.01.2020
630 Clouds 24 1027 78 0 1.34 73 14:58 13.01.2020
631 Clouds 24 1026 78 0 1.79 87 14:38 13.01.2020
632 Clear 24 1026 78 0 1.79 83 14:19 13.01.2020
633 Clear 23 1026 78 0 1.34 77 13:42 13.01.2020
634 Clear 23 1026 78 0 1.79 68 13:24 13.01.2020
635 Clear 25 1026 73 0 9.62 102 12:59 13.01.2020
636 Clear 25 1026 73 0 9.62 102 12:40 13.01.2020
637 Clouds 23 1025 83 10000 4.6 110 12:22 13.01.2020
638 Clouds 23 1025 83 10000 4.6 110 11:57 13.01.2020
639 Clouds 23 1025 83 10000 4.6 110 11:37 13.01.2020
640 Clouds 23 1025 83 10000 4.6 110 11:18 13.01.2020
641 Clouds 23 1025 83 10000 4.1 100 10:55 13.01.2020
642 Clouds 23 1025 83 10000 4.1 100 10:36 13.01.2020
643 Clouds 23 1025 83 10000 4.1 100 10:18 13.01.2020
644 Clouds 23 1025 83 10000 4.1 100 10:18 13.01.2020
645 Clouds 24 1025 83 10000 4.6 90 09:40 13.01.2020
646 Clouds 24 1025 83 10000 4.6 90 09:22 13.01.2020
647 Clouds 23 1025 88 10000 4.1 90 08:42 13.01.2020
648 Clouds 23 1025 88 10000 4.1 90 08:21 13.01.2020
649 Clouds 23 1026 88 10000 3.6 100 07:57 13.01.2020
650 Clouds 23 1026 88 10000 3.6 100 07:38 13.01.2020
651 Rain 25 1025 78 0 9.95 97 06:55 13.01.2020
652 Rain 25 1025 78 0 9.95 97 06:36 13.01.2020
653 Clouds 23 1026 88 10000 4.1 100 05:36 13.01.2020
654 Clouds 23 1026 83 10000 4.6 100 04:25 13.01.2020
655 Clouds 24 1026 83 10000 4.6 90 03:26 13.01.2020
656 Clouds 24 1026 78 10000 3.6 90 02:47 13.01.2020
657 Clouds 24 1026 78 10000 3.6 90 02:29 13.01.2020
658 Clear 25 1025 69 10000 6.2 120 01:22 13.01.2020
659 Clouds 25 1025 69 10000 6.2 120 01:22 13.01.2020
660 Clear 24 1025 69 10000 6.2 120 00:41 13.01.2020
661 Clear 24 1025 69 10000 6.2 120 00:23 13.01.2020
662 Clouds 25 1024 69 10000 7.7 120 23:54 12.01.2020
663 Clouds 25 1024 69 10000 7.7 120 23:36 12.01.2020
664 Clouds 25 1024 69 10000 7.7 120 23:18 12.01.2020
665 Clouds 26 1024 69 10000 7.2 130 22:42 12.01.2020
666 Clouds 26 1024 69 10000 7.2 130 22:23 12.01.2020
667 Clouds 26 1025 65 10000 7.7 120 21:57 12.01.2020
668 Clouds 26 1025 65 10000 7.7 120 21:38 12.01.2020
669 Clouds 26 1025 65 10000 7.7 120 21:19 12.01.2020
670 Clouds 26 1025 65 10000 7.7 130 20:56 12.01.2020
671 Clouds 26 1025 65 10000 7.7 130 20:38 12.01.2020
672 Clouds 27 1025 65 10000 7.7 130 20:20 12.01.2020
673 Clouds 27 1025 69 10000 7.7 120 19:56 12.01.2020
674 Rain 26 1024 78 0 1.79 164 19:37 12.01.2020
675 Clouds 27 1026 69 10000 8.7 120 19:18 12.01.2020
676 Clouds 27 1026 69 10000 8.7 120 18:57 12.01.2020
677 Clouds 27 1026 69 10000 8.7 120 18:39 12.01.2020
678 Clouds 27 1026 69 10000 8.7 120 18:21 12.01.2020
679 Clouds 27 1027 69 10000 7.7 120 17:42 12.01.2020
680 Clouds 27 1027 69 10000 7.7 120 17:23 12.01.2020
681 Clouds 26 1027 74 10000 9.3 110 16:59 12.01.2020
682 Clouds 26 1027 74 10000 9.3 110 16:39 12.01.2020
683 Clouds 26 1027 74 10000 9.3 110 16:20 12.01.2020
684 Clouds 25 1027 78 10000 7.2 120 15:56 12.01.2020
685 Clouds 25 1027 78 10000 7.2 120 15:38 12.01.2020
686 Clouds 25 1027 78 10000 7.2 120 15:20 12.01.2020
687 Clouds 25 1026 83 10000 6.7 110 14:42 12.01.2020
688 Clouds 24 1026 83 10000 6.7 110 14:23 12.01.2020
689 Clouds 24 1026 88 10000 5.7 120 13:57 12.01.2020
690 Clouds 24 1026 88 10000 5.7 120 13:57 12.01.2020
691 Clouds 24 1026 88 10000 5.7 120 13:39 12.01.2020
692 Clouds 24 1026 88 10000 5.7 120 13:20 12.01.2020
693 Clouds 24 1026 88 10000 5.7 120 13:20 12.01.2020
694 Rain 25 1025 82 0 10.73 103 12:56 12.01.2020
695 Rain 25 1025 82 0 10.73 103 12:37 12.01.2020
696 Rain 25 1025 82 0 10.73 103 12:19 12.01.2020
697 Rain 25 1025 82 0 10.73 103 11:42 12.01.2020
698 Rain 25 1025 82 0 10.73 103 11:22 12.01.2020
699 Rain 25 1023 83 0 9.57 113 10:56 12.01.2020
700 Rain 25 1023 83 0 9.57 113 10:37 12.01.2020
701 Rain 25 1023 83 0 9.57 113 10:19 12.01.2020
702 Rain 25 1023 83 0 9.57 113 09:42 12.01.2020
703 Clouds 24 1025 88 10000 5.1 140 09:23 12.01.2020
704 Clouds 24 1025 88 10000 5.1 140 08:48 12.01.2020
705 Clouds 24 1025 88 10000 5.1 140 08:24 12.01.2020
706 Clouds 24 1024 88 10000 6.2 140 07:47 12.01.2020
707 Clouds 24 1024 88 10000 6.2 140 07:26 12.01.2020
708 Clouds 24 1024 88 10000 6.2 140 07:26 12.01.2020
709 Clouds 24 1025 88 10000 6.7 130 06:59 12.01.2020
710 Clouds 24 1025 88 10000 6.7 130 06:59 12.01.2020
711 Clouds 24 1025 88 10000 6.7 130 06:59 12.01.2020
712 Clouds 24 1025 88 10000 6.7 130 06:36 12.01.2020
713 Clouds 25 1025 83 10000 7.2 140 05:52 12.01.2020
714 Clouds 25 1025 83 10000 5.1 130 04:56 12.01.2020
715 Rain 25 1025 83 10000 5.7 120 03:43 12.01.2020
716 Clouds 25 1025 83 10000 6.2 140 02:46 12.01.2020
717 Clouds 25 1025 83 10000 6.2 140 02:24 12.01.2020
718 Clouds 25 1024 83 10000 5.1 140 01:34 12.01.2020
719 Rain 25 1024 83 10000 6.2 130 00:46 12.01.2020
720 Rain 25 1024 83 10000 6.2 130 00:22 12.01.2020
721 Clouds 26 1023 78 10000 7.7 130 23:56 11.01.2020
722 Clouds 26 1023 78 10000 7.7 130 23:38 11.01.2020
723 Clouds 26 1023 78 10000 7.7 130 23:18 11.01.2020
724 Clouds 27 1023 69 10000 9.8 140 22:56 11.01.2020
725 Clouds 27 1023 69 10000 9.8 140 22:37 11.01.2020
726 Clouds 27 1023 69 10000 9.8 140 22:19 11.01.2020
727 Clouds 27 1023 74 10000 10.3 130 21:44 11.01.2020
728 Clouds 27 1023 74 10000 10.3 130 21:19 11.01.2020
729 Clouds 27 1023 74 10000 10.8 140 20:56 11.01.2020
730 Clouds 27 1023 74 10000 10.8 140 20:37 11.01.2020
731 Clouds 27 1023 74 10000 10.8 140 20:19 11.01.2020
732 Clouds 27 1024 74 10000 9.8 130 19:55 11.01.2020
733 Rain 25 1023 81 0 12.04 114 19:37 11.01.2020
734 Clouds 27 1025 74 10000 10.8 130 19:19 11.01.2020
735 Clouds 27 1025 74 10000 10.8 130 19:19 11.01.2020
736 Clouds 27 1025 74 10000 10.8 130 18:55 11.01.2020
737 Clouds 27 1025 74 10000 10.8 130 18:36 11.01.2020
738 Clouds 27 1025 74 10000 10.8 130 18:18 11.01.2020
739 Clouds 27 1025 74 10000 10.8 130 18:18 11.01.2020
740 Clouds 27 1026 74 10000 8.7 130 17:55 11.01.2020
741 Clouds 27 1026 74 10000 8.7 130 17:36 11.01.2020
742 Clouds 27 1026 74 10000 8.7 130 17:18 11.01.2020
743 Clouds 26 1026 74 10000 9.3 120 16:43 11.01.2020
744 Clouds 26 1026 74 10000 9.3 120 16:22 11.01.2020
745 Clouds 25 1026 78 10000 7.2 130 15:42 11.01.2020
746 Clouds 25 1026 78 10000 7.2 130 15:24 11.01.2020
747 Clouds 24 1025 83 10000 6.7 120 14:58 11.01.2020
748 Clouds 24 1025 83 10000 6.7 120 14:40 11.01.2020
749 Clouds 24 1025 83 10000 6.7 120 14:22 11.01.2020
750 Rain 23 1025 88 10000 7.2 120 13:55 11.01.2020
751 Rain 23 1025 88 10000 7.2 120 13:55 11.01.2020
752 Clear 25 1024 80 0 12.73 104 13:36 11.01.2020
753 Clouds 24 1024 83 10000 7.2 120 13:18 11.01.2020
754 Clouds 24 1024 83 10000 7.2 120 12:42 11.01.2020
755 Clouds 24 1024 83 10000 7.2 120 12:24 11.01.2020
756 Clouds 24 1024 83 10000 7.2 120 11:49 11.01.2020
757 Clouds 24 1024 83 10000 7.2 120 11:28 11.01.2020
758 Clouds 24 1024 83 10000 7.2 120 10:59 11.01.2020
759 Clouds 24 1024 83 10000 7.2 120 10:40 11.01.2020
760 Clouds 24 1024 83 10000 7.2 120 10:40 11.01.2020
761 Clouds 24 1024 83 10000 7.2 120 10:22 11.01.2020
762 Rain 25 1023 81 0 12.9 104 09:39 11.01.2020
763 Rain 25 1023 81 0 12.9 104 09:21 11.01.2020
764 Rain 25 1023 81 0 12.9 104 08:42 11.01.2020
765 Clouds 24 1025 83 10000 7.7 110 08:22 11.01.2020
766 Clouds 24 1025 83 10000 7.7 110 07:44 11.01.2020
767 Clouds 24 1025 83 10000 7.7 110 07:26 11.01.2020
768 Clouds 24 1025 83 10000 7.7 110 06:52 11.01.2020
769 Clouds 24 1025 83 10000 7.7 110 06:52 11.01.2020
770 Clouds 23 1024 88 10000 7.2 110 05:50 11.01.2020
771 Clouds 24 1026 83 10000 7.7 100 04:47 11.01.2020
772 Clouds 24 1026 83 10000 7.7 100 04:29 11.01.2020
773 Rain 23 1025 71 0 3.13 86 02:58 11.01.2020
774 Rain 23 1025 70 0 3.13 72 02:38 11.01.2020
775 Clouds 24 1025 83 10000 7.2 110 01:43 11.01.2020
776 Clouds 24 1025 83 10000 7.2 110 01:20 11.01.2020
777 Clouds 24 1025 83 10000 8.2 100 00:40 11.01.2020
778 Clouds 24 1025 78 10000 7.2 100 23:59 10.01.2020
779 Clouds 24 1025 78 10000 7.2 100 23:40 10.01.2020
780 Clouds 24 1025 78 10000 7.2 100 23:21 10.01.2020
781 Clouds 24 1024 73 10000 8.2 100 22:57 10.01.2020
782 Rain 23 1024 75 0 3.58 116 22:39 10.01.2020
783 Clouds 24 1024 73 10000 8.7 110 22:20 10.01.2020
784 Clouds 24 1024 73 10000 8.7 110 21:56 10.01.2020
785 Clouds 24 1024 73 10000 8.7 110 21:36 10.01.2020
786 Clouds 24 1024 73 10000 8.7 110 21:18 10.01.2020
787 Clouds 25 1024 69 10000 10.3 110 20:43 10.01.2020
788 Clouds 25 1024 69 10000 10.3 110 20:24 10.01.2020
789 Clouds 25 1024 69 10000 10.3 110 20:24 10.01.2020
790 Clouds 25 1025 73 10000 9.3 110 19:55 10.01.2020
791 Clouds 25 1025 73 10000 9.3 110 19:37 10.01.2020
792 Clouds 25 1025 73 10000 9.3 110 19:19 10.01.2020
793 Clouds 24 1026 73 10000 10.3 100 18:41 10.01.2020
794 Clouds 25 1026 73 10000 10.3 100 18:19 10.01.2020
795 Clouds 25 1026 73 10000 10.3 100 18:19 10.01.2020
796 Clouds 24 1027 69 10000 8.7 100 17:57 10.01.2020
797 Clouds 25 1027 69 10000 8.7 100 17:38 10.01.2020
798 Clouds 25 1027 69 10000 8.7 100 17:20 10.01.2020
799 Clouds 25 1027 69 10000 8.7 100 17:20 10.01.2020
800 Clouds 25 1027 69 10000 8.7 100 17:20 10.01.2020
801 Clouds 24 1028 69 10000 8.7 100 16:55 10.01.2020
802 Clouds 24 1028 69 10000 8.7 100 16:37 10.01.2020
803 Clouds 24 1028 69 10000 8.7 100 16:19 10.01.2020
804 Clouds 24 1027 73 10000 8.2 100 15:55 10.01.2020
805 Clouds 24 1027 73 10000 8.2 100 15:36 10.01.2020
806 Clouds 24 1027 73 10000 8.2 100 15:36 10.01.2020
807 Clouds 24 1027 73 10000 8.2 100 15:18 10.01.2020
808 Clouds 24 1027 73 10000 8.2 100 15:18 10.01.2020
809 Clouds 24 1027 69 10000 8.2 100 14:42 10.01.2020
810 Clouds 23 1026 73 10000 4.6 100 14:20 10.01.2020
811 Clouds 23 1026 73 10000 4.6 100 13:59 10.01.2020
812 Clouds 23 1026 73 10000 4.6 100 13:41 10.01.2020
813 Clouds 23 1026 73 10000 8.2 100 13:23 10.01.2020
814 Clouds 23 1026 73 10000 8.2 100 12:58 10.01.2020
815 Clouds 23 1026 73 10000 8.2 100 12:38 10.01.2020
816 Clouds 23 1026 73 10000 8.2 100 12:19 10.01.2020
817 Clouds 23 1026 73 10000 9.3 100 11:54 10.01.2020
818 Clouds 24 1026 77 0 14 84 11:36 10.01.2020
819 Clouds 23 1026 78 10000 7.2 90 11:18 10.01.2020
820 Clouds 23 1026 78 10000 7.2 90 10:42 10.01.2020
821 Clouds 23 1026 78 10000 7.2 90 10:24 10.01.2020
822 Clouds 24 1025 79 0 13.66 82 09:56 10.01.2020
823 Clouds 24 1025 79 0 13.66 82 09:37 10.01.2020
824 Clouds 23 1027 73 10000 7.7 100 09:19 10.01.2020
825 Clouds 23 1027 73 10000 7.7 100 08:41 10.01.2020
826 Clouds 23 1027 73 10000 7.7 100 08:22 10.01.2020
827 Clouds 23 1027 73 10000 8.2 90 07:44 10.01.2020
828 Clouds 23 1027 73 10000 8.2 90 07:23 10.01.2020
829 Clouds 23 1027 78 10000 7.2 100 06:45 10.01.2020
830 Clouds 23 1027 78 10000 7.2 100 06:25 10.01.2020
831 Clouds 23 1028 78 10000 7.2 90 05:46 10.01.2020
832 Clouds 23 1028 73 10000 8.2 100 03:35 10.01.2020
833 Clouds 23 1028 73 10000 9.3 90 02:59 10.01.2020
834 Clouds 23 1028 73 10000 9.3 90 02:38 10.01.2020
835 Clouds 23 1027 73 10000 8.2 100 01:38 10.01.2020
836 Clouds 23 1027 69 10000 8.2 100 00:58 10.01.2020
837 Clouds 23 1027 69 10000 8.2 100 00:38 10.01.2020
838 Clouds 23 1027 73 10000 9.3 100 23:57 09.01.2020
839 Clouds 23 1027 73 10000 9.3 100 23:38 09.01.2020
840 Clouds 23 1027 73 10000 9.3 100 23:38 09.01.2020
841 Clouds 23 1027 73 10000 9.3 100 23:38 09.01.2020
842 Clouds 23 1027 73 10000 9.3 100 23:19 09.01.2020
843 Clouds 23 1027 69 10000 8.7 90 22:57 09.01.2020
844 Clouds 23 1027 69 10000 8.7 90 22:37 09.01.2020
845 Clouds 23 1027 69 10000 8.7 90 22:18 09.01.2020
846 Clouds 23 1027 64 10000 9.3 100 21:56 09.01.2020
847 Clouds 23 1027 64 10000 9.3 100 21:37 09.01.2020
848 Clouds 23 1027 64 10000 9.3 100 21:37 09.01.2020
849 Clouds 23 1027 64 10000 9.3 100 21:37 09.01.2020
850 Clouds 23 1027 64 10000 9.3 100 21:37 09.01.2020
851 Clouds 23 1027 64 10000 9.3 100 21:18 09.01.2020
852 Clouds 23 1027 60 10000 10.8 100 20:55 09.01.2020
853 Clouds 24 1027 60 10000 10.8 100 20:37 09.01.2020
854 Clouds 24 1027 60 10000 10.3 100 20:19 09.01.2020
855 Clouds 24 1027 60 10000 10.3 100 19:39 09.01.2020
856 Clouds 24 1028 60 10000 9.3 90 19:21 09.01.2020
857 Clouds 24 1028 60 10000 9.3 90 18:59 09.01.2020
858 Clouds 24 1028 60 10000 9.3 90 18:40 09.01.2020
859 Clouds 24 1028 60 10000 9.3 90 18:21 09.01.2020
860 Clouds 24 1028 57 10000 9.3 90 17:57 09.01.2020
861 Clouds 24 1028 57 10000 9.3 90 17:39 09.01.2020
862 Clouds 24 1029 60 10000 8.7 90 17:18 09.01.2020
863 Clouds 24 1029 60 10000 8.7 90 16:42 09.01.2020
864 Clouds 24 1029 60 10000 8.7 90 16:21 09.01.2020
865 Clouds 24 1028 57 10000 8.7 100 15:43 09.01.2020
866 Clouds 24 1028 57 10000 8.7 100 15:23 09.01.2020
867 Clouds 23 1028 60 10000 7.2 100 14:59 09.01.2020
868 Clouds 23 1028 60 10000 7.2 100 14:41 09.01.2020
869 Clouds 23 1028 60 10000 7.2 100 14:19 09.01.2020
870 Clouds 23 1027 60 10000 6.2 90 13:55 09.01.2020
871 Clouds 23 1027 60 10000 6.2 90 13:37 09.01.2020
872 Clouds 23 1027 60 10000 6.2 90 13:19 09.01.2020
873 Clouds 23 1027 56 10000 6.7 90 12:56 09.01.2020
874 Clouds 23 1027 56 10000 6.7 90 12:56 09.01.2020
875 Clouds 23 1027 56 10000 6.7 90 12:38 09.01.2020
876 Clouds 23 1027 56 10000 6.7 90 12:18 09.01.2020
877 Rain 23 1027 73 0 12.87 75 11:42 09.01.2020
878 Clouds 23 1026 64 10000 6.7 90 11:24 09.01.2020
879 Clouds 23 1026 64 10000 6.7 90 11:24 09.01.2020
880 Clouds 23 1026 64 10000 6.7 90 10:58 09.01.2020
881 Clouds 23 1026 64 10000 6.7 90 10:39 09.01.2020
882 Clouds 23 1026 64 10000 6.7 90 10:21 09.01.2020
883 Clouds 23 1026 64 10000 7.2 80 09:45 09.01.2020
884 Rain 23 1025 73 0 11.78 75 09:23 09.01.2020
885 Rain 23 1025 73 0 11.78 75 09:23 09.01.2020
886 Rain 23 1025 73 0 11.78 75 08:57 09.01.2020
887 Rain 23 1025 73 0 11.78 75 08:38 09.01.2020
888 Clouds 22 1026 64 10000 4.1 110 08:20 09.01.2020
889 Clouds 22 1026 64 10000 4.1 110 07:46 09.01.2020
890 Clouds 22 1027 64 10000 4.1 110 07:28 09.01.2020
891 Clouds 22 1027 64 10000 4.1 110 06:40 09.01.2020
892 Clouds 22 1027 64 10000 4.1 110 06:21 09.01.2020
893 Clouds 22 1027 64 10000 3.6 110 05:51 09.01.2020
894 Clouds 22 1027 60 10000 3.6 100 04:54 09.01.2020
895 Clouds 22 1027 60 10000 3.6 100 04:36 09.01.2020
896 Clouds 23 1027 53 10000 4.6 80 03:26 09.01.2020
897 Clouds 23 1026 53 10000 4.6 80 02:46 09.01.2020
898 Clouds 23 1026 53 10000 4.1 80 01:41 09.01.2020
899 Clouds 23 1025 56 10000 4.1 80 00:56 09.01.2020
900 Clouds 23 1025 56 10000 4.1 80 00:36 09.01.2020
901 Clouds 23 1025 56 10000 4.1 80 00:18 09.01.2020
902 Clouds 23 1025 50 10000 5.1 70 23:39 08.01.2020
903 Clouds 23 1025 50 10000 5.1 70 23:20 08.01.2020
904 Clouds 24 1024 47 10000 5.7 60 22:40 08.01.2020
905 Clouds 24 1024 50 10000 6.2 70 22:21 08.01.2020
906 Clouds 24 1024 50 10000 6.2 70 21:58 08.01.2020
907 Clouds 24 1024 50 10000 6.2 70 21:40 08.01.2020
908 Clouds 24 1024 50 10000 6.2 70 21:20 08.01.2020
909 Clouds 24 1024 50 10000 6.2 60 20:58 08.01.2020
910 Clouds 24 1024 50 10000 6.2 60 20:40 08.01.2020
911 Clouds 24 1024 50 10000 6.2 60 20:20 08.01.2020
912 Clouds 24 1024 50 10000 6.2 60 20:20 08.01.2020
913 Clouds 24 1025 47 10000 6.2 60 19:57 08.01.2020
914 Clouds 24 1025 47 10000 6.2 60 19:37 08.01.2020
915 Clouds 24 1025 47 10000 6.2 60 19:19 08.01.2020
916 Clouds 24 1025 47 10000 6.2 60 18:56 08.01.2020
917 Clouds 24 1025 47 10000 6.2 60 18:37 08.01.2020
918 Clouds 24 1025 47 10000 6.2 60 18:18 08.01.2020
919 Clouds 24 1026 50 10000 5.7 50 17:56 08.01.2020
920 Clouds 24 1026 50 10000 5.7 50 17:37 08.01.2020
921 Clouds 24 1026 50 10000 5.7 50 17:18 08.01.2020
922 Clouds 24 1026 50 10000 5.7 50 17:18 08.01.2020
923 Clouds 23 1026 49 10000 6.2 40 16:54 08.01.2020
924 Clouds 23 1026 49 10000 6.2 40 16:36 08.01.2020
925 Clear 23 1025 66 0 4.47 50 16:18 08.01.2020
926 Clear 22 1025 65 0 5.36 43 15:40 08.01.2020
927 Clouds 22 1025 56 10000 6.7 10 15:20 08.01.2020
928 Clouds 22 1025 56 10000 6.7 10 14:56 08.01.2020
929 Clouds 22 1025 56 10000 6.7 10 14:38 08.01.2020
930 Clouds 22 1025 56 10000 6.7 10 14:19 08.01.2020
931 Clouds 22 1024 60 10000 5.1 30 13:40 08.01.2020
932 Clouds 22 1024 60 10000 5.1 30 13:19 08.01.2020
933 Clouds 22 1024 64 10000 4.6 20 12:42 08.01.2020
934 Clouds 22 1024 64 10000 4.6 20 12:19 08.01.2020
935 Clouds 22 1023 64 10000 4.1 40 11:55 08.01.2020
936 Clouds 22 1023 64 10000 4.1 40 11:55 08.01.2020
937 Clouds 22 1023 64 10000 4.1 40 11:37 08.01.2020
938 Clouds 22 1023 64 10000 4.1 40 11:19 08.01.2020
939 Clouds 22 1023 64 10000 3.6 40 10:55 08.01.2020
940 Clouds 22 1023 64 10000 3.6 40 10:37 08.01.2020
941 Clouds 22 1023 64 10000 3.6 40 10:18 08.01.2020
942 Clouds 22 1023 64 10000 4.6 30 09:41 08.01.2020
943 Clouds 22 1023 64 10000 4.6 30 09:19 08.01.2020
944 Clouds 22 1023 64 10000 3.6 30 08:56 08.01.2020
945 Clouds 22 1023 64 10000 3.6 30 08:37 08.01.2020
946 Clouds 22 1023 64 10000 3.6 30 08:18 08.01.2020
947 Clouds 22 1023 64 10000 3.6 30 07:47 08.01.2020
948 Clouds 22 1023 64 10000 3.6 30 07:29 08.01.2020
949 Clouds 22 1023 68 10000 3.1 20 06:44 08.01.2020
950 Clouds 22 1023 64 10000 2.6 20 05:59 08.01.2020
951 Clouds 22 1023 64 10000 2.6 20 05:38 08.01.2020
952 Clouds 22 1023 60 10000 2.1 30 04:54 08.01.2020
953 Clouds 22 1022 60 10000 1.5 40 03:33 08.01.2020
954 Clouds 22 1022 60 10000 2.1 10 02:44 08.01.2020
955 Clouds 22 1022 60 10000 2.1 10 02:19 08.01.2020
956 Clouds 22 1022 60 10000 2.6 360 01:40 08.01.2020
957 Clouds 23 1021 56 10000 2.1 20 00:54 08.01.2020
958 Clouds 23 1021 56 10000 2.1 20 00:26 08.01.2020
959 Clouds 23 1021 56 10000 2.6 30 23:47 07.01.2020
960 Clouds 23 1021 56 10000 2.6 30 23:22 07.01.2020
961 Clouds 23 1021 53 10000 3.1 20 22:58 07.01.2020
962 Clouds 24 1021 53 10000 3.1 20 22:39 07.01.2020
963 Clouds 24 1021 53 10000 3.1 20 22:19 07.01.2020
964 Clouds 24 1020 53 10000 4.1 11 21:54 07.01.2020
965 Clouds 24 1020 53 10000 4.1 11 21:36 07.01.2020
966 Clouds 24 1020 53 10000 4.1 11 21:36 07.01.2020
967 Clouds 24 1020 53 10000 4.1 11 21:18 07.01.2020
968 Clouds 24 1020 53 10000 3.6 30 20:42 07.01.2020
969 Clouds 24 1020 53 10000 3.6 30 20:23 07.01.2020
970 Clouds 24 1021 53 10000 3.6 60 19:59 07.01.2020
971 Clouds 24 1021 53 10000 3.6 60 19:38 07.01.2020
972 Clouds 24 1021 53 10000 3.6 110 19:19 07.01.2020
973 Clouds 24 1021 53 10000 3.6 110 18:57 07.01.2020
974 Clouds 24 1021 53 10000 3.6 110 18:38 07.01.2020
975 Clouds 24 1023 53 10000 2.6 70 18:18 07.01.2020
976 Clouds 24 1023 53 10000 2.6 70 17:57 07.01.2020
977 Clouds 24 1023 53 10000 2.6 70 17:37 07.01.2020
978 Clouds 24 1023 53 10000 2.6 70 17:19 07.01.2020
979 Clouds 23 1023 56 10000 2.6 100 16:55 07.01.2020
980 Clouds 23 1023 56 10000 2.6 100 16:37 07.01.2020
981 Clouds 22 1022 64 10000 1.5 100 16:18 07.01.2020
982 Clouds 22 1022 64 10000 1.5 100 15:43 07.01.2020
983 Clouds 20 1022 82 10000 0.5 0 15:24 07.01.2020
984 Clouds 20 1022 82 10000 0.5 0 14:58 07.01.2020
985 Clouds 20 1022 82 10000 0.5 0 14:40 07.01.2020
986 Clouds 20 1022 82 10000 0.5 0 14:21 07.01.2020
987 Clouds 20 1021 77 10000 1 0 13:46 07.01.2020
988 Clouds 18 1021 77 10000 1 0 13:21 07.01.2020
989 Clouds 21 1020 64 10000 2.1 100 12:56 07.01.2020
990 Clouds 21 1020 64 10000 2.1 100 12:38 07.01.2020
991 Clouds 19 1020 77 10000 1 0 12:19 07.01.2020
992 Clouds 19 1020 77 10000 1 0 11:42 07.01.2020
993 Clouds 22 1020 60 0 3.72 90 11:23 07.01.2020
994 Clouds 22 1020 62 0 5.84 86 10:57 07.01.2020
995 Clouds 22 1020 62 0 5.84 86 10:39 07.01.2020
996 Clouds 22 1020 62 0 5.84 86 10:39 07.01.2020
997 Clouds 22 1020 62 0 5.84 86 10:21 07.01.2020
998 Clouds 22 1020 62 0 5.84 86 09:39 07.01.2020
999 Clouds 22 1020 62 0 5.84 86 09:21 07.01.2020
1000 Clouds 22 1020 62 0 5.84 86 09:21 07.01.2020
1001 Clouds 22 1020 62 0 5.84 86 08:57 07.01.2020
1002 Clouds 22 1020 62 0 5.84 86 08:38 07.01.2020
1003 Clouds 22 1021 61 0 5.48 81 08:18 07.01.2020
1004 Clouds 22 1021 61 0 5.48 81 07:42 07.01.2020
1005 Clouds 20 1021 60 10000 2.6 90 07:18 07.01.2020
1006 Clouds 20 1021 60 10000 2.6 90 06:36 07.01.2020
1007 Clouds 21 1022 60 10000 3.1 120 05:59 07.01.2020
1008 Clouds 21 1022 60 10000 3.1 120 05:40 07.01.2020
1009 Clouds 21 1022 56 10000 2.1 80 03:46 07.01.2020
1010 Clouds 21 1022 56 10000 2.1 80 03:24 07.01.2020
1011 Clouds 22 1022 56 10000 3.6 90 02:18 07.01.2020
1012 Clouds 22 1021 60 10000 3.6 90 01:36 07.01.2020
1013 Clouds 22 1021 53 10000 2.6 90 00:55 07.01.2020
1014 Clouds 22 1021 53 10000 2.6 90 00:20 07.01.2020
1015 Clouds 22 1021 49 10000 4.1 70 23:56 06.01.2020
1016 Clouds 22 1021 49 10000 4.1 70 23:37 06.01.2020
1017 Clouds 22 1021 49 10000 4.1 70 23:19 06.01.2020
1018 Clouds 22 1021 53 10000 4.1 60 22:43 06.01.2020
1019 Clouds 22 1021 53 10000 4.1 60 22:24 06.01.2020
1020 Clouds 22 1021 53 10000 4.1 60 22:24 06.01.2020
1021 Clouds 22 1020 53 10000 4.1 50 21:58 06.01.2020
1022 Clouds 22 1020 53 10000 4.1 50 21:39 06.01.2020
1023 Clouds 22 1020 53 10000 4.1 50 21:20 06.01.2020
1024 Clouds 22 1020 53 10000 4.1 50 21:20 06.01.2020
1025 Clouds 22 1020 53 10000 4.1 50 21:20 06.01.2020
1026 Clouds 22 1021 49 10000 4.1 40 20:57 06.01.2020
1027 Clouds 22 1021 49 10000 4.1 40 20:38 06.01.2020
1028 Clouds 22 1021 49 10000 4.1 40 20:38 06.01.2020
1029 Clouds 22 1021 49 10000 4.1 40 20:20 06.01.2020
1030 Clouds 23 1021 49 10000 4.6 50 19:56 06.01.2020
1031 Clouds 22 1021 49 10000 4.6 50 19:38 06.01.2020
1032 Clouds 23 1021 49 10000 4.6 50 19:20 06.01.2020
1033 Clouds 22 1022 53 10000 4.6 40 18:48 06.01.2020
1034 Clouds 22 1022 53 10000 4.6 40 18:22 06.01.2020
1035 Clouds 22 1023 46 10000 5.1 60 17:58 06.01.2020
1036 Clouds 22 1023 46 10000 5.1 60 17:38 06.01.2020
1037 Clouds 22 1023 46 10000 5.1 60 17:18 06.01.2020
1038 Clouds 22 1023 49 10000 4.6 100 16:44 06.01.2020
1039 Clouds 22 1023 49 10000 4.6 100 16:25 06.01.2020
1040 Clouds 22 1023 53 10000 3.1 90 15:59 06.01.2020
1041 Clouds 22 1023 53 10000 3.1 90 15:39 06.01.2020
1042 Clouds 21 1022 56 10000 3.6 90 15:18 06.01.2020
1043 Clouds 21 1022 56 10000 3.6 90 14:56 06.01.2020
1044 Clouds 21 1022 56 10000 3.6 90 14:37 06.01.2020
1045 Clouds 20 1022 60 10000 2.6 60 14:18 06.01.2020
1046 Clouds 20 1022 60 10000 2.6 60 14:18 06.01.2020
1047 Clouds 20 1022 60 10000 2.6 60 13:41 06.01.2020
1048 Clouds 20 1022 60 10000 2.6 60 13:22 06.01.2020
1049 Clouds 20 1021 64 10000 3.6 50 12:59 06.01.2020
1050 Clouds 20 1021 64 10000 3.6 50 12:41 06.01.2020
1051 Clouds 20 1021 64 10000 3.6 50 12:20 06.01.2020
1052 Clouds 20 1021 64 10000 3.6 50 12:20 06.01.2020
1053 Clouds 20 1021 64 10000 3.6 50 12:20 06.01.2020
1054 Clouds 20 1021 64 10000 5.1 40 11:55 06.01.2020
1055 Clouds 20 1021 64 10000 5.1 40 11:37 06.01.2020
1056 Clouds 20 1021 64 10000 5.1 40 11:19 06.01.2020
1057 Clouds 20 1021 60 10000 4.6 50 10:42 06.01.2020
1058 Rain 21 1021 68 0 7.2 30 10:21 06.01.2020
1059 Rain 21 1021 68 0 7.2 30 09:42 06.01.2020
1060 Rain 21 1021 68 0 7.2 30 09:24 06.01.2020
1061 Rain 21 1021 68 0 7.2 30 08:58 06.01.2020
1062 Rain 21 1021 68 0 7.2 30 08:38 06.01.2020
1063 Clouds 20 1022 64 10000 6.7 40 08:19 06.01.2020
1064 Clouds 20 1022 64 10000 6.7 40 07:44 06.01.2020
1065 Clouds 20 1022 64 10000 6.2 50 06:53 06.01.2020
1066 Clouds 20 1022 64 10000 6.2 50 06:35 06.01.2020
1067 Clouds 20 1023 60 10000 7.2 60 05:48 06.01.2020
1068 Clouds 20 1023 60 10000 7.2 60 05:23 06.01.2020
1069 Clouds 20 1023 56 10000 6.7 30 04:23 06.01.2020
1070 Clouds 20 1022 67 0 4.47 23 03:30 06.01.2020
1071 Clouds 21 1021 67 0 5.81 12 02:27 06.01.2020
1072 Clouds 21 1021 68 0 5.81 28 01:53 06.01.2020
1073 Clouds 20 1022 56 10000 5.7 30 01:30 06.01.2020
1074 Clouds 20 1022 56 10000 5.7 30 00:46 06.01.2020
1075 Clouds 20 1021 60 10000 6.2 30 00:27 06.01.2020
1076 Clouds 20 1021 60 10000 6.2 30 23:57 05.01.2020
1077 Clouds 20 1021 60 10000 6.2 30 23:38 05.01.2020
1078 Clouds 21 1021 56 10000 7.2 20 23:19 05.01.2020
1079 Clouds 21 1021 56 10000 7.2 20 22:40 05.01.2020
1080 Clouds 21 1021 53 10000 7.2 20 22:20 05.01.2020
1081 Clouds 21 1021 53 10000 7.2 20 22:20 05.01.2020
1082 Clouds 22 1021 53 10000 7.2 20 21:56 05.01.2020
1083 Clouds 22 1021 53 10000 7.2 20 21:38 05.01.2020
1084 Clouds 22 1021 53 10000 7.2 20 21:20 05.01.2020
1085 Clouds 22 1021 49 10000 9.3 10 20:56 05.01.2020
1086 Clouds 22 1021 49 10000 9.3 10 20:38 05.01.2020
1087 Clouds 22 1021 49 10000 9.3 10 20:19 05.01.2020
1088 Clouds 22 1021 53 10000 9.8 10 19:57 05.01.2020
1089 Clouds 22 1021 53 10000 9.8 10 19:38 05.01.2020
1090 Clouds 22 1021 53 10000 9.8 10 19:19 05.01.2020
1091 Clouds 22 1022 49 10000 9.8 10 18:55 05.01.2020
1092 Clouds 22 1022 49 10000 9.8 10 18:36 05.01.2020
1093 Clouds 22 1022 49 10000 9.8 10 18:18 05.01.2020
1094 Clouds 22 1023 53 10000 8.7 10 17:57 05.01.2020
1095 Clouds 22 1023 53 10000 8.7 10 17:37 05.01.2020
1096 Clouds 22 1023 53 10000 8.7 10 17:19 05.01.2020
1097 Clouds 22 1023 56 10000 7.7 360 16:55 05.01.2020
1098 Clouds 22 1023 56 10000 7.7 360 16:36 05.01.2020
1099 Clouds 22 1022 60 10000 8.2 360 16:18 05.01.2020
1100 Clouds 22 1022 60 10000 8.2 360 15:36 05.01.2020
1101 Clouds 22 1022 60 10000 8.2 360 15:36 05.01.2020
1102 Clouds 22 1022 60 10000 8.2 360 15:18 05.01.2020
1103 Clouds 22 1022 64 10000 7.7 360 14:54 05.01.2020
1104 Clouds 22 1022 64 10000 7.7 360 14:36 05.01.2020
1105 Clouds 22 1022 64 10000 7.7 360 14:18 05.01.2020
1106 Clouds 22 1021 64 10000 8.2 340 13:39 05.01.2020
1107 Clouds 22 1021 64 10000 8.2 340 13:21 05.01.2020
1108 Clouds 23 1021 64 10000 8.2 340 12:57 05.01.2020
1109 Clouds 23 1021 64 10000 8.2 340 12:39 05.01.2020
1110 Clouds 23 1021 64 10000 8.2 340 12:39 05.01.2020
1111 Clouds 23 1021 64 10000 8.2 340 12:39 05.01.2020
1112 Clouds 23 1021 64 10000 8.2 340 12:21 05.01.2020
1113 Clouds 23 1021 64 10000 8.2 340 12:21 05.01.2020
1114 Clouds 23 1020 69 10000 9.8 340 11:55 05.01.2020
1115 Clouds 23 1020 69 10000 9.8 340 11:37 05.01.2020
1116 Clouds 23 1020 69 10000 9.8 340 11:19 05.01.2020
1117 Rain 23 1019 80 0 12.8 329 10:42 05.01.2020
1118 Rain 23 1019 80 0 12.8 329 10:20 05.01.2020
1119 Rain 23 1019 80 0 12.8 329 09:59 05.01.2020
1120 Rain 23 1019 80 0 12.8 329 09:41 05.01.2020
1121 Rain 23 1019 80 0 12.8 329 09:41 05.01.2020
1122 Rain 23 1019 80 0 12.8 329 09:41 05.01.2020
1123 Clouds 25 1020 83 10000 5.7 290 09:21 05.01.2020
1124 Clouds 25 1020 83 10000 5.7 290 08:45 05.01.2020
1125 Clouds 25 1020 83 10000 5.7 290 08:26 05.01.2020
1126 Clouds 24 1020 88 10000 3.6 260 07:55 05.01.2020
1127 Clouds 24 1020 88 10000 3.6 260 07:32 05.01.2020
1128 Clouds 24 1020 94 10000 3.1 240 06:57 05.01.2020
1129 Clouds 24 1020 94 10000 3.1 230 05:53 05.01.2020
1130 Clouds 24 1020 88 10000 2.6 240 04:57 05.01.2020
1131 Clouds 24 1020 88 10000 2.6 240 04:19 05.01.2020
1132 Clouds 24 1019 88 10000 2.6 230 03:45 05.01.2020
1133 Clouds 24 1019 57 0 0.45 222 02:41 05.01.2020
1134 Clouds 25 1019 83 10000 2.1 260 02:19 05.01.2020
1135 Clouds 25 1019 83 10000 2.1 260 01:36 05.01.2020
1136 Clouds 25 1019 83 10000 2.1 260 01:18 05.01.2020
1137 Clouds 25 1019 83 10000 2.1 230 00:39 05.01.2020
1138 Clouds 25 1019 83 10000 2.1 230 00:20 05.01.2020
1139 Clouds 26 1018 74 10000 4.1 210 23:57 04.01.2020
1140 Clouds 26 1018 74 10000 4.1 210 23:38 04.01.2020
1141 Clouds 26 1018 74 10000 4.1 210 23:18 04.01.2020
1142 Clouds 27 1018 74 10000 5.7 190 22:39 04.01.2020
1143 Clouds 28 1018 74 10000 5.7 190 22:20 04.01.2020
1144 Clouds 28 1018 74 10000 5.1 200 21:56 04.01.2020
1145 Clouds 28 1018 74 10000 5.1 200 21:37 04.01.2020
1146 Clouds 28 1018 74 10000 5.1 200 21:19 04.01.2020
1147 Clouds 28 1018 69 10000 5.1 210 20:55 04.01.2020
1148 Clouds 28 1018 69 10000 5.1 210 20:36 04.01.2020
1149 Clouds 28 1018 69 10000 5.1 210 20:18 04.01.2020
1150 Clouds 27 1019 78 10000 6.2 210 19:41 04.01.2020
1151 Clouds 28 1020 69 10000 5.7 220 19:23 04.01.2020
1152 Clouds 28 1020 69 10000 5.7 220 18:58 04.01.2020
1153 Clouds 28 1020 69 10000 5.7 220 18:38 04.01.2020
1154 Clouds 28 1021 74 10000 6.2 200 18:20 04.01.2020
1155 Clouds 28 1021 74 10000 6.2 200 17:55 04.01.2020
1156 Clouds 28 1021 74 10000 6.2 200 17:37 04.01.2020
1157 Clouds 28 1021 74 10000 6.2 200 17:18 04.01.2020
1158 Clouds 27 1021 78 10000 5.1 190 16:41 04.01.2020
1159 Clouds 26 1021 78 10000 5.1 190 16:23 04.01.2020
1160 Clouds 26 1021 83 10000 5.1 180 15:57 04.01.2020
1161 Clouds 26 1021 83 10000 5.1 180 15:38 04.01.2020
1162 Clouds 25 1020 94 10000 3.6 170 15:19 04.01.2020
1163 Clouds 25 1020 94 10000 3.6 170 14:55 04.01.2020
1164 Clouds 25 1020 94 10000 3.6 170 14:55 04.01.2020
1165 Clouds 25 1020 94 10000 3.6 170 14:36 04.01.2020
1166 Clouds 23 1020 100 10000 3.1 160 14:18 04.01.2020
1167 Clouds 23 1020 100 10000 3.1 160 13:39 04.01.2020
1168 Clouds 22 1020 94 10000 3.1 150 13:20 04.01.2020
1169 Clouds 22 1020 94 10000 3.1 150 12:59 04.01.2020
1170 Clouds 22 1020 94 10000 3.1 150 12:41 04.01.2020
1171 Clouds 22 1020 94 10000 3.1 150 12:19 04.01.2020
1172 Clouds 22 1020 100 10000 2.1 140 11:57 04.01.2020
1173 Clouds 22 1020 100 10000 2.1 140 11:38 04.01.2020
1174 Clouds 22 1020 100 10000 2.1 140 11:19 04.01.2020
1175 Clouds 22 1020 94 10000 1.5 150 10:41 04.01.2020
1176 Clouds 22 1020 94 10000 1.5 150 10:22 04.01.2020
1177 Clouds 23 1020 94 10000 1.5 200 09:50 04.01.2020
1178 Clouds 23 1020 94 10000 1.5 200 09:26 04.01.2020
1179 Clouds 23 1020 94 10000 2.6 170 08:58 04.01.2020
1180 Clouds 23 1020 94 10000 2.6 170 08:39 04.01.2020
1181 Clouds 23 1020 94 10000 2.6 170 08:20 04.01.2020
1182 Clouds 23 1021 94 10000 2.6 170 07:42 04.01.2020
1183 Clouds 23 1021 94 10000 2.6 170 06:52 04.01.2020
1184 Clouds 23 1021 94 10000 2.6 170 06:33 04.01.2020
1185 Clouds 23 1022 94 10000 2.1 150 05:18 04.01.2020
1186 Clouds 23 1022 94 10000 1.5 150 04:33 04.01.2020
1187 Clouds 23 1021 88 10000 2.6 130 03:43 04.01.2020
1188 Clouds 23 1021 88 10000 2.6 130 03:18 04.01.2020
1189 Clouds 23 1021 94 10000 2.6 150 02:21 04.01.2020
1190 Clouds 24 1020 88 10000 3.1 150 01:53 04.01.2020
1191 Clouds 24 1020 88 10000 4.1 150 01:30 04.01.2020
1192 Clouds 24 1020 88 10000 4.1 150 00:41 04.01.2020
1193 Clouds 23 1019 67 0 5.76 132 00:22 04.01.2020
1194 Clouds 24 1019 73 0 5.76 132 23:42 03.01.2020
1195 Clouds 25 1019 74 10000 5.1 170 23:23 03.01.2020
1196 Clouds 26 1019 74 10000 5.1 170 22:41 03.01.2020
1197 Clouds 26 1019 74 10000 5.1 170 22:20 03.01.2020
1198 Clouds 26 1019 74 10000 5.1 170 21:58 03.01.2020
1199 Clouds 27 1019 74 10000 5.1 170 21:38 03.01.2020
1200 Clouds 27 1019 74 10000 6.7 170 21:19 03.01.2020
1201 Clouds 27 1019 74 10000 6.7 170 20:58 03.01.2020
1202 Clouds 27 1019 74 10000 6.7 170 20:40 03.01.2020
1203 Clouds 27 1019 74 10000 6.7 170 20:18 03.01.2020
1204 Clouds 27 1019 74 10000 7.2 170 19:55 03.01.2020
1205 Clouds 27 1019 74 10000 7.2 170 19:55 03.01.2020
1206 Clouds 27 1019 74 10000 7.2 170 19:37 03.01.2020
1207 Clouds 27 1019 74 10000 7.2 170 19:18 03.01.2020
1208 Clouds 27 1020 74 10000 7.7 170 18:43 03.01.2020
1209 Clouds 27 1021 74 10000 7.7 160 18:24 03.01.2020
1210 Clouds 27 1021 74 10000 7.7 160 17:55 03.01.2020
1211 Clouds 27 1021 74 10000 7.7 160 17:36 03.01.2020
1212 Clouds 27 1021 74 10000 7.7 160 17:18 03.01.2020
1213 Clouds 26 1021 78 10000 7.2 160 16:42 03.01.2020
1214 Clouds 26 1021 78 10000 7.2 160 16:22 03.01.2020
1215 Clouds 26 1021 78 10000 7.2 160 16:22 03.01.2020
1216 Clouds 26 1021 78 10000 6.2 150 15:43 03.01.2020
1217 Clouds 24 1021 94 10000 2.6 120 15:19 03.01.2020
1218 Clouds 24 1021 94 10000 2.6 120 14:57 03.01.2020
1219 Clouds 24 1021 94 10000 2.6 120 14:38 03.01.2020
1220 Clouds 23 1020 94 10000 2.6 140 14:19 03.01.2020
1221 Clouds 23 1020 94 10000 2.6 140 13:43 03.01.2020
1222 Clouds 23 1020 94 10000 2.6 140 13:23 03.01.2020
1223 Clouds 23 1020 88 10000 2.1 130 12:57 03.01.2020
1224 Clouds 23 1020 88 10000 2.1 130 12:38 03.01.2020
1225 Clouds 23 1020 88 10000 2.1 130 12:20 03.01.2020
1226 Clouds 22 1020 94 10000 2.1 150 11:44 03.01.2020
1227 Clouds 22 1020 94 10000 2.1 150 11:19 03.01.2020
1228 Clouds 22 1019 94 10000 3.1 150 10:44 03.01.2020
1229 Clouds 22 1019 94 10000 3.1 150 10:25 03.01.2020
1230 Clouds 23 1019 88 10000 4.1 140 09:57 03.01.2020
1231 Clouds 23 1019 88 10000 4.1 140 09:38 03.01.2020
1232 Clouds 23 1019 88 10000 4.1 140 09:20 03.01.2020
1233 Clouds 23 1019 88 10000 4.1 140 08:54 03.01.2020
1234 Clouds 23 1019 88 10000 4.1 140 08:36 03.01.2020
1235 Clouds 23 1019 88 10000 4.1 140 08:18 03.01.2020
1236 Clouds 23 1019 88 10000 3.6 130 07:39 03.01.2020
1237 Clouds 23 1019 88 10000 3.6 130 07:18 03.01.2020
1238 Clouds 23 1019 88 10000 3.6 130 07:18 03.01.2020
1239 Clouds 23 1020 88 10000 3.1 130 06:42 03.01.2020
1240 Clouds 23 1020 88 10000 3.1 130 06:23 03.01.2020
1241 Clouds 23 1020 88 10000 3.1 120 05:20 03.01.2020
1242 Clouds 23 1020 88 10000 4.1 120 03:45 03.01.2020
1243 Clouds 23 1020 88 10000 3.6 110 02:55 03.01.2020
1244 Clouds 23 1019 68 0 0.45 124 01:54 03.01.2020
1245 Clouds 23 1019 69 0 0.89 155 01:36 03.01.2020
1246 Clouds 23 1019 69 0 0.89 155 01:36 03.01.2020
1247 Clouds 24 1019 78 10000 4.1 110 00:46 03.01.2020
1248 Clouds 24 1019 73 10000 4.1 90 00:26 03.01.2020
1249 Clouds 24 1019 73 10000 4.1 90 23:39 02.01.2020
1250 Clouds 24 1019 73 10000 4.1 90 23:21 02.01.2020
1251 Clouds 25 1018 65 10000 4.6 130 22:59 02.01.2020
1252 Clouds 25 1018 65 10000 4.6 130 22:41 02.01.2020
1253 Clouds 25 1018 65 10000 4.6 130 22:20 02.01.2020
1254 Clouds 25 1018 61 10000 4.1 150 21:57 02.01.2020
1255 Clouds 25 1018 61 10000 4.1 150 21:38 02.01.2020
1256 Clouds 25 1018 61 10000 4.1 150 21:19 02.01.2020
1257 Clouds 26 1018 51 10000 3.1 130 20:56 02.01.2020
1258 Clouds 26 1018 51 10000 3.1 130 20:37 02.01.2020
1259 Clouds 27 1019 51 10000 4.75 119 20:19 02.01.2020
1260 Clouds 25 1017 77 0 1.34 77 19:54 02.01.2020
1261 Clouds 25 1017 76 0 0.89 67 19:36 02.01.2020
1262 Clouds 26 1019 61 10000 3.1 140 19:18 02.01.2020
1263 Clouds 26 1019 61 10000 3.1 140 18:43 02.01.2020
1264 Clouds 25 1018 77 0 1.34 61 18:24 02.01.2020
1265 Clouds 26 1020 65 10000 4.6 140 17:58 02.01.2020
1266 Clouds 25 1020 65 10000 4.6 140 17:39 02.01.2020
1267 Clouds 25 1020 65 10000 4.6 140 17:20 02.01.2020
1268 Clouds 24 1020 73 10000 4.6 130 16:58 02.01.2020
1269 Clouds 25 1020 73 10000 4.6 130 16:40 02.01.2020
1270 Clouds 24 1020 73 10000 4.1 130 16:20 02.01.2020
1271 Clouds 24 1020 73 10000 4.1 130 16:20 02.01.2020
1272 Clouds 24 1020 73 10000 4.1 130 15:57 02.01.2020
1273 Clouds 24 1020 73 10000 4.1 130 15:39 02.01.2020
1274 Clouds 23 1019 83 10000 2.6 120 15:20 02.01.2020
1275 Clouds 23 1019 83 10000 2.6 120 14:56 02.01.2020
1276 Clear 23 1019 78 0 0.45 119 14:36 02.01.2020
1277 Clouds 22 1019 88 10000 2.1 110 14:18 02.01.2020
1278 Clouds 22 1019 88 10000 2.1 110 13:47 02.01.2020
1279 Clouds 22 1019 88 10000 2.1 110 13:29 02.01.2020
1280 Clouds 20 1019 88 10000 2.1 90 12:45 02.01.2020
1281 Clouds 21 1018 83 10000 2.1 100 12:25 02.01.2020
1282 Clouds 21 1018 83 10000 2.1 100 12:25 02.01.2020
1283 Clouds 21 1018 83 10000 2.1 100 11:57 02.01.2020
1284 Clouds 21 1018 83 10000 2.1 100 11:37 02.01.2020
1285 Clouds 21 1018 83 10000 2.1 100 11:19 02.01.2020
1286 Clouds 24 1017 68 0 5.46 82 10:43 02.01.2020
1287 Clouds 24 1017 68 0 5.46 82 10:25 02.01.2020
1288 Clouds 24 1017 68 0 5.46 82 09:46 02.01.2020
1289 Clouds 24 1017 68 0 5.46 82 09:28 02.01.2020
1290 Clouds 24 1017 68 0 5.46 82 08:45 02.01.2020
1291 Clouds 23 1017 71 0 5.64 80 08:27 02.01.2020
1292 Clouds 24 1017 68 0 4.91 61 07:51 02.01.2020
1293 Clouds 18 1018 93 10000 1 0 07:30 02.01.2020
1294 Clouds 18 1018 93 10000 1 0 06:45 02.01.2020
1295 Clouds 18 1018 93 10000 1 0 06:26 02.01.2020
1296 Clear 23 1019 69 10000 1.5 70 04:53 02.01.2020
1297 Clear 23 1019 69 10000 1.5 70 04:30 02.01.2020
1298 Clear 23 1018 69 10000 2.6 30 02:32 02.01.2020
1299 Clear 23 1018 73 10000 2.1 20 01:58 02.01.2020
1300 Clear 23 1018 73 10000 2.1 20 01:33 02.01.2020
1301 Clear 23 1018 73 10000 2.1 20 01:33 02.01.2020
1302 Clouds 23 1017 73 10000 2.1 20 00:57 02.01.2020
1303 Clouds 23 1017 73 10000 2.1 20 00:33 02.01.2020
1304 Clouds 23 1017 73 10000 2.6 30 23:49 01.01.2020
1305 Clouds 23 1017 73 10000 2.6 30 23:27 01.01.2020
1306 Clouds 24 1017 73 10000 2.6 50 22:56 01.01.2020
1307 Clouds 24 1017 73 10000 2.6 50 22:37 01.01.2020
1308 Clouds 24 1017 73 10000 2.6 50 22:19 01.01.2020
1309 Clouds 24 1017 69 10000 4.6 10 21:42 01.01.2020
1310 Clouds 24 1017 69 10000 4.6 10 21:21 01.01.2020
1311 Clouds 24 1017 69 10000 4.1 20 20:59 01.01.2020
1312 Clouds 25 1017 69 10000 4.1 20 20:39 01.01.2020
1313 Clouds 25 1017 69 10000 4.1 20 20:39 01.01.2020
1314 Clouds 24 1017 69 10000 4.1 20 20:21 01.01.2020
1315 Clouds 25 1017 69 10000 3.6 30 19:58 01.01.2020
1316 Clouds 25 1017 69 10000 3.6 30 19:39 01.01.2020
1317 Clouds 24 1017 69 10000 3.6 30 19:20 01.01.2020
1318 Clouds 24 1017 69 10000 3.6 30 19:20 01.01.2020
1319 Clouds 24 1018 73 10000 5.1 20 18:57 01.01.2020
1320 Clouds 24 1018 73 10000 5.1 20 18:57 01.01.2020
1321 Clouds 24 1018 73 10000 5.1 20 18:39 01.01.2020
1322 Clouds 24 1018 73 10000 5.1 20 18:20 01.01.2020
1323 Clouds 24 1019 73 10000 4.1 20 17:59 01.01.2020
1324 Clouds 24 1019 73 10000 4.1 20 17:40 01.01.2020
1325 Clouds 24 1019 73 10000 4.1 20 17:40 01.01.2020
1326 Clouds 24 1019 73 10000 4.1 20 17:20 01.01.2020
1327 Clouds 24 1019 83 10000 3.6 10 16:59 01.01.2020
1328 Clouds 25 1019 83 10000 3.6 10 16:38 01.01.2020
1329 Clouds 25 1019 83 10000 3.6 10 16:38 01.01.2020
1330 Clouds 25 1019 83 10000 3.6 10 16:19 01.01.2020
1331 Clouds 24 1018 83 10000 2.1 40 15:57 01.01.2020
1332 Clouds 24 1018 83 10000 2.1 40 15:57 01.01.2020
1333 Clouds 24 1018 83 10000 2.1 40 15:37 01.01.2020
1334 Clouds 24 1018 83 10000 2.1 40 15:19 01.01.2020
1335 Clouds 23 1018 94 10000 0.5 0 14:55 01.01.2020
1336 Clouds 23 1018 94 10000 0.5 0 14:37 01.01.2020
1337 Clouds 23 1018 94 10000 0.5 0 14:19 01.01.2020
1338 Clouds 22 1017 100 10000 3.19 9 13:55 01.01.2020
1339 Clouds 22 1017 100 10000 3.19 9 13:55 01.01.2020
1340 Clouds 22 1017 100 10000 3.19 9 13:55 01.01.2020
1341 Clouds 22 1017 100 10000 3.19 9 13:36 01.01.2020
1342 Clouds 21 1016 94 10000 3.19 9 13:18 01.01.2020
1343 Clouds 20 1016 94 10000 2.56 9 12:40 01.01.2020
1344 Clouds 20 1016 94 10000 2.56 9 12:19 01.01.2020
1345 Clouds 20 1016 94 10000 0.5 0 11:57 01.01.2020
1346 Clouds 20 1016 94 10000 0.5 0 11:38 01.01.2020
1347 Clouds 20 1016 94 10000 0.5 0 11:19 01.01.2020
1348 Clouds 21 1016 94 10000 0.5 0 10:55 01.01.2020
1349 Clouds 21 1016 94 10000 0.5 0 10:36 01.01.2020
1350 Clouds 21 1016 94 10000 0.5 0 10:18 01.01.2020
1351 Clouds 22 1017 88 10000 1 0 09:40 01.01.2020
1352 Clouds 22 1017 88 10000 1 0 09:20 01.01.2020
1353 Clouds 23 1017 88 10000 1.5 30 08:57 01.01.2020
1354 Clouds 23 1017 88 10000 1.5 30 08:57 01.01.2020
1355 Clouds 23 1017 88 10000 1.5 30 08:38 01.01.2020
1356 Clouds 23 1017 88 10000 1.5 30 08:19 01.01.2020
1357 Clouds 24 1017 83 10000 2.1 30 07:57 01.01.2020
1358 Clouds 24 1017 83 10000 2.1 30 07:38 01.01.2020
1359 Clouds 24 1017 83 10000 2.6 40 06:50 01.01.2020
1360 Clouds 24 1017 83 10000 2.6 40 06:32 01.01.2020
1361 Clouds 24 1018 83 10000 2.6 30 05:46 01.01.2020
1362 Rain 24 1017 85 0 5.95 30 03:48 01.01.2020
1363 Clouds 24 1017 88 10000 3.6 40 03:28 01.01.2020
1364 Clouds 24 1017 88 10000 3.6 40 02:59 01.01.2020
1365 Clouds 24 1017 88 10000 3.6 40 02:41 01.01.2020
1366 Clouds 24 1017 88 10000 3.6 40 02:21 01.01.2020
1367 Clear 24 1016 67 0 1.79 11 01:39 01.01.2020
1368 Clouds 25 1016 88 10000 3.1 10 01:21 01.01.2020
1369 Clouds 24 1016 88 10000 3.1 10 00:44 01.01.2020
1370 Clouds 24 1016 88 10000 3.1 10 00:44 01.01.2020
1371 Clouds 25 1016 88 10000 3.1 10 00:26 01.01.2020
1372 Clouds 25 1016 83 10000 3.6 360 23:42 31.12.2019
1373 Clouds 25 1016 83 10000 3.6 360 23:22 31.12.2019
1374 Clouds 26 1016 83 10000 4.6 350 22:59 31.12.2019
1375 Clouds 26 1016 83 10000 4.6 350 22:39 31.12.2019
1376 Clouds 25 1016 83 10000 4.6 350 22:20 31.12.2019
1377 Clouds 26 1016 78 10000 4.1 340 21:58 31.12.2019
1378 Clouds 26 1016 78 10000 4.1 340 21:40 31.12.2019
1379 Rain 26 1016 78 10000 4.6 330 21:21 31.12.2019
1380 Rain 26 1016 78 10000 4.6 330 20:56 31.12.2019
1381 Rain 26 1016 78 10000 4.6 330 20:37 31.12.2019
1382 Rain 26 1016 78 10000 4.6 330 20:18 31.12.2019
1383 Rain 26 1016 78 10000 4.6 310 19:43 31.12.2019
1384 Rain 27 1017 78 10000 3.6 220 19:24 31.12.2019
1385 Rain 28 1017 78 10000 3.6 220 18:59 31.12.2019
1386 Rain 28 1017 78 10000 3.6 220 18:40 31.12.2019
1387 Rain 28 1017 78 10000 3.6 220 18:21 31.12.2019
1388 Rain 27 1018 83 10000 4.6 220 17:57 31.12.2019
1389 Rain 26 1018 83 10000 4.6 220 17:39 31.12.2019
1390 Rain 26 1018 83 10000 4.6 220 17:19 31.12.2019
1391 Rain 26 1018 83 10000 4.6 220 17:19 31.12.2019
1392 Rain 26 1018 88 10000 3.1 190 16:57 31.12.2019
1393 Rain 26 1018 88 10000 3.1 190 16:57 31.12.2019
1394 Rain 26 1018 88 10000 3.1 190 16:39 31.12.2019
1395 Rain 25 1017 88 10000 2.1 160 16:19 31.12.2019
1396 Rain 25 1017 88 10000 2.1 160 15:57 31.12.2019
1397 Rain 24 1017 88 10000 2.1 160 15:39 31.12.2019
1398 Rain 24 1017 88 10000 2.1 160 15:21 31.12.2019
1399 Clouds 24 1017 94 10000 1 0 14:58 31.12.2019
1400 Clouds 24 1017 94 10000 1 0 14:39 31.12.2019
1401 Clouds 23 1016 100 10000 1.5 190 14:19 31.12.2019
1402 Clouds 23 1016 100 10000 1.5 190 13:58 31.12.2019
1403 Clouds 23 1016 100 10000 1.5 190 13:40 31.12.2019
1404 Rain 24 1016 41 0 4.42 264 13:21 31.12.2019
1405 Rain 25 1015 83 0 4.42 264 12:58 31.12.2019
1406 Rain 25 1015 83 0 4.42 264 12:40 31.12.2019
1407 Clouds 24 1015 88 10000 3.1 170 12:20 31.12.2019
1408 Clouds 24 1015 88 10000 3.1 170 11:56 31.12.2019
1409 Clouds 24 1015 88 10000 3.1 170 11:38 31.12.2019
1410 Clouds 24 1015 88 10000 3.1 170 11:38 31.12.2019
1411 Clouds 24 1015 88 10000 3.1 170 11:20 31.12.2019
1412 Clouds 24 1015 88 10000 4.1 170 10:58 31.12.2019
1413 Clouds 24 1015 88 10000 4.1 170 10:38 31.12.2019
1414 Clouds 24 1016 88 10000 3.6 170 10:20 31.12.2019
1415 Clouds 24 1016 88 10000 3.6 170 09:59 31.12.2019
1416 Clouds 24 1016 88 10000 3.6 170 09:39 31.12.2019
1417 Clouds 24 1016 88 10000 3.6 170 09:20 31.12.2019
1418 Clouds 24 1016 88 10000 4.6 180 08:57 31.12.2019
1419 Clouds 24 1016 88 10000 4.6 180 08:37 31.12.2019
1420 Clouds 24 1016 88 10000 4.6 180 08:19 31.12.2019
1421 Clouds 24 1015 88 10000 5.7 160 07:42 31.12.2019
1422 Clouds 24 1016 88 10000 3.6 170 07:20 31.12.2019
1423 Clouds 24 1016 88 10000 3.6 170 06:49 31.12.2019
1424 Clouds 24 1017 88 10000 2.6 160 05:57 31.12.2019
1425 Clouds 25 1017 88 10000 3.6 150 04:28 31.12.2019
1426 Clouds 24 1017 88 10000 3.6 140 03:27 31.12.2019
1427 Clouds 24 1016 88 10000 3.6 140 02:54 31.12.2019
1428 Clouds 24 1016 88 10000 3.6 150 01:55 31.12.2019
1429 Clouds 24 1016 88 10000 3.6 150 01:35 31.12.2019
1430 Clouds 24 1015 83 10000 3.6 150 00:59 31.12.2019
1431 Clouds 24 1015 83 10000 3.6 150 00:41 31.12.2019
1432 Clouds 25 1015 83 10000 4.6 170 00:21 31.12.2019
1433 Clouds 24 1015 83 10000 4.6 170 23:56 30.12.2019
1434 Clouds 25 1015 83 10000 4.6 170 23:37 30.12.2019
1435 Clouds 25 1015 83 10000 4.6 170 23:19 30.12.2019
1436 Clouds 26 1015 78 10000 5.1 170 22:56 30.12.2019
1437 Clouds 27 1015 78 10000 5.1 170 22:37 30.12.2019
1438 Clouds 27 1015 78 10000 5.1 170 22:37 30.12.2019
1439 Clouds 27 1015 78 10000 5.1 170 22:37 30.12.2019
1440 Clouds 27 1015 74 10000 6.7 170 22:18 30.12.2019
1441 Clouds 27 1015 74 10000 6.7 170 21:56 30.12.2019
1442 Clouds 27 1015 74 10000 6.7 170 21:38 30.12.2019
1443 Clouds 27 1015 74 10000 6.7 170 21:18 30.12.2019
1444 Clouds 27 1015 74 10000 7.2 170 20:56 30.12.2019
1445 Clouds 27 1015 74 10000 7.2 170 20:37 30.12.2019
1446 Clouds 27 1013 77 0 1.34 238 20:19 30.12.2019
1447 Clouds 27 1014 77 0 0.45 231 19:55 30.12.2019
1448 Clouds 26 1014 78 0 0.45 172 19:37 30.12.2019
1449 Clouds 26 1016 74 10000 7.2 160 19:18 30.12.2019
1450 Clouds 27 1016 74 10000 7.2 160 18:42 30.12.2019
1451 Clouds 26 1016 74 10000 7.2 160 18:21 30.12.2019
1452 Clouds 26 1015 77 0 1.34 240 17:59 30.12.2019
1453 Clouds 26 1015 77 0 1.34 240 17:59 30.12.2019
1454 Clouds 27 1016 76 0 0.89 197 17:41 30.12.2019
1455 Clouds 26 1018 78 10000 7.7 160 17:20 30.12.2019
1456 Clouds 26 1018 78 10000 7.7 160 17:00 30.12.2019
1457 Clouds 26 1018 78 10000 7.7 160 17:00 30.12.2019
1458 Clouds 26 1018 78 10000 7.7 160 16:40 30.12.2019
1459 Clouds 26 1018 78 10000 7.7 160 16:20 30.12.2019
1460 Clouds 26 1017 74 10000 6.2 150 15:57 30.12.2019
1461 Clouds 26 1017 74 10000 6.2 150 15:38 30.12.2019
1462 Clouds 25 1017 88 10000 3.6 150 15:19 30.12.2019
1463 Clouds 25 1017 88 10000 3.6 150 14:54 30.12.2019
1464 Clouds 25 1017 88 10000 3.6 150 14:36 30.12.2019
1465 Clouds 24 1016 74 0 7.65 130 14:18 30.12.2019
1466 Clouds 24 1016 69 0 7.65 130 13:41 30.12.2019
1467 Clouds 24 1016 80 0 7.86 124 13:23 30.12.2019
1468 Clouds 24 1016 80 0 7.86 124 13:23 30.12.2019
1469 Clouds 24 1016 80 0 7.86 124 12:58 30.12.2019
1470 Clouds 24 1016 80 0 7.86 124 12:39 30.12.2019
1471 Clouds 22 1017 94 10000 1 0 12:19 30.12.2019
1472 Clouds 22 1017 94 10000 1 0 11:56 30.12.2019
1473 Clouds 22 1017 94 10000 1 0 11:37 30.12.2019
1474 Clouds 22 1017 94 10000 1 0 11:18 30.12.2019
1475 Clouds 23 1016 88 10000 5.1 110 10:42 30.12.2019
1476 Clouds 23 1016 88 10000 5.1 110 10:42 30.12.2019
1477 Clouds 23 1016 88 10000 5.1 110 10:20 30.12.2019
1478 Clouds 25 1016 78 0 6.66 117 09:44 30.12.2019
1479 Clouds 23 1017 88 10000 2.1 100 09:21 30.12.2019
1480 Clouds 23 1017 88 10000 2.1 100 08:57 30.12.2019
1481 Clouds 23 1017 88 10000 2.1 100 08:39 30.12.2019
1482 Clouds 23 1017 88 10000 2.1 100 08:20 30.12.2019
1483 Clouds 23 1017 88 10000 2.6 120 07:48 30.12.2019
1484 Clouds 23 1017 88 10000 2.6 120 07:23 30.12.2019
1485 Clouds 24 1018 83 10000 2.6 120 06:32 30.12.2019
1486 Clouds 24 1018 73 10000 3.6 120 04:31 30.12.2019
1487 Clouds 24 1018 73 10000 3.6 120 03:50 30.12.2019
1488 Clouds 24 1018 73 10000 4.1 120 02:47 30.12.2019
1489 Clouds 24 1017 73 10000 4.6 120 02:26 30.12.2019
1490 Clouds 24 1017 69 10000 4.1 120 01:29 30.12.2019
1491 Clouds 24 1017 69 10000 4.1 120 00:59 30.12.2019
1492 Clouds 24 1017 69 10000 4.1 120 00:39 30.12.2019
1493 Clouds 24 1017 65 10000 5.1 120 23:55 29.12.2019
1494 Clouds 24 1017 65 10000 5.1 120 23:36 29.12.2019
1495 Clouds 24 1017 65 10000 5.1 120 23:18 29.12.2019
1496 Clouds 25 1017 65 10000 7.2 120 22:40 29.12.2019
1497 Clouds 25 1017 65 10000 7.2 130 22:21 29.12.2019
1498 Clouds 26 1017 65 10000 7.2 130 21:56 29.12.2019
1499 Clouds 25 1017 65 10000 7.2 130 21:38 29.12.2019
1500 Clouds 25 1017 65 10000 7.2 130 21:19 29.12.2019
1501 Clouds 26 1017 65 10000 7.7 130 20:55 29.12.2019
1502 Clouds 25 1017 65 10000 7.7 130 20:37 29.12.2019
1503 Clouds 25 1017 65 10000 7.7 130 20:18 29.12.2019
1504 Clouds 26 1017 61 10000 7.2 120 19:55 29.12.2019
1505 Clouds 26 1017 61 10000 7.2 120 19:37 29.12.2019
1506 Clouds 26 1018 69 10000 8.2 110 19:19 29.12.2019
1507 Clouds 26 1018 69 10000 8.2 110 18:54 29.12.2019
1508 Clouds 25 1018 69 10000 8.2 110 18:36 29.12.2019
1509 Clouds 25 1018 69 10000 8.2 110 18:18 29.12.2019
1510 Clouds 26 1019 69 10000 8.2 120 17:55 29.12.2019
1511 Clouds 25 1019 69 10000 8.2 120 17:36 29.12.2019
1512 Clouds 26 1020 74 10000 6.7 120 17:18 29.12.2019
1513 Clouds 26 1020 74 10000 6.7 120 16:54 29.12.2019
1514 Clouds 26 1020 74 10000 6.7 120 16:54 29.12.2019
1515 Clouds 25 1020 74 10000 6.7 120 16:36 29.12.2019
1516 Clouds 25 1019 78 10000 6.2 110 16:18 29.12.2019
1517 Clouds 25 1019 78 10000 6.2 110 15:54 29.12.2019
1518 Clouds 25 1019 78 10000 6.2 110 15:36 29.12.2019
1519 Clouds 25 1019 78 10000 6.2 110 15:18 29.12.2019
1520 Clouds 24 1019 88 10000 5.1 100 14:46 29.12.2019
1521 Rain 23 1018 88 10000 3.1 110 14:19 29.12.2019
1522 Rain 23 1018 88 10000 3.1 110 13:59 29.12.2019
1523 Rain 23 1018 88 10000 3.1 110 13:40 29.12.2019
1524 Rain 23 1018 88 10000 3.1 110 13:22 29.12.2019
1525 Rain 23 1018 88 10000 3.1 110 13:22 29.12.2019
1526 Clouds 23 1018 88 10000 4.1 100 12:57 29.12.2019
1527 Clouds 23 1018 88 10000 4.1 100 12:38 29.12.2019
1528 Clouds 23 1018 88 10000 4.1 100 12:20 29.12.2019
1529 Clouds 23 1017 88 10000 3.6 100 11:41 29.12.2019
1530 Clouds 23 1017 88 10000 3.6 100 11:21 29.12.2019
1531 Clouds 23 1017 83 10000 4.1 110 10:57 29.12.2019
1532 Clouds 23 1017 83 10000 4.1 110 10:38 29.12.2019
1533 Clouds 23 1017 83 10000 4.1 110 10:18 29.12.2019
1534 Clouds 24 1017 83 10000 4.1 110 09:45 29.12.2019
1535 Clouds 24 1017 83 10000 4.1 110 09:27 29.12.2019
1536 Clouds 23 1017 88 10000 4.1 110 08:55 29.12.2019
1537 Clouds 23 1017 88 10000 4.1 110 08:37 29.12.2019
1538 Clouds 23 1017 88 10000 4.1 110 08:18 29.12.2019
1539 Clouds 24 1018 83 10000 4.1 110 07:33 29.12.2019
1540 Clouds 23 1018 88 10000 3.6 100 06:59 29.12.2019
1541 Clouds 23 1018 88 10000 3.6 100 06:27 29.12.2019
1542 Clouds 24 1019 78 10000 4.6 100 05:55 29.12.2019
1543 Clouds 24 1019 78 10000 4.6 100 04:59 29.12.2019
1544 Clouds 24 1019 78 10000 4.6 100 04:30 29.12.2019
1545 Clouds 24 1019 78 10000 5.7 100 03:32 29.12.2019
1546 Clouds 24 1019 83 10000 6.2 90 02:27 29.12.2019
1547 Clouds 24 1018 83 10000 5.7 110 01:47 29.12.2019
1548 Clouds 24 1018 83 10000 6.2 100 01:28 29.12.2019
1549 Clouds 24 1018 83 10000 6.2 100 00:45 29.12.2019
1550 Clouds 24 1018 83 10000 6.2 100 00:24 29.12.2019
1551 Clouds 24 1018 78 10000 6.7 110 23:45 28.12.2019
1552 Clouds 24 1018 78 10000 6.7 110 23:19 28.12.2019
1553 Clouds 24 1018 78 10000 6.7 110 23:19 28.12.2019
1554 Clouds 24 1018 78 10000 6.7 110 23:19 28.12.2019
1555 Clouds 24 1017 83 10000 5.1 100 22:54 28.12.2019
1556 Clouds 24 1017 83 10000 5.1 100 22:36 28.12.2019
1557 Clouds 25 1017 83 10000 5.1 100 22:18 28.12.2019
1558 Clouds 25 1017 78 10000 4.6 100 21:55 28.12.2019
1559 Clouds 25 1017 78 10000 4.6 100 21:36 28.12.2019
1560 Clouds 25 1017 78 10000 4.6 100 21:18 28.12.2019
1561 Rain 23 1018 100 9000 5.1 110 20:38 28.12.2019
1562 Rain 23 1018 100 9000 5.1 110 20:20 28.12.2019
1563 Rain 23 1018 94 9000 6.7 120 19:59 28.12.2019
1564 Rain 23 1018 94 9000 6.7 120 19:39 28.12.2019
1565 Rain 23 1019 94 9000 6.7 110 19:21 28.12.2019
1566 Rain 23 1019 94 9000 6.7 110 18:58 28.12.2019
1567 Rain 23 1019 94 9000 6.7 110 18:40 28.12.2019
1568 Rain 23 1019 94 9000 6.7 110 18:19 28.12.2019
1569 Rain 22 1020 81 4000 6.7 140 17:55 28.12.2019
1570 Rain 23 1020 81 4000 6.7 140 17:37 28.12.2019
1571 Clouds 24 1020 78 10000 8.2 110 17:18 28.12.2019
1572 Clouds 24 1020 78 10000 8.2 110 16:46 28.12.2019
1573 Clouds 24 1019 88 10000 5.7 100 16:26 28.12.2019
1574 Clouds 24 1019 88 10000 5.7 100 15:47 28.12.2019
1575 Clouds 24 1019 88 10000 5.7 100 15:24 28.12.2019
1576 Clouds 23 1019 88 10000 5.7 110 14:59 28.12.2019
1577 Clouds 23 1019 88 10000 5.7 110 14:39 28.12.2019
1578 Clouds 23 1018 88 10000 4.6 100 14:20 28.12.2019
1579 Clouds 23 1018 88 10000 4.6 100 13:56 28.12.2019
1580 -273 0 0 0 0 0 13:36 28.12.2019
1581 Clouds 23 1018 88 10000 5.7 110 13:18 28.12.2019
1582 Clouds 23 1018 88 10000 5.7 110 12:42 28.12.2019
1583 Clouds 23 1018 88 10000 5.7 110 12:23 28.12.2019
1584 Clouds 23 1017 88 10000 6.2 110 11:56 28.12.2019
1585 Clouds 23 1017 88 10000 6.2 110 11:37 28.12.2019
1586 Clouds 23 1017 88 10000 6.2 110 11:18 28.12.2019
1587 Rain 25 1017 82 0 10.88 97 10:43 28.12.2019
1588 Rain 22 1018 94 10000 7.7 110 10:21 28.12.2019
1589 Rain 22 1018 94 10000 7.7 110 09:57 28.12.2019
1590 Rain 22 1018 94 10000 7.7 110 09:39 28.12.2019
1591 Rain 22 1018 94 10000 7.7 110 09:19 28.12.2019
1592 Clouds 22 1018 94 10000 6.2 120 08:43 28.12.2019
1593 Clouds 22 1018 94 10000 6.2 120 08:25 28.12.2019
1594 Rain 23 1018 94 10000 5.7 110 07:49 28.12.2019
1595 Clouds 24 1018 83 10000 5.7 90 07:27 28.12.2019
1596 Clouds 24 1019 83 10000 7.2 100 05:53 28.12.2019
1597 Clouds 24 1019 83 10000 6.7 100 03:52 28.12.2019
1598 Clouds 24 1019 83 10000 6.7 100 03:33 28.12.2019
1599 Clouds 24 1018 83 10000 7.2 100 02:43 28.12.2019
1600 Clouds 24 1018 83 10000 6.7 100 01:59 28.12.2019
1601 Rain 24 1018 83 10000 6.2 90 01:25 28.12.2019
1602 Rain 24 1018 83 10000 6.2 90 00:51 28.12.2019
1603 Rain 24 1018 83 10000 6.2 90 00:32 28.12.2019
1604 Rain 24 1018 88 10000 6.2 100 23:59 27.12.2019
1605 Rain 24 1018 88 10000 6.2 100 23:41 27.12.2019
1606 Rain 24 1018 88 10000 6.2 100 23:19 27.12.2019
1607 Rain 24 1017 83 10000 5.7 90 22:57 27.12.2019
1608 Rain 24 1017 83 10000 5.7 90 22:57 27.12.2019
1609 Rain 24 1017 83 10000 5.7 90 22:38 27.12.2019
1610 Rain 24 1017 83 10000 5.7 90 22:20 27.12.2019
1611 Rain 23 1017 83 10000 5.1 110 21:44 27.12.2019
1612 Rain 23 1017 83 10000 5.1 110 21:25 27.12.2019
1613 Clouds 24 1017 83 10000 5.1 110 20:58 27.12.2019
1614 Clouds 24 1017 83 10000 5.1 110 20:40 27.12.2019
1615 Clouds 23 1017 83 10000 5.1 110 20:21 27.12.2019
1616 Rain 23 1018 94 9000 7.2 100 19:42 27.12.2019
1617 Rain 23 1018 94 9000 7.2 100 19:20 27.12.2019
1618 Rain 23 1019 83 10000 7.2 110 18:57 27.12.2019
1619 Rain 24 1019 83 10000 7.2 110 18:37 27.12.2019
1620 Clouds 25 1019 78 10000 5.7 100 18:19 27.12.2019
1621 Clouds 25 1019 78 10000 5.7 100 17:55 27.12.2019
1622 Clouds 25 1019 78 10000 5.7 100 17:37 27.12.2019
1623 Clouds 25 1019 78 10000 5.7 100 17:18 27.12.2019
1624 Clouds 25 1020 83 10000 6.7 110 16:44 27.12.2019
1625 Clouds 25 1019 78 10000 7.2 110 16:26 27.12.2019
1626 Clouds 25 1019 78 10000 7.2 110 15:59 27.12.2019
1627 Clouds 25 1019 78 10000 7.2 110 15:40 27.12.2019
1628 Clouds 25 1019 78 10000 7.2 110 15:19 27.12.2019
1629 Rain 24 1019 83 10000 4.6 100 14:56 27.12.2019
1630 Rain 24 1019 83 10000 4.6 100 14:38 27.12.2019
1631 Rain 24 1019 83 10000 4.6 100 14:20 27.12.2019
1632 Clouds 24 1018 83 10000 3.1 100 13:47 27.12.2019
1633 Clouds 24 1018 83 10000 3.1 100 13:24 27.12.2019
1634 Clouds 23 1017 88 10000 4.6 110 12:56 27.12.2019
1635 Clouds 23 1017 88 10000 4.6 110 12:37 27.12.2019
1636 Clouds 23 1017 88 10000 4.6 110 12:18 27.12.2019
1637 Clouds 23 1017 88 10000 4.6 110 12:18 27.12.2019
1638 Clouds 23 1017 88 10000 3.6 110 11:42 27.12.2019
1639 Clouds 23 1017 88 10000 3.6 110 11:20 27.12.2019
1640 Clouds 24 1016 83 10000 5.1 110 10:47 27.12.2019
1641 Clouds 24 1016 83 10000 5.1 110 10:24 27.12.2019
1642 Clouds 23 1016 88 10000 4.1 110 09:59 27.12.2019
1643 Clouds 23 1016 88 10000 4.1 110 09:39 27.12.2019
1644 Clouds 23 1016 88 10000 4.1 110 09:21 27.12.2019
1645 Clouds 23 1017 88 10000 4.6 100 08:49 27.12.2019
1646 Clouds 23 1017 88 10000 4.6 100 08:30 27.12.2019
1647 Clear 23 1016 72 0 2.68 71 07:48 27.12.2019
1648 Clear 23 1016 72 0 2.68 71 07:25 27.12.2019
1649 Clear 23 1016 71 0 3.13 96 06:33 27.12.2019
1650 Clouds 24 1018 83 10000 4.6 90 04:48 27.12.2019
1651 Clear 25 1016 78 10000 4.6 90 02:29 27.12.2019
1652 Clear 24 1016 78 10000 4.6 90 01:48 27.12.2019
1653 Clouds 24 1016 78 10000 6.2 90 01:23 27.12.2019
1654 Clouds 24 1016 78 10000 6.2 90 00:51 27.12.2019
1655 Clouds 24 1016 78 10000 6.2 90 00:33 27.12.2019
1656 Clouds 25 1015 69 10000 5.1 90 23:56 26.12.2019
1657 Clouds 25 1015 69 10000 5.1 90 23:38 26.12.2019
1658 Clouds 25 1015 69 10000 5.1 90 23:20 26.12.2019
1659 Clear 24 1014 78 0 3.58 70 22:41 26.12.2019
1660 Clouds 25 1015 74 10000 6.7 90 22:19 26.12.2019
1661 Clouds 25 1015 74 10000 6.7 90 21:40 26.12.2019
1662 Clouds 25 1014 74 10000 8.2 70 21:22 26.12.2019
1663 Clouds 25 1014 74 10000 8.2 70 20:59 26.12.2019
1664 Clouds 25 1014 74 10000 8.2 70 20:40 26.12.2019
1665 Clouds 25 1014 74 10000 8.2 70 20:22 26.12.2019
1666 Clouds 25 1015 74 10000 6.7 80 19:56 26.12.2019
1667 Clouds 25 1015 74 10000 6.7 80 19:38 26.12.2019
1668 Clouds 25 1015 74 10000 6.7 80 19:20 26.12.2019
1669 Clouds 26 1016 74 10000 7.2 80 18:57 26.12.2019
1670 Clouds 25 1016 74 10000 7.2 80 18:36 26.12.2019
1671 Clouds 25 1016 74 10000 7.2 80 18:18 26.12.2019
1672 Clouds 25 1017 78 10000 6.7 70 17:41 26.12.2019
1673 Clouds 25 1017 78 10000 6.7 70 17:22 26.12.2019
1674 Clouds 25 1016 78 10000 5.7 80 16:50 26.12.2019
1675 Clouds 25 1016 78 10000 5.7 80 16:28 26.12.2019
1676 Clouds 25 1016 73 10000 4.6 90 15:58 26.12.2019
1677 Clouds 25 1016 73 10000 4.6 90 15:39 26.12.2019
1678 Clouds 25 1016 73 10000 4.6 90 15:19 26.12.2019
1679 Clouds 24 1015 78 10000 2.6 90 14:41 26.12.2019
1680 Clouds 23 1015 78 10000 2.6 90 14:23 26.12.2019
1681 Clouds 23 1015 78 10000 2.6 90 14:23 26.12.2019
1682 Clouds 23 1014 83 10000 3.6 110 13:55 26.12.2019
1683 Clouds 23 1014 83 10000 3.6 110 13:36 26.12.2019
1684 Clouds 23 1013 83 10000 3.6 90 13:18 26.12.2019
1685 Clouds 23 1013 83 10000 3.6 90 12:45 26.12.2019
1686 Clouds 23 1013 83 10000 3.6 90 12:25 26.12.2019
1687 Clouds 25 1014 73 0 7.94 75 11:59 26.12.2019
1688 Clouds 25 1014 73 0 7.94 75 11:40 26.12.2019
1689 Clouds 25 1014 73 0 7.94 75 11:40 26.12.2019
1690 Clouds 23 1013 83 10000 3.6 90 11:21 26.12.2019
1691 Clouds 23 1013 83 10000 3.6 90 10:50 26.12.2019
1692 Rain 25 1012 76 0 8.16 66 10:26 26.12.2019
1693 Rain 25 1012 76 0 8.16 66 09:55 26.12.2019
1694 Rain 25 1012 76 0 8.16 66 09:36 26.12.2019
1695 Clouds 23 1013 83 10000 3.1 80 09:18 26.12.2019
1696 Clouds 23 1013 83 10000 3.1 80 08:39 26.12.2019
1697 Clouds 23 1013 83 10000 3.1 80 08:20 26.12.2019
1698 Clouds 23 1013 77 10000 3.1 80 07:41 26.12.2019
1699 Clouds 23 1013 77 10000 3.1 80 07:19 26.12.2019
1700 Rain 23 1012 76 0 3.13 70 06:37 26.12.2019
1701 Rain 24 1013 83 10000 4.1 70 06:19 26.12.2019
1702 Rain 24 1013 83 10000 4.1 70 05:41 26.12.2019
1703 Rain 24 1013 78 10000 4.6 70 04:33 26.12.2019
1704 Clouds 24 1013 78 10000 6.7 70 03:31 26.12.2019
1705 Clouds 24 1012 83 10000 6.7 70 02:46 26.12.2019
1706 Clouds 24 1012 83 10000 6.7 70 02:25 26.12.2019
1707 Clouds 23 1012 88 10000 5.7 70 01:44 26.12.2019
1708 Clouds 23 1012 88 10000 5.7 70 01:44 26.12.2019
1709 Clouds 23 1012 88 10000 5.7 70 01:24 26.12.2019
1710 Rain 23 1012 88 10000 5.7 50 00:43 26.12.2019
1711 Rain 23 1012 88 10000 5.7 50 00:23 26.12.2019
1712 Rain 24 1011 83 10000 4.6 50 23:57 25.12.2019
1713 Rain 24 1011 83 10000 4.6 50 23:36 25.12.2019
1714 Clouds 24 1011 73 10000 5.1 20 23:18 25.12.2019
1715 Clouds 24 1011 73 10000 5.1 20 22:55 25.12.2019
1716 Clouds 24 1011 73 10000 5.1 20 22:55 25.12.2019
1717 Clouds 24 1011 73 10000 5.1 20 22:36 25.12.2019
1718 Clouds 25 1011 69 10000 7.7 30 22:18 25.12.2019
1719 Clouds 25 1011 69 10000 7.7 30 21:40 25.12.2019
1720 Clouds 25 1011 65 10000 6.2 30 21:22 25.12.2019
1721 Clouds 25 1011 65 10000 6.2 30 20:59 25.12.2019
1722 Clouds 25 1011 65 10000 6.2 30 20:40 25.12.2019
1723 Clouds 25 1011 65 10000 6.2 30 20:19 25.12.2019
1724 Clouds 25 1011 61 10000 6.2 30 19:57 25.12.2019
1725 Clouds 25 1011 61 10000 6.2 30 19:39 25.12.2019
1726 Clouds 25 1011 61 10000 6.2 30 19:21 25.12.2019
1727 Clouds 25 1012 61 10000 5.7 30 18:39 25.12.2019
1728 Clouds 24 1012 64 10000 5.1 10 18:20 25.12.2019
1729 Clouds 24 1012 64 10000 5.1 10 17:43 25.12.2019
1730 Clouds 24 1012 64 10000 5.1 10 17:21 25.12.2019
1731 Clouds 24 1013 60 10000 5.1 20 16:59 25.12.2019
1732 Clouds 24 1013 60 10000 5.1 20 16:39 25.12.2019
1733 Clouds 24 1013 60 10000 5.1 20 16:19 25.12.2019
1734 Clouds 24 1012 64 10000 5.1 20 15:57 25.12.2019
1735 Clouds 24 1012 64 10000 5.1 20 15:57 25.12.2019
1736 Clouds 24 1012 64 10000 5.1 20 15:39 25.12.2019
1737 Clouds 23 1011 73 10000 3.6 10 15:21 25.12.2019
1738 Clouds 23 1011 73 10000 3.6 10 14:58 25.12.2019
1739 Clouds 23 1011 73 10000 3.6 10 14:39 25.12.2019
1740 Clouds 23 1011 78 10000 5.1 340 14:21 25.12.2019
1741 Clouds 22 1011 78 10000 5.1 340 13:55 25.12.2019
1742 Clouds 22 1011 78 10000 5.1 340 13:36 25.12.2019
1743 Clouds 22 1011 78 10000 5.1 340 13:18 25.12.2019
1744 Clouds 22 1010 73 10000 5.7 360 12:38 25.12.2019
1745 Clouds 22 1010 73 10000 5.7 360 12:20 25.12.2019
1746 Clouds 22 1009 78 10000 5.7 330 11:54 25.12.2019
1747 Clouds 22 1009 78 10000 5.7 330 11:36 25.12.2019
1748 Clouds 22 1009 78 10000 5.7 330 11:18 25.12.2019
1749 Clouds 22 1009 73 10000 5.1 320 10:37 25.12.2019
1750 Clouds 22 1009 73 10000 5.1 320 10:37 25.12.2019
1751 Clouds 22 1009 73 10000 5.1 320 10:19 25.12.2019
1752 Clouds 22 1009 73 10000 5.7 320 09:49 25.12.2019
1753 Clouds 22 1009 68 10000 5.7 330 09:30 25.12.2019
1754 Clouds 22 1009 68 10000 5.7 330 08:47 25.12.2019
1755 Clouds 22 1009 68 10000 5.7 330 08:29 25.12.2019
1756 Clouds 21 1009 68 10000 6.2 320 07:49 25.12.2019
1757 Clouds 21 1009 68 10000 6.2 320 07:31 25.12.2019
1758 Clouds 21 1009 68 10000 6.7 320 06:49 25.12.2019
1759 Clouds 22 1009 68 10000 6.7 320 06:22 25.12.2019
1760 Clouds 22 1010 73 10000 6.7 310 05:18 25.12.2019
1761 Clouds 22 1010 68 10000 6.7 320 04:38 25.12.2019
1762 Clouds 22 1010 68 10000 6.7 320 04:18 25.12.2019
1763 Rain 22 1009 75 0 0.45 8 03:40 25.12.2019
1764 Rain 21 1009 75 0 9.83 298 02:39 25.12.2019
1765 Clouds 22 1009 64 10000 7.2 310 01:59 25.12.2019
1766 Clouds 21 1008 64 10000 6.7 300 01:25 25.12.2019
1767 Clouds 21 1008 64 10000 6.7 300 00:52 25.12.2019
1768 Clouds 21 1008 68 10000 7.7 300 00:29 25.12.2019
1769 Clouds 21 1008 68 10000 7.7 300 23:56 24.12.2019
1770 Clouds 21 1008 68 10000 7.7 300 23:37 24.12.2019
1771 Clouds 22 1008 64 10000 8.2 300 23:19 24.12.2019
1772 Clouds 22 1008 64 10000 8.2 300 22:40 24.12.2019
1773 Clouds 22 1007 64 10000 9.3 310 22:21 24.12.2019
1774 Clouds 22 1007 64 10000 9.3 310 21:43 24.12.2019
1775 Clouds 22 1007 60 10000 7.2 280 21:22 24.12.2019
1776 Clouds 22 1007 60 10000 7.2 280 20:54 24.12.2019
1777 Clouds 22 1007 60 10000 7.2 280 20:36 24.12.2019
1778 Clouds 22 1007 60 10000 7.2 280 20:18 24.12.2019
1779 Clouds 23 1008 64 10000 8.2 300 19:43 24.12.2019
1780 Clouds 22 1008 64 10000 8.2 300 19:19 24.12.2019
1781 Clouds 23 1009 64 10000 7.2 300 18:42 24.12.2019
1782 Clouds 23 1009 64 10000 7.2 300 18:23 24.12.2019
1783 Clouds 22 1010 64 10000 8.2 310 17:50 24.12.2019
1784 Clouds 22 1010 64 10000 8.2 310 17:24 24.12.2019
1785 Clouds 22 1010 64 10000 7.2 290 16:59 24.12.2019
1786 Clouds 22 1010 64 10000 7.2 290 16:41 24.12.2019
1787 Clouds 22 1010 64 10000 7.2 290 16:22 24.12.2019
1788 -273 0 0 0 0 0 16:22 24.12.2019
1789 Clouds 22 1010 68 10000 6.2 290 15:58 24.12.2019
1790 Clouds 22 1010 68 10000 6.2 290 15:38 24.12.2019
1791 Clouds 22 1010 68 10000 6.2 290 15:20 24.12.2019
1792 Clouds 22 1009 68 10000 8.2 310 14:59 24.12.2019
1793 Clouds 22 1009 68 10000 8.2 310 14:40 24.12.2019
1794 Clouds 22 1009 68 10000 8.2 310 14:22 24.12.2019
1795 Clouds 22 1009 68 10000 7.7 310 13:56 24.12.2019
1796 Clouds 22 1009 68 10000 7.7 310 13:38 24.12.2019
1797 Clouds 22 1009 68 10000 7.7 310 13:20 24.12.2019
1798 Clouds 22 1009 68 10000 6.7 300 12:57 24.12.2019
1799 Clouds 22 1009 68 10000 6.7 300 12:38 24.12.2019
1800 Clouds 22 1009 68 10000 6.7 300 12:38 24.12.2019
1801 Clouds 22 1009 68 10000 6.7 300 12:19 24.12.2019
1802 Clouds 22 1008 68 10000 8.2 300 11:57 24.12.2019
1803 Clouds 22 1008 68 10000 8.2 300 11:37 24.12.2019
1804 Clouds 22 1008 68 10000 8.2 300 11:19 24.12.2019
1805 Clouds 22 1008 73 10000 8.2 300 10:56 24.12.2019
1806 Clouds 22 1008 73 10000 8.2 300 10:38 24.12.2019
1807 Clouds 22 1008 73 10000 8.2 300 10:19 24.12.2019
1808 Clouds 22 1008 73 10000 8.2 300 10:19 24.12.2019
1809 Clouds 23 1008 64 10000 6.7 290 09:55 24.12.2019
1810 Clouds 23 1008 64 10000 6.7 290 09:37 24.12.2019
1811 Clouds 23 1008 64 10000 6.7 290 09:19 24.12.2019
1812 Clouds 23 1009 64 10000 6.7 290 08:46 24.12.2019
1813 Clouds 23 1009 64 10000 6.7 290 08:24 24.12.2019
1814 Clouds 23 1009 69 10000 6.7 290 07:54 24.12.2019
1815 Clouds 22 1009 69 10000 6.7 290 07:36 24.12.2019
1816 Clouds 22 1009 69 10000 6.7 290 07:18 24.12.2019
1817 Clouds 22 1010 78 10000 6.2 290 06:39 24.12.2019
1818 Clouds 22 1010 78 10000 6.2 290 06:19 24.12.2019
1819 Clouds 22 1011 83 10000 6.2 290 05:49 24.12.2019
1820 Clouds 22 1011 83 10000 6.2 290 05:18 24.12.2019
1821 Rain 23 1011 88 10000 4.1 280 03:55 24.12.2019
1822 Rain 23 1011 88 10000 4.1 280 03:33 24.12.2019
1823 Clouds 23 1010 94 10000 4.6 280 02:25 24.12.2019
1824 Rain 22 1010 100 10000 5.7 260 01:52 24.12.2019
1825 Rain 22 1010 100 10000 5.7 260 01:23 24.12.2019
1826 Rain 23 1010 94 10000 4.1 260 00:47 24.12.2019
1827 Rain 22 1009 100 800 7.7 260 00:27 24.12.2019
1828 Rain 25 1009 78 10000 6.2 210 23:59 23.12.2019
1829 Rain 26 1009 78 10000 6.2 210 23:41 23.12.2019
1830 Rain 25 1009 78 10000 6.2 210 23:23 23.12.2019
1831 Rain 25 1009 78 10000 6.2 210 23:23 23.12.2019
1832 Rain 26 1009 74 10000 7.2 210 22:56 23.12.2019
1833 Rain 26 1009 74 10000 7.2 210 22:56 23.12.2019
1834 Rain 26 1009 74 10000 7.2 210 22:37 23.12.2019
1835 Rain 27 1009 74 10000 7.2 210 22:19 23.12.2019
1836 Rain 27 1009 74 10000 7.2 210 21:55 23.12.2019
1837 Rain 27 1009 74 10000 7.2 210 21:36 23.12.2019
1838 Rain 27 1009 74 10000 7.2 210 21:36 23.12.2019
1839 Rain 27 1009 74 10000 7.2 210 21:36 23.12.2019
1840 Rain 27 1009 74 10000 7.2 210 21:18 23.12.2019
1841 Clouds 27 1010 78 10000 7.2 200 20:57 23.12.2019
1842 Clouds 27 1010 78 10000 7.2 200 20:39 23.12.2019
1843 Clouds 26 1011 83 10000 7.2 200 20:18 23.12.2019
1844 Clouds 26 1011 83 10000 7.2 200 19:56 23.12.2019
1845 Clouds 26 1011 83 10000 7.2 200 19:56 23.12.2019
1846 Clouds 25 1011 83 10000 7.2 200 19:38 23.12.2019
1847 Clouds 26 1012 83 10000 7.7 200 19:19 23.12.2019
1848 Clouds 25 1012 83 10000 7.7 200 18:57 23.12.2019
1849 Clouds 25 1012 83 10000 7.7 200 18:38 23.12.2019
1850 Clouds 25 1012 83 10000 7.7 200 18:20 23.12.2019
1851 Clouds 24 1014 88 10000 6.7 210 17:56 23.12.2019
1852 Clouds 24 1014 88 10000 6.7 210 17:37 23.12.2019
1853 Clouds 24 1014 88 10000 6.7 210 17:19 23.12.2019
1854 Clouds 24 1014 88 10000 7.2 210 16:42 23.12.2019
1855 Clouds 24 1014 88 10000 7.2 210 16:42 23.12.2019
1856 Clouds 24 1014 88 10000 6.7 190 16:19 23.12.2019
1857 Clouds 24 1014 88 10000 6.7 190 15:59 23.12.2019
1858 Clouds 24 1014 88 10000 6.7 190 15:39 23.12.2019
1859 Rain 24 1013 94 10000 8.2 170 15:20 23.12.2019
1860 Rain 24 1013 94 10000 8.2 170 14:59 23.12.2019
1861 Rain 24 1013 94 10000 8.2 170 14:41 23.12.2019
1862 Rain 24 1013 94 10000 7.7 170 14:23 23.12.2019
1863 Rain 24 1013 94 10000 7.7 170 13:58 23.12.2019
1864 Rain 24 1013 94 10000 7.7 170 13:40 23.12.2019
1865 Rain 25 1013 86 0 9.96 163 13:22 23.12.2019
1866 Rain 25 1013 86 0 9.96 163 12:57 23.12.2019
1867 Rain 25 1013 86 0 9.96 163 12:39 23.12.2019
1868 Rain 25 1013 86 0 9.96 163 12:19 23.12.2019
1869 Rain 25 1013 86 0 9.96 163 11:44 23.12.2019
1870 Clouds 24 1013 94 10000 6.7 170 11:26 23.12.2019
1871 Rain 25 1012 86 0 10.81 147 10:59 23.12.2019
1872 Rain 25 1012 86 0 10.81 147 10:40 23.12.2019
1873 Rain 25 1012 86 0 10.81 147 10:20 23.12.2019
1874 Rain 25 1012 86 0 10.81 147 09:59 23.12.2019
1875 Rain 25 1012 86 0 10.81 147 09:39 23.12.2019
1876 Rain 25 1012 86 0 10.81 147 09:21 23.12.2019
1877 Rain 25 1012 86 0 10.81 147 08:56 23.12.2019
1878 Rain 25 1012 86 0 10.81 147 08:38 23.12.2019
1879 Rain 24 1014 85 0 10.92 135 08:19 23.12.2019
1880 Rain 22 1014 52 0 11.03 133 07:43 23.12.2019
1881 Rain 22 1014 52 0 11.03 133 07:20 23.12.2019
1882 Rain 22 1014 52 0 11.03 133 06:52 23.12.2019
1883 Rain 22 1014 52 0 11.03 133 06:25 23.12.2019
1884 Rain 22 1015 56 0 11.03 133 05:50 23.12.2019
1885 Rain 23 1017 94 10000 5.7 120 05:26 23.12.2019
1886 Rain 23 1017 94 10000 5.7 120 04:27 23.12.2019
1887 Clouds 24 1017 78 10000 7.2 110 02:56 23.12.2019
1888 Clouds 24 1017 78 10000 7.2 110 02:28 23.12.2019
1889 Clouds 24 1017 78 10000 6.2 100 01:56 23.12.2019
1890 Clouds 24 1017 78 10000 6.2 100 01:38 23.12.2019
1891 Clouds 24 1017 78 10000 6.2 100 01:19 23.12.2019
1892 Rain 24 1017 78 10000 6.7 110 00:36 23.12.2019
1893 Rain 24 1017 78 10000 6.7 110 23:58 22.12.2019
1894 Rain 24 1017 78 10000 6.7 110 23:39 22.12.2019
1895 Rain 24 1017 78 10000 6.7 110 23:20 22.12.2019
1896 Clouds 24 1017 78 10000 7.2 110 22:58 22.12.2019
1897 Clouds 24 1017 78 10000 7.2 110 22:38 22.12.2019
1898 Clouds 25 1017 69 10000 7.2 100 22:19 22.12.2019
1899 Clouds 24 1017 69 10000 7.2 100 21:57 22.12.2019
1900 Clouds 24 1017 69 10000 7.2 100 21:39 22.12.2019
1901 Clouds 24 1017 69 10000 7.2 100 21:20 22.12.2019
1902 Clouds 24 1018 69 10000 7.7 100 20:55 22.12.2019
1903 Clouds 24 1018 69 10000 7.7 100 20:37 22.12.2019
1904 Clouds 24 1018 69 10000 7.7 100 20:37 22.12.2019
1905 Clouds 24 1018 69 10000 7.7 100 20:18 22.12.2019
1906 Clouds 25 1018 69 10000 6.7 110 19:40 22.12.2019
1907 Clouds 25 1018 69 10000 6.7 110 19:21 22.12.2019
1908 Clouds 25 1019 65 10000 7.2 100 18:58 22.12.2019
1909 Clouds 25 1019 65 10000 7.2 100 18:38 22.12.2019
1910 Clouds 25 1019 65 10000 7.2 100 18:19 22.12.2019
1911 Clouds 25 1020 69 10000 6.7 100 17:55 22.12.2019
1912 Clouds 24 1020 69 10000 6.7 100 17:37 22.12.2019
1913 Clouds 24 1020 69 10000 6.7 100 17:18 22.12.2019
1914 Clouds 24 1021 73 10000 5.1 100 16:42 22.12.2019
1915 Clouds 24 1021 73 10000 5.1 100 16:23 22.12.2019
1916 Clouds 24 1021 73 10000 5.7 100 15:58 22.12.2019
1917 Clouds 24 1021 73 10000 5.7 100 15:39 22.12.2019
1918 Clouds 24 1021 73 10000 5.7 100 15:21 22.12.2019
1919 Clouds 23 1020 78 10000 3.6 100 14:59 22.12.2019
1920 Clouds 23 1020 78 10000 3.6 100 14:38 22.12.2019
1921 Clouds 23 1020 78 10000 3.6 100 14:19 22.12.2019
1922 Clouds 23 1020 83 10000 3.1 100 13:56 22.12.2019
1923 Clouds 23 1020 83 10000 3.1 100 13:38 22.12.2019
1924 Clouds 22 1020 83 10000 3.1 100 13:19 22.12.2019
1925 Clouds 21 1019 83 10000 4.1 100 12:57 22.12.2019
1926 Clouds 21 1019 83 10000 4.1 100 12:38 22.12.2019
1927 Clouds 21 1019 83 10000 3.1 100 12:19 22.12.2019
1928 Clouds 21 1019 83 10000 3.1 100 11:56 22.12.2019
1929 Clouds 21 1019 83 10000 3.1 100 11:38 22.12.2019
1930 Clouds 21 1019 83 10000 3.1 100 11:19 22.12.2019
1931 Clouds 22 1019 78 10000 3.1 100 10:56 22.12.2019
1932 Clouds 22 1019 78 10000 3.1 100 10:38 22.12.2019
1933 Clouds 22 1019 78 10000 3.1 100 10:19 22.12.2019
1934 Clouds 22 1019 78 10000 3.1 100 10:19 22.12.2019
1935 Clouds 24 1019 76 0 7.14 86 09:57 22.12.2019
1936 Clouds 24 1019 76 0 7.14 86 09:39 22.12.2019
1937 Clouds 24 1019 76 0 7.14 86 09:20 22.12.2019
1938 Clouds 24 1019 76 0 7.14 86 08:42 22.12.2019
1939 Clouds 22 1021 78 10000 3.1 90 08:22 22.12.2019
1940 Clouds 23 1021 78 10000 3.1 90 07:42 22.12.2019
1941 Clouds 22 1021 73 10000 4.6 110 07:21 22.12.2019
1942 Clouds 22 1021 73 10000 4.6 110 06:52 22.12.2019
1943 Clouds 22 1021 73 10000 4.6 110 06:22 22.12.2019
1944 Clouds 23 1022 69 10000 6.2 110 05:29 22.12.2019
1945 Clouds 23 1021 76 0 2.68 90 04:46 22.12.2019
1946 Clouds 23 1021 76 0 2.68 96 04:24 22.12.2019
1947 Clouds 23 1021 76 0 2.68 110 02:43 22.12.2019
1948 Clouds 23 1021 76 0 2.68 110 02:43 22.12.2019
1949 Clouds 23 1021 76 0 2.68 110 02:43 22.12.2019
1950 Clouds 23 1021 76 0 2.68 110 02:43 22.12.2019
1951 Clouds 23 1021 73 10000 5.7 100 01:59 22.12.2019
1952 Clouds 23 1021 73 10000 5.7 100 01:31 22.12.2019
1953 Clouds 23 1021 73 10000 5.7 110 00:48 22.12.2019
1954 Clouds 23 1020 77 0 3.58 88 00:28 22.12.2019
1955 Clouds 23 1020 77 0 4.02 44 23:57 21.12.2019
1956 Clouds 23 1020 77 0 4.02 44 23:57 21.12.2019
1957 Clouds 23 1019 77 0 3.13 55 23:39 21.12.2019
1958 Clouds 23 1019 78 0 3.58 20 23:20 21.12.2019
1959 Clouds 23 1019 78 0 3.58 45 22:46 21.12.2019
1960 Clouds 23 1019 76 0 4.02 78 22:20 21.12.2019
1961 Clouds 23 1019 77 0 3.13 165 21:58 21.12.2019
1962 Clouds 23 1018 77 0 3.13 70 21:39 21.12.2019
1963 Clouds 25 1020 65 10000 8.7 100 21:20 21.12.2019
1964 Clouds 25 1020 65 10000 8.7 100 20:59 21.12.2019
1965 Clouds 25 1020 65 10000 8.7 100 20:40 21.12.2019
1966 Clouds 25 1020 65 10000 8.7 100 20:22 21.12.2019
1967 Clouds 25 1021 65 10000 9.8 90 19:58 21.12.2019
1968 Clouds 25 1021 65 10000 9.8 90 19:40 21.12.2019
1969 Clouds 25 1021 65 10000 9.8 90 19:19 21.12.2019
1970 Clouds 25 1022 65 10000 8.7 100 18:55 21.12.2019
1971 Clouds 25 1022 65 10000 8.7 100 18:37 21.12.2019
1972 Clouds 25 1022 65 10000 8.7 100 18:19 21.12.2019
1973 Clouds 24 1024 73 10000 9.3 90 17:43 21.12.2019
1974 Clouds 24 1024 73 10000 9.3 90 17:25 21.12.2019
1975 Clouds 24 1024 69 10000 8.7 100 16:59 21.12.2019
1976 Clouds 24 1024 69 10000 8.7 100 16:41 21.12.2019
1977 Clouds 24 1024 69 10000 8.7 100 16:41 21.12.2019
1978 Clouds 24 1023 73 10000 8.2 100 16:19 21.12.2019
1979 Clouds 24 1023 73 10000 8.2 100 16:19 21.12.2019
1980 Clouds 24 1023 73 10000 8.2 100 15:57 21.12.2019
1981 Clouds 24 1023 73 10000 8.2 100 15:38 21.12.2019
1982 Clouds 24 1023 73 10000 8.2 100 15:38 21.12.2019
1983 Clouds 24 1023 73 10000 8.2 100 15:38 21.12.2019
1984 Clouds 23 1023 78 10000 7.2 100 15:19 21.12.2019
1985 Clouds 23 1023 78 10000 7.2 100 14:57 21.12.2019
1986 Clouds 23 1023 78 10000 7.2 100 14:38 21.12.2019
1987 Rain 24 1022 80 0 12.7 70 14:18 21.12.2019
1988 Clouds 23 1023 78 10000 7.2 100 13:55 21.12.2019
1989 Clouds 23 1023 78 10000 7.2 100 13:37 21.12.2019
1990 Clouds 23 1021 73 10000 7.2 90 13:18 21.12.2019
1991 Clouds 23 1021 73 10000 7.2 90 12:54 21.12.2019
1992 Clouds 23 1021 73 10000 7.2 90 12:36 21.12.2019
1993 Clouds 23 1021 73 10000 7.2 90 12:18 21.12.2019
1994 Clouds 23 1021 73 10000 7.2 90 11:42 21.12.2019
1995 Clouds 23 1021 73 10000 7.2 90 11:24 21.12.2019
1996 Rain 23 1021 78 10000 5.7 90 10:56 21.12.2019
1997 Rain 23 1021 78 10000 5.7 90 10:37 21.12.2019
1998 Rain 24 1020 77 0 11.4 79 10:19 21.12.2019
1999 Rain 24 1020 77 0 11.4 79 10:19 21.12.2019
2000 Rain 24 1020 77 0 11.4 79 09:42 21.12.2019
2001 Rain 24 1020 77 0 11.4 79 09:21 21.12.2019
2002 Rain 24 1020 77 0 11.4 79 08:57 21.12.2019
2003 Rain 24 1020 77 0 11.4 79 08:37 21.12.2019
2004 Clouds 23 1022 78 10000 6.7 100 08:18 21.12.2019
2005 Clouds 23 1022 78 10000 6.7 100 07:41 21.12.2019
2006 Clouds 24 1021 76 0 11.97 76 07:22 21.12.2019
2007 Clouds 24 1021 76 0 11.97 76 06:44 21.12.2019
2008 Clouds 23 1022 78 10000 6.7 100 06:25 21.12.2019
2009 Clouds 23 1022 78 10000 6.7 100 05:47 21.12.2019
2010 Clouds 23 1022 78 10000 8.2 90 04:58 21.12.2019
2011 Clouds 23 1022 78 10000 7.2 100 03:57 21.12.2019
2012 Clouds 23 1022 78 10000 8.2 90 02:51 21.12.2019
2013 Clouds 23 1021 78 10000 8.2 100 01:55 21.12.2019
2014 Clouds 24 1021 73 10000 7.7 90 01:27 21.12.2019
2015 Clouds 24 1021 73 10000 7.7 90 00:52 21.12.2019
2016 Clouds 24 1021 73 10000 7.7 90 00:31 21.12.2019
2017 Clouds 24 1021 73 10000 7.2 80 23:56 20.12.2019
2018 Clouds 24 1021 73 10000 7.2 80 23:37 20.12.2019
2019 Clouds 24 1021 73 10000 7.2 80 23:18 20.12.2019
2020 Clouds 24 1020 73 10000 7.2 90 22:40 20.12.2019
2021 Clouds 24 1020 73 10000 7.2 90 22:21 20.12.2019
2022 Clouds 24 1020 73 10000 7.7 80 21:57 20.12.2019
2023 Clouds 24 1020 73 10000 7.7 80 21:39 20.12.2019
2024 Clouds 24 1020 73 10000 7.7 80 21:39 20.12.2019
2025 Clouds 24 1020 73 10000 7.7 80 21:18 20.12.2019
2026 Clouds 24 1020 73 10000 7.2 80 20:39 20.12.2019
2027 Clouds 24 1020 73 10000 7.2 80 20:19 20.12.2019
2028 Clouds 26 1020 74 10000 8.2 80 19:57 20.12.2019
2029 Clouds 26 1020 74 10000 8.2 80 19:39 20.12.2019
2030 Clouds 24 1021 73 10000 8.7 70 19:19 20.12.2019
2031 Clouds 24 1021 73 10000 8.7 70 18:42 20.12.2019
2032 Clouds 24 1021 73 10000 8.7 70 18:24 20.12.2019
2033 Clouds 24 1022 78 10000 8.2 90 17:58 20.12.2019
2034 Clouds 24 1022 78 10000 8.2 90 17:40 20.12.2019
2035 Clouds 24 1022 78 10000 8.2 90 17:21 20.12.2019
2036 Rain 24 1022 83 10000 7.7 80 16:59 20.12.2019
2037 Rain 24 1022 83 10000 7.7 80 16:59 20.12.2019
2038 Rain 24 1022 83 10000 7.7 80 16:38 20.12.2019
2039 Rain 24 1022 83 10000 7.7 80 16:20 20.12.2019
2040 Rain 24 1022 83 10000 7.7 80 16:20 20.12.2019
2041 Clouds 23 1022 83 10000 8.2 90 15:56 20.12.2019
2042 Clouds 23 1022 83 10000 8.2 90 15:38 20.12.2019
2043 Clouds 23 1022 83 10000 8.2 90 15:19 20.12.2019
2044 Clouds 23 1021 83 10000 8.7 90 14:43 20.12.2019
2045 Clouds 23 1021 83 10000 8.7 90 14:24 20.12.2019
2046 Rain 23 1020 83 10000 8.7 90 13:58 20.12.2019
2047 Rain 23 1020 83 10000 8.7 90 13:38 20.12.2019
2048 Rain 23 1020 83 10000 8.7 90 13:19 20.12.2019
2049 Rain 23 1019 83 10000 6.2 90 12:57 20.12.2019
2050 Rain 23 1019 83 10000 6.2 90 12:37 20.12.2019
2051 Rain 23 1019 83 10000 6.2 90 12:18 20.12.2019
2052 Rain 24 1020 80 0 11.98 64 11:57 20.12.2019
2053 Rain 24 1020 80 0 11.98 64 11:39 20.12.2019
2054 Rain 22 1019 88 10000 7.2 80 11:18 20.12.2019
2055 Rain 22 1019 88 10000 7.2 80 11:18 20.12.2019
2056 Rain 22 1019 88 10000 7.2 80 10:56 20.12.2019
2057 Rain 22 1019 88 10000 7.2 80 10:37 20.12.2019
2058 Rain 22 1019 88 10000 7.2 80 10:19 20.12.2019
2059 Rain 22 1019 88 10000 8.2 70 09:43 20.12.2019
2060 Rain 22 1019 88 10000 8.2 70 09:21 20.12.2019
2061 Rain 22 1019 94 10000 8.2 80 08:55 20.12.2019
2062 Rain 22 1019 94 10000 8.2 80 08:37 20.12.2019
2063 Rain 22 1019 94 10000 8.2 80 08:19 20.12.2019
2064 Clouds 23 1019 83 10000 7.2 90 07:55 20.12.2019
2065 Clouds 23 1019 83 10000 7.2 90 07:36 20.12.2019
2066 Clouds 23 1019 83 10000 7.2 90 07:18 20.12.2019
2067 Clouds 23 1019 83 10000 7.7 100 06:43 20.12.2019
2068 Clouds 23 1019 83 10000 7.7 100 06:25 20.12.2019
2069 Rain 22 1020 83 10000 7.2 110 05:47 20.12.2019
2070 Rain 22 1020 94 9000 6.2 100 04:57 20.12.2019
2071 Rain 22 1020 94 9000 5.7 90 03:48 20.12.2019
2072 Rain 22 1019 88 9000 7.2 90 02:46 20.12.2019
2073 Rain 22 1018 94 9000 8.2 80 01:55 20.12.2019
2074 Rain 22 1018 94 9000 8.2 80 01:35 20.12.2019
2075 Rain 22 1018 94 9000 7.7 70 00:53 20.12.2019
2076 Rain 22 1018 94 9000 7.7 70 00:34 20.12.2019
2077 Rain 22 1018 94 9000 8.2 70 23:57 19.12.2019
2078 Rain 22 1018 94 9000 8.2 70 23:39 19.12.2019
2079 Rain 22 1018 94 9000 8.2 70 23:19 19.12.2019
2080 Rain 22 1018 94 9000 8.2 70 23:19 19.12.2019
2081 Rain 21 1017 57 0 12.7 59 22:38 19.12.2019
2082 Rain 21 1017 58 0 12.7 59 22:20 19.12.2019
2083 Rain 22 1017 94 9000 8.7 60 21:56 19.12.2019
2084 Rain 22 1017 94 9000 8.7 60 21:38 19.12.2019
2085 Rain 22 1017 94 9000 8.7 60 21:19 19.12.2019
2086 Rain 22 1017 94 9000 7.7 60 20:56 19.12.2019
2087 Rain 22 1017 94 10000 8.2 60 20:37 19.12.2019
2088 Rain 22 1017 94 10000 8.2 60 20:18 19.12.2019
2089 Rain 22 1018 83 10000 8.2 60 19:57 19.12.2019
2090 Rain 22 1018 83 10000 8.2 60 19:57 19.12.2019
2091 Rain 22 1018 83 10000 8.2 60 19:39 19.12.2019
2092 Rain 22 1018 83 10000 8.2 60 19:39 19.12.2019
2093 Rain 22 1018 83 10000 8.2 60 19:19 19.12.2019
2094 Rain 23 1018 83 10000 9.3 60 18:41 19.12.2019
2095 Rain 23 1018 83 10000 9.3 60 18:23 19.12.2019
2096 Rain 22 1019 88 10000 9.3 60 17:58 19.12.2019
2097 Rain 23 1019 88 10000 9.3 60 17:39 19.12.2019
2098 Rain 23 1019 88 10000 9.3 60 17:19 19.12.2019
2099 Rain 22 1019 94 10000 8.7 60 16:58 19.12.2019
2100 Rain 22 1019 94 10000 8.7 60 16:40 19.12.2019
2101 Rain 22 1019 94 10000 8.7 60 16:22 19.12.2019
2102 Rain 22 1018 94 10000 8.7 50 15:59 19.12.2019
2103 Rain 22 1018 94 10000 8.7 50 15:39 19.12.2019
2104 Rain 22 1018 94 10000 8.7 50 15:20 19.12.2019
2105 Rain 22 1018 94 10000 8.7 50 15:20 19.12.2019
2106 Rain 23 1017 94 10000 7.7 60 14:59 19.12.2019
2107 Rain 23 1017 94 10000 7.7 60 14:40 19.12.2019
2108 Rain 23 1017 94 10000 7.7 60 14:19 19.12.2019
2109 Rain 23 1017 94 10000 6.2 50 13:56 19.12.2019
2110 Rain 23 1017 94 10000 6.2 50 13:37 19.12.2019
2111 Rain 23 1017 94 10000 6.2 50 13:18 19.12.2019
2112 Clouds 24 1016 83 10000 5.1 60 12:54 19.12.2019
2113 Clouds 24 1016 83 10000 5.1 60 12:36 19.12.2019
2114 Clouds 24 1016 83 10000 5.1 60 12:18 19.12.2019
2115 Clouds 24 1016 83 10000 5.1 60 12:18 19.12.2019
2116 Clouds 24 1015 83 10000 5.7 50 11:42 19.12.2019
2117 Clouds 24 1015 83 10000 5.7 50 11:20 19.12.2019
2118 Clouds 24 1015 83 10000 5.7 50 11:20 19.12.2019
2119 Clouds 24 1015 83 10000 5.1 40 10:59 19.12.2019
2120 Clouds 24 1015 83 10000 5.1 40 10:39 19.12.2019
2121 Clouds 24 1015 83 10000 5.1 40 10:20 19.12.2019
2122 Clouds 24 1015 83 10000 4.6 40 09:59 19.12.2019
2123 Clouds 24 1015 83 10000 4.6 40 09:38 19.12.2019
2124 Clouds 24 1015 83 10000 4.6 40 09:20 19.12.2019
2125 Clouds 24 1015 83 10000 4.1 40 08:55 19.12.2019
2126 Clouds 24 1015 83 10000 4.1 40 08:37 19.12.2019
2127 Clouds 24 1015 83 10000 4.1 40 08:18 19.12.2019
2128 Clouds 24 1015 83 10000 4.6 50 07:54 19.12.2019
2129 Clouds 24 1015 83 10000 4.6 50 07:36 19.12.2019
2130 Clouds 24 1015 83 10000 4.6 50 07:18 19.12.2019
2131 Clouds 24 1015 83 10000 5.1 40 06:42 19.12.2019
2132 Clouds 24 1015 83 10000 5.1 40 06:24 19.12.2019
2133 Clouds 25 1015 83 10000 4.1 40 05:45 19.12.2019
2134 Clouds 25 1015 83 10000 4.1 40 05:20 19.12.2019
2135 Clouds 25 1015 88 10000 4.6 30 03:54 19.12.2019
2136 Rain 25 1015 88 10000 5.7 10 02:29 19.12.2019
2137 Rain 25 1014 78 10000 4.1 310 01:26 19.12.2019
2138 Rain 26 1013 78 10000 4.6 300 00:59 19.12.2019
2139 Rain 26 1013 78 10000 4.6 300 00:39 19.12.2019
2140 Rain 26 1013 78 10000 4.6 300 00:19 19.12.2019
2141 Rain 27 1013 78 10000 2.6 280 23:45 18.12.2019
2142 Rain 27 1013 78 10000 2.6 280 23:19 18.12.2019
2143 Clouds 27 1012 74 10000 4.1 210 22:58 18.12.2019
2144 Clouds 28 1012 74 10000 4.1 210 22:39 18.12.2019
2145 Clouds 28 1012 74 10000 4.1 210 22:39 18.12.2019
2146 Clouds 28 1012 74 10000 4.1 210 22:21 18.12.2019
2147 Clouds 28 1011 79 0 1.34 215 21:58 18.12.2019
2148 Clouds 28 1011 79 0 0.45 249 21:40 18.12.2019
2149 Clouds 29 1012 70 10000 5.1 210 21:20 18.12.2019
2150 Clouds 29 1012 70 10000 5.1 210 21:20 18.12.2019
2151 Clouds 29 1012 70 10000 5.1 210 20:57 18.12.2019
2152 Clouds 29 1012 70 10000 5.1 210 20:38 18.12.2019
2153 Clouds 29 1012 70 10000 5.1 210 20:20 18.12.2019
2154 Clouds 29 1012 70 10000 5.7 210 19:56 18.12.2019
2155 Clear 29 1011 78 0 1.79 231 19:38 18.12.2019
2156 Clouds 29 1014 74 10000 6.7 220 19:18 18.12.2019
2157 Clouds 29 1014 74 10000 6.7 220 18:45 18.12.2019
2158 Clouds 29 1014 74 10000 6.7 220 18:45 18.12.2019
2159 Clouds 29 1014 74 10000 6.7 220 18:26 18.12.2019
2160 Clouds 29 1015 74 10000 6.7 210 17:58 18.12.2019
2161 Clouds 29 1015 74 10000 6.7 210 17:40 18.12.2019
2162 Clouds 28 1015 74 10000 6.7 210 17:20 18.12.2019
2163 Clouds 28 1015 74 10000 6.7 210 17:20 18.12.2019
2164 Clouds 27 1015 83 10000 5.7 210 16:58 18.12.2019
2165 Clouds 28 1015 83 10000 5.7 210 16:40 18.12.2019
2166 Clouds 27 1015 78 10000 5.1 200 16:22 18.12.2019
2167 Clouds 27 1015 78 10000 5.1 200 15:57 18.12.2019
2168 Clouds 27 1015 78 10000 5.1 200 15:38 18.12.2019
2169 Clouds 27 1015 78 10000 5.1 200 15:20 18.12.2019
2170 Clouds 26 1014 88 10000 4.1 170 14:43 18.12.2019
2171 Clouds 25 1014 94 10000 3.6 160 14:22 18.12.2019
2172 Clouds 24 1014 94 10000 3.6 160 13:58 18.12.2019
2173 Clouds 25 1014 94 10000 3.6 160 13:39 18.12.2019
2174 Clouds 24 1014 94 10000 3.6 160 13:21 18.12.2019
2175 Clouds 24 1013 94 10000 3.1 170 12:59 18.12.2019
2176 Clouds 24 1013 94 10000 3.1 170 12:40 18.12.2019
2177 Clouds 24 1013 94 10000 3.1 170 12:20 18.12.2019
2178 Clouds 24 1013 88 10000 4.1 170 11:56 18.12.2019
2179 Clouds 24 1013 88 10000 4.1 170 11:38 18.12.2019
2180 Clouds 24 1013 88 10000 4.1 170 11:19 18.12.2019
2181 Clouds 24 1013 88 10000 4.1 170 10:57 18.12.2019
2182 Clouds 24 1013 88 10000 4.1 170 10:39 18.12.2019
2183 Clouds 24 1013 88 10000 4.1 170 10:20 18.12.2019
2184 Clouds 24 1013 94 10000 4.6 170 09:52 18.12.2019
2185 Clouds 24 1013 94 10000 4.6 170 09:19 18.12.2019
2186 Clouds 24 1013 94 10000 3.1 170 08:41 18.12.2019
2187 Clouds 24 1013 94 10000 3.1 170 08:41 18.12.2019
2188 Clouds 24 1013 94 10000 3.1 170 08:23 18.12.2019
2189 Clear 24 1013 94 10000 4.1 170 07:55 18.12.2019
2190 Clear 24 1013 94 10000 4.1 170 07:36 18.12.2019
2191 Clear 24 1013 94 10000 4.1 170 07:18 18.12.2019
2192 Clouds 24 1014 94 10000 3.1 170 06:49 18.12.2019
2193 Clouds 24 1014 94 10000 3.1 170 06:22 18.12.2019
2194 Clouds 24 1014 94 10000 4.1 160 05:22 18.12.2019
2195 Clouds 25 1015 88 10000 4.1 160 03:31 18.12.2019
2196 Clear 25 1014 76 0 0.45 136 02:38 18.12.2019
2197 Clouds 25 1015 88 10000 3.1 150 02:20 18.12.2019
2198 Clouds 25 1015 88 10000 3.1 150 01:42 18.12.2019
2199 Clouds 25 1015 88 10000 3.1 150 01:23 18.12.2019
2200 Clear 25 1014 77 0 7.19 135 00:41 18.12.2019
2201 Clouds 26 1015 83 10000 5.7 160 00:23 18.12.2019
2202 Clouds 26 1015 83 10000 5.7 160 23:57 17.12.2019
2203 Clouds 26 1015 83 10000 5.7 160 23:39 17.12.2019
2204 Clouds 26 1015 83 10000 5.7 160 23:19 17.12.2019
2205 Clouds 27 1015 78 10000 7.2 160 22:56 17.12.2019
2206 Clouds 27 1015 78 10000 7.2 160 22:38 17.12.2019
2207 Clouds 27 1015 78 10000 7.2 160 22:19 17.12.2019
2208 Clouds 27 1015 74 10000 7.7 160 21:55 17.12.2019
2209 Clouds 27 1015 74 10000 7.7 160 21:55 17.12.2019
2210 Clouds 27 1015 74 10000 7.7 160 21:55 17.12.2019
2211 Clouds 27 1015 74 10000 7.7 160 21:37 17.12.2019
2212 Clouds 27 1015 74 10000 7.7 160 21:37 17.12.2019
2213 Clouds 27 1015 74 10000 7.7 160 21:19 17.12.2019
2214 Clouds 28 1015 69 10000 7.7 140 20:56 17.12.2019
2215 Clouds 28 1015 69 10000 7.7 140 20:38 17.12.2019
2216 Clouds 28 1015 69 10000 7.7 140 20:18 17.12.2019
2217 Clouds 28 1016 66 10000 7.2 140 19:55 17.12.2019
2218 Clouds 28 1016 66 10000 7.2 140 19:37 17.12.2019
2219 Clouds 28 1016 66 10000 7.2 140 19:18 17.12.2019
2220 Clouds 28 1017 69 10000 6.7 140 18:42 17.12.2019
2221 Clouds 28 1017 69 10000 6.7 140 18:42 17.12.2019
2222 Clouds 28 1017 69 10000 6.7 140 18:22 17.12.2019
2223 Clouds 28 1018 69 10000 6.7 140 17:59 17.12.2019
2224 Clouds 28 1018 69 10000 6.7 140 17:41 17.12.2019
2225 Clouds 28 1018 69 10000 6.7 140 17:19 17.12.2019
2226 Clouds 27 1018 74 10000 5.7 140 16:56 17.12.2019
2227 Clouds 27 1018 74 10000 5.7 140 16:37 17.12.2019
2228 Clouds 27 1018 74 10000 5.7 140 16:37 17.12.2019
2229 Clouds 27 1018 74 10000 5.7 140 16:19 17.12.2019
2230 Clouds 27 1018 78 10000 5.7 130 15:56 17.12.2019
2231 Clouds 27 1018 78 10000 5.7 130 15:37 17.12.2019
2232 Clouds 26 1018 78 10000 5.7 130 15:19 17.12.2019
2233 Clouds 26 1018 78 10000 5.7 130 15:19 17.12.2019
2234 Clouds 26 1018 83 10000 3.6 140 14:55 17.12.2019
2235 Clouds 26 1018 83 10000 3.6 140 14:36 17.12.2019
2236 Clouds 25 1018 83 10000 3.6 140 14:18 17.12.2019
2237 Clouds 25 1018 94 10000 2.6 130 13:55 17.12.2019
2238 Clouds 25 1018 94 10000 2.6 130 13:55 17.12.2019
2239 Clouds 25 1018 94 10000 2.6 130 13:37 17.12.2019
2240 Clouds 25 1018 94 10000 2.6 130 13:18 17.12.2019
2241 Clouds 24 1018 94 10000 2.6 110 12:41 17.12.2019
2242 Clouds 24 1018 94 10000 2.6 110 12:19 17.12.2019
2243 Clouds 24 1018 94 10000 2.6 110 12:19 17.12.2019
2244 Clouds 24 1018 94 10000 2.6 110 12:19 17.12.2019
2245 Clouds 24 1018 94 10000 2.6 110 12:19 17.12.2019
2246 Clouds 24 1018 94 10000 3.1 110 11:59 17.12.2019
2247 Clouds 24 1018 94 10000 3.1 110 11:37 17.12.2019
2248 Clouds 24 1018 94 10000 3.1 110 11:19 17.12.2019
2249 Clouds 24 1018 94 10000 2.6 120 10:59 17.12.2019
2250 Clouds 24 1018 94 10000 2.6 120 10:40 17.12.2019
2251 Clouds 24 1018 94 10000 2.6 120 10:21 17.12.2019
2252 Clear 25 1017 84 0 8.23 109 09:59 17.12.2019
2253 Clear 25 1017 84 0 8.23 109 09:41 17.12.2019
2254 Clear 25 1017 84 0 8.23 109 09:20 17.12.2019
2255 Clear 25 1017 84 0 8.23 109 08:56 17.12.2019
2256 Clear 25 1017 84 0 8.23 109 08:38 17.12.2019
2257 Clouds 25 1019 83 10000 3.6 120 08:19 17.12.2019
2258 Clouds 25 1019 83 10000 3.6 120 07:45 17.12.2019
2259 Clouds 25 1019 83 10000 3.6 120 07:26 17.12.2019
2260 Clouds 25 1019 88 10000 4.1 110 06:56 17.12.2019
2261 Rain 25 1019 75 0 1.34 82 06:34 17.12.2019
2262 Clouds 25 1020 88 10000 4.6 120 05:52 17.12.2019
2263 Clouds 25 1020 88 10000 4.6 120 05:34 17.12.2019
2264 Clouds 25 1020 88 10000 5.1 110 04:25 17.12.2019
2265 Clouds 25 1020 88 10000 4.6 110 02:33 17.12.2019
2266 Clouds 25 1020 88 10000 4.6 110 02:33 17.12.2019
2267 Clouds 25 1020 88 10000 5.1 100 01:50 17.12.2019
2268 Clouds 25 1019 88 10000 5.1 100 00:56 17.12.2019
2269 Clouds 25 1019 88 10000 5.1 100 00:36 17.12.2019
2270 Clouds 25 1019 88 10000 5.1 100 00:18 17.12.2019
2271 Clouds 26 1019 83 0 5.1 110 23:40 16.12.2019
2272 Clouds 25 1019 83 0 5.1 110 23:19 16.12.2019
2273 Clouds 26 1019 78 10000 7.2 120 22:55 16.12.2019
2274 Clouds 26 1019 78 10000 7.2 120 22:37 16.12.2019
2275 Clouds 26 1019 78 10000 7.2 120 22:19 16.12.2019
2276 Clouds 26 1019 78 10000 5.7 110 21:54 16.12.2019
2277 Clouds 26 1019 78 10000 5.7 110 21:36 16.12.2019
2278 Clouds 27 1019 78 10000 5.7 110 21:18 16.12.2019
2279 Rain 27 1019 74 10000 6.7 110 20:56 16.12.2019
2280 Rain 27 1019 74 10000 6.7 110 20:37 16.12.2019
2281 Rain 27 1019 74 10000 6.7 110 20:18 16.12.2019
2282 Clouds 27 1020 74 10000 6.2 110 19:55 16.12.2019
2283 Clouds 27 1020 74 10000 6.2 110 19:36 16.12.2019
2284 Clouds 27 1020 74 10000 6.2 110 19:18 16.12.2019
2285 Clouds 27 1020 74 10000 6.2 110 19:18 16.12.2019
2286 Rain 27 1021 74 10000 6.2 110 18:42 16.12.2019
2287 Rain 27 1021 74 10000 6.2 110 18:20 16.12.2019
2288 Rain 27 1022 74 10000 6.7 110 17:59 16.12.2019
2289 Rain 27 1022 74 10000 6.7 110 17:41 16.12.2019
2290 Rain 27 1022 74 10000 6.7 110 17:22 16.12.2019
2291 Clouds 26 1022 74 10000 6.7 110 16:59 16.12.2019
2292 Clouds 27 1022 74 10000 6.7 110 16:39 16.12.2019
2293 Clouds 27 1022 74 10000 6.7 110 16:39 16.12.2019
2294 Clouds 26 1022 74 10000 6.7 110 16:20 16.12.2019
2295 Clouds 26 1022 78 10000 6.2 110 15:59 16.12.2019
2296 Clouds 26 1022 78 10000 6.2 110 15:59 16.12.2019
2297 Clouds 26 1022 78 10000 6.2 110 15:39 16.12.2019
2298 Clouds 26 1022 78 10000 6.2 110 15:21 16.12.2019
2299 Clouds 25 1021 83 10000 4.6 100 14:58 16.12.2019
2300 Clouds 25 1021 83 10000 4.6 100 14:38 16.12.2019
2301 Clouds 25 1021 83 10000 4.6 100 14:20 16.12.2019
2302 Clouds 24 1021 83 10000 4.1 100 13:58 16.12.2019
2303 Clouds 24 1021 83 10000 4.1 100 13:38 16.12.2019
2304 Clouds 24 1020 80 0 2.68 86 13:20 16.12.2019
2305 Clouds 25 1020 79 0 9.82 95 12:58 16.12.2019
2306 Clouds 25 1020 79 0 9.82 95 12:40 16.12.2019
2307 Clouds 24 1020 88 10000 4.6 100 12:20 16.12.2019
2308 Clouds 24 1020 88 10000 4.6 100 11:59 16.12.2019
2309 Clouds 24 1020 88 10000 4.6 100 11:41 16.12.2019
2310 Clouds 24 1020 88 10000 4.6 100 11:21 16.12.2019
2311 Clouds 24 1020 88 10000 4.1 100 10:58 16.12.2019
2312 Clouds 24 1020 88 10000 4.1 100 10:40 16.12.2019
2313 Clouds 24 1020 88 10000 4.1 100 10:20 16.12.2019
2314 Clouds 25 1019 81 0 9.81 86 09:45 16.12.2019
2315 Clouds 24 1021 83 10000 5.1 100 09:27 16.12.2019
2316 Clouds 24 1021 83 10000 5.1 100 08:57 16.12.2019
2317 Clouds 24 1021 83 10000 5.1 100 08:38 16.12.2019
2318 Clouds 24 1021 83 10000 5.1 100 08:18 16.12.2019
2319 Clouds 24 1021 83 10000 5.1 100 08:18 16.12.2019
2320 Rain 25 1020 78 0 9.72 78 07:44 16.12.2019
2321 Clouds 24 1021 88 10000 5.1 100 07:22 16.12.2019
2322 Clouds 24 1021 88 10000 5.1 100 06:45 16.12.2019
2323 Clouds 24 1021 88 10000 5.1 100 06:25 16.12.2019
2324 Clouds 24 1022 88 10000 5.1 100 05:50 16.12.2019
2325 Clouds 24 1022 88 10000 5.1 100 05:31 16.12.2019
2326 Clouds 24 1022 88 10000 5.1 100 04:22 16.12.2019
2327 Clouds 24 1021 83 10000 4.6 80 02:19 16.12.2019
2328 Clouds 24 1020 83 10000 4.6 90 01:44 16.12.2019
2329 Clouds 25 1020 83 10000 4.1 80 00:42 16.12.2019
2330 Clouds 25 1020 83 10000 4.1 80 00:24 16.12.2019
2331 Clouds 25 1019 83 10000 4.6 90 23:58 15.12.2019
2332 Clouds 25 1019 83 10000 4.6 90 23:38 15.12.2019
2333 Clouds 25 1019 83 10000 4.6 90 23:19 15.12.2019
2334 Clouds 25 1019 74 10000 5.7 90 22:55 15.12.2019
2335 Clouds 25 1019 74 10000 5.7 90 22:37 15.12.2019
2336 Clouds 25 1019 74 10000 5.7 90 22:18 15.12.2019
2337 Clouds 26 1019 74 10000 5.7 80 21:55 15.12.2019
2338 Clouds 25 1019 74 10000 5.7 80 21:37 15.12.2019
2339 Clouds 25 1019 74 10000 5.7 80 21:18 15.12.2019
2340 Clouds 26 1019 69 10000 5.7 70 20:55 15.12.2019
2341 Clouds 26 1019 69 10000 5.7 70 20:36 15.12.2019
2342 Clouds 26 1019 74 10000 5.1 80 20:18 15.12.2019
2343 Clouds 26 1019 74 10000 5.1 80 20:18 15.12.2019
2344 Clouds 26 1019 74 10000 5.1 80 19:55 15.12.2019
2345 Clouds 26 1019 74 10000 5.1 80 19:37 15.12.2019
2346 Clouds 26 1019 74 10000 5.1 80 19:18 15.12.2019
2347 Clear 26 1020 74 10000 5.1 60 18:54 15.12.2019
2348 Clear 26 1018 79 0 1.79 79 18:36 15.12.2019
2349 Clouds 26 1020 74 10000 5.7 60 18:18 15.12.2019
2350 Clouds 26 1020 74 10000 5.7 60 17:55 15.12.2019
2351 Clouds 26 1020 74 10000 5.7 60 17:36 15.12.2019
2352 Clouds 26 1020 74 10000 5.7 60 17:18 15.12.2019
2353 Clouds 26 1020 74 10000 5.1 60 16:42 15.12.2019
2354 Clouds 26 1020 74 10000 5.1 60 16:22 15.12.2019
2355 Clouds 26 1020 78 10000 3.1 60 15:57 15.12.2019
2356 Clouds 26 1020 78 10000 3.1 60 15:39 15.12.2019
2357 Clouds 26 1020 78 10000 3.1 60 15:19 15.12.2019
2358 Clouds 24 1019 94 10000 0.5 0 14:56 15.12.2019
2359 Clouds 24 1019 94 10000 0.5 0 14:37 15.12.2019
2360 Clouds 24 1019 94 10000 0.5 0 14:19 15.12.2019
2361 Clouds 22 1018 100 10000 3.64 20 13:58 15.12.2019
2362 Clouds 22 1018 100 10000 3.37 23 13:38 15.12.2019
2363 Clouds 22 1018 100 10000 3.37 23 13:19 15.12.2019
2364 Clouds 20 1017 100 10000 3.37 23 12:57 15.12.2019
2365 Clouds 20 1017 100 10000 3.37 23 12:39 15.12.2019
2366 Clouds 20 1017 100 10000 3.37 23 12:20 15.12.2019
2367 Clouds 20 1017 100 10000 3.37 23 12:20 15.12.2019
2368 Clouds 20 1016 100 10000 1 0 11:56 15.12.2019
2369 Clouds 20 1016 100 10000 1 0 11:37 15.12.2019
2370 Clouds 20 1016 100 10000 1 0 11:18 15.12.2019
2371 Clouds 21 1016 100 10000 2.92 317 10:55 15.12.2019
2372 Clouds 21 1016 100 10000 2.92 317 10:37 15.12.2019
2373 Clouds 21 1016 100 10000 2.92 317 10:18 15.12.2019
2374 Clouds 22 1016 88 10000 1.5 270 09:40 15.12.2019
2375 Clouds 22 1016 88 10000 1.5 270 09:20 15.12.2019
2376 Clouds 23 1016 88 10000 1.5 250 08:58 15.12.2019
2377 Clouds 23 1016 88 10000 1.5 250 08:39 15.12.2019
2378 Clouds 23 1016 88 10000 1.5 250 08:20 15.12.2019
2379 Clouds 23 1016 88 10000 1.5 250 07:56 15.12.2019
2380 Clouds 23 1016 88 10000 1.5 250 07:34 15.12.2019
2381 Clouds 23 1016 88 10000 2.1 240 06:44 15.12.2019
2382 Clouds 23 1016 88 10000 2.1 240 06:19 15.12.2019
2383 Clouds 23 1016 88 10000 2.1 230 05:26 15.12.2019
2384 Clouds 23 1016 88 10000 2.1 230 04:47 15.12.2019
2385 Clouds 24 1015 83 10000 2.1 230 03:22 15.12.2019
2386 Clouds 24 1015 83 10000 2.1 260 02:33 15.12.2019
2387 Clouds 24 1014 83 10000 2.1 240 01:46 15.12.2019
2388 Clouds 24 1014 78 10000 2.1 260 01:28 15.12.2019
2389 Clouds 24 1014 78 10000 2.1 260 00:54 15.12.2019
2390 Clouds 24 1014 78 10000 2.1 260 00:35 15.12.2019
2391 Clouds 25 1013 74 10000 3.6 280 23:58 14.12.2019
2392 Clouds 25 1013 74 10000 3.6 280 23:58 14.12.2019
2393 Clouds 25 1013 74 10000 3.6 280 23:39 14.12.2019
2394 Clouds 26 1013 74 10000 3.6 280 23:19 14.12.2019
2395 Clouds 27 1012 65 10000 4.1 280 22:57 14.12.2019
2396 Clouds 27 1012 65 10000 4.1 280 22:39 14.12.2019
2397 Clouds 28 1012 61 10000 5.1 290 22:20 14.12.2019
2398 Clouds 28 1012 61 10000 5.1 290 21:55 14.12.2019
2399 Clouds 28 1012 61 10000 5.1 290 21:55 14.12.2019
2400 Clouds 28 1012 61 10000 5.1 290 21:37 14.12.2019
2401 Clouds 28 1013 61 10000 4.6 300 21:18 14.12.2019
2402 Clouds 28 1013 61 10000 4.6 300 20:54 14.12.2019
2403 Clouds 28 1013 61 10000 4.6 300 20:36 14.12.2019
2404 Clouds 28 1013 61 10000 4.6 300 20:18 14.12.2019
2405 Clouds 28 1013 74 10000 4.1 230 19:40 14.12.2019
2406 Clouds 28 1013 74 10000 4.1 230 19:21 14.12.2019
2407 Clouds 28 1013 74 10000 4.1 230 19:21 14.12.2019
2408 Clouds 28 1013 69 10000 4.6 240 18:57 14.12.2019
2409 Clouds 28 1013 69 10000 4.6 240 18:39 14.12.2019
2410 Clouds 28 1013 69 10000 4.6 240 18:21 14.12.2019
2411 Clouds 27 1014 74 10000 4.6 230 17:58 14.12.2019
2412 Clouds 27 1014 74 10000 4.6 230 17:40 14.12.2019
2413 Clouds 27 1014 74 10000 4.6 230 17:21 14.12.2019
2414 Thunderstorm 26 1014 78 10000 4.6 230 16:41 14.12.2019
2415 Thunderstorm 26 1014 78 10000 4.6 230 16:19 14.12.2019
2416 Clouds 26 1013 78 10000 5.1 230 15:55 14.12.2019
2417 Clouds 25 1013 78 10000 5.1 230 15:37 14.12.2019
2418 Clouds 25 1013 78 10000 5.1 230 15:19 14.12.2019
2419 Thunderstorm 25 1013 83 10000 2.1 250 14:54 14.12.2019
2420 Thunderstorm 25 1013 83 10000 2.1 250 14:36 14.12.2019
2421 Thunderstorm 24 1013 83 10000 2.1 250 14:18 14.12.2019
2422 Clouds 24 1012 88 10000 4.6 250 13:42 14.12.2019
2423 Clouds 24 1012 88 10000 4.6 250 13:19 14.12.2019
2424 Clouds 24 1012 88 10000 4.6 250 13:19 14.12.2019
2425 Rain 25 1012 88 10000 3.6 230 12:57 14.12.2019
2426 Rain 25 1012 88 10000 3.6 230 12:38 14.12.2019
2427 Rain 25 1012 88 10000 3.6 230 12:20 14.12.2019
2428 Rain 25 1012 88 10000 3.6 230 12:20 14.12.2019
2429 Clouds 25 1012 88 10000 6.2 200 11:56 14.12.2019
2430 Clouds 25 1012 88 10000 6.2 200 11:38 14.12.2019
2431 Clouds 25 1012 88 10000 6.2 200 11:19 14.12.2019
2432 Rain 25 1011 88 10000 6.7 180 10:56 14.12.2019
2433 Rain 25 1011 88 10000 6.7 180 10:38 14.12.2019
2434 Rain 25 1011 88 10000 6.7 180 10:19 14.12.2019
2435 Clouds 25 1011 88 10000 6.2 170 09:43 14.12.2019
2436 Clouds 25 1011 88 10000 6.2 170 09:21 14.12.2019
2437 Clouds 24 1012 94 10000 4.6 180 08:57 14.12.2019
2438 Clouds 24 1012 94 10000 4.6 180 08:38 14.12.2019
2439 Clouds 24 1012 94 10000 4.6 180 08:19 14.12.2019
2440 Thunderstorm 24 1013 94 10000 4.6 180 07:40 14.12.2019
2441 Thunderstorm 24 1013 94 10000 4.6 180 07:40 14.12.2019
2442 Thunderstorm 24 1013 94 10000 4.6 180 07:20 14.12.2019
2443 Clouds 24 1014 94 10000 4.1 190 06:42 14.12.2019
2444 Clouds 24 1014 94 10000 4.1 190 06:22 14.12.2019
2445 Thunderstorm 24 1014 94 10000 3.1 190 05:25 14.12.2019
2446 Clouds 25 1014 83 10000 5.1 170 02:51 14.12.2019
2447 Clouds 25 1014 83 10000 5.1 170 02:23 14.12.2019
2448 Clouds 25 1014 88 10000 4.6 180 01:43 14.12.2019
2449 Clouds 25 1014 83 10000 4.6 170 00:55 14.12.2019
2450 Clouds 25 1014 83 10000 4.6 170 00:37 14.12.2019
2451 Clouds 25 1014 83 10000 4.6 170 00:18 14.12.2019
2452 Clouds 25 1013 88 10000 5.7 170 23:39 13.12.2019
2453 Clouds 25 1013 88 10000 5.7 170 23:19 13.12.2019
2454 Clouds 25 1013 88 10000 5.7 170 23:19 13.12.2019
2455 Clouds 26 1013 83 10000 6.2 170 22:55 13.12.2019
2456 Clouds 26 1013 83 10000 6.2 170 22:36 13.12.2019
2457 Clouds 27 1014 78 10000 6.7 170 22:18 13.12.2019
2458 Clouds 27 1014 78 10000 6.7 170 21:40 13.12.2019
2459 Clouds 27 1014 78 10000 6.7 170 21:21 13.12.2019
2460 Clouds 27 1014 78 10000 7.7 160 20:57 13.12.2019
2461 Clouds 27 1014 78 10000 7.7 160 20:38 13.12.2019
2462 Clouds 27 1014 78 10000 7.2 170 20:19 13.12.2019
2463 Clouds 27 1014 78 10000 7.2 170 19:56 13.12.2019
2464 Clouds 27 1014 78 10000 7.2 170 19:36 13.12.2019
2465 Clouds 27 1014 78 10000 7.2 170 19:18 13.12.2019
2466 Clouds 28 1016 74 10000 7.7 160 18:41 13.12.2019
2467 Clouds 28 1016 74 10000 7.7 160 18:19 13.12.2019
2468 Clouds 28 1016 69 10000 8.7 150 17:58 13.12.2019
2469 Clouds 28 1016 69 10000 8.7 150 17:39 13.12.2019
2470 Clouds 28 1016 69 10000 8.7 150 17:18 13.12.2019
2471 Clouds 28 1016 69 10000 8.7 150 17:18 13.12.2019
2472 Clouds 27 1017 74 10000 7.7 150 16:54 13.12.2019
2473 Clouds 27 1017 74 10000 7.7 150 16:54 13.12.2019
2474 Clouds 27 1017 74 10000 7.7 150 16:36 13.12.2019
2475 Clouds 27 1017 74 10000 7.7 150 16:18 13.12.2019
2476 Clouds 26 1017 83 10000 5.7 130 15:40 13.12.2019
2477 Clouds 26 1017 83 10000 5.7 130 15:20 13.12.2019
2478 Clouds 25 1017 88 10000 4.6 120 14:55 13.12.2019
2479 Clouds 25 1017 88 10000 4.6 120 14:36 13.12.2019
2480 Clouds 25 1017 88 10000 4.6 120 14:18 13.12.2019
2481 Clouds 24 1016 94 10000 4.6 120 13:41 13.12.2019
2482 Clouds 24 1016 94 10000 4.6 120 13:21 13.12.2019
2483 Clouds 24 1016 94 10000 3.6 130 12:45 13.12.2019
2484 Clouds 24 1016 94 10000 3.6 130 12:24 13.12.2019
2485 Clouds 23 1016 94 10000 3.1 110 11:59 13.12.2019
2486 Clouds 23 1016 94 10000 3.1 110 11:41 13.12.2019
2487 Clouds 23 1016 94 10000 3.1 110 11:23 13.12.2019
2488 Clouds 23 1017 88 10000 2.1 100 10:56 13.12.2019
2489 Clouds 23 1017 88 10000 2.1 100 10:38 13.12.2019
2490 Clouds 23 1017 88 10000 2.1 100 10:19 13.12.2019
2491 Clouds 23 1017 94 10000 2.6 110 09:41 13.12.2019
2492 Clouds 23 1017 94 10000 2.6 110 09:20 13.12.2019
2493 Clouds 22 1018 100 10000 1 0 08:44 13.12.2019
2494 Clouds 22 1018 100 10000 1 0 08:25 13.12.2019
2495 Rain 22 1018 94 9000 1 0 07:47 13.12.2019
2496 Rain 22 1018 94 9000 1 0 07:24 13.12.2019
2497 Rain 22 1019 94 3000 5.1 140 06:55 13.12.2019
2498 Rain 23 1019 94 3000 5.1 140 06:29 13.12.2019
2499 Clouds 24 1019 88 10000 3.6 100 05:47 13.12.2019
2500 Clouds 24 1019 88 10000 3.6 100 05:28 13.12.2019
2501 Rain 24 1020 83 10000 4.1 100 04:46 13.12.2019
2502 Rain 25 1019 78 10000 5.1 100 03:47 13.12.2019
2503 Rain 25 1019 78 10000 5.7 100 02:34 13.12.2019
2504 Rain 25 1019 78 10000 5.1 80 01:47 13.12.2019
2505 Rain 24 1019 78 10000 4.6 70 00:57 13.12.2019
2506 Rain 24 1019 78 10000 4.6 70 00:37 13.12.2019
2507 Clouds 25 1019 69 10000 4.6 80 23:59 12.12.2019
2508 Clouds 25 1019 69 10000 4.6 80 23:59 12.12.2019
2509 Clouds 25 1019 69 10000 4.6 80 23:39 12.12.2019
2510 Clouds 24 1019 69 10000 4.6 80 23:21 12.12.2019
2511 Clouds 25 1019 61 10000 6.2 90 22:56 12.12.2019
2512 Clouds 25 1019 61 10000 6.2 90 22:37 12.12.2019
2513 Clouds 25 1019 61 10000 6.2 90 22:18 12.12.2019
2514 Clouds 26 1020 65 10000 6.2 90 21:54 12.12.2019
2515 Clouds 25 1020 65 10000 6.2 90 21:36 12.12.2019
2516 Clouds 25 1020 65 10000 6.2 90 21:18 12.12.2019
2517 Clouds 26 1020 57 10000 7.2 90 20:55 12.12.2019
2518 Clouds 26 1020 57 10000 7.2 90 20:55 12.12.2019
2519 Clouds 26 1020 57 10000 7.2 90 20:55 12.12.2019
2520 Clouds 26 1020 57 10000 7.2 90 20:37 12.12.2019
2521 Clouds 26 1020 57 10000 7.2 90 20:19 12.12.2019
2522 Clouds 26 1019 73 0 3.58 47 19:42 12.12.2019
2523 Clouds 26 1022 65 10000 6.2 80 19:22 12.12.2019
2524 Clouds 26 1022 65 10000 6.2 80 18:58 12.12.2019
2525 Clouds 26 1022 65 10000 6.2 80 18:39 12.12.2019
2526 Clouds 26 1022 65 10000 6.2 80 18:20 12.12.2019
2527 Clouds 26 1022 65 10000 6.7 80 17:57 12.12.2019
2528 Clouds 26 1022 65 10000 6.7 80 17:39 12.12.2019
2529 Clouds 26 1022 65 10000 6.7 80 17:20 12.12.2019
2530 Clouds 26 1023 65 10000 6.2 90 16:57 12.12.2019
2531 Clouds 26 1023 65 10000 6.2 90 16:39 12.12.2019
2532 Clouds 26 1023 65 10000 6.2 90 16:20 12.12.2019
2533 Clouds 26 1022 69 10000 5.7 100 15:56 12.12.2019
2534 Clouds 26 1022 69 10000 5.7 100 15:37 12.12.2019
2535 Clouds 25 1022 69 10000 5.7 100 15:18 12.12.2019
2536 Clouds 25 1022 78 10000 3.6 100 14:38 12.12.2019
2537 Clouds 25 1022 78 10000 3.6 100 14:20 12.12.2019
2538 Clouds 23 1022 94 10000 3.1 100 13:58 12.12.2019
2539 Clouds 23 1022 94 10000 3.1 100 13:39 12.12.2019
2540 Clouds 23 1022 94 10000 3.1 100 13:21 12.12.2019
2541 Clouds 22 1021 94 10000 2.1 90 12:58 12.12.2019
2542 Clouds 22 1021 94 10000 2.1 90 12:40 12.12.2019
2543 Clouds 22 1021 94 10000 2.1 90 12:21 12.12.2019
2544 Clouds 23 1021 94 10000 3.6 110 11:56 12.12.2019
2545 Clouds 23 1021 94 10000 3.6 110 11:37 12.12.2019
2546 Clouds 23 1021 94 10000 3.6 110 11:19 12.12.2019
2547 Clear 25 1020 78 0 6.78 81 10:55 12.12.2019
2548 Clear 25 1020 78 0 6.78 81 10:37 12.12.2019
2549 Clear 25 1020 78 0 6.78 81 10:19 12.12.2019
2550 Clear 25 1020 78 0 6.78 81 09:42 12.12.2019
2551 Clear 25 1020 78 0 6.78 81 09:23 12.12.2019
2552 Clear 25 1020 78 0 6.78 81 08:56 12.12.2019
2553 Clear 25 1020 78 0 6.78 81 08:38 12.12.2019
2554 Clouds 23 1022 94 10000 2.6 90 08:20 12.12.2019
2555 Clouds 23 1022 94 10000 2.6 90 07:43 12.12.2019
2556 Clouds 23 1022 94 10000 2.6 90 07:24 12.12.2019
2557 Rain 24 1022 94 10000 2.6 90 06:50 12.12.2019
2558 Rain 24 1022 94 10000 2.6 90 06:32 12.12.2019
2559 Rain 24 1023 88 10000 2.1 90 05:39 12.12.2019
2560 Rain 24 1022 81 0 7.24 88 04:51 12.12.2019
2561 Rain 24 1023 88 10000 2.6 100 03:24 12.12.2019
2562 Rain 25 1022 83 10000 3.6 90 02:38 12.12.2019
2563 Rain 25 1022 83 10000 3.6 90 02:19 12.12.2019
2564 Rain 25 1022 83 10000 3.1 90 01:37 12.12.2019
2565 Rain 25 1022 83 10000 3.1 90 01:18 12.12.2019
2566 Clouds 25 1021 83 10000 2.6 100 00:40 12.12.2019
2567 Clouds 25 1021 83 10000 2.6 100 00:19 12.12.2019
2568 Clouds 25 1021 83 10000 4.1 100 23:44 11.12.2019
2569 Clouds 25 1021 83 10000 4.1 100 23:20 11.12.2019
2570 Clouds 26 1021 78 10000 4.6 100 22:57 11.12.2019
2571 Clear 26 1020 82 0 5.78 99 22:38 11.12.2019
2572 Clear 25 1020 84 0 5.78 99 22:19 11.12.2019
2573 Clear 26 1020 82 0 0.45 82 21:57 11.12.2019
2574 Clear 26 1020 82 0 5.78 99 21:37 11.12.2019
2575 Clouds 27 1021 69 10000 5.7 130 21:19 11.12.2019
2576 Clouds 27 1021 69 10000 5.7 130 20:56 11.12.2019
2577 Clouds 27 1021 69 10000 5.7 130 20:37 11.12.2019
2578 Clouds 27 1021 69 10000 5.7 130 20:19 11.12.2019
2579 Clouds 27 1021 69 10000 6.7 140 19:57 11.12.2019
2580 Clouds 27 1021 69 10000 6.7 140 19:38 11.12.2019
2581 Clouds 28 1021 69 10000 6.7 140 19:18 11.12.2019
2582 Rain 27 1022 69 10000 6.7 140 18:40 11.12.2019
2583 Rain 27 1022 69 10000 6.7 140 18:21 11.12.2019
2584 Rain 28 1023 69 10000 6.2 130 17:57 11.12.2019
2585 Rain 27 1023 69 10000 6.2 130 17:38 11.12.2019
2586 Rain 27 1023 69 10000 6.2 130 17:18 11.12.2019
2587 Clouds 27 1023 78 10000 5.7 120 16:56 11.12.2019
2588 Clouds 27 1023 78 10000 5.7 120 16:56 11.12.2019
2589 Clouds 27 1023 78 10000 5.7 120 16:37 11.12.2019
2590 Clouds 27 1023 78 10000 5.7 120 16:19 11.12.2019
2591 Clouds 27 1023 83 10000 3.6 130 15:57 11.12.2019
2592 Clouds 27 1023 83 10000 3.6 130 15:57 11.12.2019
2593 Clouds 27 1023 83 10000 3.6 130 15:37 11.12.2019
2594 Clouds 27 1023 83 10000 3.6 130 15:19 11.12.2019
2595 Clouds 26 1022 94 10000 3.1 120 14:55 11.12.2019
2596 Clouds 25 1022 94 10000 3.1 120 14:37 11.12.2019
2597 Clouds 24 1022 94 10000 2.1 100 14:18 11.12.2019
2598 Clouds 24 1022 94 10000 2.1 100 13:44 11.12.2019
2599 Clouds 24 1021 94 10000 2.1 90 13:24 11.12.2019
2600 Clouds 24 1021 94 10000 2.1 90 12:59 11.12.2019
2601 Clouds 24 1021 94 10000 2.1 90 12:39 11.12.2019
2602 Clouds 24 1021 94 10000 2.1 90 12:21 11.12.2019
2603 Clouds 24 1021 94 10000 2.1 90 11:58 11.12.2019
2604 Rain 25 1021 83 0 8.09 101 11:39 11.12.2019
2605 Rain 25 1019 83 0 6.7 98 11:19 11.12.2019
2606 Rain 25 1019 83 0 6.7 98 10:59 11.12.2019
2607 Rain 25 1019 83 0 6.7 98 10:39 11.12.2019
2608 Rain 25 1019 83 0 6.7 98 10:21 11.12.2019
2609 Rain 25 1019 83 0 6.7 98 09:56 11.12.2019
2610 Rain 25 1019 83 0 6.7 98 09:38 11.12.2019
2611 Rain 25 1019 83 0 6.7 98 09:19 11.12.2019
2612 Rain 25 1019 83 0 6.7 98 08:55 11.12.2019
2613 Rain 25 1019 83 0 6.7 98 08:36 11.12.2019
2614 Rain 25 1020 83 0 7.63 105 08:18 11.12.2019
2615 Rain 25 1020 83 0 7.63 105 07:42 11.12.2019
2616 Rain 25 1020 83 0 7.63 105 07:22 11.12.2019
2617 Rain 25 1020 83 0 7.63 105 06:46 11.12.2019
2618 Clouds 25 1021 88 10000 4.6 130 06:24 11.12.2019
2619 Clouds 25 1021 88 10000 4.6 130 05:53 11.12.2019
2620 Clouds 25 1021 88 10000 4.6 130 05:28 11.12.2019
2621 Clouds 25 1021 88 10000 5.1 120 04:48 11.12.2019
2622 Clouds 25 1021 88 10000 5.1 120 03:18 11.12.2019
2623 Clouds 25 1021 88 10000 3.6 120 01:56 11.12.2019
2624 Clouds 25 1021 88 10000 3.6 120 01:21 11.12.2019
2625 Clouds 25 1020 83 10000 4.1 120 00:36 11.12.2019
2626 Clouds 25 1020 83 10000 4.1 120 00:18 11.12.2019
2627 Clear 25 1019 82 0 7.95 102 23:41 10.12.2019
2628 Clouds 26 1019 78 10000 5.7 130 23:22 10.12.2019
2629 Clouds 26 1019 78 10000 5.7 130 22:42 10.12.2019
2630 Clouds 26 1019 78 10000 5.7 130 22:24 10.12.2019
2631 Clouds 26 1019 78 10000 5.7 130 22:24 10.12.2019
2632 Clouds 27 1019 74 10000 6.7 130 21:58 10.12.2019
2633 Clouds 27 1019 74 10000 6.7 130 21:39 10.12.2019
2634 Clouds 28 1019 74 10000 6.7 130 21:21 10.12.2019
2635 Clouds 28 1019 74 10000 7.2 130 20:58 10.12.2019
2636 Clouds 28 1019 74 10000 7.2 130 20:38 10.12.2019
2637 Clouds 28 1019 74 10000 7.2 130 20:19 10.12.2019
2638 Clouds 28 1019 74 10000 7.2 130 20:19 10.12.2019
2639 Clouds 28 1019 74 10000 7.2 130 20:19 10.12.2019
2640 Clouds 28 1019 74 10000 7.2 130 20:19 10.12.2019
2641 Clouds 28 1020 74 10000 7.2 130 19:56 10.12.2019
2642 Clouds 28 1020 74 10000 7.2 130 19:37 10.12.2019
2643 Clouds 28 1020 74 10000 7.2 130 19:19 10.12.2019
2644 Clouds 28 1020 74 10000 7.7 140 18:42 10.12.2019
2645 Clouds 28 1020 74 10000 7.7 140 18:21 10.12.2019
2646 Clouds 28 1021 74 10000 7.2 120 17:59 10.12.2019
2647 Clouds 28 1021 74 10000 7.2 120 17:41 10.12.2019
2648 Clouds 27 1021 74 10000 7.2 120 17:22 10.12.2019
2649 Clouds 27 1021 74 10000 7.2 120 17:22 10.12.2019
2650 Clouds 27 1022 78 10000 6.7 130 16:55 10.12.2019
2651 Clouds 27 1022 78 10000 6.7 130 16:36 10.12.2019
2652 Clouds 27 1022 78 10000 6.7 130 16:18 10.12.2019
2653 Clouds 26 1022 83 10000 5.7 120 15:38 10.12.2019
2654 Clouds 26 1022 83 10000 5.7 120 15:38 10.12.2019
2655 Clouds 26 1022 83 10000 5.7 120 15:18 10.12.2019
2656 Clouds 25 1021 88 10000 5.1 110 14:56 10.12.2019
2657 Clouds 25 1021 88 10000 5.1 110 14:38 10.12.2019
2658 Clouds 25 1021 88 10000 5.1 110 14:19 10.12.2019
2659 Rain 24 1020 88 10000 3.1 100 13:57 10.12.2019
2660 Rain 24 1020 88 10000 3.1 100 13:39 10.12.2019
2661 Rain 24 1020 88 10000 3.1 100 13:20 10.12.2019
2662 Clouds 24 1020 88 10000 2.6 100 12:48 10.12.2019
2663 Clouds 24 1020 88 10000 2.6 100 12:28 10.12.2019
2664 Clouds 24 1019 88 10000 2.6 100 11:55 10.12.2019
2665 Clouds 24 1019 88 10000 2.6 100 11:37 10.12.2019
2666 Clouds 24 1019 88 10000 2.6 100 11:18 10.12.2019
2667 Clouds 24 1019 88 10000 2.6 100 10:42 10.12.2019
2668 Clouds 24 1019 88 10000 2.6 100 10:24 10.12.2019
2669 Clouds 23 1020 94 10000 2.6 100 09:57 10.12.2019
2670 Clouds 23 1020 94 10000 2.6 100 09:39 10.12.2019
2671 Clouds 23 1020 94 10000 2.6 100 09:20 10.12.2019
2672 Clouds 24 1020 88 10000 3.1 120 08:58 10.12.2019
2673 Clouds 24 1020 88 10000 3.1 120 08:39 10.12.2019
2674 Clouds 24 1020 88 10000 3.1 120 08:19 10.12.2019
2675 Clouds 24 1020 88 10000 3.6 120 07:44 10.12.2019
2676 Clouds 24 1020 88 10000 3.6 120 07:26 10.12.2019
2677 Clouds 24 1020 88 10000 3.1 120 06:50 10.12.2019
2678 Clouds 24 1020 88 10000 3.1 120 06:25 10.12.2019
2679 Clouds 24 1021 88 10000 3.1 120 05:56 10.12.2019
2680 Rain 24 1020 82 0 7.56 111 05:34 10.12.2019
2681 Clouds 24 1020 94 10000 4.6 110 03:55 10.12.2019
2682 Rain 24 1019 82 0 7.9 114 02:57 10.12.2019
2683 Rain 24 1019 82 0 7.9 114 02:57 10.12.2019
2684 Clouds 24 1020 83 10000 4.1 110 01:55 10.12.2019
2685 Clouds 25 1019 83 10000 2.6 110 01:27 10.12.2019
2686 Clouds 25 1019 83 10000 2.6 110 00:58 10.12.2019
2687 Clouds 25 1019 83 10000 2.6 110 00:25 10.12.2019
2688 Clouds 25 1019 78 10000 5.7 120 23:55 09.12.2019
2689 Rain 24 1018 83 0 8.12 109 23:36 09.12.2019
2690 Clouds 26 1018 74 10000 4.6 120 23:18 09.12.2019
2691 Clouds 26 1018 74 10000 4.6 120 22:54 09.12.2019
2692 Clouds 26 1018 74 10000 4.6 120 22:36 09.12.2019
2693 Clouds 26 1018 74 10000 4.6 120 22:18 09.12.2019
2694 Clouds 27 1018 65 10000 6.2 130 21:54 09.12.2019
2695 Clouds 27 1018 65 10000 6.2 130 21:36 09.12.2019
2696 Clouds 27 1018 65 10000 6.2 130 21:18 09.12.2019
2697 Clouds 26 1019 69 10000 5.7 130 20:54 09.12.2019
2698 Rain 26 1017 80 0 7.79 109 20:36 09.12.2019
2699 Clouds 27 1019 69 10000 6.7 130 20:18 09.12.2019
2700 Clouds 27 1019 69 10000 6.7 130 19:54 09.12.2019
2701 Clouds 27 1019 69 10000 6.7 130 19:36 09.12.2019
2702 Clouds 27 1019 69 10000 6.7 130 19:18 09.12.2019
2703 Clouds 27 1020 69 10000 5.1 130 18:40 09.12.2019
2704 Clouds 27 1020 69 10000 5.1 130 18:20 09.12.2019
2705 Clouds 27 1020 69 10000 5.1 130 18:20 09.12.2019
2706 Rain 24 1022 94 10000 3.1 180 17:59 09.12.2019
2707 Rain 25 1022 94 10000 3.1 180 17:41 09.12.2019
2708 Rain 24 1022 94 10000 3.1 180 17:21 09.12.2019
2709 Rain 24 1022 94 10000 7.7 160 16:57 09.12.2019
2710 Clouds 25 1021 81 0 8.18 103 16:39 09.12.2019
2711 Rain 25 1021 73 10000 5.7 110 16:21 09.12.2019
2712 Rain 25 1021 73 10000 5.7 110 15:56 09.12.2019
2713 Rain 25 1021 73 10000 5.7 110 15:38 09.12.2019
2714 Rain 25 1021 73 10000 5.7 110 15:19 09.12.2019
2715 Clouds 24 1021 88 10000 3.1 90 14:59 09.12.2019
2716 Clouds 24 1021 88 10000 3.1 90 14:40 09.12.2019
2717 Clouds 24 1021 88 10000 3.1 90 14:18 09.12.2019
2718 Clouds 24 1020 83 10000 2.6 90 13:55 09.12.2019
2719 Clouds 24 1020 83 10000 2.6 90 13:36 09.12.2019
2720 Clouds 23 1020 83 10000 2.6 90 13:18 09.12.2019
2721 Clear 22 1020 83 10000 2.1 80 12:54 09.12.2019
2722 Clear 22 1020 83 10000 2.1 80 12:36 09.12.2019
2723 Clear 22 1020 83 10000 2.1 80 12:18 09.12.2019
2724 Clear 22 1019 83 10000 2.1 90 11:40 09.12.2019
2725 Clear 22 1019 83 10000 2.1 90 11:21 09.12.2019
2726 Clear 21 1019 88 10000 2.1 90 10:57 09.12.2019
2727 Clear 21 1019 88 10000 2.1 90 10:38 09.12.2019
2728 Clear 21 1019 88 10000 2.1 90 10:19 09.12.2019
2729 Clear 21 1019 88 10000 2.1 90 10:19 09.12.2019
2730 Clear 22 1019 83 10000 2.1 100 09:44 09.12.2019
2731 Clear 22 1019 83 10000 2.1 100 09:24 09.12.2019
2732 Clear 25 1018 78 0 7.1 88 08:57 09.12.2019
2733 Clear 25 1018 78 0 7.1 88 08:38 09.12.2019
2734 Clear 22 1020 83 10000 2.1 90 08:20 09.12.2019
2735 Clear 22 1020 83 10000 2.1 90 07:48 09.12.2019
2736 Clear 22 1020 83 10000 2.1 90 07:30 09.12.2019
2737 Clouds 23 1020 73 10000 2.6 90 06:55 09.12.2019
2738 Clouds 23 1020 73 10000 2.6 90 06:28 09.12.2019
2739 Clouds 23 1021 78 10000 2.1 100 05:30 09.12.2019
2740 Clouds 23 1021 73 10000 2.6 100 04:54 09.12.2019
2741 Clouds 23 1021 73 10000 2.6 100 04:23 09.12.2019
2742 Clouds 23 1021 78 10000 3.1 90 02:27 09.12.2019
2743 Clouds 23 1021 69 10000 2.6 90 01:45 09.12.2019
2744 Clouds 24 1020 64 10000 2.6 90 00:55 09.12.2019
2745 Clouds 24 1020 64 10000 2.6 90 00:32 09.12.2019
2746 Clouds 24 1020 69 10000 4.1 70 23:54 08.12.2019
2747 Clouds 24 1020 69 10000 4.1 70 23:36 08.12.2019
2748 Clouds 24 1020 69 10000 4.1 70 23:18 08.12.2019
2749 Clouds 24 1020 65 10000 4.6 80 22:56 08.12.2019
2750 Clouds 24 1020 65 10000 4.6 80 22:37 08.12.2019
2751 Clouds 24 1020 65 10000 4.6 80 22:18 08.12.2019
2752 Clouds 24 1019 65 10000 5.7 70 21:54 08.12.2019
2753 Clouds 24 1019 65 10000 5.7 70 21:54 08.12.2019
2754 Clouds 25 1019 65 10000 5.7 70 21:36 08.12.2019
2755 Clouds 25 1019 65 10000 5.7 70 21:18 08.12.2019
2756 Clouds 25 1019 61 10000 5.7 90 20:54 08.12.2019
2757 Clouds 25 1019 61 10000 5.7 90 20:54 08.12.2019
2758 Clouds 25 1019 61 10000 5.7 90 20:36 08.12.2019
2759 Clouds 25 1019 61 10000 5.7 90 20:18 08.12.2019
2760 Clouds 26 1020 57 10000 5.7 60 19:42 08.12.2019
2761 Clouds 26 1021 57 10000 5.7 60 19:24 08.12.2019
2762 Clouds 26 1021 57 10000 5.7 60 18:56 08.12.2019
2763 Clouds 25 1021 57 10000 5.7 60 18:37 08.12.2019
2764 Clouds 25 1021 57 10000 5.7 60 18:19 08.12.2019
2765 Clouds 25 1021 61 10000 5.7 70 17:57 08.12.2019
2766 Clouds 25 1021 61 10000 5.7 70 17:39 08.12.2019
2767 Clouds 25 1021 61 10000 5.7 70 17:20 08.12.2019
2768 Clouds 25 1022 61 10000 5.7 70 16:57 08.12.2019
2769 Clouds 25 1022 61 10000 5.7 70 16:39 08.12.2019
2770 Clouds 25 1022 61 10000 5.7 70 16:21 08.12.2019
2771 Clouds 24 1021 74 0 1.79 79 15:56 08.12.2019
2772 Clouds 24 1021 73 0 3.13 104 15:36 08.12.2019
2773 Clouds 24 1021 73 0 3.13 35 15:18 08.12.2019
2774 Clouds 23 1021 69 10000 0.5 0 14:44 08.12.2019
2775 Clouds 23 1021 69 10000 0.5 0 14:24 08.12.2019
2776 Clouds 21 1020 93 10000 1 0 13:59 08.12.2019
2777 Clouds 21 1020 93 10000 1 0 13:40 08.12.2019
2778 Clouds 21 1020 93 10000 1 0 13:21 08.12.2019
2779 Clouds 21 1020 93 10000 1 0 13:21 08.12.2019
2780 Clouds 16 1020 93 10000 1 0 12:57 08.12.2019
2781 Clouds 16 1020 93 10000 1 0 12:38 08.12.2019
2782 Clouds 16 1020 93 10000 1 0 12:18 08.12.2019
2783 Clouds 17 1020 88 10000 1 0 11:57 08.12.2019
2784 Clouds 17 1020 88 10000 1 0 11:37 08.12.2019
2785 Clouds 17 1020 88 10000 1 0 11:19 08.12.2019
2786 Clouds 17 1019 88 10000 6.29 52 10:40 08.12.2019
2787 Clouds 17 1019 88 10000 6.29 52 10:21 08.12.2019
2788 Clouds 17 1020 88 10000 6.29 52 09:58 08.12.2019
2789 Clouds 17 1020 88 10000 6.29 52 09:39 08.12.2019
2790 Clouds 17 1020 88 10000 6.29 52 09:20 08.12.2019
2791 Clouds 17 1020 88 10000 1 0 08:59 08.12.2019
2792 Clouds 17 1020 88 10000 1 0 08:39 08.12.2019
2793 Clouds 17 1020 88 10000 1 0 08:39 08.12.2019
2794 Clouds 17 1020 88 10000 1 0 08:21 08.12.2019
2795 Clear 24 1019 66 0 6.01 41 07:44 08.12.2019
2796 Clouds 17 1020 88 10000 0.5 0 07:20 08.12.2019
2797 Clouds 21 1020 88 10000 0.5 0 06:51 08.12.2019
2798 Clouds 21 1020 88 10000 0.5 0 06:23 08.12.2019
2799 Clouds 20 1021 88 10000 0.5 0 05:51 08.12.2019
2800 Clouds 20 1021 88 10000 0.5 0 05:18 08.12.2019
2801 Clouds 22 1021 68 10000 2.1 40 03:54 08.12.2019
2802 Clouds 22 1021 68 10000 2.1 40 03:36 08.12.2019
2803 Clouds 23 1021 60 10000 3.1 20 02:40 08.12.2019
2804 Clouds 23 1020 64 10000 2.6 20 01:56 08.12.2019
2805 Clouds 23 1020 64 10000 2.6 20 01:27 08.12.2019
2806 Clouds 23 1020 64 10000 2.6 30 00:42 08.12.2019
2807 Clouds 23 1020 64 10000 2.6 30 00:21 08.12.2019
2808 Clouds 23 1019 60 10000 2.6 50 23:42 07.12.2019
2809 Clouds 23 1019 60 10000 2.6 50 23:21 07.12.2019
2810 Clouds 24 1019 60 10000 3.6 360 22:58 07.12.2019
2811 Clouds 24 1019 60 10000 3.6 360 22:40 07.12.2019
2812 Clouds 24 1019 60 10000 3.6 360 22:22 07.12.2019
2813 Clouds 24 1019 60 10000 3.6 20 21:56 07.12.2019
2814 Clouds 24 1019 60 10000 3.6 20 21:38 07.12.2019
2815 Clouds 24 1019 60 10000 3.6 20 21:20 07.12.2019
2816 Clouds 24 1019 64 10000 3.6 30 20:59 07.12.2019
2817 Clouds 24 1019 64 10000 3.6 30 20:37 07.12.2019
2818 Clouds 24 1019 64 10000 3.6 30 20:18 07.12.2019
2819 Clouds 24 1019 64 10000 3.6 30 20:18 07.12.2019
2820 Clouds 24 1020 60 10000 3.1 40 19:56 07.12.2019
2821 Clouds 24 1020 60 10000 3.1 40 19:38 07.12.2019
2822 Clouds 24 1020 60 10000 3.1 40 19:20 07.12.2019
2823 Clouds 24 1051 61 10000 3.6 50 18:44 07.12.2019
2824 Clouds 25 1051 61 10000 3.6 50 18:20 07.12.2019
2825 Clouds 24 1021 61 10000 4.1 50 17:58 07.12.2019
2826 Clouds 24 1021 61 10000 4.1 50 17:40 07.12.2019
2827 Clouds 25 1021 61 10000 4.1 50 17:22 07.12.2019
2828 Clouds 24 1021 61 10000 3.1 40 16:57 07.12.2019
2829 Clouds 25 1021 61 10000 3.1 40 16:38 07.12.2019
2830 Clouds 25 1021 61 10000 3.1 40 16:20 07.12.2019
2831 Clouds 24 1021 60 10000 0.5 0 15:56 07.12.2019
2832 Clouds 24 1021 60 10000 0.5 0 15:38 07.12.2019
2833 Clouds 24 1021 60 10000 0.5 0 15:18 07.12.2019
2834 Clouds 24 1021 60 10000 0.5 0 15:18 07.12.2019
2835 Clouds 21 1021 88 10000 2.73 25 14:42 07.12.2019
2836 Clouds 21 1021 88 10000 2.39 39 14:19 07.12.2019
2837 Clouds 18 1020 93 10000 2.39 39 13:41 07.12.2019
2838 Clouds 15 1020 93 10000 2.22 50 13:21 07.12.2019
2839 Clouds 15 1020 93 10000 2.22 50 12:59 07.12.2019
2840 Clouds 15 1020 93 10000 2.22 50 12:40 07.12.2019
2841 Clouds 15 1020 93 10000 2.22 50 12:22 07.12.2019
2842 Clouds 16 1019 87 10000 0.5 0 11:58 07.12.2019
2843 Clouds 16 1019 87 10000 0.5 0 11:40 07.12.2019
2844 Clouds 16 1019 87 10000 0.5 0 11:21 07.12.2019
2845 Clouds 16 1019 87 10000 1.97 41 10:38 07.12.2019
2846 Clouds 16 1019 87 10000 1.97 41 10:19 07.12.2019
2847 Clouds 23 1019 57 0 1.97 41 09:56 07.12.2019
2848 Clouds 23 1019 57 0 1.97 41 09:36 07.12.2019
2849 Clouds 23 1019 57 0 1.97 41 09:18 07.12.2019
2850 Clouds 23 1019 57 0 1.97 41 08:40 07.12.2019
2851 Clouds 16 1021 93 10000 2.31 43 08:21 07.12.2019
2852 Clouds 16 1021 93 10000 2.31 43 07:45 07.12.2019
2853 Clouds 16 1021 93 10000 2.31 43 07:26 07.12.2019
2854 Clouds 16 1021 93 10000 2.31 43 06:50 07.12.2019
2855 Clouds 20 1021 93 10000 2.31 43 06:25 07.12.2019
2856 Clouds 19 1021 82 10000 2.31 43 05:34 07.12.2019
2857 Clear 19 1022 88 10000 3.16 58 03:59 07.12.2019
2858 Clear 17 1022 88 10000 3.16 58 03:40 07.12.2019
2859 Clouds 20 1021 82 10000 3.78 60 02:21 07.12.2019
2860 Clouds 20 1021 77 10000 6.2 0 01:35 07.12.2019
2861 Clouds 22 1020 64 10000 1 0 00:53 07.12.2019
2862 Clouds 22 1020 64 10000 1 0 00:20 07.12.2019
2863 Clouds 23 1020 53 10000 2.6 110 23:56 06.12.2019
2864 Clouds 22 1019 71 0 3.77 73 23:36 06.12.2019
2865 Clouds 24 1020 53 10000 4.1 90 23:18 06.12.2019
2866 Clouds 24 1020 53 10000 4.1 90 22:38 06.12.2019
2867 Clouds 24 1020 53 10000 4.1 90 22:20 06.12.2019
2868 Clouds 24 1020 53 10000 3.6 80 21:57 06.12.2019
2869 Clouds 24 1020 53 10000 3.6 80 21:39 06.12.2019
2870 Clouds 24 1020 53 10000 3.6 80 21:19 06.12.2019
2871 Clouds 25 1020 50 10000 3.6 100 20:42 06.12.2019
2872 Clouds 25 1020 50 10000 3.6 100 20:42 06.12.2019
2873 Clouds 25 1020 50 10000 3.6 100 20:24 06.12.2019
2874 Clouds 25 1020 50 10000 3.6 100 20:24 06.12.2019
2875 Clouds 24 1020 53 10000 5.1 160 19:59 06.12.2019
2876 Clouds 24 1019 66 0 0.45 50 19:40 06.12.2019
2877 Clouds 25 1021 53 10000 3.1 110 19:22 06.12.2019
2878 Clouds 24 1021 53 10000 3.1 110 18:56 06.12.2019
2879 Clouds 24 1021 53 10000 3.1 110 18:38 06.12.2019
2880 Clouds 24 1021 53 10000 3.1 110 18:19 06.12.2019
2881 Clouds 24 1022 50 10000 3.1 100 17:55 06.12.2019
2882 Clouds 24 1022 50 10000 3.1 100 17:37 06.12.2019
2883 Clouds 24 1022 50 10000 3.1 100 17:19 06.12.2019
2884 Clouds 24 1023 50 10000 3.6 90 16:42 06.12.2019
2885 Clouds 24 1023 50 10000 3.6 90 16:24 06.12.2019
2886 Clouds 23 1022 64 10000 1.5 110 15:59 06.12.2019
2887 Clouds 23 1022 64 10000 1.5 110 15:40 06.12.2019
2888 Clouds 23 1022 64 10000 1.5 110 15:18 06.12.2019
2889 Clouds 21 1022 82 10000 4.18 75 14:55 06.12.2019
2890 Clouds 19 1022 82 10000 4.18 75 14:37 06.12.2019
2891 Clouds 21 1022 82 10000 4.83 81 14:18 06.12.2019
2892 Clouds 18 1021 93 10000 1 0 13:42 06.12.2019
2893 Clouds 17 1021 93 10000 0.5 0 13:23 06.12.2019
2894 Clouds 14 1021 93 10000 0.5 0 12:42 06.12.2019
2895 Clouds 14 1021 93 10000 0.5 0 12:22 06.12.2019
2896 Clouds 14 1020 93 10000 4.82 79 11:56 06.12.2019
2897 Clouds 14 1020 93 10000 4.82 79 11:37 06.12.2019
2898 Clouds 14 1020 93 10000 3.56 44 11:19 06.12.2019
2899 Clouds 23 1019 57 0 3.56 44 10:42 06.12.2019
2900 Clouds 15 1020 93 10000 3.56 44 10:21 06.12.2019
2901 Clouds 15 1020 93 10000 3.56 44 09:57 06.12.2019
2902 Clouds 23 1019 57 0 3.56 44 09:37 06.12.2019
2903 Clouds 23 1019 57 0 3.56 44 09:37 06.12.2019
2904 Clouds 23 1019 57 0 3.56 44 09:19 06.12.2019
2905 Clouds 23 1019 57 0 3.56 44 08:45 06.12.2019
2906 Clouds 17 1021 88 10000 3.54 65 08:26 06.12.2019
2907 Clouds 17 1021 88 10000 3.83 45 07:44 06.12.2019
2908 Clouds 17 1021 88 10000 3.83 45 07:23 06.12.2019
2909 Clouds 17 1021 88 10000 0.5 0 06:57 06.12.2019
2910 Clouds 17 1021 88 10000 0.5 0 06:26 06.12.2019
2911 Clouds 20 1021 82 10000 3.83 45 05:52 06.12.2019
2912 Clouds 20 1021 82 10000 1 0 04:34 06.12.2019
2913 Clouds 21 1020 73 10000 2.1 50 01:48 06.12.2019
2914 Clouds 21 1019 73 10000 2.1 50 00:57 06.12.2019
2915 Clouds 21 1019 73 10000 2.1 50 00:37 06.12.2019
2916 Clouds 21 1019 73 10000 2.1 50 00:19 06.12.2019
2917 Clouds 22 1018 68 10000 3.1 30 23:21 05.12.2019
2918 Clouds 22 1018 68 10000 4.1 40 22:59 05.12.2019
2919 Clouds 22 1018 68 10000 4.1 40 22:39 05.12.2019
2920 Clouds 22 1018 68 10000 4.1 40 22:20 05.12.2019
2921 Clouds 22 1018 68 10000 4.1 40 22:20 05.12.2019
2922 Clouds 22 1018 68 10000 4.1 40 22:20 05.12.2019
2923 Clouds 23 1018 64 10000 4.1 10 21:58 05.12.2019
2924 Clouds 23 1018 64 10000 4.1 10 21:40 05.12.2019
2925 Clouds 23 1018 64 10000 4.1 10 21:22 05.12.2019
2926 Clouds 23 1018 60 10000 5.1 360 20:58 05.12.2019
2927 Clouds 23 1018 60 10000 5.1 360 20:40 05.12.2019
2928 Clouds 23 1018 60 10000 5.1 360 20:19 05.12.2019
2929 Clouds 23 1018 60 10000 5.1 360 20:19 05.12.2019
2930 Clouds 24 1018 53 10000 4.6 340 19:43 05.12.2019
2931 Clouds 24 1019 57 0 5.1 330 19:25 05.12.2019
2932 Clouds 24 1019 57 0 5.1 330 18:59 05.12.2019
2933 Clouds 24 1019 57 0 5.1 330 18:39 05.12.2019
2934 Clouds 24 1019 57 0 5.1 330 18:21 05.12.2019
2935 Clouds 23 1019 64 10000 3.6 340 17:57 05.12.2019
2936 Clouds 23 1019 64 10000 3.6 340 17:38 05.12.2019
2937 Clouds 23 1019 64 10000 3.6 340 17:18 05.12.2019
2938 Clouds 23 1019 56 10000 3.1 330 16:54 05.12.2019
2939 Clouds 23 1019 56 10000 3.1 330 16:54 05.12.2019
2940 Clouds 23 1019 56 10000 3.1 330 16:36 05.12.2019
2941 Clouds 23 1019 56 10000 3.1 330 16:18 05.12.2019
2942 Clouds 23 1019 56 10000 3.1 330 15:40 05.12.2019
2943 Clouds 23 1018 60 10000 2.1 350 15:21 05.12.2019
2944 Clouds 23 1018 60 10000 2.1 350 14:57 05.12.2019
2945 Clouds 23 1018 60 10000 2.1 350 14:39 05.12.2019
2946 Clouds 20 1017 72 10000 2.6 360 14:20 05.12.2019
2947 Clouds 20 1017 72 10000 2.6 360 13:59 05.12.2019
2948 Clouds 19 1017 72 10000 2.6 360 13:41 05.12.2019
2949 Clouds 17 1017 77 10000 2.6 350 13:21 05.12.2019
2950 Clouds 16 1017 77 10000 2.6 350 12:59 05.12.2019
2951 Clouds 16 1017 77 10000 2.6 350 12:40 05.12.2019
2952 Clouds 16 1017 77 10000 2.6 350 12:22 05.12.2019
2953 Clouds 14 1016 87 10000 1.5 290 11:55 05.12.2019
2954 Clouds 14 1016 87 10000 1.5 290 11:36 05.12.2019
2955 Clouds 14 1016 87 10000 1.5 290 11:18 05.12.2019
2956 Clouds 20 1016 60 10000 1 0 10:54 05.12.2019
2957 Clouds 20 1016 60 10000 1 0 10:36 05.12.2019
2958 Clouds 20 1016 60 10000 1 0 10:18 05.12.2019
2959 Clouds 18 1016 72 10000 2.1 320 09:42 05.12.2019
2960 Clouds 18 1016 72 10000 2.1 320 09:20 05.12.2019
2961 Clouds 17 1016 72 10000 1.5 310 08:57 05.12.2019
2962 Clouds 17 1016 72 10000 1.5 310 08:37 05.12.2019
2963 Clouds 17 1016 72 10000 1.5 310 08:19 05.12.2019
2964 Clouds 21 1016 64 0 1.5 300 07:41 05.12.2019
2965 Clouds 21 1016 64 0 1.5 300 07:23 05.12.2019
2966 Clouds 17 1017 100 10000 2.1 300 06:48 05.12.2019
2967 Clouds 17 1017 100 10000 2.1 300 06:24 05.12.2019
2968 Clouds 17 1017 72 10000 1.5 270 05:56 05.12.2019
2969 Clouds 17 1017 72 10000 1.5 270 05:24 05.12.2019
2970 Clouds 20 1017 60 10000 3.1 320 04:59 05.12.2019
2971 Clouds 19 1016 60 10000 2.1 300 03:41 05.12.2019
2972 Clouds 19 1016 64 10000 2.6 300 02:42 05.12.2019
2973 Clouds 20 1016 64 10000 2.6 300 02:22 05.12.2019
2974 Clouds 20 1016 60 10000 4.1 300 01:51 05.12.2019
2975 Clouds 20 1015 56 10000 5.7 320 01:23 05.12.2019
2976 Clouds 21 1015 56 10000 5.7 320 00:44 05.12.2019
2977 Clouds 21 1015 56 10000 5.7 320 00:21 05.12.2019
2978 Clouds 21 1015 53 10000 5.7 310 23:55 04.12.2019
2979 Clouds 21 1015 53 10000 5.7 310 23:37 04.12.2019
2980 Clouds 22 1015 53 10000 5.7 310 23:18 04.12.2019
2981 Clouds 23 1014 53 10000 6.7 320 22:38 04.12.2019
2982 Clouds 23 1014 56 10000 7.7 320 22:20 04.12.2019
2983 Clouds 23 1014 56 10000 7.7 320 21:58 04.12.2019
2984 Clouds 23 1014 56 10000 7.7 320 21:38 04.12.2019
2985 Clouds 23 1014 56 10000 7.7 320 21:19 04.12.2019
2986 Clouds 23 1014 49 10000 6.7 300 20:57 04.12.2019
2987 Clouds 23 1014 49 10000 6.7 300 20:39 04.12.2019
2988 Clouds 23 1014 49 10000 6.7 300 20:20 04.12.2019
2989 Clouds 23 1015 56 10000 6.7 310 19:54 04.12.2019
2990 Clouds 23 1015 56 10000 6.7 310 19:36 04.12.2019
2991 Clouds 23 1015 56 10000 6.7 310 19:18 04.12.2019
2992 Clouds 23 1016 53 10000 7.7 320 18:41 04.12.2019
2993 Clouds 23 1017 53 10000 8.2 310 18:22 04.12.2019
2994 Clouds 23 1017 53 10000 8.2 310 17:58 04.12.2019
2995 Clouds 23 1017 53 10000 8.2 310 17:39 04.12.2019
2996 Clouds 23 1017 53 10000 8.2 310 17:19 04.12.2019
2997 Clouds 22 1017 60 10000 7.7 300 16:56 04.12.2019
2998 Clouds 22 1017 60 10000 7.7 300 16:38 04.12.2019
2999 Clouds 22 1017 60 10000 7.7 300 16:38 04.12.2019
3000 Clouds 22 1017 60 10000 7.7 300 16:18 04.12.2019
3001 Clouds 22 1016 60 10000 6.2 310 15:54 04.12.2019
3002 Clouds 22 1016 60 10000 6.2 310 15:36 04.12.2019
3003 Clouds 22 1016 60 10000 6.2 310 15:18 04.12.2019
3004 Clouds 21 1015 64 10000 5.7 300 14:41 04.12.2019
3005 Clouds 21 1015 52 10000 6.2 290 14:23 04.12.2019
3006 Clouds 21 1015 52 10000 6.2 290 13:56 04.12.2019
3007 Clouds 20 1015 52 10000 6.2 290 13:37 04.12.2019
3008 Clouds 20 1015 52 10000 6.2 290 13:18 04.12.2019
3009 Clouds 20 1014 64 10000 8.2 300 12:42 04.12.2019
3010 Clouds 20 1014 64 10000 8.2 300 12:23 04.12.2019
3011 Clouds 21 1014 68 10000 6.7 300 11:44 04.12.2019
3012 Clouds 21 1014 68 10000 6.7 300 11:44 04.12.2019
3013 Clouds 21 1014 68 10000 6.7 300 11:26 04.12.2019
3014 Clouds 19 1013 68 10000 4.1 290 10:58 04.12.2019
3015 Clouds 19 1013 68 10000 4.1 290 10:40 04.12.2019
3016 Clouds 19 1013 68 10000 4.1 290 10:22 04.12.2019
3017 Clouds 19 1013 68 10000 4.1 280 09:44 04.12.2019
3018 Clouds 19 1013 68 10000 4.1 280 09:24 04.12.2019
3019 Clouds 17 1014 77 10000 2.6 260 08:54 04.12.2019
3020 Clouds 17 1014 77 10000 2.6 260 08:36 04.12.2019
3021 Clouds 17 1014 77 10000 2.6 260 08:18 04.12.2019
3022 Clouds 16 1014 82 10000 2.1 250 07:41 04.12.2019
3023 Clouds 16 1014 82 10000 2.1 250 07:22 04.12.2019
3024 Clouds 16 1014 82 10000 1.5 260 06:33 04.12.2019
3025 Clouds 15 1015 82 10000 1.5 260 05:47 04.12.2019
3026 Clouds 17 1015 77 10000 2.6 250 04:39 04.12.2019
3027 Clouds 17 1014 72 10000 2.6 260 03:52 04.12.2019
3028 Clouds 18 1014 72 10000 1.5 230 01:53 04.12.2019
3029 Clouds 19 1014 68 10000 1.5 230 00:49 04.12.2019
3030 Clouds 19 1014 68 10000 1.5 230 00:22 04.12.2019
3031 Clouds 20 1014 68 10000 4.1 330 23:55 03.12.2019
3032 Clouds 19 1014 68 10000 4.1 330 23:36 03.12.2019
3033 Clouds 20 1013 68 10000 4.1 310 23:18 03.12.2019
3034 Clouds 20 1013 68 10000 4.1 310 22:39 03.12.2019
3035 Clouds 21 1014 60 10000 4.6 320 22:18 03.12.2019
3036 Clouds 22 1014 60 10000 4.6 320 21:57 03.12.2019
3037 Clouds 21 1014 60 10000 4.6 320 21:37 03.12.2019
3038 Clouds 22 1014 60 10000 4.6 320 21:18 03.12.2019
3039 Clouds 22 1014 56 10000 5.7 310 20:42 03.12.2019
3040 Clouds 22 1014 56 10000 5.7 310 20:20 03.12.2019
3041 Clouds 22 1014 56 10000 5.7 310 20:20 03.12.2019
3042 Clouds 22 1014 56 10000 5.1 310 19:57 03.12.2019
3043 Clouds 22 1014 56 10000 5.1 310 19:38 03.12.2019
3044 Clouds 22 1015 56 10000 6.2 310 19:20 03.12.2019
3045 Clouds 22 1015 56 10000 6.2 310 18:59 03.12.2019
3046 Clouds 22 1015 56 10000 6.2 310 18:41 03.12.2019
3047 Clouds 21 1016 56 10000 5.7 310 18:21 03.12.2019
3048 Clouds 22 1016 56 10000 5.7 310 17:58 03.12.2019
3049 Clouds 21 1016 56 10000 5.7 310 17:38 03.12.2019
3050 Clouds 21 1016 56 10000 6.7 300 17:18 03.12.2019
3051 Clouds 21 1016 56 10000 6.7 300 17:18 03.12.2019
3052 Clouds 21 1016 56 10000 6.7 300 16:58 03.12.2019
3053 Clouds 21 1016 56 10000 6.7 300 16:58 03.12.2019
3054 Clouds 21 1016 56 10000 6.7 300 16:39 03.12.2019
3055 Clouds 21 1016 56 10000 6.2 310 16:20 03.12.2019
3056 Clouds 21 1016 56 10000 6.2 310 16:20 03.12.2019
3057 Clouds 21 1016 56 10000 6.2 310 15:57 03.12.2019
3058 Clouds 20 1016 56 10000 6.2 310 15:38 03.12.2019
3059 Clouds 20 1016 56 10000 6.2 310 15:19 03.12.2019
3060 Clouds 20 1015 60 10000 6.2 300 14:43 03.12.2019
3061 Clouds 20 1015 60 10000 6.2 320 14:20 03.12.2019
3062 Clouds 20 1015 60 10000 6.2 320 13:57 03.12.2019
3063 Clouds 20 1015 60 10000 6.2 320 13:37 03.12.2019
3064 Clouds 20 1014 56 10000 6.2 300 13:19 03.12.2019
3065 Clouds 20 1014 56 10000 6.2 300 12:41 03.12.2019
3066 Clouds 20 1014 56 10000 6.2 300 12:19 03.12.2019
3067 Clouds 20 1014 56 10000 6.2 300 12:19 03.12.2019
3068 Clouds 20 1014 56 10000 6.2 300 12:19 03.12.2019
3069 Clouds 20 1015 68 0 7.43 308 11:59 03.12.2019
3070 Clouds 20 1015 68 0 7.43 308 11:39 03.12.2019
3071 Clouds 21 1014 56 10000 6.7 300 11:21 03.12.2019
3072 Clouds 21 1014 56 10000 6.7 300 10:59 03.12.2019
3073 Clouds 21 1014 56 10000 6.7 300 10:41 03.12.2019
3074 Clouds 21 1014 56 10000 6.7 300 10:19 03.12.2019
3075 Clouds 21 1014 60 10000 6.7 300 09:46 03.12.2019
3076 Clouds 21 1014 60 10000 6.7 300 09:25 03.12.2019
3077 Clouds 22 1013 64 10000 7.2 320 08:59 03.12.2019
3078 Clouds 22 1013 64 10000 7.2 320 08:59 03.12.2019
3079 Clouds 22 1013 64 10000 7.2 320 08:40 03.12.2019
3080 Clouds 22 1013 64 10000 7.2 320 08:21 03.12.2019
3081 Clouds 22 1013 64 10000 7.7 310 07:53 03.12.2019
3082 Clouds 22 1013 64 10000 7.7 310 07:53 03.12.2019
3083 Clouds 22 1013 64 10000 7.7 310 07:30 03.12.2019
3084 Clouds 23 1013 74 0 9.28 319 06:58 03.12.2019
3085 Clouds 24 1013 73 10000 7.7 340 06:21 03.12.2019
3086 Clouds 24 1013 73 10000 7.7 340 05:56 03.12.2019
3087 Clouds 24 1013 73 10000 7.2 300 03:45 03.12.2019
3088 Clouds 24 1013 73 10000 7.2 300 03:23 03.12.2019
3089 Clouds 24 1012 78 10000 6.2 280 02:54 03.12.2019
3090 Clouds 24 1012 78 10000 6.2 280 02:32 03.12.2019
3091 Clouds 24 1012 78 10000 5.1 270 01:59 03.12.2019
3092 Clouds 24 1012 78 10000 5.1 270 01:39 03.12.2019
3093 Clouds 24 1012 78 10000 5.1 290 01:20 03.12.2019
3094 Clouds 24 1012 78 10000 5.1 290 00:42 03.12.2019
3095 Clouds 24 1012 78 10000 5.1 290 00:23 03.12.2019
3096 Clouds 24 1012 78 10000 5.1 290 00:23 03.12.2019
3097 Rain 24 1012 83 10000 5.7 290 23:44 02.12.2019
3098 Rain 24 1012 83 10000 5.7 290 23:22 02.12.2019
3099 Clouds 27 1011 69 10000 6.7 270 22:57 02.12.2019
3100 Clouds 27 1011 69 10000 6.7 270 22:38 02.12.2019
3101 Clouds 27 1011 69 10000 6.7 280 22:20 02.12.2019
3102 Clouds 27 1011 69 10000 6.7 280 21:40 02.12.2019
3103 Clouds 27 1011 69 10000 6.7 280 21:20 02.12.2019
3104 Clouds 28 1012 61 10000 6.7 260 20:59 02.12.2019
3105 Clouds 28 1012 61 10000 6.7 260 20:39 02.12.2019
3106 Clouds 28 1013 61 10000 6.2 260 20:20 02.12.2019
3107 Clouds 28 1013 61 10000 6.2 260 19:59 02.12.2019
3108 Clouds 28 1013 61 10000 6.2 260 19:41 02.12.2019
3109 Clouds 28 1013 61 10000 6.2 260 19:21 02.12.2019
3110 Clouds 27 1014 65 10000 5.7 260 18:48 02.12.2019
3111 Clouds 28 1014 65 10000 5.7 260 18:25 02.12.2019
3112 Clouds 27 1015 74 10000 6.7 240 17:59 02.12.2019
3113 Clouds 27 1015 74 10000 6.7 240 17:41 02.12.2019
3114 Clouds 26 1015 74 10000 6.7 240 17:21 02.12.2019
3115 Clouds 26 1015 74 10000 6.7 240 17:21 02.12.2019
3116 Clouds 27 1016 69 10000 6.2 240 16:57 02.12.2019
3117 -273 0 0 0 0 0 16:39 02.12.2019
3118 Clouds 26 1016 69 10000 6.2 240 16:18 02.12.2019
3119 Clouds 25 1016 73 10000 5.7 250 15:56 02.12.2019
3120 Clouds 25 1016 73 10000 5.7 250 15:38 02.12.2019
3121 Clouds 25 1016 73 10000 5.7 250 15:20 02.12.2019
3122 Clouds 24 1015 78 10000 5.1 250 14:55 02.12.2019
3123 Clouds 24 1015 78 10000 5.1 250 14:37 02.12.2019
3124 Clouds 23 1015 83 10000 5.1 240 14:19 02.12.2019
3125 Clouds 23 1015 83 10000 5.1 240 13:54 02.12.2019
3126 Clouds 23 1015 83 10000 5.1 240 13:36 02.12.2019
3127 Clouds 22 1015 83 10000 3.6 230 13:18 02.12.2019
3128 Clouds 22 1015 83 10000 3.6 230 12:41 02.12.2019
3129 Clouds 22 1015 83 10000 3.6 230 12:20 02.12.2019
3130 Clouds 24 1014 78 0 7.08 222 11:57 02.12.2019
3131 Clouds 24 1014 78 0 7.08 222 11:37 02.12.2019
3132 Clouds 24 1014 78 0 7.08 222 11:37 02.12.2019
3133 Clouds 21 1015 94 10000 1.5 250 11:19 02.12.2019
3134 Clouds 21 1015 94 10000 1.5 250 11:19 02.12.2019
3135 Clouds 21 1015 94 10000 1.5 250 10:56 02.12.2019
3136 Clouds 21 1015 94 10000 1.5 250 10:38 02.12.2019
3137 Clouds 24 1014 74 0 5.91 220 10:19 02.12.2019
3138 Clouds 24 1014 74 0 5.91 220 09:41 02.12.2019
3139 Clouds 24 1014 74 0 5.91 220 09:19 02.12.2019
3140 Clouds 24 1014 74 0 5.91 220 08:58 02.12.2019
3141 Clouds 24 1014 74 0 5.91 220 08:40 02.12.2019
3142 Clouds 22 1016 88 10000 1 0 08:21 02.12.2019
3143 Clouds 22 1016 88 10000 1 0 07:44 02.12.2019
3144 Clouds 22 1016 88 10000 1 0 07:23 02.12.2019
3145 Clouds 22 1016 94 10000 1.5 210 06:57 02.12.2019
3146 Clouds 22 1016 94 10000 1.5 210 06:57 02.12.2019
3147 Clouds 22 1016 94 10000 1.5 210 06:38 02.12.2019
3148 Clouds 21 1016 94 10000 1.5 180 05:36 02.12.2019
3149 Clear 21 1017 94 10000 1.5 160 04:27 02.12.2019
3150 Clouds 22 1017 88 10000 2.1 160 02:54 02.12.2019
3151 Clear 22 1016 83 0 3.72 210 02:31 02.12.2019
3152 Clear 22 1016 82 0 4.79 166 01:26 02.12.2019
3153 Clear 22 1016 82 0 4.91 163 00:58 02.12.2019
3154 Clouds 23 1016 73 10000 2.1 170 00:25 02.12.2019
3155 Clouds 23 1016 73 10000 2.1 170 23:55 01.12.2019
3156 Clouds 24 1016 73 10000 2.1 170 23:37 01.12.2019
3157 Clouds 24 1016 73 10000 2.1 170 23:19 01.12.2019
3158 Clouds 25 1015 69 10000 3.6 160 22:55 01.12.2019
3159 Clouds 26 1015 69 10000 3.6 160 22:36 01.12.2019
3160 Clear 27 1014 69 0 4.71 168 22:18 01.12.2019
3161 Clear 27 1014 69 0 4.71 168 22:18 01.12.2019
3162 Clear 26 1014 70 0 4.71 168 21:54 01.12.2019
3163 Clear 26 1014 70 0 4.71 168 21:54 01.12.2019
3164 Clear 27 1014 70 0 4.71 168 21:36 01.12.2019
3165 Clouds 26 1015 61 10000 5.1 170 21:18 01.12.2019
3166 Clouds 27 1015 61 10000 5.1 170 20:54 01.12.2019
3167 Clouds 26 1015 61 10000 5.1 170 20:36 01.12.2019
3168 Clouds 26 1015 61 10000 5.1 170 20:36 01.12.2019
3169 Clouds 27 1015 61 10000 5.1 170 20:18 01.12.2019
3170 Clouds 27 1016 57 10000 4.6 160 19:40 01.12.2019
3171 Clouds 27 1017 54 10000 4.6 160 19:22 01.12.2019
3172 Clouds 26 1017 54 10000 4.6 160 18:58 01.12.2019
3173 Clouds 26 1017 54 10000 4.6 160 18:39 01.12.2019
3174 Clouds 26 1018 57 10000 3.6 160 18:20 01.12.2019
3175 Clouds 26 1018 57 10000 3.6 160 17:59 01.12.2019
3176 Clouds 26 1018 57 10000 3.6 160 17:41 01.12.2019
3177 Clouds 26 1018 61 10000 3.6 130 17:23 01.12.2019
3178 Clouds 26 1018 61 10000 3.6 130 16:56 01.12.2019
3179 Clouds 25 1018 61 10000 3.6 130 16:38 01.12.2019
3180 Clouds 25 1018 61 10000 3.6 130 16:20 01.12.2019
3181 Clouds 25 1018 69 10000 2.6 130 15:46 01.12.2019
3182 Clouds 23 1018 83 10000 1 0 15:28 01.12.2019
3183 Clouds 23 1018 83 10000 1 0 14:42 01.12.2019
3184 Clouds 20 1017 93 10000 5.01 121 14:20 01.12.2019
3185 Clouds 20 1017 93 10000 5.01 121 13:56 01.12.2019
3186 Clouds 20 1017 93 10000 5.01 121 13:38 01.12.2019
3187 Clouds 19 1017 93 10000 0.5 0 13:19 01.12.2019
3188 Clouds 16 1017 93 10000 0.5 0 12:42 01.12.2019
3189 Clouds 17 1016 93 10000 1 0 11:56 01.12.2019
3190 Clouds 17 1016 93 10000 1 0 11:56 01.12.2019
3191 Clouds 17 1016 93 10000 1 0 11:37 01.12.2019
3192 Clouds 17 1016 93 10000 1 0 11:19 01.12.2019
3193 Clouds 17 1016 93 10000 0.5 0 10:43 01.12.2019
3194 Clear 24 1015 64 0 3.22 96 10:20 01.12.2019
3195 Clear 24 1015 64 0 3.22 96 09:42 01.12.2019
3196 Clear 24 1015 64 0 3.22 96 09:24 01.12.2019
3197 Clear 24 1015 64 0 3.22 96 08:58 01.12.2019
3198 Clear 24 1015 64 0 3.22 96 08:38 01.12.2019
3199 Clouds 17 1017 93 10000 4.31 104 08:19 01.12.2019
3200 Clouds 17 1017 93 10000 4.71 103 07:49 01.12.2019
3201 -273 0 0 0 0 0 07:29 01.12.2019
3202 Clouds 18 1017 88 10000 0.5 0 06:53 01.12.2019
3203 Clouds 18 1017 88 10000 0.5 0 06:19 01.12.2019
3204 Clouds 21 1017 82 10000 0.5 0 05:42 01.12.2019
3205 Clouds 21 1017 77 10000 1 0 04:29 01.12.2019
3206 Clouds 22 1017 68 10000 2.1 90 02:46 01.12.2019
3207 Clouds 23 1016 73 0 6.41 83 02:27 01.12.2019
3208 Clouds 23 1016 72 0 0.45 62 01:54 01.12.2019
3209 Clouds 23 1016 64 10000 2.6 90 01:32 01.12.2019
3210 Clouds 23 1016 64 10000 2.6 90 00:50 01.12.2019
3211 Clouds 24 1016 60 10000 3.1 60 00:27 01.12.2019
3212 Clouds 24 1016 60 10000 3.1 60 23:57 30.11.2019
3213 Clouds 24 1016 60 10000 3.1 60 23:37 30.11.2019
3214 Clouds 24 1016 60 10000 3.1 60 23:19 30.11.2019
3215 Clouds 24 1016 57 10000 3.6 40 22:42 30.11.2019
3216 Clouds 24 1016 57 10000 3.6 40 22:23 30.11.2019
3217 Clouds 24 1016 57 10000 4.1 50 21:48 30.11.2019
3218 Clouds 24 1016 57 10000 4.1 50 21:29 30.11.2019
3219 Clouds 24 1015 68 0 0.45 56 20:58 30.11.2019
3220 Clouds 24 1015 68 0 1.79 29 20:40 30.11.2019
3221 Clouds 25 1017 57 10000 4.1 50 20:20 30.11.2019
3222 Clouds 25 1017 57 10000 4.1 50 19:57 30.11.2019
3223 Clouds 25 1017 57 10000 4.1 50 19:39 30.11.2019
3224 Clouds 25 1018 57 0 2.6 30 19:21 30.11.2019
3225 Clouds 25 1018 57 0 2.6 30 18:59 30.11.2019
3226 Clouds 25 1018 57 0 2.6 30 18:59 30.11.2019
3227 Clouds 24 1018 57 0 2.6 30 18:39 30.11.2019
3228 Clouds 24 1018 57 0 2.6 30 18:21 30.11.2019
3229 Clouds 24 1018 57 10000 3.1 70 17:58 30.11.2019
3230 Clouds 25 1018 57 10000 3.1 70 17:40 30.11.2019
3231 Clouds 24 1019 64 10000 3.1 60 17:22 30.11.2019
3232 Clouds 24 1019 64 10000 3.1 60 16:58 30.11.2019
3233 -273 0 0 0 0 0 16:58 30.11.2019
3234 Clouds 24 1019 64 10000 3.1 60 16:40 30.11.2019
3235 Clouds 24 1018 64 10000 2.6 50 16:21 30.11.2019
3236 Clouds 24 1018 64 10000 2.6 50 16:21 30.11.2019
3237 Clouds 24 1018 64 10000 2.6 50 15:43 30.11.2019
3238 Clouds 24 1018 60 10000 3.1 50 15:20 30.11.2019
3239 Clouds 24 1018 60 10000 3.1 50 14:58 30.11.2019
3240 Clouds 24 1018 60 10000 3.1 50 14:39 30.11.2019
3241 Clouds 22 1017 73 10000 1.5 150 14:20 30.11.2019
3242 Clouds 22 1017 73 10000 1.5 150 13:59 30.11.2019
3243 Clouds 22 1017 73 10000 1.5 150 13:40 30.11.2019
3244 Clouds 22 1017 73 10000 1.5 150 13:22 30.11.2019
3245 Clouds 23 1017 60 10000 2.1 100 12:47 30.11.2019
3246 Clouds 23 1017 60 10000 2.1 100 12:29 30.11.2019
3247 Clouds 25 1017 53 10000 2.6 90 11:59 30.11.2019
3248 Clouds 25 1017 53 10000 2.6 90 11:40 30.11.2019
3249 Clouds 22 1016 60 10000 3.6 70 11:18 30.11.2019
3250 Clouds 22 1016 60 10000 3.6 70 10:45 30.11.2019
3251 Clouds 22 1016 60 10000 3.6 70 10:21 30.11.2019
3252 Clouds 23 1016 68 0 5.5 45 09:59 30.11.2019
3253 Clouds 23 1016 68 0 5.5 45 09:41 30.11.2019
3254 Clouds 23 1017 60 10000 3.1 70 09:20 30.11.2019
3255 Clouds 23 1017 60 10000 3.1 70 08:41 30.11.2019
3256 Clouds 23 1017 60 10000 3.1 70 08:19 30.11.2019
3257 Clouds 23 1017 60 10000 3.1 70 07:44 30.11.2019
3258 Clouds 23 1017 60 10000 3.1 70 07:25 30.11.2019
3259 Clouds 23 1018 60 10000 4.6 60 06:46 30.11.2019
3260 Clouds 23 1018 60 10000 4.6 60 06:28 30.11.2019
3261 Clouds 23 1018 64 10000 5.1 60 05:29 30.11.2019
3262 Clouds 24 1018 60 10000 6.7 60 03:40 30.11.2019
3263 Clouds 24 1018 60 10000 5.7 60 02:26 30.11.2019
3264 Clouds 24 1018 60 10000 5.7 60 02:26 30.11.2019
3265 Clouds 24 1018 64 10000 5.1 60 01:56 30.11.2019
3266 Clouds 24 1016 70 0 4.02 45 01:24 30.11.2019
3267 Clouds 24 1016 70 0 4.02 45 00:46 30.11.2019
3268 Clouds 24 1016 70 0 4.02 45 00:27 30.11.2019
3269 Clouds 24 1016 73 0 4.47 43 23:45 29.11.2019
3270 Clouds 24 1016 73 0 4.02 58 23:25 29.11.2019
3271 Clouds 24 1016 69 0 4.92 27 22:49 29.11.2019
3272 Clouds 24 1016 68 0 4.92 35 22:28 29.11.2019
3273 Clouds 24 1016 71 0 4.92 20 21:59 29.11.2019
3274 Clouds 24 1015 70 0 4.02 22 21:41 29.11.2019
3275 Clouds 24 1015 69 0 5.81 35 21:22 29.11.2019
3276 Clouds 24 1015 69 0 6.26 46 20:56 29.11.2019
3277 Clouds 24 1015 69 0 4.02 41 20:37 29.11.2019
3278 Clouds 24 1015 70 0 4.92 27 20:18 29.11.2019
3279 Clouds 24 1016 69 0 5.36 41 19:54 29.11.2019
3280 Clouds 24 1016 70 0 5.36 50 19:36 29.11.2019
3281 Clouds 25 1016 71 0 4.47 33 19:18 29.11.2019
3282 Clouds 25 1016 69 0 4.47 29 18:41 29.11.2019
3283 Clouds 25 1016 69 0 4.47 29 18:41 29.11.2019
3284 Clouds 25 1017 69 0 4.92 22 18:23 29.11.2019
3285 Clouds 25 1017 69 0 4.47 9 17:56 29.11.2019
3286 Clouds 25 1017 69 0 4.92 32 17:38 29.11.2019
3287 Clouds 25 1018 69 0 3.58 35 17:19 29.11.2019
3288 Clouds 25 1018 69 0 4.47 32 16:42 29.11.2019
3289 Clouds 24 1018 70 0 4.47 37 16:21 29.11.2019
3290 Clouds 24 1018 70 0 4.47 37 16:21 29.11.2019
3291 Clouds 24 1019 74 0 2.24 20 15:56 29.11.2019
3292 Clouds 24 1019 74 0 1.34 43 15:37 29.11.2019
3293 Clouds 24 1018 72 0 4.92 32 15:19 29.11.2019
3294 Clouds 24 1018 74 0 4.02 38 14:40 29.11.2019
3295 Clear 24 1018 73 0 4.92 21 14:21 29.11.2019
3296 Clear 24 1018 74 0 5.81 35 13:56 29.11.2019
3297 Clear 24 1018 78 0 2.24 20 13:37 29.11.2019
3298 Clear 24 1018 77 0 4.02 58 13:19 29.11.2019
3299 Clear 24 1018 74 0 8.31 22 12:41 29.11.2019
3300 Clear 24 1018 74 0 8.31 22 12:23 29.11.2019
3301 Clear 24 1018 74 0 8.31 22 11:55 29.11.2019
3302 Clear 24 1018 74 0 8.31 22 11:37 29.11.2019
3303 Clear 24 1017 75 0 8.05 4 11:18 29.11.2019
3304 Clear 24 1017 75 0 8.05 4 10:57 29.11.2019
3305 Clear 24 1017 75 0 8.05 4 10:38 29.11.2019
3306 Clear 24 1017 75 0 8.05 4 10:19 29.11.2019
3307 Clear 24 1017 75 0 8.05 4 09:56 29.11.2019
3308 Clear 24 1017 75 0 8.05 4 09:37 29.11.2019
3309 Clear 24 1017 75 0 8.05 4 09:19 29.11.2019
3310 Clear 24 1017 75 0 8.05 4 08:40 29.11.2019
3311 Clouds 24 1018 78 10000 5.1 20 08:22 29.11.2019
3312 Clouds 24 1018 78 10000 5.1 20 07:59 29.11.2019
3313 Clouds 24 1018 78 10000 5.1 20 07:40 29.11.2019
3314 Clouds 24 1018 78 10000 5.1 20 07:22 29.11.2019
3315 Clouds 25 1018 78 10000 4.6 10 06:43 29.11.2019
3316 Clouds 25 1019 78 10000 4.1 20 05:48 29.11.2019
3317 Clouds 25 1019 78 10000 4.1 20 05:25 29.11.2019
3318 Clouds 25 1019 73 10000 3.6 10 04:35 29.11.2019
3319 Clouds 25 1019 78 10000 3.1 20 03:22 29.11.2019
3320 Clouds 25 1019 78 10000 3.6 20 02:32 29.11.2019
3321 Clouds 25 1019 78 10000 4.1 20 01:53 29.11.2019
3322 Clouds 25 1019 78 10000 4.1 20 01:26 29.11.2019
3323 Clouds 25 1019 73 10000 5.7 10 00:44 29.11.2019
3324 Clouds 25 1019 73 10000 5.7 10 00:21 29.11.2019
3325 Clouds 25 1019 73 10000 4.6 10 23:56 28.11.2019
3326 Clouds 25 1019 73 10000 4.6 10 23:36 28.11.2019
3327 Clouds 25 1019 73 10000 4.6 10 23:18 28.11.2019
3328 Clouds 25 1018 69 10000 3.6 360 22:38 28.11.2019
3329 Clouds 25 1018 69 10000 3.6 360 22:20 28.11.2019
3330 Clouds 26 1019 65 10000 5.7 360 21:58 28.11.2019
3331 Clouds 26 1019 65 10000 5.7 360 21:40 28.11.2019
3332 Clouds 25 1019 65 10000 5.7 360 21:20 28.11.2019
3333 Clouds 26 1019 61 10000 6.2 360 20:56 28.11.2019
3334 Clouds 26 1019 61 10000 6.2 360 20:38 28.11.2019
3335 Clouds 26 1020 69 10000 5.7 360 20:18 28.11.2019
3336 Clouds 26 1020 69 10000 5.7 360 19:42 28.11.2019
3337 Clouds 26 1020 69 10000 5.7 360 19:42 28.11.2019
3338 Clouds 27 1020 69 10000 5.7 360 19:23 28.11.2019
3339 Clouds 26 1021 69 10000 5.7 350 18:59 28.11.2019
3340 Clouds 26 1021 69 10000 5.7 350 18:40 28.11.2019
3341 Clouds 26 1021 69 10000 5.7 350 18:19 28.11.2019
3342 Clouds 26 1022 74 10000 5.7 360 17:59 28.11.2019
3343 Clouds 26 1022 74 10000 5.7 360 17:59 28.11.2019
3344 Clouds 26 1022 74 10000 5.7 360 17:41 28.11.2019
3345 Clouds 26 1022 74 10000 5.7 360 17:23 28.11.2019
3346 Clouds 26 1022 74 10000 4.6 350 16:58 28.11.2019
3347 Clouds 26 1022 74 10000 4.6 350 16:38 28.11.2019
3348 Clouds 26 1022 74 10000 4.6 350 16:18 28.11.2019
3349 Clouds 26 1022 74 10000 3.6 10 15:42 28.11.2019
3350 Clouds 25 1022 88 10000 2.6 20 15:20 28.11.2019
3351 Clouds 25 1022 88 10000 2.6 20 14:59 28.11.2019
3352 Clouds 25 1022 88 10000 2.6 20 14:41 28.11.2019
3353 Clouds 25 1022 88 10000 2.6 20 14:22 28.11.2019
3354 Clouds 22 1021 100 10000 3.66 27 13:57 28.11.2019
3355 Clouds 23 1021 100 10000 3.66 27 13:39 28.11.2019
3356 Clouds 24 1020 82 0 3.4 30 13:21 28.11.2019
3357 Clouds 25 1021 73 0 3.4 30 12:43 28.11.2019
3358 -273 0 0 0 0 0 12:24 28.11.2019
3359 Clouds 20 1020 94 10000 3.4 30 11:58 28.11.2019
3360 Clouds 20 1020 94 10000 3.4 30 11:39 28.11.2019
3361 Clouds 20 1020 94 10000 4.28 36 11:20 28.11.2019
3362 Clouds 25 1019 75 0 4.28 36 10:43 28.11.2019
3363 Clouds 25 1019 75 0 4.28 36 10:23 28.11.2019
3364 Clouds 25 1019 75 0 4.28 36 09:59 28.11.2019
3365 Clouds 25 1019 75 0 4.28 36 09:40 28.11.2019
3366 Clouds 25 1019 75 0 4.28 36 09:20 28.11.2019
3367 Clouds 25 1019 75 0 4.28 36 09:20 28.11.2019
3368 Clouds 25 1019 75 0 4.28 36 08:54 28.11.2019
3369 Clouds 25 1019 75 0 4.28 36 08:36 28.11.2019
3370 Clouds 21 1021 94 10000 1 0 08:18 28.11.2019
3371 Clouds 21 1021 94 10000 1 0 07:41 28.11.2019
3372 Clouds 21 1021 94 10000 1 0 07:23 28.11.2019
3373 Clouds 24 1021 83 10000 2.1 90 06:43 28.11.2019
3374 Clouds 24 1021 83 10000 2.1 90 06:18 28.11.2019
3375 Clouds 25 1022 83 10000 2.6 90 05:44 28.11.2019
3376 Rain 25 1022 78 10000 2.1 70 04:54 28.11.2019
3377 Clouds 26 1021 78 10000 4.1 50 02:33 28.11.2019
3378 Clouds 25 1020 78 10000 3.6 60 01:28 28.11.2019
3379 Clouds 25 1020 78 10000 3.6 60 00:42 28.11.2019
3380 Clouds 26 1020 78 10000 4.1 70 00:20 28.11.2019
3381 Clouds 26 1020 78 10000 4.1 70 23:40 27.11.2019
3382 Clouds 26 1020 78 10000 4.1 70 23:21 27.11.2019
3383 Clouds 26 1020 78 10000 4.1 50 22:58 27.11.2019
3384 Clouds 26 1020 78 10000 4.1 50 22:38 27.11.2019
3385 Clouds 26 1020 78 10000 4.1 50 22:19 27.11.2019
3386 Clouds 27 1019 74 10000 4.6 60 21:56 27.11.2019
3387 Clouds 27 1019 74 10000 4.6 60 21:37 27.11.2019
3388 Clouds 27 1019 74 10000 4.6 60 21:19 27.11.2019
3389 Rain 26 1020 78 10000 4.1 60 20:57 27.11.2019
3390 Rain 26 1020 78 10000 4.1 60 20:57 27.11.2019
3391 Rain 26 1020 78 10000 4.1 60 20:37 27.11.2019
3392 Rain 26 1020 78 10000 4.1 60 20:19 27.11.2019
3393 Clouds 26 1020 78 10000 4.1 40 19:56 27.11.2019
3394 Clouds 26 1020 78 10000 4.1 40 19:37 27.11.2019
3395 Clouds 26 1020 78 10000 4.1 40 19:18 27.11.2019
3396 Clouds 26 1021 78 10000 4.6 40 18:55 27.11.2019
3397 Clouds 26 1021 78 10000 4.6 40 18:36 27.11.2019
3398 Clouds 26 1021 78 10000 4.6 40 18:18 27.11.2019
3399 Clouds 26 1022 78 10000 3.1 60 17:42 27.11.2019
3400 Clouds 26 1022 78 10000 3.1 60 17:23 27.11.2019
3401 Clouds 26 1022 78 10000 3.1 60 17:23 27.11.2019
3402 -273 0 0 0 0 0 17:23 27.11.2019
3403 Clouds 26 1022 78 10000 3.1 90 16:59 27.11.2019
3404 Clouds 26 1022 78 10000 3.1 90 16:40 27.11.2019
3405 Clouds 26 1022 78 10000 3.1 90 16:21 27.11.2019
3406 Clouds 26 1021 78 10000 3.1 100 15:59 27.11.2019
3407 Clouds 26 1021 78 10000 3.1 100 15:41 27.11.2019
3408 Clouds 26 1021 78 10000 3.1 100 15:40 27.11.2019
3409 Clouds 26 1021 78 10000 3.1 100 15:21 27.11.2019
3410 Clouds 25 1020 83 10000 2.1 90 14:59 27.11.2019
3411 Clouds 25 1020 83 10000 2.1 90 14:41 27.11.2019
3412 Clouds 25 1020 83 10000 2.1 90 14:23 27.11.2019
3413 Clouds 22 1020 94 10000 1 0 13:58 27.11.2019
3414 Clouds 22 1020 94 10000 1 0 13:39 27.11.2019
3415 Clouds 22 1020 94 10000 1 0 13:19 27.11.2019
3416 Clear 22 1019 94 10000 1 0 12:57 27.11.2019
3417 Clear 20 1019 94 10000 1 0 12:39 27.11.2019
3418 Clear 20 1019 94 10000 1 0 12:19 27.11.2019
3419 Clear 19 1018 93 10000 4.73 94 11:38 27.11.2019
3420 Clear 19 1018 93 10000 4.56 94 11:19 27.11.2019
3421 Clear 20 1018 94 10000 4.56 94 10:59 27.11.2019
3422 Clear 20 1018 94 10000 4.56 94 10:41 27.11.2019
3423 Clear 20 1018 94 10000 4.56 94 10:22 27.11.2019
3424 Clear 25 1017 76 0 4.56 94 09:45 27.11.2019
3425 Clear 25 1017 76 0 4.56 94 09:26 27.11.2019
3426 Clear 25 1017 76 0 4.56 94 08:57 27.11.2019
3427 Clear 25 1017 76 0 4.56 94 08:57 27.11.2019
3428 Clear 25 1017 76 0 4.56 94 08:38 27.11.2019
3429 Clear 21 1019 94 10000 1.5 120 08:19 27.11.2019
3430 Clear 21 1019 94 10000 1.5 120 07:45 27.11.2019
3431 Clear 22 1019 88 10000 1 0 07:27 27.11.2019
3432 Clear 22 1019 88 10000 1 0 06:47 27.11.2019
3433 Clear 22 1019 88 10000 1 0 06:29 27.11.2019
3434 Clear 24 1019 78 10000 1.5 130 05:27 27.11.2019
3435 Clear 23 1019 78 10000 1 0 04:59 27.11.2019
3436 Clear 23 1019 78 10000 1 0 04:39 27.11.2019
3437 Clear 23 1019 73 10000 2.1 80 03:51 27.11.2019
3438 Clear 23 1019 73 10000 2.1 80 03:22 27.11.2019
3439 Clear 24 1019 69 10000 3.1 90 02:54 27.11.2019
3440 Clouds 24 1017 78 0 5.14 46 01:35 27.11.2019
3441 Clouds 24 1017 69 10000 2.6 50 00:44 27.11.2019
3442 Clouds 24 1017 69 10000 2.6 50 00:25 27.11.2019
3443 Clouds 24 1017 69 10000 3.1 50 23:47 26.11.2019
3444 Clouds 24 1017 69 10000 3.1 50 23:26 26.11.2019
3445 Clouds 24 1016 65 10000 4.1 60 22:56 26.11.2019
3446 Clouds 24 1016 65 10000 4.1 60 22:38 26.11.2019
3447 Clouds 24 1016 76 0 5.64 36 22:19 26.11.2019
3448 Clouds 24 1015 75 0 5.64 36 21:40 26.11.2019
3449 Clouds 25 1016 61 10000 4.1 20 21:22 26.11.2019
3450 Clouds 25 1016 61 10000 4.1 20 20:58 26.11.2019
3451 Clouds 25 1016 61 10000 4.1 20 20:39 26.11.2019
3452 Clouds 25 1016 61 10000 4.1 20 20:20 26.11.2019
3453 Clouds 25 1017 61 10000 4.1 30 19:56 26.11.2019
3454 Clouds 25 1017 61 10000 4.1 30 19:38 26.11.2019
3455 Clouds 25 1017 61 10000 4.1 30 19:20 26.11.2019
3456 Clouds 25 1018 65 10000 3.6 30 18:59 26.11.2019
3457 Clouds 25 1018 65 10000 3.6 30 18:40 26.11.2019
3458 Clouds 25 1018 65 10000 3.6 30 18:21 26.11.2019
3459 Clouds 25 1018 65 10000 3.6 30 17:59 26.11.2019
3460 Clouds 25 1018 65 10000 3.6 30 17:41 26.11.2019
3461 Clouds 25 1018 65 10000 3.6 30 17:23 26.11.2019
3462 Clouds 25 1018 69 10000 3.1 30 16:57 26.11.2019
3463 Clouds 25 1018 69 10000 3.1 30 16:38 26.11.2019
3464 Clouds 25 1018 69 10000 3.1 30 16:19 26.11.2019
3465 Clouds 25 1018 65 10000 2.1 20 15:59 26.11.2019
3466 Clouds 25 1018 65 10000 2.1 20 15:38 26.11.2019
3467 Clouds 25 1018 65 10000 2.1 20 15:20 26.11.2019
3468 Clouds 24 1017 69 10000 2.1 30 14:52 26.11.2019
3469 Clouds 24 1017 69 10000 2.1 30 14:26 26.11.2019
3470 Clouds 23 1016 73 10000 3.1 360 13:59 26.11.2019
3471 Clouds 23 1016 73 10000 3.1 360 13:40 26.11.2019
3472 Clouds 23 1016 73 10000 3.1 360 13:22 26.11.2019
3473 Clouds 20 1016 82 10000 2.1 360 12:40 26.11.2019
3474 Clouds 20 1016 82 10000 2.1 360 12:22 26.11.2019
3475 Clouds 18 1015 93 10000 1 0 11:59 26.11.2019
3476 Clouds 18 1015 93 10000 1 0 11:40 26.11.2019
3477 Clouds 18 1015 93 10000 1 0 11:20 26.11.2019
3478 Clouds 18 1014 93 10000 3.82 1 10:59 26.11.2019
3479 Clouds 18 1014 93 10000 3.82 1 10:41 26.11.2019
3480 Clouds 18 1014 93 10000 3.82 1 10:21 26.11.2019
3481 Clouds 18 1015 93 10000 1 0 09:57 26.11.2019
3482 Clouds 18 1015 93 10000 1 0 09:38 26.11.2019
3483 Clouds 18 1015 93 10000 1 0 09:19 26.11.2019
3484 Clouds 18 1015 93 10000 3.82 1 08:43 26.11.2019
3485 Clouds 18 1015 93 10000 3.82 1 08:43 26.11.2019
3486 Clouds 18 1015 93 10000 4.91 2 08:24 26.11.2019
3487 Clouds 18 1015 93 10000 3.98 354 07:46 26.11.2019
3488 Clouds 19 1015 93 10000 3.98 354 07:27 26.11.2019
3489 Clouds 19 1015 93 10000 3.98 354 06:55 26.11.2019
3490 Clouds 19 1015 93 10000 3.98 354 06:33 26.11.2019
3491 Clouds 21 1015 88 10000 1 0 05:52 26.11.2019
3492 Clouds 22 1015 78 10000 1.5 330 03:59 26.11.2019
3493 Clouds 23 1015 78 10000 2.6 340 02:49 26.11.2019
3494 Clouds 25 1014 73 10000 5.1 340 01:33 26.11.2019
3495 Clouds 24 1014 73 10000 5.1 340 00:51 26.11.2019
3496 Clouds 24 1014 73 10000 5.1 340 00:26 26.11.2019
3497 Clouds 24 1013 73 10000 4.6 330 23:41 25.11.2019
3498 Clouds 24 1013 73 10000 4.6 330 23:21 25.11.2019
3499 Clouds 25 1013 69 10000 5.1 330 22:58 25.11.2019
3500 Clouds 25 1013 69 10000 5.1 330 22:38 25.11.2019
3501 Clouds 25 1013 69 10000 5.1 330 22:18 25.11.2019
3502 Clouds 26 1012 69 10000 5.1 330 21:58 25.11.2019
3503 Clouds 26 1012 69 10000 5.1 330 21:39 25.11.2019
3504 Clouds 25 1012 69 10000 5.1 330 21:20 25.11.2019
3505 Clouds 26 1012 69 10000 5.7 330 20:56 25.11.2019
3506 Clouds 26 1012 69 10000 5.7 330 20:37 25.11.2019
3507 Clouds 26 1012 69 10000 5.7 330 20:19 25.11.2019
3508 Clouds 26 1013 74 10000 4.6 300 19:55 25.11.2019
3509 Clouds 26 1013 74 10000 4.6 300 19:37 25.11.2019
3510 Clouds 26 1013 74 10000 4.6 300 19:18 25.11.2019
3511 Clouds 27 1013 69 10000 4.6 330 18:56 25.11.2019
3512 Rain 27 1012 74 0 1.93 276 18:37 25.11.2019
3513 Clouds 26 1014 74 10000 3.6 330 18:18 25.11.2019
3514 Clouds 26 1014 74 10000 3.6 330 17:56 25.11.2019
3515 Clouds 26 1014 74 10000 3.6 330 17:37 25.11.2019
3516 Clouds 26 1014 74 10000 3.6 330 17:18 25.11.2019
3517 Clouds 26 1014 69 10000 3.1 310 16:43 25.11.2019
3518 Clouds 26 1014 74 0 3.1 320 16:25 25.11.2019
3519 Clouds 26 1014 74 0 3.1 320 15:58 25.11.2019
3520 Clouds 26 1014 74 0 3.1 320 15:58 25.11.2019
3521 Clouds 26 1014 74 0 3.1 320 15:39 25.11.2019
3522 Clouds 25 1013 78 10000 2.1 310 15:20 25.11.2019
3523 Clouds 26 1013 75 0 2.22 247 14:56 25.11.2019
3524 Clouds 26 1013 79 0 2.22 247 14:37 25.11.2019
3525 Clouds 24 1013 88 10000 1.5 260 14:19 25.11.2019
3526 Clouds 23 1013 88 10000 1.5 260 13:39 25.11.2019
3527 Clouds 23 1013 88 10000 1.5 260 13:20 25.11.2019
3528 Clouds 23 1012 83 10000 2.6 300 12:59 25.11.2019
3529 Clouds 24 1012 83 10000 2.6 300 12:40 25.11.2019
3530 Clouds 24 1012 83 10000 2.6 300 12:20 25.11.2019
3531 Clouds 24 1012 83 10000 3.1 290 11:55 25.11.2019
3532 Clouds 24 1012 83 10000 3.1 290 11:55 25.11.2019
3533 Clouds 24 1012 83 10000 3.1 290 11:37 25.11.2019
3534 Clouds 24 1012 83 10000 3.1 290 11:18 25.11.2019
3535 Clear 20 1012 100 10000 2.6 290 10:41 25.11.2019
3536 Clear 25 1011 74 0 5.14 267 10:20 25.11.2019
3537 Clear 25 1011 74 0 5.14 267 09:45 25.11.2019
3538 Clear 25 1011 74 0 5.14 267 09:26 25.11.2019
3539 Clear 25 1011 74 0 5.14 267 08:58 25.11.2019
3540 Clear 24 1012 78 10000 2.6 270 08:39 25.11.2019
3541 Clear 24 1012 78 10000 2.6 270 08:20 25.11.2019
3542 Clear 24 1012 78 10000 2.6 270 07:41 25.11.2019
3543 Clouds 24 1012 83 10000 2.6 250 07:18 25.11.2019
3544 Clouds 24 1012 83 10000 2.6 250 06:43 25.11.2019
3545 Clouds 24 1012 83 10000 2.6 250 06:19 25.11.2019
3546 Clouds 24 1012 83 10000 2.6 250 06:19 25.11.2019
3547 Clouds 24 1013 78 10000 2.6 270 05:37 25.11.2019
3548 Clouds 24 1013 78 10000 2.1 240 04:50 25.11.2019
3549 Clouds 24 1013 83 10000 2.6 250 02:48 25.11.2019
3550 Clouds 24 1013 69 10000 2.1 260 01:57 25.11.2019
3551 Clouds 24 1013 69 10000 2.1 260 01:38 25.11.2019
3552 Clouds 24 1013 61 10000 1.5 260 01:19 25.11.2019
3553 Clouds 25 1012 61 10000 2.6 260 00:21 25.11.2019
3554 Clouds 26 1012 61 10000 2.6 260 23:45 24.11.2019
3555 Clouds 27 1012 54 10000 4.6 280 23:21 24.11.2019
3556 Clouds 27 1012 54 10000 4.6 280 22:59 24.11.2019
3557 Clouds 27 1012 54 10000 4.6 280 22:59 24.11.2019
3558 Clouds 28 1012 54 10000 4.6 280 22:40 24.11.2019
3559 Clouds 28 1012 54 10000 4.6 280 22:20 24.11.2019
3560 Clouds 28 1012 54 10000 3.6 280 21:58 24.11.2019
3561 Clouds 28 1012 54 10000 3.6 280 21:40 24.11.2019
3562 Clouds 28 1012 54 10000 3.6 280 21:21 24.11.2019
3563 Clouds 29 1012 51 10000 4.1 240 20:58 24.11.2019
3564 Clouds 29 1012 51 10000 4.1 240 20:38 24.11.2019
3565 Clouds 29 1012 51 10000 4.1 240 20:19 24.11.2019
3566 Clouds 29 1012 51 10000 4.1 250 19:56 24.11.2019
3567 Clouds 29 1012 51 10000 4.1 250 19:38 24.11.2019
3568 Clouds 29 1012 51 10000 4.1 250 19:20 24.11.2019
3569 Clouds 28 1014 61 10000 5.7 240 18:57 24.11.2019
3570 Clouds 28 1014 61 10000 5.7 240 18:37 24.11.2019
3571 Clouds 27 1014 61 10000 5.7 240 18:19 24.11.2019
3572 Clouds 27 1014 61 10000 5.7 240 18:19 24.11.2019
3573 Clouds 27 1014 61 10000 6.2 220 17:55 24.11.2019
3574 Clouds 27 1014 61 10000 6.2 220 17:37 24.11.2019
3575 Clouds 27 1014 61 10000 6.2 220 17:19 24.11.2019
3576 Clouds 27 1014 61 10000 6.2 220 17:19 24.11.2019
3577 Clouds 27 1015 61 10000 5.1 220 16:57 24.11.2019
3578 Clouds 27 1015 61 10000 5.1 220 16:38 24.11.2019
3579 Clouds 27 1015 61 10000 5.1 220 16:19 24.11.2019
3580 Clouds 27 1015 69 10000 4.6 220 15:43 24.11.2019
3581 Clouds 27 1015 69 10000 4.6 220 15:25 24.11.2019
3582 Clouds 26 1015 73 10000 1 0 14:57 24.11.2019
3583 Clouds 25 1015 73 10000 1 0 14:38 24.11.2019
3584 Clouds 25 1015 73 10000 1 0 14:38 24.11.2019
3585 Clouds 25 1015 73 10000 1 0 14:18 24.11.2019
3586 Clouds 21 1014 88 10000 3.95 174 13:41 24.11.2019
3587 Clouds 21 1014 88 10000 3.95 174 13:22 24.11.2019
3588 Clouds 21 1014 94 10000 3.21 179 12:59 24.11.2019
3589 Clouds 20 1014 94 10000 3.21 179 12:40 24.11.2019
3590 Clouds 20 1014 94 10000 3.21 179 12:18 24.11.2019
3591 Clouds 21 1014 88 10000 0.5 0 11:56 24.11.2019
3592 Clouds 21 1014 88 10000 0.5 0 11:36 24.11.2019
3593 Clouds 21 1014 88 10000 0.5 0 11:18 24.11.2019
3594 Clouds 20 1014 94 10000 2.1 200 10:46 24.11.2019
3595 Clouds 20 1014 94 10000 2.1 200 10:28 24.11.2019
3596 Clouds 20 1014 94 10000 1 0 09:55 24.11.2019
3597 Clouds 20 1014 94 10000 1 0 09:36 24.11.2019
3598 Clouds 20 1014 94 10000 1 0 09:18 24.11.2019
3599 Clouds 21 1015 88 10000 0.5 0 08:43 24.11.2019
3600 Clouds 21 1015 88 10000 0.5 0 08:21 24.11.2019
3601 Clouds 22 1015 83 10000 2.1 140 07:55 24.11.2019
3602 Rain 25 1015 65 0 4.29 172 07:36 24.11.2019
3603 Clouds 22 1016 83 10000 1 0 07:18 24.11.2019
3604 Clouds 22 1016 83 10000 1 0 06:19 24.11.2019
3605 Clouds 22 1016 83 10000 1 0 06:19 24.11.2019
3606 Clouds 24 1016 73 10000 3.1 120 04:47 24.11.2019
3607 Clouds 24 1017 73 10000 3.1 120 03:25 24.11.2019
3608 Clouds 24 1016 69 10000 2.1 90 01:58 24.11.2019
3609 Clouds 24 1016 69 10000 2.1 90 01:39 24.11.2019
3610 Clouds 24 1016 69 10000 2.6 110 01:20 24.11.2019
3611 Clouds 24 1016 69 10000 2.6 110 00:47 24.11.2019
3612 Clouds 24 1016 69 10000 2.6 110 00:23 24.11.2019
3613 Clouds 24 1016 64 10000 3.6 120 23:44 23.11.2019
3614 Clouds 25 1016 54 10000 4.1 140 23:22 23.11.2019
3615 Clouds 25 1016 54 10000 4.1 140 22:58 23.11.2019
3616 Clouds 25 1016 54 10000 4.1 140 22:39 23.11.2019
3617 Clouds 25 1016 54 10000 4.1 140 22:21 23.11.2019
3618 Clouds 26 1016 51 10000 4.1 140 21:58 23.11.2019
3619 Clouds 26 1016 51 10000 4.1 140 21:40 23.11.2019
3620 Clouds 26 1016 51 10000 4.1 140 21:21 23.11.2019
3621 Clouds 26 1016 51 10000 4.1 140 20:40 23.11.2019
3622 Clouds 26 1016 51 10000 4.1 140 20:22 23.11.2019
3623 Clouds 27 1017 45 10000 4.1 130 19:58 23.11.2019
3624 Clouds 27 1017 45 10000 4.1 130 19:40 23.11.2019
3625 Clouds 27 1017 45 10000 4.1 130 19:19 23.11.2019
3626 Clouds 26 1018 47 10000 4.1 120 18:59 23.11.2019
3627 Clouds 26 1018 47 10000 4.1 120 18:39 23.11.2019
3628 Clouds 26 1018 47 10000 4.1 120 18:20 23.11.2019
3629 Clouds 26 1018 47 0 4.1 140 17:45 23.11.2019
3630 Clouds 26 1018 47 0 4.1 140 17:24 23.11.2019
3631 Clouds 26 1019 51 10000 3.6 120 16:57 23.11.2019
3632 Clouds 26 1019 51 10000 3.6 120 16:39 23.11.2019
3633 Clouds 26 1019 51 10000 3.6 120 16:21 23.11.2019
3634 Clouds 25 1019 57 10000 3.1 120 15:59 23.11.2019
3635 Clouds 25 1019 57 10000 3.1 120 15:39 23.11.2019
3636 Clouds 25 1019 57 10000 3.1 120 15:19 23.11.2019
3637 Clouds 25 1019 57 10000 3.1 120 15:19 23.11.2019
3638 Clouds 24 1018 64 10000 2.6 100 14:57 23.11.2019
3639 Clouds 24 1018 64 10000 2.6 100 14:39 23.11.2019
3640 Clouds 24 1018 64 10000 2.6 100 14:21 23.11.2019
3641 Clouds 23 1018 73 10000 2.6 80 13:54 23.11.2019
3642 Clouds 22 1018 73 10000 2.6 80 13:36 23.11.2019
3643 Clouds 23 1018 73 10000 2.6 80 13:18 23.11.2019
3644 Clouds 22 1017 73 10000 2.1 100 12:41 23.11.2019
3645 Clouds 22 1017 73 10000 2.1 100 12:22 23.11.2019
3646 Clouds 25 1017 63 0 5.38 107 11:44 23.11.2019
3647 Clouds 24 1016 59 0 4.77 92 11:22 23.11.2019
3648 Clouds 24 1016 59 0 4.77 92 10:45 23.11.2019
3649 Clouds 24 1016 59 0 4.77 92 10:22 23.11.2019
3650 Clouds 24 1016 59 0 4.77 92 09:44 23.11.2019
3651 Clouds 24 1016 59 0 4.77 92 09:22 23.11.2019
3652 Clouds 24 1016 59 0 4.77 92 08:59 23.11.2019
3653 Clouds 24 1016 59 0 4.77 92 08:40 23.11.2019
3654 Clouds 24 1017 62 0 5.46 87 08:18 23.11.2019
3655 Clouds 24 1017 62 0 5.46 87 07:41 23.11.2019
3656 Clouds 23 1018 69 10000 3.1 100 06:52 23.11.2019
3657 Clouds 23 1018 69 10000 3.1 100 06:24 23.11.2019
3658 Clouds 23 1019 69 10000 2.6 90 05:56 23.11.2019
3659 Clouds 23 1019 69 10000 2.6 90 05:31 23.11.2019
3660 Clouds 23 1019 69 10000 3.1 100 04:50 23.11.2019
3661 Clouds 23 1019 69 10000 3.1 100 04:31 23.11.2019
3662 Clouds 23 1019 73 10000 2.1 110 03:21 23.11.2019
3663 Clouds 23 1018 74 0 5.78 70 02:27 23.11.2019
3664 Clouds 23 1018 74 0 5.87 62 01:38 23.11.2019
3665 Clouds 24 1018 64 10000 2.6 90 00:45 23.11.2019
3666 Clouds 24 1018 64 10000 2.6 90 00:19 23.11.2019
3667 Clouds 24 1018 61 10000 3.6 90 23:42 22.11.2019
3668 Clouds 24 1018 61 10000 3.6 90 23:21 22.11.2019
3669 Clouds 25 1017 54 0 4.6 90 22:58 22.11.2019
3670 Clouds 25 1017 54 0 4.6 90 22:38 22.11.2019
3671 Clouds 25 1017 54 0 4.6 90 22:20 22.11.2019
3672 Clouds 26 1017 42 10000 4.1 100 21:59 22.11.2019
3673 Clouds 26 1017 42 10000 4.1 100 21:39 22.11.2019
3674 Clouds 26 1017 42 10000 4.1 100 21:20 22.11.2019
3675 Clouds 26 1018 42 10000 4.6 90 20:43 22.11.2019
3676 Clouds 26 1018 42 10000 4.6 90 20:22 22.11.2019
3677 Clouds 26 1018 42 10000 5.1 90 19:57 22.11.2019
3678 Clouds 26 1018 42 10000 5.1 90 19:38 22.11.2019
3679 Clouds 26 1018 42 10000 5.1 90 19:19 22.11.2019
3680 Clouds 26 1019 44 10000 5.7 110 18:40 22.11.2019
3681 Clouds 25 1019 44 10000 5.7 110 18:21 22.11.2019
3682 Clouds 26 1020 47 10000 5.7 100 17:58 22.11.2019
3683 Clouds 26 1020 47 10000 5.7 100 17:40 22.11.2019
3684 Clouds 25 1020 47 10000 5.7 100 17:21 22.11.2019
3685 Clouds 25 1020 50 10000 7.2 110 16:42 22.11.2019
3686 Clouds 25 1020 50 10000 7.2 110 16:24 22.11.2019
3687 Clouds 25 1020 57 10000 6.2 100 15:45 22.11.2019
3688 Clouds 25 1020 57 10000 6.2 100 15:24 22.11.2019
3689 Clouds 25 1020 57 10000 6.2 100 15:24 22.11.2019
3690 Clouds 24 1019 60 10000 3.1 100 14:56 22.11.2019
3691 Clouds 24 1019 60 10000 3.1 100 14:38 22.11.2019
3692 Clouds 24 1019 60 10000 3.1 100 14:19 22.11.2019
3693 Clouds 23 1019 68 10000 3.6 110 13:57 22.11.2019
3694 Clouds 23 1019 68 10000 3.6 110 13:37 22.11.2019
3695 Clouds 23 1019 68 10000 3.6 110 13:18 22.11.2019
3696 Clouds 23 1018 64 10000 2.6 100 12:55 22.11.2019
3697 Clouds 23 1018 64 10000 2.6 100 12:55 22.11.2019
3698 Clouds 23 1018 64 10000 2.6 100 12:36 22.11.2019
3699 Clouds 23 1018 64 10000 2.6 100 12:18 22.11.2019
3700 Clouds 23 1018 60 10000 2.6 100 11:40 22.11.2019
3701 Clouds 23 1018 60 10000 2.6 100 11:22 22.11.2019
3702 Clouds 23 1018 60 10000 2.6 100 10:59 22.11.2019
3703 Clouds 23 1018 60 10000 2.6 100 10:39 22.11.2019
3704 Clouds 23 1018 60 10000 2.6 100 10:21 22.11.2019
3705 Clouds 23 1018 60 10000 3.6 80 09:55 22.11.2019
3706 Clouds 23 1018 60 10000 3.6 80 09:37 22.11.2019
3707 Clouds 23 1017 68 0 7.81 62 09:18 22.11.2019
3708 Clouds 23 1017 68 0 7.81 62 09:18 22.11.2019
3709 Clouds 23 1017 68 0 7.81 62 08:44 22.11.2019
3710 Clouds 23 1019 64 10000 3.6 100 08:25 22.11.2019
3711 Clouds 23 1019 64 10000 3.6 100 07:45 22.11.2019
3712 Clouds 23 1019 64 10000 3.6 100 07:45 22.11.2019
3713 Clouds 23 1019 64 10000 3.6 100 07:23 22.11.2019
3714 Clouds 23 1019 64 10000 4.1 100 06:49 22.11.2019
3715 Clouds 23 1019 64 10000 4.1 100 06:30 22.11.2019
3716 Clouds 23 1020 64 10000 5.1 90 05:45 22.11.2019
3717 Clouds 24 1020 60 10000 4.1 80 04:22 22.11.2019
3718 Clouds 24 1020 60 10000 3.6 70 02:52 22.11.2019
3719 Clouds 24 1020 60 10000 3.6 70 02:29 22.11.2019
3720 Clouds 24 1020 57 10000 5.7 70 01:45 22.11.2019
3721 Clouds 24 1019 53 10000 3.1 80 01:19 22.11.2019
3722 Clouds 24 1019 53 10000 3.1 80 00:49 22.11.2019
3723 Clouds 24 1019 57 0 4.6 70 00:23 22.11.2019
3724 Clouds 24 1019 57 0 4.6 70 23:44 21.11.2019
3725 Clouds 24 1019 57 0 4.6 70 23:44 21.11.2019
3726 Clouds 24 1019 50 10000 5.1 70 23:26 21.11.2019
3727 Clouds 24 1019 50 10000 5.1 70 22:58 21.11.2019
3728 Clouds 24 1019 50 10000 5.1 70 22:39 21.11.2019
3729 Clouds 24 1019 50 10000 5.1 70 22:39 21.11.2019
3730 Clouds 24 1019 50 10000 5.1 70 22:39 21.11.2019
3731 Clouds 25 1018 50 0 5.7 60 22:20 21.11.2019
3732 Clouds 24 1018 50 0 5.7 60 21:56 21.11.2019
3733 Clouds 24 1018 50 0 5.7 60 21:37 21.11.2019
3734 Clouds 24 1018 50 0 5.7 60 21:37 21.11.2019
3735 Clouds 24 1018 50 0 5.7 60 21:19 21.11.2019
3736 Clouds 25 1019 50 10000 4.6 80 20:57 21.11.2019
3737 Clouds 25 1019 50 10000 4.6 80 20:38 21.11.2019
3738 Clouds 25 1019 50 10000 4.6 80 20:19 21.11.2019
3739 Clouds 25 1019 53 10000 5.7 70 19:58 21.11.2019
3740 Clouds 25 1019 53 10000 5.7 70 19:58 21.11.2019
3741 Clouds 25 1019 53 10000 5.7 70 19:38 21.11.2019
3742 Clouds 25 1020 50 10000 4.6 60 19:20 21.11.2019
3743 Clouds 25 1020 50 10000 4.6 60 18:55 21.11.2019
3744 Clouds 25 1020 50 10000 4.6 60 18:37 21.11.2019
3745 Clouds 25 1020 50 10000 4.6 60 18:18 21.11.2019
3746 Clouds 25 1021 53 10000 5.1 60 17:40 21.11.2019
3747 Clouds 25 1021 47 10000 5.7 60 17:22 21.11.2019
3748 Clouds 25 1021 47 10000 5.7 60 16:58 21.11.2019
3749 Clouds 25 1021 47 10000 5.7 60 16:40 21.11.2019
3750 Clouds 24 1021 53 10000 5.7 50 16:20 21.11.2019
3751 Clouds 24 1021 53 10000 5.7 50 15:55 21.11.2019
3752 Clouds 24 1021 53 10000 5.7 50 15:37 21.11.2019
3753 Clouds 24 1021 53 10000 5.7 50 15:18 21.11.2019
3754 Clouds 24 1020 53 10000 4.6 90 14:38 21.11.2019
3755 Clouds 24 1020 53 10000 4.6 90 14:20 21.11.2019
3756 Clouds 23 1019 56 10000 3.6 50 13:59 21.11.2019
3757 Clouds 23 1019 56 10000 3.6 50 13:37 21.11.2019
3758 Clouds 23 1019 56 10000 3.6 50 13:19 21.11.2019
3759 Clouds 23 1019 56 10000 3.1 40 12:42 21.11.2019
3760 Clouds 23 1019 56 10000 3.1 40 12:24 21.11.2019
3761 Clouds 23 1019 56 10000 3.6 40 11:56 21.11.2019
3762 Clouds 23 1019 56 10000 3.6 40 11:37 21.11.2019
3763 Clouds 23 1019 56 10000 3.6 40 11:37 21.11.2019
3764 Clouds 23 1019 56 10000 3.6 40 11:37 21.11.2019
3765 Clouds 23 1019 56 10000 3.6 40 11:19 21.11.2019
3766 Clouds 23 1018 56 10000 4.6 40 10:43 21.11.2019
3767 Clouds 23 1018 56 10000 4.6 40 10:24 21.11.2019
3768 Clouds 22 1018 60 10000 3.6 40 09:59 21.11.2019
3769 Clouds 22 1018 60 10000 3.6 40 09:41 21.11.2019
3770 Clouds 22 1018 60 10000 3.6 40 09:22 21.11.2019
3771 Clouds 22 1019 60 10000 3.6 40 08:46 21.11.2019
3772 Clouds 22 1019 60 10000 3.6 40 08:24 21.11.2019
3773 Clouds 22 1019 60 10000 3.6 40 07:59 21.11.2019
3774 Clouds 22 1019 60 10000 3.6 40 07:37 21.11.2019
3775 Clouds 22 1019 60 10000 3.1 20 07:18 21.11.2019
3776 Clouds 22 1019 60 10000 3.1 20 06:42 21.11.2019
3777 Clouds 22 1020 56 10000 3.6 30 06:24 21.11.2019
3778 Clouds 23 1020 56 10000 5.7 40 04:34 21.11.2019
3779 Clouds 23 1019 56 10000 5.1 40 02:42 21.11.2019
3780 Clouds 23 1019 56 10000 5.1 40 02:24 21.11.2019
3781 Clouds 23 1019 56 10000 5.1 30 01:52 21.11.2019
3782 Clouds 23 1019 56 10000 5.1 30 01:21 21.11.2019
3783 Clouds 23 1018 60 10000 5.1 20 00:41 21.11.2019
3784 Clouds 23 1018 56 10000 4.6 20 00:20 21.11.2019
3785 Clouds 23 1018 56 10000 4.6 20 23:48 20.11.2019
3786 Clouds 23 1018 56 10000 4.6 20 23:22 20.11.2019
3787 Clouds 23 1018 57 10000 5.7 10 22:58 20.11.2019
3788 Clouds 24 1018 57 10000 5.7 10 22:38 20.11.2019
3789 Clouds 24 1018 57 10000 5.7 10 22:19 20.11.2019
3790 Clouds 24 1018 57 10000 5.7 20 21:58 20.11.2019
3791 Clouds 24 1018 57 10000 5.7 20 21:39 20.11.2019
3792 Clouds 24 1018 57 10000 5.7 20 21:20 20.11.2019
3793 Clouds 24 1018 57 10000 5.1 20 20:57 20.11.2019
3794 Clouds 24 1018 57 10000 5.1 20 20:39 20.11.2019
3795 Clouds 24 1018 57 10000 5.1 20 20:20 20.11.2019
3796 Clouds 24 1018 57 10000 5.1 20 19:56 20.11.2019
3797 Clouds 24 1018 57 10000 5.1 20 19:37 20.11.2019
3798 Clouds 24 1019 57 10000 4.6 20 19:18 20.11.2019
3799 Clouds 24 1019 57 10000 4.6 20 18:58 20.11.2019
3800 Clouds 24 1019 57 10000 4.6 20 18:39 20.11.2019
3801 Clouds 25 1019 57 10000 6.7 10 18:20 20.11.2019
3802 Clouds 24 1019 57 10000 6.7 10 17:56 20.11.2019
3803 Clouds 24 1019 57 10000 6.7 10 17:56 20.11.2019
3804 Clouds 24 1019 57 10000 6.7 10 17:38 20.11.2019
3805 Clouds 24 1019 60 10000 5.1 20 17:19 20.11.2019
3806 Clouds 24 1019 60 10000 5.1 20 16:43 20.11.2019
3807 Clouds 24 1019 64 10000 4.1 20 16:21 20.11.2019
3808 Clouds 24 1019 64 10000 4.1 20 16:21 20.11.2019
3809 Clouds 24 1019 64 10000 4.1 20 15:59 20.11.2019
3810 Clouds 24 1019 64 10000 4.1 20 15:41 20.11.2019
3811 Clouds 23 1018 69 10000 3.1 40 15:20 20.11.2019
3812 Clouds 23 1018 69 10000 3.1 40 14:58 20.11.2019
3813 Clouds 23 1018 69 10000 3.1 40 14:39 20.11.2019
3814 Rain 23 1017 73 10000 4.1 40 14:21 20.11.2019
3815 Rain 23 1017 73 10000 4.1 40 13:57 20.11.2019
3816 Rain 23 1017 73 10000 4.1 40 13:38 20.11.2019
3817 Rain 23 1017 73 10000 4.1 40 13:19 20.11.2019
3818 Clouds 22 1017 83 10000 2.6 60 12:43 20.11.2019
3819 Clouds 22 1017 83 10000 2.6 60 12:24 20.11.2019
3820 Rain 22 1016 83 10000 3.1 30 11:58 20.11.2019
3821 Rain 22 1016 83 10000 3.1 30 11:38 20.11.2019
3822 Clouds 22 1016 73 10000 2.1 260 11:20 20.11.2019
3823 Clouds 22 1016 73 10000 2.1 260 10:55 20.11.2019
3824 Clouds 22 1016 73 10000 2.1 260 10:37 20.11.2019
3825 Clouds 22 1016 73 10000 2.1 260 10:18 20.11.2019
3826 Rain 24 1015 70 0 6.81 359 09:42 20.11.2019
3827 Rain 24 1015 70 0 6.81 359 09:21 20.11.2019
3828 Rain 24 1015 70 0 6.81 359 08:54 20.11.2019
3829 Rain 24 1015 70 0 6.81 359 08:36 20.11.2019
3830 Clouds 19 1016 82 10000 1 0 08:18 20.11.2019
3831 Clouds 19 1016 82 10000 1 0 07:40 20.11.2019
3832 Clouds 25 1015 54 0 2.73 328 07:21 20.11.2019
3833 Clouds 25 1015 54 0 2.73 328 06:46 20.11.2019
3834 Clouds 23 1017 60 10000 3.1 300 06:19 20.11.2019
3835 Clouds 23 1017 64 10000 3.6 310 04:51 20.11.2019
3836 Clouds 23 1016 60 10000 3.6 320 02:48 20.11.2019
3837 Clouds 23 1016 60 10000 4.1 310 01:52 20.11.2019
3838 Clouds 22 1015 69 0 5.02 301 01:20 20.11.2019
3839 Clouds 22 1014 70 0 5.02 301 00:35 20.11.2019
3840 Clouds 24 1014 50 10000 5.1 320 23:43 19.11.2019
3841 Clouds 24 1014 50 10000 5.1 320 23:24 19.11.2019
3842 Clouds 25 1014 50 10000 5.7 310 22:56 19.11.2019
3843 Clouds 25 1014 50 10000 5.7 310 22:38 19.11.2019
3844 Clouds 26 1013 50 10000 4.6 320 22:18 19.11.2019
3845 Clouds 26 1013 50 10000 4.6 320 21:55 19.11.2019
3846 Clouds 26 1013 50 10000 4.6 320 21:37 19.11.2019
3847 Clouds 26 1013 47 10000 4.6 340 21:18 19.11.2019
3848 Clouds 26 1013 47 10000 4.6 340 20:55 19.11.2019
3849 Clouds 26 1013 47 10000 4.6 340 20:36 19.11.2019
3850 Clouds 26 1013 47 10000 4.6 340 20:36 19.11.2019
3851 Clouds 26 1013 47 10000 4.6 340 20:18 19.11.2019
3852 Clouds 26 1014 94 10000 5.1 330 19:42 19.11.2019
3853 Clouds 26 1014 94 10000 5.1 330 19:20 19.11.2019
3854 Clouds 26 1014 44 10000 6.2 340 18:58 19.11.2019
3855 Clouds 26 1014 44 10000 6.2 340 18:40 19.11.2019
3856 Clouds 26 1014 44 10000 6.2 340 18:21 19.11.2019
3857 Clouds 26 1015 44 10000 5.7 330 17:58 19.11.2019
3858 Clouds 26 1015 44 10000 5.7 330 17:40 19.11.2019
3859 Clouds 26 1015 44 10000 5.7 330 17:20 19.11.2019
3860 Clouds 26 1016 44 10000 6.7 300 16:59 19.11.2019
3861 Clouds 25 1016 44 10000 6.7 300 16:39 19.11.2019
3862 Clouds 26 1016 44 10000 6.7 300 16:19 19.11.2019
3863 Clouds 25 1015 44 10000 6.7 300 15:47 19.11.2019
3864 Clouds 25 1015 44 10000 6.7 300 15:26 19.11.2019
3865 Clouds 25 1015 44 10000 6.7 300 15:26 19.11.2019
3866 Clouds 24 1015 53 10000 5.1 300 14:58 19.11.2019
3867 Clouds 24 1015 53 10000 5.1 300 14:39 19.11.2019
3868 Clouds 24 1014 50 10000 6.2 310 14:20 19.11.2019
3869 Clouds 24 1014 50 10000 6.2 310 13:42 19.11.2019
3870 Clouds 23 1014 50 10000 6.2 310 13:21 19.11.2019
3871 Clouds 23 1013 53 10000 5.7 310 12:54 19.11.2019
3872 Clouds 23 1013 53 10000 5.7 310 12:36 19.11.2019
3873 Clouds 23 1013 53 10000 5.7 310 12:18 19.11.2019
3874 Clouds 22 1012 56 10000 3.6 290 11:54 19.11.2019
3875 Clouds 22 1012 56 10000 3.6 290 11:36 19.11.2019
3876 Clouds 22 1012 56 10000 3.6 290 11:18 19.11.2019
3877 Clouds 22 1012 53 10000 5.1 290 10:42 19.11.2019
3878 Clouds 22 1012 53 10000 5.1 290 10:20 19.11.2019
3879 Clouds 22 1012 53 10000 5.1 290 10:20 19.11.2019
3880 Clouds 23 1012 60 10000 6.2 300 09:43 19.11.2019
3881 Clouds 23 1012 60 10000 6.2 300 09:21 19.11.2019
3882 Clouds 23 1012 64 10000 2.6 310 08:57 19.11.2019
3883 Clouds 23 1012 64 10000 2.6 310 08:38 19.11.2019
3884 Clouds 23 1012 64 10000 2.6 310 08:20 19.11.2019
3885 Clouds 21 1012 73 10000 2.1 250 07:42 19.11.2019
3886 Clouds 21 1012 73 10000 2.1 250 07:23 19.11.2019
3887 Clouds 20 1012 77 10000 2.1 250 06:54 19.11.2019
3888 Clouds 20 1012 77 10000 2.1 250 06:35 19.11.2019
3889 Clouds 20 1012 72 0 1.5 270 05:49 19.11.2019
3890 Clouds 21 1012 73 0 2.6 260 04:46 19.11.2019
3891 Clouds 21 1012 68 10000 2.6 290 03:35 19.11.2019
3892 Clouds 21 1012 68 10000 3.1 300 02:59 19.11.2019
3893 Clouds 21 1012 68 10000 3.1 300 02:33 19.11.2019
3894 Clouds 21 1011 68 10000 3.1 300 01:45 19.11.2019
3895 Clouds 22 1011 73 10000 3.6 290 00:22 19.11.2019
3896 Clouds 22 1010 64 10000 5.1 290 23:59 18.11.2019
3897 Clouds 23 1010 64 10000 5.1 290 23:37 18.11.2019
3898 Clouds 23 1010 64 10000 5.1 290 23:18 18.11.2019
3899 Clouds 24 1009 61 10000 5.1 290 22:45 18.11.2019
3900 Clouds 26 1009 54 10000 4.6 280 22:23 18.11.2019
3901 Clouds 26 1009 54 10000 4.6 280 21:56 18.11.2019
3902 Clouds 26 1009 54 10000 4.6 280 21:38 18.11.2019
3903 Clouds 26 1009 54 10000 4.6 280 21:20 18.11.2019
3904 Clouds 26 1009 50 10000 5.1 280 20:57 18.11.2019
3905 Clouds 26 1009 50 10000 5.1 280 20:38 18.11.2019
3906 Clouds 26 1009 50 10000 5.1 280 20:18 18.11.2019
3907 Clouds 26 1010 53 10000 6.2 280 19:55 18.11.2019
3908 Clouds 26 1010 53 10000 6.2 280 19:37 18.11.2019
3909 Clouds 25 1011 57 10000 5.7 290 19:18 18.11.2019
3910 Clouds 26 1011 57 10000 5.7 290 18:55 18.11.2019
3911 Clouds 26 1011 57 10000 5.7 290 18:36 18.11.2019
3912 Clouds 26 1011 57 10000 5.7 290 18:18 18.11.2019
3913 Clouds 24 1012 69 10000 5.7 280 17:39 18.11.2019
3914 Clouds 24 1012 69 10000 5.7 280 17:20 18.11.2019
3915 Clouds 24 1012 69 10000 6.7 280 16:55 18.11.2019
3916 Clouds 24 1012 69 10000 6.7 280 16:36 18.11.2019
3917 Clouds 24 1012 69 10000 6.7 280 16:18 18.11.2019
3918 Clouds 24 1012 73 10000 6.2 290 15:55 18.11.2019
3919 Clouds 24 1012 73 10000 6.2 290 15:36 18.11.2019
3920 Clouds 23 1012 69 10000 5.1 280 15:18 18.11.2019
3921 Clouds 23 1012 69 10000 5.1 280 15:18 18.11.2019
3922 Clouds 23 1012 69 10000 5.1 280 14:41 18.11.2019
3923 Clouds 23 1012 69 10000 5.1 280 14:23 18.11.2019
3924 Clouds 22 1011 68 10000 4.1 290 13:48 18.11.2019
3925 Clouds 22 1011 68 10000 4.1 290 13:48 18.11.2019
3926 Clouds 22 1010 73 10000 3.6 280 13:28 18.11.2019
3927 Clouds 21 1010 73 10000 3.6 280 12:58 18.11.2019
3928 Clouds 22 1010 73 10000 3.6 280 12:37 18.11.2019
3929 Clouds 22 1010 78 10000 4.6 280 12:18 18.11.2019
3930 Clouds 22 1010 78 10000 4.6 280 11:44 18.11.2019
3931 Clouds 23 1011 68 0 5.46 271 11:25 18.11.2019
3932 Clouds 24 1009 69 0 6.01 278 10:55 18.11.2019
3933 Clouds 24 1009 69 0 6.01 278 10:37 18.11.2019
3934 Clouds 24 1009 69 0 6.01 278 10:18 18.11.2019
3935 Clouds 24 1009 69 0 6.01 278 09:54 18.11.2019
3936 Clouds 24 1009 69 0 6.01 278 09:54 18.11.2019
3937 Clouds 24 1009 69 0 6.01 278 09:36 18.11.2019
3938 Clouds 24 1009 69 0 6.01 278 09:18 18.11.2019
3939 Clouds 24 1009 69 0 6.01 278 09:18 18.11.2019
3940 Clouds 24 1009 69 0 6.01 278 08:42 18.11.2019
3941 Clouds 23 1010 67 0 4.39 309 08:20 18.11.2019
3942 Clouds 23 1010 67 0 4.39 309 07:47 18.11.2019
3943 Clouds 23 1010 67 0 4.39 309 07:47 18.11.2019
3944 Clouds 23 1010 67 0 4.39 309 07:27 18.11.2019
3945 Clouds 23 1010 67 0 4.39 309 06:49 18.11.2019
3946 Clouds 23 1010 67 0 4.39 309 06:29 18.11.2019
3947 Clouds 23 1010 67 0 4.39 309 05:46 18.11.2019
3948 Clouds 23 1010 69 10000 4.1 300 04:35 18.11.2019
3949 Clouds 22 1009 78 10000 5.7 310 01:49 18.11.2019
3950 Clouds 22 1009 78 10000 5.7 310 01:30 18.11.2019
3951 Clouds 22 1009 73 10000 5.1 310 00:21 18.11.2019
3952 Clouds 23 1009 64 10000 5.7 310 23:41 17.11.2019
3953 Clouds 23 1009 64 10000 5.7 310 23:23 17.11.2019
3954 Clouds 23 1009 64 10000 6.2 310 22:57 17.11.2019
3955 Clouds 23 1009 64 10000 6.2 310 22:39 17.11.2019
3956 Clouds 23 1009 64 10000 6.2 310 22:21 17.11.2019
3957 Clouds 23 1009 69 10000 6.7 330 21:57 17.11.2019
3958 Clouds 23 1009 69 10000 6.7 330 21:38 17.11.2019
3959 Clouds 23 1009 69 10000 6.7 330 21:18 17.11.2019
3960 Clouds 23 1009 69 10000 6.7 320 20:55 17.11.2019
3961 Clouds 23 1009 69 10000 6.7 320 20:37 17.11.2019
3962 Clouds 23 1009 69 10000 6.7 320 20:18 17.11.2019
3963 Clouds 24 1009 57 10000 6.7 310 19:55 17.11.2019
3964 Clouds 24 1009 57 10000 6.7 310 19:36 17.11.2019
3965 Clouds 24 1009 57 10000 6.7 310 19:18 17.11.2019
3966 Clouds 24 1010 60 10000 6.7 320 18:54 17.11.2019
3967 Clouds 24 1010 60 10000 6.7 320 18:36 17.11.2019
3968 Clouds 24 1010 60 10000 6.7 320 18:18 17.11.2019
3969 Clouds 24 1011 64 10000 6.7 320 17:56 17.11.2019
3970 Clouds 25 1011 64 10000 6.7 320 17:38 17.11.2019
3971 Clouds 24 1011 64 10000 6.7 320 17:18 17.11.2019
3972 Clouds 24 1011 64 10000 6.7 320 16:42 17.11.2019
3973 Clouds 24 1011 64 10000 6.7 320 16:22 17.11.2019
3974 Clouds 23 1011 69 10000 6.7 330 15:59 17.11.2019
3975 Clouds 23 1011 69 10000 6.7 330 15:41 17.11.2019
3976 Clouds 23 1011 69 10000 6.7 330 15:19 17.11.2019
3977 Clouds 23 1011 64 10000 5.1 320 14:57 17.11.2019
3978 Clouds 23 1011 64 10000 5.1 320 14:39 17.11.2019
3979 Clouds 23 1011 64 10000 5.1 320 14:20 17.11.2019
3980 Clouds 22 1010 68 10000 5.1 310 13:59 17.11.2019
3981 Clouds 22 1010 68 10000 5.1 310 13:59 17.11.2019
3982 Clouds 22 1010 68 10000 5.1 310 13:40 17.11.2019
3983 Clouds 22 1010 68 10000 5.1 310 13:20 17.11.2019
3984 Clouds 21 1009 68 10000 5.7 310 12:45 17.11.2019
3985 Clouds 22 1009 68 10000 5.7 310 12:24 17.11.2019
3986 Clouds 23 1011 65 0 6.02 310 11:58 17.11.2019
3987 Clouds 23 1011 65 0 6.02 310 11:40 17.11.2019
3988 Clouds 23 1011 65 0 6.02 310 11:40 17.11.2019
3989 Clouds 22 1009 68 10000 5.7 320 11:20 17.11.2019
3990 Clouds 22 1009 68 10000 5.7 320 10:45 17.11.2019
3991 Clouds 22 1009 68 10000 5.7 320 10:24 17.11.2019
3992 Clouds 22 1009 64 10000 3.6 300 09:58 17.11.2019
3993 Clouds 22 1009 64 10000 3.6 300 09:40 17.11.2019
3994 Clouds 23 1009 70 0 7.34 313 09:22 17.11.2019
3995 Clouds 23 1009 70 0 7.34 313 08:42 17.11.2019
3996 Clouds 22 1009 64 10000 4.1 280 08:23 17.11.2019
3997 Clouds 22 1009 64 10000 4.1 280 07:56 17.11.2019
3998 Clouds 22 1009 64 10000 4.1 280 07:38 17.11.2019
3999 Clouds 22 1011 64 10000 3.1 290 07:19 17.11.2019
4000 Clouds 22 1011 64 10000 3.1 290 06:46 17.11.2019
4001 Clouds 22 1011 64 10000 3.1 290 06:27 17.11.2019
4002 Clouds 22 1011 64 10000 4.1 310 04:48 17.11.2019
4003 Clouds 22 1011 64 10000 4.1 300 03:53 17.11.2019
4004 Clouds 22 1011 64 10000 4.1 300 03:33 17.11.2019
4005 Clouds 23 1011 64 10000 4.6 310 02:36 17.11.2019
4006 Clouds 23 1011 69 10000 5.1 310 01:43 17.11.2019
4007 Rain 23 1010 73 10000 5.1 320 00:55 17.11.2019
4008 Rain 23 1010 73 10000 5.1 320 00:22 17.11.2019
4009 Clouds 22 1009 80 0 7.89 315 23:52 16.11.2019
4010 Clouds 23 1009 80 0 8.45 315 23:20 16.11.2019
4011 Clouds 23 1009 80 0 8.45 315 22:59 16.11.2019
4012 Clouds 23 1009 81 0 8.45 315 22:41 16.11.2019
4013 Clouds 23 1009 80 0 8.45 315 22:19 16.11.2019
4014 Clouds 23 1009 80 0 8.45 315 21:56 16.11.2019
4015 Clouds 23 1009 80 0 8.45 315 21:37 16.11.2019
4016 Clouds 23 1009 80 0 8.45 315 21:19 16.11.2019
4017 Clouds 23 1009 82 0 8.45 315 20:42 16.11.2019
4018 Rain 23 1009 82 0 8.62 324 20:21 16.11.2019
4019 Rain 23 1009 81 0 8.62 324 19:58 16.11.2019
4020 Rain 23 1009 80 0 8.62 324 19:40 16.11.2019
4021 Rain 23 1009 80 0 8.62 324 19:21 16.11.2019
4022 Rain 23 1009 80 0 0.45 5 18:47 16.11.2019
4023 Rain 23 1010 79 0 8.62 324 18:29 16.11.2019
4024 Rain 23 1010 74 0 1.34 313 17:57 16.11.2019
4025 Rain 23 1010 70 0 0.89 15 17:38 16.11.2019
4026 Rain 23 1010 72 0 6.23 246 17:19 16.11.2019
4027 Rain 23 1011 75 0 6.23 246 16:48 16.11.2019
4028 Rain 23 1011 75 0 6.23 246 16:30 16.11.2019
4029 Rain 24 1011 75 0 6.23 246 15:58 16.11.2019
4030 Rain 24 1011 77 0 6.23 246 15:39 16.11.2019
4031 Rain 24 1011 78 0 6.23 246 15:20 16.11.2019
4032 Rain 25 1011 79 0 6.23 246 14:57 16.11.2019
4033 Rain 24 1010 78 0 6.23 246 14:38 16.11.2019
4034 Clouds 25 1010 77 0 5.82 224 14:19 16.11.2019
4035 Clouds 24 1010 77 0 5.82 224 13:54 16.11.2019
4036 Clouds 24 1010 77 0 5.82 224 13:54 16.11.2019
4037 Clouds 24 1010 78 0 5.82 224 13:36 16.11.2019
4038 Clouds 24 1010 79 0 5.37 216 13:18 16.11.2019
4039 Clouds 26 1011 76 0 5.37 216 12:42 16.11.2019
4040 Clouds 26 1011 76 0 5.37 216 12:22 16.11.2019
4041 Clouds 26 1011 76 0 5.37 216 11:55 16.11.2019
4042 Clouds 26 1011 76 0 5.37 216 11:37 16.11.2019
4043 Clouds 26 1010 76 0 5.74 222 11:18 16.11.2019
4044 Clouds 26 1010 76 0 5.74 222 10:42 16.11.2019
4045 Clouds 26 1010 76 0 5.74 222 10:24 16.11.2019
4046 Clouds 26 1010 76 0 5.74 222 09:56 16.11.2019
4047 Clouds 26 1010 76 0 5.74 222 09:38 16.11.2019
4048 Clouds 24 1011 88 10000 2.1 240 09:19 16.11.2019
4049 Clouds 24 1011 88 10000 2.1 240 08:40 16.11.2019
4050 Clouds 24 1012 88 10000 1.5 240 08:20 16.11.2019
4051 Clouds 24 1012 88 10000 1.5 240 07:44 16.11.2019
4052 Clouds 24 1012 88 10000 1.5 240 07:43 16.11.2019
4053 Clouds 23 1013 88 10000 1.5 240 07:22 16.11.2019
4054 Clouds 23 1013 88 10000 1.5 240 06:56 16.11.2019
4055 Clouds 23 1013 88 10000 1.5 240 06:35 16.11.2019
4056 Clouds 24 1013 88 10000 2.1 250 05:59 16.11.2019
4057 Clouds 24 1013 83 10000 1.5 250 04:21 16.11.2019
4058 Clouds 25 1013 83 10000 1.5 260 03:26 16.11.2019
4059 Clouds 25 1014 78 10000 3.1 290 02:21 16.11.2019
4060 Clouds 25 1014 78 10000 3.1 290 01:29 16.11.2019
4061 Clouds 26 1013 69 10000 2.1 250 00:46 16.11.2019
4062 Clouds 26 1013 69 10000 2.1 250 00:27 16.11.2019
4063 Clouds 27 1013 65 10000 2.6 260 23:43 15.11.2019
4064 Clouds 27 1013 65 10000 2.6 260 23:21 15.11.2019
4065 Clouds 28 1013 62 10000 4.6 270 22:58 15.11.2019
4066 Clouds 28 1013 62 10000 4.6 270 22:39 15.11.2019
4067 Clouds 29 1013 62 10000 4.6 270 22:19 15.11.2019
4068 Clouds 29 1013 62 10000 5.1 240 21:55 15.11.2019
4069 Clouds 29 1013 62 10000 5.1 240 21:36 15.11.2019
4070 Clouds 29 1013 62 10000 5.1 240 21:18 15.11.2019
4071 Clouds 29 1013 58 10000 3.6 210 20:54 15.11.2019
4072 Clouds 29 1013 58 10000 3.6 210 20:36 15.11.2019
4073 Clouds 29 1013 58 10000 3.6 210 20:18 15.11.2019
4074 Clouds 29 1013 58 10000 3.6 210 20:18 15.11.2019
4075 Clouds 29 1014 62 10000 4.1 240 19:56 15.11.2019
4076 Clouds 29 1014 62 10000 4.1 240 19:36 15.11.2019
4077 Clouds 29 1014 62 10000 4.1 240 19:18 15.11.2019
4078 Clouds 28 1015 69 10000 5.1 230 18:41 15.11.2019
4079 Clouds 28 1015 69 10000 5.1 230 18:23 15.11.2019
4080 Clouds 28 1015 69 0 4.6 230 17:55 15.11.2019
4081 Clouds 28 1015 69 0 4.6 230 17:37 15.11.2019
4082 Clouds 28 1016 74 10000 3.1 230 17:18 15.11.2019
4083 Clouds 27 1016 74 10000 3.1 230 16:40 15.11.2019
4084 Clouds 27 1016 74 10000 3.6 160 16:22 15.11.2019
4085 Clouds 27 1016 74 10000 3.6 160 15:57 15.11.2019
4086 Clouds 27 1016 74 10000 3.6 160 15:36 15.11.2019
4087 Clouds 27 1016 83 10000 2.1 150 15:18 15.11.2019
4088 Clouds 27 1016 83 10000 2.1 150 14:55 15.11.2019
4089 Clouds 27 1016 83 10000 2.1 150 14:55 15.11.2019
4090 Clouds 27 1016 83 10000 2.1 150 14:36 15.11.2019
4091 Clouds 25 1016 88 10000 1.5 150 14:18 15.11.2019
4092 Clouds 25 1016 88 10000 1.5 150 13:54 15.11.2019
4093 Clouds 25 1016 88 10000 1.5 150 13:54 15.11.2019
4094 Clouds 25 1016 88 10000 1.5 150 13:36 15.11.2019
4095 Clouds 24 1016 88 10000 1.5 150 13:18 15.11.2019
4096 Rain 24 1016 88 10000 3.6 170 12:55 15.11.2019
4097 Rain 24 1016 88 10000 3.6 170 12:36 15.11.2019
4098 Clouds 23 1015 94 10000 0.5 0 12:18 15.11.2019
4099 Clouds 23 1015 94 10000 0.5 0 11:39 15.11.2019
4100 Rain 23 1015 94 10000 0.5 0 11:21 15.11.2019
4101 Rain 23 1015 94 10000 0.5 0 10:57 15.11.2019
4102 Rain 23 1015 94 10000 0.5 0 10:39 15.11.2019
4103 Rain 23 1015 94 10000 0.5 0 10:20 15.11.2019
4104 Rain 26 1015 79 0 5.22 121 09:41 15.11.2019
4105 Rain 26 1015 79 0 5.22 121 09:20 15.11.2019
4106 Rain 26 1015 79 0 5.22 121 08:45 15.11.2019
4107 Rain 26 1015 78 0 4.12 116 08:25 15.11.2019
4108 Clouds 26 1016 75 0 4.84 115 07:55 15.11.2019
4109 Clouds 26 1016 75 0 4.84 115 07:36 15.11.2019
4110 Clouds 23 1017 88 10000 1 0 07:18 15.11.2019
4111 Clouds 23 1017 88 10000 1 0 06:34 15.11.2019
4112 Clouds 25 1018 78 10000 1.5 90 05:52 15.11.2019
4113 Clouds 25 1018 78 10000 1.5 90 05:52 15.11.2019
4114 Clouds 25 1018 78 10000 1.5 90 05:28 15.11.2019
4115 Clouds 25 1018 83 10000 1.5 80 04:42 15.11.2019
4116 Clouds 25 1018 83 10000 2.1 100 03:37 15.11.2019
4117 Clouds 25 1017 78 10000 2.1 100 02:27 15.11.2019
4118 Clouds 25 1017 78 10000 2.6 80 01:48 15.11.2019
4119 Clouds 26 1017 74 10000 2.6 90 01:24 15.11.2019
4120 Clouds 26 1017 74 10000 2.6 90 00:37 15.11.2019
4121 Clouds 26 1017 74 10000 3.1 90 23:58 14.11.2019
4122 Clouds 26 1016 79 0 5.91 89 23:39 14.11.2019
4123 Clouds 26 1016 65 10000 4.1 100 23:21 14.11.2019
4124 Clouds 26 1016 65 10000 4.1 100 22:41 14.11.2019
4125 Clouds 26 1015 77 0 4.87 85 22:22 14.11.2019
4126 Clouds 26 1015 77 0 4.87 85 21:57 14.11.2019
4127 Clouds 26 1015 75 0 4.87 85 21:39 14.11.2019
4128 Clouds 28 1017 62 10000 3.6 80 21:21 14.11.2019
4129 Clouds 28 1017 62 10000 3.6 80 20:43 14.11.2019
4130 Clouds 28 1017 62 10000 3.6 80 20:24 14.11.2019
4131 Clouds 28 1017 58 10000 4.1 100 19:59 14.11.2019
4132 Clouds 28 1017 58 10000 4.1 100 19:41 14.11.2019
4133 Clouds 28 1017 58 10000 4.1 100 19:19 14.11.2019
4134 Clouds 27 1018 61 10000 4.1 140 18:56 14.11.2019
4135 Clouds 27 1018 61 10000 4.1 140 18:56 14.11.2019
4136 Clouds 27 1016 73 0 4.83 98 18:38 14.11.2019
4137 Clouds 27 1019 65 10000 4.6 120 18:20 14.11.2019
4138 Clouds 27 1019 65 10000 4.6 120 17:56 14.11.2019
4139 Clouds 27 1019 65 10000 4.6 120 17:37 14.11.2019
4140 Clouds 27 1019 65 10000 4.6 120 17:19 14.11.2019
4141 Clouds 27 1019 69 10000 4.6 120 16:57 14.11.2019
4142 Clouds 27 1019 69 10000 4.6 120 16:36 14.11.2019
4143 Clouds 27 1019 69 10000 4.6 120 16:18 14.11.2019
4144 Clouds 26 1018 74 10000 4.6 110 15:56 14.11.2019
4145 Clouds 26 1018 74 10000 4.6 110 15:37 14.11.2019
4146 Clouds 26 1018 74 10000 4.6 110 15:19 14.11.2019
4147 Clouds 25 1018 78 10000 2.6 100 14:44 14.11.2019
4148 Clouds 26 1018 78 10000 2.6 100 14:22 14.11.2019
4149 Clouds 25 1017 83 10000 1.5 110 13:57 14.11.2019
4150 Clouds 25 1017 83 10000 1.5 110 13:38 14.11.2019
4151 Clouds 25 1017 83 10000 1.5 110 13:19 14.11.2019
4152 Clouds 24 1017 83 10000 2.6 120 12:46 14.11.2019
4153 Clouds 24 1017 83 10000 2.6 120 12:26 14.11.2019
4154 Clouds 23 1016 88 10000 1.5 150 11:58 14.11.2019
4155 Clouds 23 1016 88 10000 1.5 150 11:38 14.11.2019
4156 Clouds 23 1016 88 10000 1.5 150 11:19 14.11.2019
4157 Clouds 24 1016 88 10000 2.6 110 10:57 14.11.2019
4158 Clouds 24 1016 88 10000 2.6 110 10:38 14.11.2019
4159 Clouds 24 1016 88 10000 2.6 110 10:19 14.11.2019
4160 Clouds 24 1016 83 10000 2.6 90 09:56 14.11.2019
4161 Clouds 26 1015 71 0 4.9 79 09:37 14.11.2019
4162 Clouds 23 1016 88 10000 2.1 120 09:18 14.11.2019
4163 Clouds 23 1016 88 10000 2.1 120 08:46 14.11.2019
4164 Clouds 23 1016 88 10000 2.1 120 08:46 14.11.2019
4165 Clouds 23 1016 88 10000 2.1 120 08:23 14.11.2019
4166 Clouds 22 1016 94 10000 0.5 0 07:42 14.11.2019
4167 Clouds 22 1016 94 10000 0.5 0 07:24 14.11.2019
4168 Clouds 22 1017 94 10000 0.5 0 06:47 14.11.2019
4169 Clouds 22 1017 94 10000 0.5 0 06:22 14.11.2019
4170 Clouds 22 1017 94 10000 1.5 210 05:59 14.11.2019
4171 Rain 24 1017 88 10000 4.1 110 04:38 14.11.2019
4172 Clouds 25 1017 78 10000 1.5 20 03:47 14.11.2019
4173 Clouds 25 1016 73 10000 1 0 02:39 14.11.2019
4174 Clouds 26 1015 78 10000 2.1 20 01:41 14.11.2019
4175 Clouds 26 1015 69 10000 1 0 00:58 14.11.2019
4176 Clouds 26 1015 69 10000 1 0 00:58 14.11.2019
4177 Clouds 26 1015 69 10000 1 0 00:39 14.11.2019
4178 Clouds 26 1015 69 10000 1 0 00:39 14.11.2019
4179 Clouds 26 1015 69 10000 1 0 00:20 14.11.2019
4180 Clouds 26 1015 69 10000 2.1 30 23:39 13.11.2019
4181 Clouds 26 1015 69 10000 2.1 30 23:20 13.11.2019
4182 Clouds 27 1015 65 10000 3.1 360 22:55 13.11.2019
4183 Clouds 27 1015 65 10000 3.1 360 22:37 13.11.2019
4184 Clouds 27 1015 65 10000 3.1 360 22:19 13.11.2019
4185 Clouds 27 1015 61 10000 3.1 10 21:55 13.11.2019
4186 Clouds 27 1015 61 10000 3.1 10 21:36 13.11.2019
4187 Clouds 28 1015 51 10000 3.1 360 21:18 13.11.2019
4188 Clouds 28 1015 51 10000 3.1 360 20:54 13.11.2019
4189 Clouds 28 1015 51 10000 3.1 360 20:36 13.11.2019
4190 Clouds 28 1015 51 10000 3.1 360 20:36 13.11.2019
4191 Clouds 28 1015 51 10000 3.1 360 20:18 13.11.2019
4192 Clouds 28 1015 58 10000 2.6 350 19:41 13.11.2019
4193 Clouds 28 1015 58 10000 2.6 350 19:19 13.11.2019
4194 Clouds 28 1016 58 10000 3.1 330 18:56 13.11.2019
4195 Clouds 28 1016 58 10000 3.1 330 18:37 13.11.2019
4196 Clouds 28 1016 58 10000 3.1 330 18:19 13.11.2019
4197 Clouds 28 1014 68 0 2.18 21 17:56 13.11.2019
4198 Clouds 27 1015 69 0 2.18 21 17:38 13.11.2019
4199 Clouds 27 1016 65 10000 1.5 310 17:19 13.11.2019
4200 Clouds 27 1016 65 10000 1.5 310 16:56 13.11.2019
4201 Clouds 26 1016 65 10000 1.5 310 16:37 13.11.2019
4202 Clouds 27 1015 73 0 2.28 36 16:19 13.11.2019
4203 Clouds 27 1015 73 0 2.49 30 15:56 13.11.2019
4204 Clouds 27 1015 73 0 2.28 36 15:56 13.11.2019
4205 Clouds 26 1015 73 0 2.28 36 15:37 13.11.2019
4206 Clouds 25 1015 78 10000 2.28 36 15:18 13.11.2019
4207 Clouds 25 1015 78 10000 2.28 36 14:41 13.11.2019
4208 Clouds 23 1015 88 10000 2.18 34 14:20 13.11.2019
4209 Clouds 23 1015 88 10000 2.18 34 14:20 13.11.2019
4210 Clouds 24 1014 77 0 2.18 34 13:38 13.11.2019
4211 Clouds 20 1014 93 10000 1 0 13:20 13.11.2019
4212 Clouds 20 1014 93 10000 1 0 12:58 13.11.2019
4213 Clouds 21 1014 93 10000 1 0 12:40 13.11.2019
4214 Clouds 18 1014 93 10000 1 0 12:21 13.11.2019
4215 Clouds 19 1013 93 10000 2.18 34 11:55 13.11.2019
4216 Clouds 19 1013 93 10000 2.18 34 11:37 13.11.2019
4217 Clouds 19 1013 93 10000 1.99 44 11:18 13.11.2019
4218 Clouds 25 1013 65 0 1.99 44 10:55 13.11.2019
4219 Clouds 25 1013 65 0 1.99 44 10:37 13.11.2019
4220 Clouds 25 1013 65 0 1.99 44 10:18 13.11.2019
4221 Clouds 25 1013 65 0 1.99 44 09:41 13.11.2019
4222 Clouds 25 1013 65 0 1.99 44 09:20 13.11.2019
4223 Clouds 25 1013 65 0 1.99 44 09:20 13.11.2019
4224 Clouds 25 1013 65 0 1.99 44 08:41 13.11.2019
4225 Clouds 26 1013 65 0 1.15 51 08:22 13.11.2019
4226 Clouds 26 1013 65 0 1.15 51 07:57 13.11.2019
4227 Clouds 26 1013 65 0 1.15 51 07:38 13.11.2019
4228 Clouds 26 1013 65 0 1.15 51 07:18 13.11.2019
4229 Clouds 26 1013 65 0 1.15 51 06:41 13.11.2019
4230 Clouds 26 1013 65 0 1.15 51 06:18 13.11.2019
4231 Clouds 26 1013 65 0 1.15 51 05:46 13.11.2019
4232 Clouds 23 1015 94 10000 2.22 56 04:56 13.11.2019
4233 Clouds 24 1014 79 0 2.22 56 03:36 13.11.2019
4234 Clouds 24 1014 73 10000 1 0 01:48 13.11.2019
4235 Clouds 24 1014 73 10000 1 0 01:23 13.11.2019
4236 Clouds 25 1013 65 10000 2.1 90 00:37 13.11.2019
4237 Clouds 26 1013 65 10000 2.6 50 23:54 12.11.2019
4238 Clouds 25 1013 65 10000 2.6 50 23:36 12.11.2019
4239 Clouds 26 1013 65 10000 2.6 50 23:18 12.11.2019
4240 Clouds 27 1013 61 10000 3.1 40 22:40 12.11.2019
4241 Clouds 27 1013 61 10000 3.1 40 22:18 12.11.2019
4242 Clouds 27 1013 61 10000 2.6 70 21:45 12.11.2019
4243 Clouds 27 1013 69 10000 3.6 50 21:26 12.11.2019
4244 Clouds 27 1013 69 10000 3.6 50 20:59 12.11.2019
4245 Clouds 27 1013 69 10000 3.6 50 20:39 12.11.2019
4246 Clouds 27 1013 69 10000 3.6 50 20:19 12.11.2019
4247 Clouds 27 1014 65 10000 4.1 60 19:58 12.11.2019
4248 Clouds 27 1014 65 10000 4.1 60 19:40 12.11.2019
4249 Clouds 27 1015 69 10000 5.1 60 19:20 12.11.2019
4250 Clouds 27 1015 69 10000 5.1 60 18:59 12.11.2019
4251 Clouds 27 1015 69 10000 5.1 60 18:41 12.11.2019
4252 Clouds 28 1015 69 10000 5.1 60 18:23 12.11.2019
4253 Clouds 27 1015 58 10000 2.1 120 17:58 12.11.2019
4254 Clouds 27 1015 58 10000 2.1 120 17:58 12.11.2019
4255 Clouds 27 1015 58 10000 2.1 120 17:40 12.11.2019
4256 Clouds 27 1015 58 10000 2.1 120 17:21 12.11.2019
4257 Clouds 27 1016 61 10000 3.1 120 16:59 12.11.2019
4258 Clouds 27 1016 61 10000 3.1 120 16:39 12.11.2019
4259 Clouds 27 1016 61 10000 3.1 120 16:21 12.11.2019
4260 Clouds 27 1015 69 10000 3.6 110 15:42 12.11.2019
4261 Clouds 27 1015 69 10000 3.6 110 15:42 12.11.2019
4262 Clouds 27 1015 69 10000 3.6 110 15:22 12.11.2019
4263 Clouds 26 1015 78 10000 2.1 100 14:57 12.11.2019
4264 Clouds 26 1015 78 10000 2.1 100 14:38 12.11.2019
4265 Clouds 26 1015 78 10000 2.1 100 14:19 12.11.2019
4266 Clouds 24 1015 83 10000 2.1 90 13:57 12.11.2019
4267 Clouds 24 1015 83 10000 2.1 90 13:38 12.11.2019
4268 Clouds 24 1015 83 10000 2.1 90 13:19 12.11.2019
4269 Clouds 21 1015 88 10000 2.1 70 12:43 12.11.2019
4270 Clouds 21 1015 88 10000 2.1 70 12:20 12.11.2019
4271 Clouds 22 1014 88 10000 1 0 11:59 12.11.2019
4272 Clouds 22 1014 88 10000 1 0 11:41 12.11.2019
4273 Clouds 22 1014 88 10000 1 0 11:22 12.11.2019
4274 Clouds 22 1014 88 10000 1.5 100 10:56 12.11.2019
4275 Clouds 22 1014 88 10000 1.5 100 10:38 12.11.2019
4276 Clouds 22 1014 88 10000 1.5 100 10:19 12.11.2019
4277 Rain 21 1015 88 10000 1.5 70 09:42 12.11.2019
4278 Rain 21 1015 88 10000 1.5 70 09:23 12.11.2019
4279 Rain 24 1015 78 10000 1.5 90 08:54 12.11.2019
4280 Rain 26 1013 76 0 6.48 88 08:36 12.11.2019
4281 Rain 26 1015 76 0 7.74 86 08:18 12.11.2019
4282 Rain 26 1015 76 0 7.74 86 07:40 12.11.2019
4283 Rain 26 1015 76 0 7.74 86 07:40 12.11.2019
4284 Rain 25 1017 73 10000 3.1 110 07:20 12.11.2019
4285 Rain 25 1017 73 10000 3.1 110 06:42 12.11.2019
4286 Rain 25 1017 73 10000 3.1 110 06:22 12.11.2019
4287 Rain 25 1017 73 10000 3.6 100 05:46 12.11.2019
4288 Clouds 25 1017 69 10000 3.1 100 04:44 12.11.2019
4289 Clouds 25 1018 69 10000 3.6 100 03:39 12.11.2019
4290 Clouds 25 1017 73 10000 4.1 100 01:44 12.11.2019
4291 Clouds 25 1017 73 10000 5.7 90 01:21 12.11.2019
4292 Clouds 25 1017 73 10000 5.7 90 00:47 12.11.2019
4293 Clouds 25 1017 73 10000 5.7 90 00:22 12.11.2019
4294 Clouds 26 1020 69 10000 3.1 100 23:44 11.11.2019
4295 Clouds 26 1020 69 10000 3.1 100 23:44 11.11.2019
4296 Clouds 26 1016 61 10000 6.7 100 23:23 11.11.2019
4297 Clouds 26 1016 61 10000 6.7 100 22:57 11.11.2019
4298 Clouds 26 1016 61 10000 6.7 100 22:36 11.11.2019
4299 Clouds 27 1016 54 10000 6.7 100 22:18 11.11.2019
4300 Clouds 27 1016 54 10000 6.7 100 21:56 11.11.2019
4301 Clouds 27 1016 54 10000 6.7 100 21:37 11.11.2019
4302 Clouds 27 1016 58 10000 6.7 100 21:19 11.11.2019
4303 Clouds 27 1016 58 10000 6.7 100 20:42 11.11.2019
4304 Clouds 27 1016 58 10000 6.7 100 20:20 11.11.2019
4305 Clouds 27 1017 61 10000 6.2 100 19:57 11.11.2019
4306 Clouds 27 1017 61 10000 6.2 100 19:57 11.11.2019
4307 Clouds 27 1017 61 10000 6.2 100 19:39 11.11.2019
4308 Clouds 27 1017 61 10000 6.2 100 19:18 11.11.2019
4309 Clouds 27 1018 54 10000 7.2 100 18:54 11.11.2019
4310 Clouds 27 1018 54 10000 7.2 100 18:36 11.11.2019
4311 Clouds 28 1018 54 10000 7.2 100 18:18 11.11.2019
4312 Rain 27 1019 57 10000 6.2 100 17:41 11.11.2019
4313 Rain 27 1019 57 10000 6.2 100 17:23 11.11.2019
4314 Clouds 27 1019 54 10000 5.7 100 16:41 11.11.2019
4315 Clouds 26 1019 54 10000 5.7 100 16:22 11.11.2019
4316 Clouds 27 1019 51 10000 4.6 100 15:57 11.11.2019
4317 Clouds 27 1019 51 10000 4.6 100 15:39 11.11.2019
4318 Clouds 27 1019 51 10000 4.6 100 15:19 11.11.2019
4319 Clouds 27 1019 51 10000 4.6 100 15:19 11.11.2019
4320 Clouds 26 1019 57 10000 4.6 90 14:43 11.11.2019
4321 Clouds 26 1019 57 10000 4.6 90 14:25 11.11.2019
4322 Clouds 25 1018 69 10000 2.6 80 13:58 11.11.2019
4323 Clouds 24 1018 69 10000 2.6 80 13:37 11.11.2019
4324 Clouds 23 1018 69 10000 2.6 110 13:19 11.11.2019
4325 Clouds 23 1018 69 10000 2.6 110 12:56 11.11.2019
4326 Clouds 23 1018 69 10000 2.6 110 12:38 11.11.2019
4327 Clouds 23 1018 69 10000 2.6 110 12:20 11.11.2019
4328 Clouds 23 1018 73 10000 2.6 100 11:42 11.11.2019
4329 Clouds 23 1018 73 10000 2.6 100 11:22 11.11.2019
4330 Clouds 23 1017 73 10000 2.6 100 10:56 11.11.2019
4331 Clouds 23 1017 73 10000 2.6 100 10:38 11.11.2019
4332 Clouds 23 1017 73 10000 2.6 100 10:18 11.11.2019
4333 Clouds 24 1017 69 10000 2.6 80 09:43 11.11.2019
4334 Rain 25 1016 73 0 7.67 73 09:21 11.11.2019
4335 Rain 25 1016 73 0 7.67 73 08:43 11.11.2019
4336 -273 0 0 0 0 0 08:23 11.11.2019
4337 Clouds 23 1018 69 10000 2.1 90 07:58 11.11.2019
4338 Clouds 23 1018 69 10000 2.1 90 07:39 11.11.2019
4339 Clouds 23 1018 69 10000 2.1 90 07:39 11.11.2019
4340 Clouds 23 1018 69 10000 3.1 90 07:20 11.11.2019
4341 Clouds 23 1018 69 10000 3.1 90 06:56 11.11.2019
4342 Clouds 23 1018 69 10000 3.1 90 06:38 11.11.2019
4343 Clouds 23 1019 73 10000 2.1 110 06:19 11.11.2019
4344 Clouds 23 1019 73 10000 2.1 110 05:48 11.11.2019
4345 Clouds 25 1019 53 10000 3.6 80 03:34 11.11.2019
4346 Clouds 25 1018 53 10000 3.6 80 02:39 11.11.2019
4347 Clouds 25 1018 53 10000 4.1 80 01:58 11.11.2019
4348 Clouds 25 1018 53 10000 4.1 80 01:36 11.11.2019
4349 Clouds 25 1018 53 10000 4.1 80 00:55 11.11.2019
4350 Clouds 25 1018 53 10000 4.1 80 00:33 11.11.2019
4351 Clouds 25 1017 61 10000 5.1 70 23:58 10.11.2019
4352 Clouds 25 1017 61 10000 5.1 70 23:37 10.11.2019
4353 Clouds 25 1017 61 10000 5.1 70 23:19 10.11.2019
4354 Clouds 26 1017 61 10000 6.2 60 22:55 10.11.2019
4355 Clouds 26 1017 61 10000 6.2 60 22:55 10.11.2019
4356 Clouds 26 1017 61 10000 6.2 60 22:55 10.11.2019
4357 Clouds 25 1017 61 10000 6.2 60 22:36 10.11.2019
4358 Clouds 25 1017 61 10000 6.2 60 22:18 10.11.2019
4359 Clouds 25 1017 61 10000 6.7 50 21:55 10.11.2019
4360 Clouds 25 1017 61 10000 6.7 50 21:36 10.11.2019
4361 Clouds 25 1017 61 10000 6.7 50 21:18 10.11.2019
4362 Clouds 26 1017 57 10000 7.7 50 20:40 10.11.2019
4363 Clouds 26 1017 57 10000 7.7 50 20:21 10.11.2019
4364 Clouds 26 1018 54 10000 7.2 60 19:56 10.11.2019
4365 Clouds 26 1018 54 10000 7.2 60 19:37 10.11.2019
4366 Clouds 26 1018 57 10000 6.7 60 19:18 10.11.2019
4367 Clouds 26 1018 57 10000 6.7 60 18:56 10.11.2019
4368 Clouds 26 1018 57 10000 6.7 60 18:56 10.11.2019
4369 Clouds 26 1018 57 10000 6.7 60 18:38 10.11.2019
4370 Clouds 26 1018 57 10000 6.7 60 18:19 10.11.2019
4371 Clouds 25 1019 65 10000 7.2 70 17:55 10.11.2019
4372 Clouds 25 1019 65 10000 7.2 70 17:55 10.11.2019
4373 Clouds 25 1019 65 10000 7.2 70 17:37 10.11.2019
4374 Clouds 25 1019 65 10000 7.2 70 17:19 10.11.2019
4375 Clouds 26 1019 61 10000 7.2 60 16:44 10.11.2019
4376 Clouds 26 1019 61 10000 7.2 60 16:26 10.11.2019
4377 Clouds 26 1019 54 10000 5.1 80 15:57 10.11.2019
4378 Clouds 26 1019 54 10000 5.1 80 15:38 10.11.2019
4379 Clouds 25 1019 61 10000 5.1 80 15:19 10.11.2019
4380 Clouds 25 1019 61 10000 5.1 80 15:19 10.11.2019
4381 Clouds 25 1019 61 10000 5.1 80 15:19 10.11.2019
4382 Clouds 25 1019 61 10000 5.1 80 15:19 10.11.2019
4383 Clouds 25 1019 61 10000 5.1 80 14:58 10.11.2019
4384 Clouds 25 1019 61 10000 5.1 80 14:39 10.11.2019
4385 Clouds 25 1019 61 10000 5.1 80 14:20 10.11.2019
4386 Clouds 24 1018 60 10000 4.1 70 13:55 10.11.2019
4387 Clouds 24 1018 60 10000 4.1 70 13:37 10.11.2019
4388 Clouds 24 1018 60 10000 4.1 70 13:19 10.11.2019
4389 Clouds 24 1017 69 10000 3.6 80 12:41 10.11.2019
4390 Clouds 24 1017 64 10000 4.1 70 12:19 10.11.2019
4391 Clouds 24 1017 64 10000 4.1 70 12:19 10.11.2019
4392 Clouds 24 1017 64 10000 4.1 70 11:56 10.11.2019
4393 Clouds 24 1017 64 10000 4.1 70 11:38 10.11.2019
4394 Clouds 24 1016 69 10000 5.1 60 11:19 10.11.2019
4395 Clouds 24 1016 69 10000 5.1 60 10:42 10.11.2019
4396 Clear 24 1015 74 0 7.75 45 10:22 10.11.2019
4397 Clear 24 1015 74 0 7.75 45 09:57 10.11.2019
4398 Clear 24 1015 74 0 7.75 45 09:39 10.11.2019
4399 Clouds 24 1016 64 10000 4.6 50 09:19 10.11.2019
4400 Clouds 24 1016 64 10000 4.6 50 08:39 10.11.2019
4401 Clouds 24 1016 64 10000 4.6 50 08:20 10.11.2019
4402 Clouds 24 1016 64 10000 4.6 50 08:20 10.11.2019
4403 Clouds 24 1016 69 10000 5.1 60 07:46 10.11.2019
4404 Clouds 24 1016 69 10000 5.1 60 07:27 10.11.2019
4405 Clouds 24 1016 69 10000 5.7 60 06:59 10.11.2019
4406 Clouds 24 1017 69 10000 5.7 50 05:57 10.11.2019
4407 Clouds 24 1016 73 10000 4.1 60 03:33 10.11.2019
4408 Clouds 25 1016 65 10000 5.1 50 02:27 10.11.2019
4409 Clouds 24 1014 75 0 1.79 38 01:36 10.11.2019
4410 Clouds 24 1015 69 10000 8.2 60 01:18 10.11.2019
4411 Clouds 24 1015 69 10000 8.2 60 00:23 10.11.2019
4412 Clouds 24 1014 69 10000 10.3 60 23:40 09.11.2019
4413 Clouds 24 1014 73 10000 13.4 60 23:19 09.11.2019
4414 Clouds 24 1014 73 10000 13.4 60 22:42 09.11.2019
4415 Rain 24 1014 83 9000 10.8 60 22:22 09.11.2019
4416 Rain 24 1014 83 9000 10.8 60 21:58 09.11.2019
4417 Rain 24 1014 83 9000 10.8 60 21:39 09.11.2019
4418 Rain 23 1014 83 9000 10.8 60 21:20 09.11.2019
4419 Rain 23 1013 83 9000 11.3 50 20:44 09.11.2019
4420 Rain 23 1013 83 9000 11.3 50 20:24 09.11.2019
4421 Thunderstorm 23 1013 94 9000 4.6 90 19:59 09.11.2019
4422 Thunderstorm 23 1013 94 9000 4.6 90 19:40 09.11.2019
4423 Thunderstorm 23 1013 94 9000 4.6 90 19:22 09.11.2019
4424 Thunderstorm 24 1013 94 6000 2.6 350 18:57 09.11.2019
4425 Thunderstorm 23 1013 94 6000 2.6 350 18:38 09.11.2019
4426 Thunderstorm 25 1013 74 10000 5.1 310 18:18 09.11.2019
4427 Thunderstorm 25 1013 74 10000 5.1 310 17:42 09.11.2019
4428 Thunderstorm 26 1013 74 10000 5.1 310 17:22 09.11.2019
4429 Thunderstorm 28 1013 78 10000 4.6 290 16:57 09.11.2019
4430 Thunderstorm 28 1013 78 10000 4.6 290 16:37 09.11.2019
4431 Thunderstorm 28 1013 78 10000 4.6 290 16:18 09.11.2019
4432 Clouds 27 1014 83 10000 3.6 280 15:41 09.11.2019
4433 Clouds 27 1014 83 10000 3.6 280 15:23 09.11.2019
4434 Clouds 26 1013 88 10000 2.1 270 14:46 09.11.2019
4435 Clouds 24 1013 94 10000 1.39 238 14:23 09.11.2019
4436 Clouds 24 1013 94 10000 1.39 238 13:58 09.11.2019
4437 Clouds 24 1013 94 10000 1.39 238 13:40 09.11.2019
4438 Clouds 24 1013 94 10000 1.39 238 13:21 09.11.2019
4439 Clouds 22 1012 94 10000 1.37 183 12:57 09.11.2019
4440 Clouds 21 1012 94 10000 1.37 183 12:39 09.11.2019
4441 Clouds 21 1012 94 10000 1.37 183 12:21 09.11.2019
4442 Clouds 22 1012 94 10000 1 0 11:48 09.11.2019
4443 Clouds 22 1012 94 10000 1 0 11:22 09.11.2019
4444 Clouds 21 1012 100 10000 0.5 0 10:57 09.11.2019
4445 Clouds 21 1012 100 10000 0.5 0 10:39 09.11.2019
4446 Clouds 21 1012 100 10000 0.5 0 10:18 09.11.2019
4447 Clouds 22 1012 94 10000 0.5 0 09:44 09.11.2019
4448 Clouds 22 1012 94 10000 0.5 0 09:21 09.11.2019
4449 Clouds 22 1012 94 10000 0.5 0 08:56 09.11.2019
4450 Clouds 22 1012 94 10000 0.5 0 08:37 09.11.2019
4451 Clouds 22 1012 94 10000 0.5 0 08:18 09.11.2019
4452 Clouds 22 1013 94 10000 3.46 94 07:42 09.11.2019
4453 Clouds 22 1013 94 10000 3.46 94 07:22 09.11.2019
4454 Clouds 23 1014 94 10000 1 0 06:47 09.11.2019
4455 Clouds 23 1014 94 10000 1 0 06:28 09.11.2019
4456 Clouds 23 1014 88 10000 1 0 05:42 09.11.2019
4457 Clouds 25 1015 83 10000 1 0 04:48 09.11.2019
4458 Clouds 26 1014 78 10000 2.1 50 02:57 09.11.2019
4459 Clouds 26 1014 78 10000 2.1 50 02:39 09.11.2019
4460 Rain 27 1014 74 10000 2.6 30 01:40 09.11.2019
4461 Rain 27 1014 78 10000 1.5 40 00:46 09.11.2019
4462 Rain 27 1014 78 10000 1.5 40 00:27 09.11.2019
4463 Rain 27 1013 78 10000 3.1 50 23:42 08.11.2019
4464 Rain 27 1013 78 10000 3.1 50 23:23 08.11.2019
4465 Rain 27 1013 69 10000 3.6 40 22:59 08.11.2019
4466 Rain 28 1013 69 10000 3.6 40 22:40 08.11.2019
4467 Clouds 28 1013 66 10000 3.6 50 22:21 08.11.2019
4468 Clouds 28 1013 66 10000 3.6 50 21:43 08.11.2019
4469 Clouds 28 1013 66 10000 3.6 50 21:24 08.11.2019
4470 Clouds 28 1013 69 10000 2.6 20 20:59 08.11.2019
4471 Clouds 28 1013 69 10000 2.6 20 20:40 08.11.2019
4472 Clouds 28 1013 69 10000 2.6 20 20:20 08.11.2019
4473 Clouds 28 1014 69 10000 3.1 30 19:55 08.11.2019
4474 Clouds 28 1014 69 10000 3.1 30 19:37 08.11.2019
4475 Clouds 28 1015 74 10000 3.1 20 19:18 08.11.2019
4476 Clouds 28 1015 74 10000 3.1 20 18:54 08.11.2019
4477 Clouds 28 1015 74 10000 3.1 20 18:36 08.11.2019
4478 Clouds 28 1016 70 10000 3.1 20 18:18 08.11.2019
4479 Clouds 29 1016 70 10000 3.1 20 17:54 08.11.2019
4480 Clouds 29 1016 70 10000 3.1 20 17:36 08.11.2019
4481 Clouds 29 1016 70 10000 3.1 20 17:18 08.11.2019
4482 Clouds 29 1016 70 10000 3.6 20 16:57 08.11.2019
4483 Clouds 29 1016 70 10000 3.6 20 16:57 08.11.2019
4484 Clouds 29 1016 70 10000 3.6 20 16:38 08.11.2019
4485 Clouds 29 1016 70 10000 1.5 130 16:18 08.11.2019
4486 Clouds 28 1016 70 10000 1.5 130 15:41 08.11.2019
4487 Clouds 27 1016 78 10000 2.1 90 15:23 08.11.2019
4488 Clouds 27 1016 78 10000 2.1 90 14:58 08.11.2019
4489 Clouds 27 1016 78 10000 2.1 90 14:58 08.11.2019
4490 Clouds 27 1016 78 10000 2.1 90 14:38 08.11.2019
4491 Clouds 25 1015 100 10000 3.59 73 14:20 08.11.2019
4492 Clouds 25 1015 100 10000 3.59 73 13:59 08.11.2019
4493 Clouds 25 1015 100 10000 3.59 73 13:39 08.11.2019
4494 Clouds 27 1015 81 0 3.59 73 13:21 08.11.2019
4495 Clouds 26 1014 82 0 3.84 73 12:48 08.11.2019
4496 Clouds 26 1015 77 0 3.84 73 12:29 08.11.2019
4497 Clouds 26 1015 77 0 3.84 73 11:58 08.11.2019
4498 Clouds 26 1015 77 0 3.84 73 11:40 08.11.2019
4499 Clouds 26 1014 79 0 4.12 81 11:21 08.11.2019
4500 Clouds 26 1014 79 0 4.12 81 10:58 08.11.2019
4501 Clouds 26 1014 79 0 4.12 81 10:40 08.11.2019
4502 Clouds 26 1014 79 0 4.12 81 10:21 08.11.2019
4503 Clouds 26 1014 79 0 4.12 81 09:56 08.11.2019
4504 Clouds 26 1014 79 0 4.12 81 09:37 08.11.2019
4505 Clouds 26 1014 79 0 4.12 81 09:18 08.11.2019
4506 Clouds 26 1014 79 0 4.12 81 09:18 08.11.2019
4507 Clouds 26 1014 79 0 4.12 81 08:44 08.11.2019
4508 Clouds 25 1015 88 10000 1.5 90 08:20 08.11.2019
4509 Clouds 25 1015 88 10000 1.5 90 07:43 08.11.2019
4510 Clouds 25 1015 88 10000 1.5 90 07:23 08.11.2019
4511 Clouds 25 1016 88 10000 1.5 80 06:56 08.11.2019
4512 Clouds 25 1016 88 10000 1.5 80 06:56 08.11.2019
4513 Clouds 25 1016 88 10000 1.5 80 06:36 08.11.2019
4514 Clouds 25 1016 88 10000 1.5 80 06:18 08.11.2019
4515 Clouds 26 1017 83 10000 2.1 110 05:25 08.11.2019
4516 Clouds 26 1017 83 10000 2.1 110 04:19 08.11.2019
4517 Clouds 26 1017 83 10000 2.6 100 03:42 08.11.2019
4518 Clouds 27 1017 78 10000 3.1 100 02:55 08.11.2019
4519 Clouds 27 1017 78 10000 3.6 90 01:50 08.11.2019
4520 Clouds 27 1017 78 10000 3.6 90 01:32 08.11.2019
4521 Clouds 27 1017 78 10000 3.6 90 00:38 08.11.2019
4522 Clouds 27 1017 78 10000 3.6 90 00:20 08.11.2019
4523 Clouds 27 1017 74 10000 4.1 80 23:44 07.11.2019
4524 Clouds 27 1017 74 10000 4.1 80 23:25 07.11.2019
4525 Clouds 28 1016 70 10000 4.6 80 22:55 07.11.2019
4526 Clouds 28 1016 70 10000 4.6 80 22:37 07.11.2019
4527 Clouds 28 1016 70 10000 4.6 80 22:19 07.11.2019
4528 Rain 28 1016 70 10000 5.7 90 21:38 07.11.2019
4529 Rain 28 1016 70 10000 5.7 90 21:20 07.11.2019
4530 Rain 28 1017 70 10000 5.1 90 20:58 07.11.2019
4531 Rain 28 1017 70 10000 5.1 90 20:58 07.11.2019
4532 Rain 28 1017 70 10000 5.1 90 20:40 07.11.2019
4533 Rain 29 1017 70 10000 5.1 90 20:21 07.11.2019
4534 Rain 29 1017 70 10000 5.1 90 20:21 07.11.2019
4535 Rain 28 1017 74 10000 5.7 60 19:56 07.11.2019
4536 Rain 28 1017 74 10000 5.7 60 19:37 07.11.2019
4537 Rain 28 1017 74 10000 5.7 60 19:19 07.11.2019
4538 Clouds 29 1018 74 10000 6.2 90 18:56 07.11.2019
4539 Clouds 29 1018 74 10000 6.2 90 18:38 07.11.2019
4540 Clouds 29 1019 74 10000 5.7 80 18:19 07.11.2019
4541 Clouds 29 1019 74 10000 5.7 80 17:41 07.11.2019
4542 Clouds 29 1019 74 10000 5.7 80 17:23 07.11.2019
4543 Clouds 28 1019 74 10000 6.2 80 16:59 07.11.2019
4544 Clouds 28 1019 74 10000 6.2 80 16:40 07.11.2019
4545 Clouds 28 1019 74 10000 6.2 80 16:40 07.11.2019
4546 Clouds 28 1019 74 10000 6.2 80 16:21 07.11.2019
4547 Clouds 28 1019 74 10000 5.7 80 15:59 07.11.2019
4548 Clouds 28 1019 74 10000 5.7 80 15:39 07.11.2019
4549 Clouds 28 1019 74 10000 5.7 80 15:19 07.11.2019
4550 Clouds 27 1019 78 10000 4.6 80 14:45 07.11.2019
4551 Clouds 27 1019 78 10000 4.6 80 14:27 07.11.2019
4552 Clouds 26 1018 83 10000 2.6 90 13:57 07.11.2019
4553 Clouds 26 1018 83 10000 2.6 90 13:39 07.11.2019
4554 Clouds 26 1018 83 10000 2.6 90 13:21 07.11.2019
4555 Clouds 26 1018 83 10000 2.6 90 13:21 07.11.2019
4556 Clouds 26 1018 83 10000 3.1 90 12:58 07.11.2019
4557 Clouds 26 1018 83 10000 3.1 90 12:40 07.11.2019
4558 Clouds 26 1018 83 10000 3.1 90 12:21 07.11.2019
4559 Clouds 26 1018 83 10000 2.6 80 11:58 07.11.2019
4560 Clouds 26 1018 83 10000 2.6 80 11:39 07.11.2019
4561 Clouds 26 1018 83 10000 2.6 80 11:20 07.11.2019
4562 Clouds 26 1018 83 10000 3.1 90 10:40 07.11.2019
4563 Clouds 26 1018 83 10000 3.1 90 10:19 07.11.2019
4564 Clouds 26 1018 83 10000 3.1 80 09:43 07.11.2019
4565 Clouds 26 1018 83 10000 3.1 80 09:23 07.11.2019
4566 Clear 27 1017 81 0 7.62 69 08:57 07.11.2019
4567 Clear 27 1017 81 0 7.62 69 08:56 07.11.2019
4568 Clear 27 1017 81 0 7.62 69 08:56 07.11.2019
4569 Clear 27 1017 81 0 7.62 69 08:37 07.11.2019
4570 Clouds 26 1019 83 10000 3.6 100 08:19 07.11.2019
4571 Clouds 26 1019 83 10000 3.6 100 07:41 07.11.2019
4572 Clouds 26 1019 83 10000 3.6 100 07:21 07.11.2019
4573 Clouds 26 1019 78 10000 4.1 100 06:48 07.11.2019
4574 Clouds 26 1019 78 10000 4.1 100 06:48 07.11.2019
4575 Clouds 26 1019 78 10000 4.1 100 06:28 07.11.2019
4576 Clouds 27 1020 78 10000 5.1 90 05:53 07.11.2019
4577 Clouds 26 1020 78 10000 5.1 90 05:34 07.11.2019
4578 Clouds 26 1020 78 10000 4.1 90 04:57 07.11.2019
4579 Clouds 26 1020 78 10000 4.1 90 04:39 07.11.2019
4580 Clouds 27 1020 78 10000 5.1 80 02:57 07.11.2019
4581 Clouds 27 1018 78 10000 6.2 90 00:47 07.11.2019
4582 -273 0 0 0 0 0 00:19 07.11.2019
4583 Clouds 27 1019 74 10000 6.2 80 23:47 06.11.2019
4584 Clouds 27 1019 74 10000 6.2 80 23:21 06.11.2019
4585 Clouds 28 1018 74 10000 6.7 80 22:56 06.11.2019
4586 Clouds 28 1018 74 10000 6.7 80 22:37 06.11.2019
4587 Clouds 28 1018 74 10000 6.7 80 22:37 06.11.2019
4588 Clouds 28 1018 74 10000 6.7 80 22:18 06.11.2019
4589 Rain 27 1017 80 0 4.47 55 21:42 06.11.2019
4590 Rain 28 1018 70 10000 6.2 80 21:20 06.11.2019
4591 Rain 28 1018 70 10000 6.2 80 20:58 06.11.2019
4592 Rain 28 1018 70 10000 6.2 80 20:40 06.11.2019
4593 Rain 28 1018 70 10000 6.2 80 20:21 06.11.2019
4594 Clouds 28 1019 78 10000 5.7 80 19:58 06.11.2019
4595 Clouds 28 1019 78 10000 5.7 80 19:39 06.11.2019
4596 Clouds 28 1019 78 10000 5.7 80 19:21 06.11.2019
4597 Rain 28 1020 78 10000 5.1 80 18:57 06.11.2019
4598 Rain 28 1020 78 10000 5.1 80 18:38 06.11.2019
4599 Rain 28 1020 78 10000 5.1 80 18:18 06.11.2019
4600 Clouds 29 1021 70 10000 4.1 90 17:54 06.11.2019
4601 Clouds 29 1021 70 10000 4.1 90 17:36 06.11.2019
4602 Clouds 29 1021 70 10000 4.1 90 17:18 06.11.2019
4603 Clouds 29 1021 70 10000 5.7 100 16:54 06.11.2019
4604 Clouds 29 1021 70 10000 5.7 100 16:36 06.11.2019
4605 Clouds 29 1021 70 10000 5.7 100 16:36 06.11.2019
4606 Clouds 28 1021 70 10000 5.7 100 16:18 06.11.2019
4607 Clouds 28 1020 69 10000 5.1 100 15:54 06.11.2019
4608 Clouds 28 1020 69 10000 5.1 100 15:36 06.11.2019
4609 Clouds 28 1020 69 10000 5.1 100 15:18 06.11.2019
4610 Clouds 27 1020 78 10000 3.6 100 14:54 06.11.2019
4611 Clouds 27 1020 78 10000 3.6 100 14:36 06.11.2019
4612 Clouds 27 1020 78 10000 3.6 100 14:18 06.11.2019
4613 Clouds 27 1019 88 10000 3.1 100 13:38 06.11.2019
4614 Clouds 27 1019 88 10000 3.1 100 13:19 06.11.2019
4615 Clouds 27 1018 79 0 1.79 109 12:55 06.11.2019
4616 Clouds 27 1018 80 0 2.24 80 12:37 06.11.2019
4617 Clouds 26 1018 83 10000 3.6 90 12:19 06.11.2019
4618 Clouds 26 1018 83 10000 3.6 90 12:19 06.11.2019
4619 Clouds 26 1018 83 10000 3.6 90 11:57 06.11.2019
4620 Clouds 26 1018 83 10000 3.6 90 11:36 06.11.2019
4621 Clouds 26 1018 83 10000 3.6 90 11:18 06.11.2019
4622 Clouds 26 1018 83 10000 2.6 90 10:55 06.11.2019
4623 Clouds 26 1018 83 10000 2.6 90 10:37 06.11.2019
4624 Clouds 26 1018 83 10000 2.6 90 10:18 06.11.2019
4625 Clouds 26 1018 83 10000 2.6 90 09:41 06.11.2019
4626 Clouds 26 1018 83 10000 2.6 90 09:21 06.11.2019
4627 Clouds 26 1019 83 10000 2.1 90 08:56 06.11.2019
4628 Clouds 26 1019 83 10000 2.1 90 08:38 06.11.2019
4629 Clouds 26 1019 83 10000 2.1 90 08:18 06.11.2019
4630 Clouds 26 1019 83 10000 3.1 100 07:46 06.11.2019
4631 Clouds 27 1019 78 10000 3.1 90 07:28 06.11.2019
4632 Clouds 27 1019 78 10000 3.1 90 06:53 06.11.2019
4633 Clouds 27 1019 78 10000 3.1 90 06:34 06.11.2019
4634 Clouds 27 1020 78 10000 3.6 90 05:58 06.11.2019
4635 Clouds 27 1019 78 10000 4.6 70 03:48 06.11.2019
4636 Rain 27 1018 81 0 3.58 80 01:59 06.11.2019
4637 Rain 27 1018 78 10000 3.1 80 00:48 06.11.2019
4638 Rain 27 1018 78 10000 3.1 80 00:48 06.11.2019
4639 Rain 27 1018 78 10000 3.1 80 00:25 06.11.2019
4640 Rain 28 1018 74 10000 4.6 80 23:41 05.11.2019
4641 Rain 28 1018 74 10000 4.6 80 23:22 05.11.2019
4642 Rain 28 1018 70 10000 5.1 70 22:59 05.11.2019
4643 Rain 28 1018 70 10000 5.1 70 22:41 05.11.2019
4644 Rain 28 1018 70 10000 5.1 70 22:19 05.11.2019
4645 Clouds 28 1017 70 10000 5.7 70 21:55 05.11.2019
4646 Clouds 28 1017 70 10000 5.7 70 21:37 05.11.2019
4647 Clouds 28 1017 70 10000 5.7 70 21:37 05.11.2019
4648 Clouds 29 1017 70 10000 5.7 70 21:18 05.11.2019
4649 Clouds 28 1017 77 0 2.24 103 20:55 05.11.2019
4650 Clouds 28 1016 77 0 2.24 64 20:36 05.11.2019
4651 Clouds 29 1018 66 10000 3.6 90 20:18 05.11.2019
4652 Clouds 29 1018 66 10000 3.6 90 19:42 05.11.2019
4653 Clouds 29 1018 62 10000 5.1 100 19:22 05.11.2019
4654 Clouds 29 1018 62 10000 5.1 100 18:58 05.11.2019
4655 Clouds 29 1018 62 10000 5.1 100 18:39 05.11.2019
4656 Clouds 29 1019 62 0 4.6 110 18:21 05.11.2019
4657 Clouds 29 1019 62 0 4.6 110 17:59 05.11.2019
4658 Clouds 29 1019 62 0 4.6 110 17:39 05.11.2019
4659 Clouds 29 1019 62 0 4.6 110 17:19 05.11.2019
4660 Clouds 29 1019 62 0 4.6 110 17:19 05.11.2019
4661 Clouds 29 1019 66 10000 6.7 120 16:56 05.11.2019
4662 Clouds 29 1019 66 10000 6.7 120 16:38 05.11.2019
4663 Clouds 29 1019 66 10000 6.7 120 16:19 05.11.2019
4664 Clouds 28 1018 73 0 1.79 69 15:38 05.11.2019
4665 Clouds 27 1019 69 10000 5.1 110 15:19 05.11.2019
4666 Clouds 27 1019 69 10000 5.1 110 14:58 05.11.2019
4667 Clouds 27 1019 69 10000 5.1 110 14:39 05.11.2019
4668 Clouds 26 1018 88 10000 2.6 100 14:21 05.11.2019
4669 Clouds 26 1018 88 10000 2.6 100 13:44 05.11.2019
4670 Clouds 26 1018 88 10000 2.6 100 13:25 05.11.2019
4671 Clouds 25 1018 94 10000 1 0 12:59 05.11.2019
4672 Clouds 23 1018 94 10000 1 0 12:39 05.11.2019
4673 Clouds 23 1018 94 10000 1 0 12:20 05.11.2019
4674 Clouds 23 1018 94 10000 1 0 11:55 05.11.2019
4675 Clouds 23 1018 94 10000 1 0 11:36 05.11.2019
4676 Clouds 23 1018 94 10000 1 0 11:18 05.11.2019
4677 Clouds 25 1018 83 10000 1.5 100 10:42 05.11.2019
4678 Clouds 24 1018 88 10000 2.1 100 10:23 05.11.2019
4679 Clouds 24 1018 88 10000 2.1 100 09:58 05.11.2019
4680 Clouds 24 1018 88 10000 2.1 100 09:39 05.11.2019
4681 Clouds 26 1017 77 0 5.6 79 09:19 05.11.2019
4682 Clouds 26 1017 77 0 5.6 79 08:41 05.11.2019
4683 Clouds 26 1018 78 10000 1.5 110 08:21 05.11.2019
4684 Clouds 26 1018 78 10000 1.5 110 07:59 05.11.2019
4685 Clouds 26 1018 78 10000 1.5 110 07:41 05.11.2019
4686 Clouds 26 1018 78 10000 1.5 110 07:23 05.11.2019
4687 Clouds 26 1019 74 10000 2.1 90 06:51 05.11.2019
4688 Clouds 26 1019 74 10000 2.1 100 05:51 05.11.2019
4689 Clouds 26 1019 74 10000 2.1 100 05:29 05.11.2019
4690 Clouds 26 1019 74 10000 2.6 100 04:47 05.11.2019
4691 Clouds 26 1019 74 10000 3.1 90 03:58 05.11.2019
4692 Clouds 27 1019 69 10000 3.1 90 02:59 05.11.2019
4693 Clouds 27 1019 69 10000 3.1 90 02:41 05.11.2019
4694 Clouds 27 1018 74 10000 3.1 90 01:26 05.11.2019
4695 Clouds 27 1018 74 10000 3.1 90 00:38 05.11.2019
4696 Clouds 27 1017 69 10000 3.6 100 23:59 04.11.2019
4697 Clouds 27 1017 69 10000 3.6 100 23:38 04.11.2019
4698 Clouds 27 1017 61 10000 4.6 100 23:18 04.11.2019
4699 Clouds 27 1017 61 10000 4.6 100 23:18 04.11.2019
4700 Clouds 27 1017 61 10000 4.6 100 23:18 04.11.2019
4701 Clouds 28 1017 61 10000 4.6 100 22:42 04.11.2019
4702 Clouds 28 1017 61 10000 4.6 100 22:24 04.11.2019
4703 Clouds 28 1017 58 10000 5.1 110 21:56 04.11.2019
4704 Clouds 28 1017 58 10000 5.1 110 21:56 04.11.2019
4705 Clouds 28 1017 58 10000 5.1 110 21:38 04.11.2019
4706 Clouds 28 1017 58 10000 5.1 110 21:19 04.11.2019
4707 Clouds 28 1017 65 10000 5.1 110 20:59 04.11.2019
4708 Clouds 28 1017 65 10000 5.1 110 20:40 04.11.2019
4709 Clouds 28 1017 65 10000 5.1 100 20:21 04.11.2019
4710 Clouds 28 1017 65 10000 5.1 100 20:21 04.11.2019
4711 Clouds 28 1017 65 10000 5.1 100 19:59 04.11.2019
4712 Clouds 28 1017 65 10000 5.1 100 19:41 04.11.2019
4713 Clouds 28 1017 65 10000 5.1 100 19:21 04.11.2019
4714 Clouds 29 1018 62 10000 5.1 110 18:57 04.11.2019
4715 Clouds 29 1018 62 10000 5.1 110 18:39 04.11.2019
4716 Clouds 29 1018 62 10000 5.1 110 18:19 04.11.2019
4717 Clouds 29 1018 55 10000 5.7 130 17:40 04.11.2019
4718 Clouds 29 1018 55 10000 5.7 130 17:21 04.11.2019
4719 Clouds 29 1019 58 10000 5.1 130 16:59 04.11.2019
4720 Clouds 29 1019 58 10000 5.1 130 16:40 04.11.2019
4721 Clouds 29 1019 58 10000 5.1 130 16:22 04.11.2019
4722 Clouds 28 1019 74 10000 2.6 100 15:56 04.11.2019
4723 Clouds 28 1019 74 10000 2.6 100 15:38 04.11.2019
4724 Clouds 28 1019 74 10000 2.6 100 15:19 04.11.2019
4725 Clouds 28 1019 74 10000 2.6 100 15:19 04.11.2019
4726 Rain 28 1018 74 10000 2.6 100 14:54 04.11.2019
4727 Rain 27 1018 74 10000 2.6 100 14:36 04.11.2019
4728 Clouds 26 1018 78 10000 1.5 90 14:18 04.11.2019
4729 Clouds 26 1018 78 10000 1.5 90 13:42 04.11.2019
4730 Clouds 26 1018 78 10000 1.5 90 13:22 04.11.2019
4731 Clouds 26 1017 83 10000 1 0 12:59 04.11.2019
4732 Clouds 24 1017 83 10000 1 0 12:41 04.11.2019
4733 Clouds 24 1017 83 10000 1 0 12:22 04.11.2019
4734 Clouds 25 1016 78 10000 2.1 80 11:57 04.11.2019
4735 Clouds 25 1016 78 10000 2.1 80 11:38 04.11.2019
4736 Clouds 25 1016 78 10000 2.1 80 11:38 04.11.2019
4737 Clouds 25 1016 78 10000 2.1 80 11:20 04.11.2019
4738 Clouds 25 1016 78 10000 1.5 90 10:42 04.11.2019
4739 Clouds 25 1016 78 10000 1.5 90 10:24 04.11.2019
4740 Clouds 25 1016 83 10000 2.6 80 09:47 04.11.2019
4741 Clouds 25 1016 83 10000 2.6 80 09:28 04.11.2019
4742 Clouds 25 1016 78 10000 2.1 90 08:59 04.11.2019
4743 Clouds 25 1016 78 10000 2.1 90 08:40 04.11.2019
4744 Clouds 25 1016 78 10000 2.1 90 08:21 04.11.2019
4745 Clouds 25 1016 78 10000 2.6 110 07:44 04.11.2019
4746 Clouds 25 1016 78 10000 2.6 110 07:24 04.11.2019
4747 Clouds 26 1016 78 10000 2.6 90 06:57 04.11.2019
4748 Clouds 26 1016 78 10000 2.6 90 06:34 04.11.2019
4749 Clouds 26 1017 78 10000 2.6 90 05:49 04.11.2019
4750 Clouds 26 1017 78 10000 2.1 80 04:44 04.11.2019
4751 Clouds 26 1017 78 10000 2.1 80 04:21 04.11.2019
4752 Clouds 26 1017 83 10000 2.6 160 02:32 04.11.2019
4753 Clouds 26 1016 88 10000 3.6 80 01:22 04.11.2019
4754 Clouds 27 1016 88 10000 3.6 80 00:41 04.11.2019
4755 Clouds 27 1016 88 10000 3.6 80 00:20 04.11.2019
4756 Rain 27 1015 77 0 6.45 87 23:43 03.11.2019
4757 Rain 29 1015 62 10000 4.1 60 23:21 03.11.2019
4758 Rain 29 1015 62 10000 4.1 60 22:59 03.11.2019
4759 Rain 29 1015 62 10000 4.1 60 22:41 03.11.2019
4760 Rain 29 1015 62 10000 4.1 60 22:20 03.11.2019
4761 Rain 28 1015 69 10000 4.1 50 21:57 03.11.2019
4762 Rain 28 1015 69 10000 4.1 50 21:57 03.11.2019
4763 Rain 28 1015 69 10000 4.1 50 21:38 03.11.2019
4764 Rain 28 1015 69 10000 4.1 50 21:20 03.11.2019
4765 Clouds 28 1015 74 10000 5.7 60 20:55 03.11.2019
4766 Clouds 28 1015 74 10000 5.7 60 20:36 03.11.2019
4767 Clouds 28 1015 74 10000 5.7 60 20:18 03.11.2019
4768 Rain 28 1015 74 10000 4.6 80 19:55 03.11.2019
4769 Rain 28 1015 74 10000 4.6 80 19:37 03.11.2019
4770 Rain 28 1016 69 10000 4.6 70 19:18 03.11.2019
4771 Rain 28 1016 69 10000 4.6 70 18:38 03.11.2019
4772 Rain 28 1016 69 10000 4.6 70 18:18 03.11.2019
4773 Rain 28 1016 69 10000 4.6 70 18:18 03.11.2019
4774 Clouds 28 1017 74 10000 4.1 60 17:57 03.11.2019
4775 Clouds 28 1017 74 10000 4.1 60 17:39 03.11.2019
4776 Clouds 28 1017 74 10000 4.1 60 17:18 03.11.2019
4777 Clouds 28 1017 69 10000 4.6 60 16:54 03.11.2019
4778 Clouds 28 1017 69 10000 4.6 60 16:36 03.11.2019
4779 Clouds 28 1016 69 10000 3.1 90 16:18 03.11.2019
4780 Clouds 28 1016 69 10000 3.1 90 15:45 03.11.2019
4781 Clouds 28 1016 69 10000 3.1 90 15:25 03.11.2019
4782 Clouds 28 1016 78 10000 2.1 80 14:57 03.11.2019
4783 Clouds 27 1016 78 10000 2.1 80 14:38 03.11.2019
4784 Clouds 27 1016 78 10000 2.1 80 14:18 03.11.2019
4785 Clouds 26 1015 83 10000 2.1 90 13:44 03.11.2019
4786 Clouds 26 1015 83 10000 2.1 90 13:20 03.11.2019
4787 Clouds 26 1015 83 10000 2.1 90 13:20 03.11.2019
4788 Clear 26 1014 80 0 0.89 87 12:59 03.11.2019
4789 Clear 26 1015 82 0 6.2 63 12:37 03.11.2019
4790 Clouds 23 1015 88 10000 1 0 12:18 03.11.2019
4791 Clouds 23 1015 88 10000 1 0 11:43 03.11.2019
4792 Clouds 23 1015 88 10000 1 0 11:22 03.11.2019
4793 Clouds 25 1015 83 10000 1.5 100 10:58 03.11.2019
4794 Clouds 25 1015 83 10000 1.5 100 10:39 03.11.2019
4795 Clouds 25 1015 83 10000 1.5 100 10:21 03.11.2019
4796 Clouds 25 1015 83 10000 1.5 100 10:21 03.11.2019
4797 Clouds 25 1015 83 10000 1.5 90 09:55 03.11.2019
4798 Clouds 25 1015 83 10000 1.5 90 09:37 03.11.2019
4799 Clouds 25 1015 83 10000 1.5 90 09:37 03.11.2019
4800 Clouds 25 1015 83 10000 1.5 90 09:19 03.11.2019
4801 Clouds 26 1015 78 10000 1.5 100 08:38 03.11.2019
4802 Clouds 26 1016 78 10000 2.1 90 08:20 03.11.2019
4803 Clouds 26 1016 78 10000 2.1 90 07:45 03.11.2019
4804 Clouds 26 1016 78 10000 2.1 90 07:23 03.11.2019
4805 Clouds 27 1016 74 10000 1.5 80 06:46 03.11.2019
4806 Clouds 27 1016 74 10000 1.5 80 06:28 03.11.2019
4807 Clouds 27 1016 74 10000 2.6 90 05:38 03.11.2019
4808 Clouds 27 1016 74 10000 2.6 90 05:38 03.11.2019
4809 Clouds 27 1016 74 10000 3.1 90 04:55 03.11.2019
4810 Clouds 27 1016 74 10000 2.6 90 04:26 03.11.2019
4811 Clouds 27 1016 74 10000 2.6 90 03:27 03.11.2019
4812 Clouds 27 1016 74 10000 2.6 90 02:30 03.11.2019
4813 Clouds 27 1016 74 10000 2.6 90 01:57 03.11.2019
4814 Clouds 27 1016 74 10000 2.6 90 01:36 03.11.2019
4815 Clouds 27 1016 74 10000 2.6 90 01:18 03.11.2019
4816 Clouds 27 1015 69 10000 2.6 80 00:40 03.11.2019
4817 Clouds 27 1015 69 10000 2.6 80 00:21 03.11.2019
4818 Clouds 27 1015 65 10000 3.1 80 23:56 02.11.2019
4819 Clouds 27 1015 65 10000 3.1 80 23:36 02.11.2019
4820 Clouds 28 1015 65 10000 3.1 80 23:18 02.11.2019
4821 Clouds 28 1015 61 10000 3.6 100 22:54 02.11.2019
4822 Clouds 28 1015 61 10000 3.6 100 22:36 02.11.2019
4823 Clouds 28 1015 61 10000 3.6 100 22:18 02.11.2019
4824 Clouds 28 1015 58 10000 4.1 120 21:55 02.11.2019
4825 Clouds 29 1015 58 10000 4.1 120 21:36 02.11.2019
4826 Clouds 29 1015 58 10000 4.1 120 21:18 02.11.2019
4827 Rain 29 1015 62 10000 4.6 80 20:42 02.11.2019
4828 Rain 29 1015 62 10000 4.6 80 20:22 02.11.2019
4829 Clouds 29 1015 66 10000 4.6 90 19:59 02.11.2019
4830 Clouds 29 1015 66 10000 4.6 90 19:38 02.11.2019
4831 Clouds 29 1015 66 10000 4.6 90 19:19 02.11.2019
4832 Clouds 29 1016 66 10000 4.1 90 18:54 02.11.2019
4833 Clouds 29 1016 66 10000 4.1 90 18:36 02.11.2019
4834 Clouds 29 1016 66 10000 4.1 90 18:18 02.11.2019
4835 Clouds 29 1017 66 0 5.1 110 17:55 02.11.2019
4836 Clouds 29 1017 66 0 5.1 110 17:36 02.11.2019
4837 Clouds 29 1017 66 0 5.1 110 17:18 02.11.2019
4838 Clouds 28 1017 69 10000 4.6 100 16:39 02.11.2019
4839 Clouds 28 1017 69 10000 4.6 100 16:20 02.11.2019
4840 Clouds 28 1017 66 10000 5.7 140 15:43 02.11.2019
4841 Clouds 27 1017 74 10000 4.1 120 15:21 02.11.2019
4842 Clouds 27 1017 74 10000 4.1 120 14:57 02.11.2019
4843 Clouds 27 1017 74 10000 4.1 120 14:39 02.11.2019
4844 Clouds 26 1017 83 10000 5.1 120 14:21 02.11.2019
4845 Clouds 26 1017 83 10000 5.1 120 13:40 02.11.2019
4846 Clouds 26 1017 88 10000 2.6 110 13:20 02.11.2019
4847 Clouds 25 1017 88 10000 2.6 110 12:58 02.11.2019
4848 Clouds 25 1017 88 10000 2.6 110 12:38 02.11.2019
4849 Clouds 25 1017 88 10000 2.6 110 12:20 02.11.2019
4850 Clouds 25 1017 88 10000 2.6 110 12:20 02.11.2019
4851 Clouds 25 1016 88 10000 3.6 150 11:43 02.11.2019
4852 Clouds 25 1016 88 10000 3.6 150 11:24 02.11.2019
4853 Rain 25 1016 88 10000 4.6 120 10:57 02.11.2019
4854 Rain 25 1016 88 10000 4.6 120 10:39 02.11.2019
4855 Rain 25 1016 88 10000 4.6 120 10:20 02.11.2019
4856 Rain 27 1015 79 0 7.67 95 09:43 02.11.2019
4857 Clouds 26 1016 74 10000 6.2 110 09:22 02.11.2019
4858 Clouds 26 1016 74 10000 6.2 110 09:22 02.11.2019
4859 Clouds 26 1016 74 10000 6.2 110 08:55 02.11.2019
4860 Clouds 26 1016 74 10000 6.2 110 08:37 02.11.2019
4861 Clouds 26 1016 74 10000 6.2 110 08:18 02.11.2019
4862 Clouds 26 1016 74 10000 6.2 110 08:18 02.11.2019
4863 Clouds 26 1017 78 10000 4.6 110 07:43 02.11.2019
4864 Clouds 26 1017 78 10000 4.6 110 07:25 02.11.2019
4865 Clouds 26 1017 78 10000 4.1 100 06:52 02.11.2019
4866 Clouds 26 1017 78 10000 4.1 100 06:52 02.11.2019
4867 -273 0 0 0 0 0 06:23 02.11.2019
4868 Clouds 26 1018 83 10000 4.1 100 05:44 02.11.2019
4869 Clouds 26 1018 83 10000 3.6 90 04:24 02.11.2019
4870 Clouds 26 1018 83 10000 3.6 90 03:51 02.11.2019
4871 Clouds 26 1018 83 10000 3.6 90 03:30 02.11.2019
4872 Clouds 26 1018 83 10000 3.6 90 03:30 02.11.2019
4873 Clouds 27 1018 78 10000 3.6 80 02:19 02.11.2019
4874 Clouds 27 1017 74 10000 3.1 70 01:29 02.11.2019
4875 Clouds 27 1017 74 10000 3.1 70 00:56 02.11.2019
4876 Clouds 27 1017 74 10000 3.1 70 00:30 02.11.2019
4877 Clouds 28 1017 65 10000 3.1 80 23:56 01.11.2019
4878 Clouds 28 1017 65 10000 3.1 80 23:37 01.11.2019
4879 Clouds 28 1016 66 10000 4.1 60 23:19 01.11.2019
4880 Clouds 28 1016 66 10000 4.1 60 22:42 01.11.2019
4881 Rain 27 1015 79 0 0.89 55 22:20 01.11.2019
4882 Rain 28 1015 78 0 2.68 41 21:43 01.11.2019
4883 Rain 28 1015 78 0 2.68 41 21:43 01.11.2019
4884 Clouds 29 1017 70 10000 5.1 50 21:24 01.11.2019
4885 Clouds 28 1017 70 10000 5.1 50 20:59 01.11.2019
4886 Clouds 28 1017 70 10000 5.1 50 20:41 01.11.2019
4887 Clouds 29 1017 70 10000 5.1 50 20:22 01.11.2019
4888 Clouds 28 1017 69 10000 4.1 40 19:58 01.11.2019
4889 Clouds 28 1017 69 10000 4.1 40 19:40 01.11.2019
4890 Clouds 28 1017 69 10000 4.1 40 19:21 01.11.2019
4891 Clouds 29 1018 74 10000 2.6 60 18:41 01.11.2019
4892 Clouds 29 1018 74 10000 2.6 60 18:21 01.11.2019
4893 Rain 29 1017 73 0 4.44 92 17:57 01.11.2019
4894 Rain 29 1017 74 0 4.44 92 17:39 01.11.2019
4895 Rain 29 1017 74 0 4.44 92 17:39 01.11.2019
4896 Clouds 29 1019 66 10000 2.6 130 17:20 01.11.2019
4897 Clouds 29 1019 66 10000 2.6 130 16:40 01.11.2019
4898 Clouds 29 1019 66 10000 2.6 130 16:20 01.11.2019
4899 Clouds 29 1019 70 10000 2.1 110 15:56 01.11.2019
4900 Clouds 29 1019 70 10000 2.1 110 15:38 01.11.2019
4901 Clouds 29 1019 70 10000 2.1 110 15:19 01.11.2019
4902 Clouds 28 1018 78 10000 1 0 14:43 01.11.2019
4903 Clouds 28 1018 78 10000 1 0 14:24 01.11.2019
4904 Rain 26 1018 88 10000 2.1 80 13:57 01.11.2019
4905 Rain 27 1018 88 10000 2.1 80 13:39 01.11.2019
4906 Rain 26 1018 88 10000 2.1 80 13:20 01.11.2019
4907 Clouds 23 1017 94 10000 4.48 104 12:43 01.11.2019
4908 Clouds 23 1017 94 10000 4.48 104 12:25 01.11.2019
4909 Clouds 24 1017 94 10000 0.5 0 11:59 01.11.2019
4910 Clouds 24 1017 94 10000 0.5 0 11:40 01.11.2019
4911 Clouds 24 1016 94 10000 0.5 0 11:22 01.11.2019
4912 Clouds 24 1016 94 10000 0.5 0 11:22 01.11.2019
4913 Clouds 24 1016 94 10000 0.5 0 10:42 01.11.2019
4914 Clouds 24 1016 94 10000 0.5 0 10:22 01.11.2019
4915 Clouds 24 1016 94 10000 1 0 09:57 01.11.2019
4916 Clouds 24 1016 94 10000 1 0 09:57 01.11.2019
4917 Clouds 24 1016 94 10000 1 0 09:38 01.11.2019
4918 Clouds 24 1016 94 10000 1 0 09:19 01.11.2019
4919 Clouds 24 1016 94 10000 1 0 09:19 01.11.2019
4920 Clouds 25 1017 88 10000 1 0 08:42 01.11.2019
4921 Clouds 25 1017 88 10000 1 0 08:22 01.11.2019
4922 Clouds 25 1017 88 10000 1 0 08:22 01.11.2019
4923 Clouds 26 1017 88 10000 3.1 120 07:56 01.11.2019
4924 Clouds 26 1017 88 10000 3.1 120 07:37 01.11.2019
4925 Clouds 26 1017 88 10000 3.1 120 07:18 01.11.2019
4926 Clouds 26 1018 88 10000 2.1 90 06:40 01.11.2019
4927 Clouds 26 1018 88 10000 2.1 90 06:21 01.11.2019
4928 Clouds 26 1018 88 10000 1.5 80 05:43 01.11.2019
4929 Clouds 27 1018 83 10000 2.1 90 03:42 01.11.2019
4930 Clouds 27 1017 83 10000 1.5 70 02:47 01.11.2019
4931 Clouds 27 1017 83 10000 1.5 60 01:28 01.11.2019
4932 Clouds 28 1016 78 10000 2.6 50 00:22 01.11.2019
4933 Clouds 28 1016 78 10000 2.6 50 23:59 31.10.2019
4934 Clouds 28 1016 78 10000 2.6 50 23:41 31.10.2019
4935 Clouds 28 1016 78 10000 2.6 50 23:22 31.10.2019
4936 Clouds 28 1016 70 10000 3.1 80 22:42 31.10.2019
4937 Clouds 29 1016 70 10000 3.1 80 22:24 31.10.2019
4938 Clouds 29 1016 66 10000 3.1 130 21:58 31.10.2019
4939 Clouds 29 1016 66 10000 3.1 130 21:40 31.10.2019
4940 Clouds 29 1016 66 10000 3.1 130 21:19 31.10.2019
4941 Clouds 29 1016 62 10000 3.6 140 20:42 31.10.2019
4942 Clouds 29 1016 62 10000 3.6 140 20:24 31.10.2019
4943 Clouds 29 1016 66 10000 2.1 90 19:59 31.10.2019
4944 Clouds 29 1016 66 10000 2.1 90 19:39 31.10.2019
4945 Clouds 29 1016 66 10000 2.1 90 19:21 31.10.2019
4946 Clouds 28 1017 78 10000 3.6 60 18:44 31.10.2019
4947 Clouds 29 1018 74 10000 3.6 100 18:26 31.10.2019
4948 Clouds 29 1018 74 10000 3.6 100 17:59 31.10.2019
4949 Clouds 29 1018 74 10000 3.6 100 17:41 31.10.2019
4950 Clouds 29 1018 74 10000 3.6 100 17:20 31.10.2019
4951 Clouds 28 1018 78 10000 4.1 80 16:55 31.10.2019
4952 Clouds 28 1018 78 10000 4.1 80 16:37 31.10.2019
4953 Clouds 28 1018 78 10000 4.1 80 16:18 31.10.2019
4954 Clouds 28 1018 78 10000 3.1 90 15:40 31.10.2019
4955 Clouds 28 1018 78 10000 3.1 90 15:40 31.10.2019
4956 Clouds 28 1018 78 10000 3.1 90 15:22 31.10.2019
4957 Clouds 28 1017 83 10000 3.1 100 14:59 31.10.2019
4958 Clouds 28 1017 83 10000 3.1 100 14:41 31.10.2019
4959 Clouds 27 1017 83 10000 3.1 100 14:22 31.10.2019
4960 Clouds 27 1017 88 10000 2.1 80 13:59 31.10.2019
4961 Clouds 27 1017 88 10000 2.1 80 13:39 31.10.2019
4962 Clouds 27 1017 88 10000 2.1 80 13:19 31.10.2019
4963 Clouds 27 1017 83 10000 2.1 90 12:57 31.10.2019
4964 Clouds 26 1017 83 10000 2.1 90 12:38 31.10.2019
4965 Clouds 26 1017 83 10000 2.1 90 12:18 31.10.2019
4966 Clouds 26 1016 83 10000 2.1 100 11:45 31.10.2019
4967 Clouds 26 1016 83 10000 2.1 100 11:21 31.10.2019
4968 Clouds 26 1016 88 10000 2.1 110 10:58 31.10.2019
4969 Clouds 26 1016 88 10000 2.1 110 10:39 31.10.2019
4970 Clouds 26 1016 88 10000 2.1 110 10:20 31.10.2019
4971 Clouds 26 1016 83 10000 1.5 80 09:47 31.10.2019
4972 Clouds 26 1016 83 10000 1.5 80 09:20 31.10.2019
4973 Clear 27 1015 81 0 5.45 79 08:58 31.10.2019
4974 Clear 27 1015 81 0 5.45 79 08:39 31.10.2019
4975 Clouds 26 1017 83 10000 1.5 80 08:21 31.10.2019
4976 Clouds 26 1017 83 10000 1.5 80 07:46 31.10.2019
4977 Clouds 26 1017 83 10000 1.5 80 07:26 31.10.2019
4978 Clouds 27 1017 78 10000 2.6 100 06:52 31.10.2019
4979 Clouds 27 1017 78 10000 2.6 100 06:31 31.10.2019
4980 Clouds 27 1017 78 10000 2.6 100 05:19 31.10.2019
4981 Clouds 27 1017 78 10000 3.1 90 02:49 31.10.2019
4982 Clouds 27 1017 78 10000 3.1 90 02:24 31.10.2019
4983 Clouds 27 1016 78 10000 3.1 90 00:51 31.10.2019
4984 Clouds 27 1016 78 10000 3.1 90 00:25 31.10.2019
4985 Clouds 28 1016 74 0 4.6 90 23:41 30.10.2019
4986 Clouds 28 1016 70 10000 5.1 80 23:22 30.10.2019
4987 Clouds 28 1016 70 10000 5.1 80 22:41 30.10.2019
4988 Clouds 29 1016 66 10000 5.1 80 22:19 30.10.2019
4989 Clouds 29 1016 66 10000 5.1 80 21:55 30.10.2019
4990 Clouds 29 1016 66 10000 5.1 80 21:36 30.10.2019
4991 Clear 28 1015 77 0 2.68 45 21:18 30.10.2019
4992 Clear 28 1015 77 0 2.68 58 20:57 30.10.2019
4993 Clear 28 1015 76 0 2.24 75 20:37 30.10.2019
4994 Clouds 30 1017 66 10000 5.1 90 20:19 30.10.2019
4995 Clouds 29 1017 66 10000 5.1 90 19:42 30.10.2019
4996 Clouds 29 1017 66 10000 5.1 90 19:23 30.10.2019
4997 Clouds 29 1017 66 10000 5.1 80 18:59 30.10.2019
4998 Clouds 29 1017 66 10000 5.1 80 18:38 30.10.2019
4999 Clouds 29 1017 66 10000 5.1 80 18:38 30.10.2019
5000 Clouds 29 1017 66 10000 5.1 80 18:19 30.10.2019
5001 Clouds 29 1017 66 10000 5.1 80 18:19 30.10.2019
5002 Clouds 29 1018 62 10000 5.7 110 17:55 30.10.2019
5003 Clouds 29 1018 62 10000 5.7 110 17:55 30.10.2019
5004 Clouds 29 1018 62 10000 5.7 110 17:37 30.10.2019
5005 Clouds 29 1018 62 10000 5.7 110 17:18 30.10.2019
5006 Clouds 29 1018 66 10000 5.7 90 16:42 30.10.2019
5007 Clouds 28 1018 74 10000 5.7 100 16:23 30.10.2019
5008 Clouds 28 1018 74 10000 5.7 100 15:59 30.10.2019
5009 Clouds 28 1018 74 10000 5.7 100 15:38 30.10.2019
5010 Clouds 28 1018 74 10000 5.7 100 15:19 30.10.2019
5011 Clouds 28 1018 74 10000 4.1 100 14:57 30.10.2019
5012 Clouds 28 1018 74 10000 4.1 100 14:39 30.10.2019
5013 Clouds 27 1018 74 10000 4.1 100 14:21 30.10.2019
5014 Clouds 27 1017 83 10000 3.6 90 13:54 30.10.2019
5015 Clouds 27 1017 83 10000 3.6 90 13:36 30.10.2019
5016 Clouds 26 1017 83 10000 3.6 90 13:18 30.10.2019
5017 Clouds 26 1017 83 10000 3.1 90 12:43 30.10.2019
5018 Clouds 26 1017 83 10000 3.1 90 12:25 30.10.2019
5019 Clouds 26 1017 83 10000 2.6 90 11:57 30.10.2019
5020 Clouds 26 1017 83 10000 2.6 90 11:57 30.10.2019
5021 Clouds 26 1017 83 10000 2.6 90 11:38 30.10.2019
5022 Clouds 26 1017 83 10000 2.6 90 11:18 30.10.2019
5023 Clouds 27 1016 78 10000 3.6 90 10:42 30.10.2019
5024 Clouds 27 1016 78 10000 3.6 90 10:23 30.10.2019
5025 Clouds 27 1016 78 10000 3.6 100 09:42 30.10.2019
5026 Clouds 27 1017 78 10000 3.6 90 09:23 30.10.2019
5027 Clouds 27 1017 78 10000 3.6 90 08:57 30.10.2019
5028 Clouds 27 1017 78 10000 3.6 90 08:39 30.10.2019
5029 Clouds 27 1017 78 10000 3.6 90 08:19 30.10.2019
5030 Clouds 27 1017 78 10000 4.1 90 07:43 30.10.2019
5031 Clouds 27 1018 78 10000 3.6 90 06:59 30.10.2019
5032 Clouds 27 1018 78 10000 3.6 90 06:40 30.10.2019
5033 Clouds 27 1018 78 10000 3.6 100 05:58 30.10.2019
5034 Clouds 27 1018 78 10000 3.6 100 05:39 30.10.2019
5035 Clouds 27 1018 78 10000 4.6 90 04:26 30.10.2019
5036 Rain 27 1018 83 10000 4.6 90 03:39 30.10.2019
5037 Rain 28 1017 74 10000 4.6 80 02:49 30.10.2019
5038 Rain 28 1017 74 10000 5.1 90 01:49 30.10.2019
5039 Clouds 28 1016 74 10000 4.1 80 00:43 30.10.2019
5040 Clouds 28 1016 74 10000 4.1 80 00:25 30.10.2019
5041 Clouds 28 1016 74 10000 5.1 70 23:41 29.10.2019
5042 Clouds 28 1016 74 10000 5.1 70 23:22 29.10.2019
5043 Clouds 28 1016 70 10000 6.2 80 22:45 29.10.2019
5044 Clouds 28 1016 70 10000 6.2 80 22:20 29.10.2019
5045 Clouds 29 1016 70 10000 5.7 80 21:55 29.10.2019
5046 Clouds 29 1016 70 10000 5.7 80 21:37 29.10.2019
5047 Clouds 29 1016 70 10000 5.7 80 21:19 29.10.2019
5048 Clouds 29 1017 70 10000 5.7 70 20:42 29.10.2019
5049 Clouds 29 1017 70 10000 5.7 70 20:23 29.10.2019
5050 Clouds 29 1017 70 10000 6.2 70 19:59 29.10.2019
5051 Clouds 29 1017 70 10000 6.2 70 19:40 29.10.2019
5052 Clouds 29 1018 70 10000 5.7 80 19:22 29.10.2019
5053 Clouds 29 1018 70 10000 5.7 80 18:58 29.10.2019
5054 Clouds 29 1018 70 10000 5.7 80 18:40 29.10.2019
5055 Clouds 29 1016 78 0 1.79 65 18:20 29.10.2019
5056 Clouds 29 1017 77 0 2.24 33 17:57 29.10.2019
5057 Clouds 29 1017 77 0 2.24 65 17:38 29.10.2019
5058 Clear 29 1017 77 0 2.24 42 17:20 29.10.2019
5059 Clear 28 1017 78 0 2.68 82 16:57 29.10.2019
5060 Clear 29 1018 78 0 1.34 79 16:38 29.10.2019
5061 Clouds 28 1019 74 10000 4.6 90 16:18 29.10.2019
5062 Clouds 28 1019 74 10000 4.6 90 15:42 29.10.2019
5063 Clouds 28 1019 74 10000 4.6 90 15:21 29.10.2019
5064 Clouds 28 1018 78 10000 4.1 100 14:57 29.10.2019
5065 Clouds 28 1018 78 10000 4.1 100 14:39 29.10.2019
5066 Clouds 27 1018 88 10000 3.6 90 14:21 29.10.2019
5067 Clouds 27 1018 88 10000 3.6 90 13:41 29.10.2019
5068 Clouds 27 1018 88 10000 3.6 90 13:23 29.10.2019
5069 Clouds 27 1017 83 10000 3.1 100 12:59 29.10.2019
5070 Clouds 26 1017 83 10000 3.1 100 12:41 29.10.2019
5071 Clouds 26 1017 83 10000 3.1 100 12:23 29.10.2019
5072 Clouds 26 1017 83 10000 3.1 90 11:43 29.10.2019
5073 Clouds 27 1017 78 10000 3.1 100 11:23 29.10.2019
5074 Clouds 27 1017 78 10000 3.1 100 10:59 29.10.2019
5075 Clouds 27 1017 78 10000 3.1 100 10:41 29.10.2019
5076 Clouds 27 1017 78 10000 3.1 100 10:21 29.10.2019
5077 Clouds 27 1015 81 0 6.69 92 09:59 29.10.2019
5078 Clouds 27 1015 81 0 6.69 92 09:41 29.10.2019
5079 Clouds 27 1015 81 0 6.69 92 09:22 29.10.2019
5080 Clouds 27 1015 81 0 6.69 92 08:54 29.10.2019
5081 Clouds 27 1015 81 0 6.69 92 08:36 29.10.2019
5082 Clouds 27 1016 82 0 6.97 92 08:18 29.10.2019
5083 Clouds 27 1016 82 0 6.97 92 07:44 29.10.2019
5084 Clouds 27 1016 82 0 6.97 92 07:19 29.10.2019
5085 Clouds 27 1016 82 0 6.97 92 06:46 29.10.2019
5086 Clouds 27 1016 82 0 6.97 92 06:26 29.10.2019
5087 Clouds 27 1016 82 0 6.97 92 05:52 29.10.2019
5088 Clouds 27 1016 82 0 6.97 92 05:34 29.10.2019
5089 Clouds 27 1018 78 10000 3.6 100 04:32 29.10.2019
5090 Clouds 28 1018 78 10000 4.1 110 02:34 29.10.2019
5091 Clouds 28 1017 83 10000 4.1 100 01:49 29.10.2019
5092 Clouds 28 1017 83 10000 4.1 100 01:22 29.10.2019
5093 Clouds 28 1017 83 10000 4.1 100 00:48 29.10.2019
5094 Clouds 28 1017 74 10000 4.6 100 23:44 28.10.2019
5095 Clouds 28 1017 74 10000 4.6 100 23:21 28.10.2019
5096 Rain 29 1017 70 10000 5.1 110 22:59 28.10.2019
5097 Rain 29 1017 70 10000 5.1 110 22:38 28.10.2019
5098 Rain 29 1017 70 10000 5.1 110 22:18 28.10.2019
5099 Rain 30 1016 66 10000 5.1 100 21:56 28.10.2019
5100 Rain 30 1016 66 10000 5.1 100 21:38 28.10.2019
5101 Rain 30 1016 66 10000 5.1 100 21:20 28.10.2019
5102 Rain 30 1017 74 10000 4.6 80 20:46 28.10.2019
5103 Rain 30 1017 74 10000 4.6 80 20:25 28.10.2019
5104 Clouds 30 1017 74 10000 5.1 100 19:59 28.10.2019
5105 Clouds 30 1017 74 10000 5.1 100 19:39 28.10.2019
5106 Clouds 30 1017 74 10000 5.1 100 19:21 28.10.2019
5107 Clouds 29 1018 74 10000 4.6 110 18:59 28.10.2019
5108 Clouds 29 1018 74 10000 4.6 110 18:40 28.10.2019
5109 Clouds 29 1018 74 10000 4.6 110 18:21 28.10.2019
5110 Clouds 31 1018 70 10000 4.1 110 17:56 28.10.2019
5111 Clouds 30 1018 70 10000 4.1 110 17:38 28.10.2019
5112 Clouds 30 1018 70 10000 4.1 110 17:19 28.10.2019
5113 Clouds 30 1018 70 10000 4.1 110 16:57 28.10.2019
5114 Clouds 30 1018 70 10000 4.1 110 16:39 28.10.2019
5115 Clouds 30 1018 70 10000 4.1 110 16:20 28.10.2019
5116 Clouds 29 1018 79 10000 4.1 100 15:58 28.10.2019
5117 Clouds 29 1018 79 10000 4.1 100 15:58 28.10.2019
5118 Clouds 29 1018 79 10000 4.1 100 15:39 28.10.2019
5119 Clouds 29 1018 79 10000 4.1 100 15:20 28.10.2019
5120 Clouds 28 1018 83 10000 3.1 110 14:56 28.10.2019
5121 Clouds 28 1018 83 10000 3.1 110 14:38 28.10.2019
5122 Clouds 28 1018 83 10000 3.1 110 14:18 28.10.2019
5123 Clouds 27 1017 88 10000 2.6 110 13:54 28.10.2019
5124 Clouds 27 1017 88 10000 2.6 110 13:36 28.10.2019
5125 Clouds 27 1017 88 10000 2.6 110 13:18 28.10.2019
5126 Clouds 27 1017 88 10000 2.6 120 12:41 28.10.2019
5127 Clouds 26 1017 88 10000 2.6 120 12:20 28.10.2019
5128 Clouds 26 1016 88 10000 1 0 11:40 28.10.2019
5129 Clouds 26 1016 88 10000 1 0 11:21 28.10.2019
5130 Clouds 26 1016 88 10000 1.5 110 10:56 28.10.2019
5131 Clouds 26 1016 88 10000 1.5 110 10:56 28.10.2019
5132 Clouds 26 1016 88 10000 1.5 110 10:38 28.10.2019
5133 Clouds 26 1016 88 10000 1.5 110 10:19 28.10.2019
5134 Clouds 26 1016 88 10000 1.5 90 09:54 28.10.2019
5135 Clouds 26 1016 88 10000 1.5 90 09:36 28.10.2019
5136 Clouds 26 1016 88 10000 1.5 90 09:18 28.10.2019
5137 Clear 27 1014 82 0 5.95 102 08:56 28.10.2019
5138 Clear 27 1014 82 0 5.95 102 08:37 28.10.2019
5139 Clouds 27 1017 83 10000 2.1 100 08:18 28.10.2019
5140 Clouds 27 1017 83 10000 2.1 100 07:42 28.10.2019
5141 Clouds 27 1017 83 10000 2.1 100 07:21 28.10.2019
5142 Clouds 27 1017 83 10000 2.6 110 06:55 28.10.2019
5143 Clouds 27 1017 83 10000 2.6 110 06:34 28.10.2019
5144 Clouds 27 1018 83 10000 2.6 90 04:39 28.10.2019
5145 Clouds 28 1018 78 10000 2.6 100 03:43 28.10.2019
5146 Clouds 28 1017 78 10000 2.1 100 02:45 28.10.2019
5147 Clouds 28 1016 78 10000 3.1 140 01:27 28.10.2019
5148 Clouds 28 1016 78 10000 3.1 140 00:46 28.10.2019
5149 Clouds 28 1016 78 10000 3.1 140 00:22 28.10.2019
5150 Clouds 28 1016 74 10000 3.6 130 23:43 27.10.2019
5151 Clouds 28 1016 74 10000 3.6 130 23:20 27.10.2019
5152 Clouds 29 1016 70 10000 3.6 160 22:44 27.10.2019
5153 Clouds 30 1016 62 10000 4.6 140 22:23 27.10.2019
5154 Clouds 30 1016 62 10000 4.6 140 21:59 27.10.2019
5155 Clouds 30 1016 62 10000 4.6 140 21:39 27.10.2019
5156 Clouds 30 1016 62 10000 4.6 140 21:21 27.10.2019
5157 Clouds 30 1016 70 10000 6.2 150 20:58 27.10.2019
5158 Clouds 30 1016 70 10000 6.2 150 20:58 27.10.2019
5159 Clouds 30 1016 70 10000 6.2 150 20:40 27.10.2019
5160 Clouds 30 1016 70 10000 6.2 150 20:22 27.10.2019
5161 Clouds 30 1016 70 10000 6.2 150 19:56 27.10.2019
5162 Clouds 31 1016 70 10000 6.2 150 19:37 27.10.2019
5163 Clouds 31 1016 70 10000 6.2 150 19:18 27.10.2019
5164 Clouds 31 1017 70 10000 6.2 160 18:55 27.10.2019
5165 Clouds 30 1017 70 10000 6.2 160 18:37 27.10.2019
5166 Clouds 30 1017 70 10000 5.7 150 18:19 27.10.2019
5167 Clouds 30 1017 70 10000 5.7 150 18:19 27.10.2019
5168 Clouds 31 1017 70 10000 5.7 150 17:40 27.10.2019
5169 Clouds 30 1017 70 10000 5.7 150 17:21 27.10.2019
5170 Clouds 30 1018 70 10000 6.2 150 16:58 27.10.2019
5171 Clouds 30 1018 70 10000 6.2 150 16:40 27.10.2019
5172 Clouds 30 1018 70 10000 6.2 150 16:22 27.10.2019
5173 Clouds 29 1017 74 10000 6.7 140 15:56 27.10.2019
5174 Clouds 29 1017 74 10000 6.7 140 15:56 27.10.2019
5175 Clouds 30 1017 74 10000 6.7 140 15:38 27.10.2019
5176 Rain 29 1017 83 10000 3.6 130 15:19 27.10.2019
5177 Rain 29 1017 83 10000 3.6 130 14:43 27.10.2019
5178 Rain 28 1017 83 10000 3.6 130 14:21 27.10.2019
5179 Rain 28 1017 88 10000 3.1 150 13:58 27.10.2019
5180 Rain 27 1017 88 10000 3.1 150 13:39 27.10.2019
5181 Rain 27 1016 83 10000 2.6 110 13:20 27.10.2019
5182 Rain 27 1016 83 10000 2.6 110 12:57 27.10.2019
5183 Rain 27 1016 83 10000 2.6 110 12:38 27.10.2019
5184 Rain 27 1016 83 10000 2.6 110 12:19 27.10.2019
5185 Rain 28 1016 82 0 5.74 136 11:41 27.10.2019
5186 Clouds 25 1016 100 10000 1 0 11:21 27.10.2019
5187 Clouds 25 1016 100 10000 1 0 10:44 27.10.2019
5188 Rain 28 1014 82 0 5.84 129 10:25 27.10.2019
5189 Rain 28 1014 82 0 5.84 129 09:57 27.10.2019
5190 Rain 28 1014 82 0 5.84 129 09:39 27.10.2019
5191 Clouds 27 1016 88 10000 2.6 110 09:18 27.10.2019
5192 Clouds 27 1016 88 10000 2.6 110 08:42 27.10.2019
5193 Clouds 27 1016 88 10000 2.6 110 08:22 27.10.2019
5194 Clouds 27 1016 88 10000 2.1 110 07:59 27.10.2019
5195 Clouds 27 1016 88 10000 2.1 110 07:41 27.10.2019
5196 Clouds 27 1016 88 10000 2.1 110 07:20 27.10.2019
5197 Rain 27 1015 82 0 5.02 119 06:47 27.10.2019
5198 Clouds 28 1017 83 10000 1.5 130 06:26 27.10.2019
5199 Clouds 28 1017 83 10000 1.5 130 05:39 27.10.2019
5200 Clouds 27 1017 83 10000 2.1 130 04:51 27.10.2019
5201 Thunderstorm 27 1016 83 10000 3.6 150 02:54 27.10.2019
5202 Thunderstorm 28 1015 78 10000 3.1 160 01:49 27.10.2019
5203 Thunderstorm 29 1015 74 10000 6.2 160 01:20 27.10.2019
5204 Thunderstorm 28 1015 74 10000 6.2 160 00:43 27.10.2019
5205 Thunderstorm 29 1015 74 10000 6.2 160 00:18 27.10.2019
5206 Thunderstorm 29 1014 74 10000 5.7 160 23:41 26.10.2019
5207 Thunderstorm 29 1014 74 10000 5.7 160 23:22 26.10.2019
5208 Thunderstorm 29 1014 74 10000 6.7 160 22:59 26.10.2019
5209 Thunderstorm 29 1014 74 10000 6.7 160 22:40 26.10.2019
5210 Thunderstorm 30 1014 74 10000 6.7 160 22:20 26.10.2019
5211 Clouds 30 1014 74 10000 7.7 150 21:59 26.10.2019
5212 Clouds 30 1014 74 10000 7.7 150 21:41 26.10.2019
5213 Clouds 30 1014 74 10000 7.7 150 21:20 26.10.2019
5214 Clouds 30 1015 74 10000 7.2 150 20:45 26.10.2019
5215 Clouds 30 1015 74 10000 7.2 150 20:20 26.10.2019
5216 Clouds 30 1016 70 10000 7.7 150 19:57 26.10.2019
5217 Clouds 30 1016 70 10000 7.7 150 19:38 26.10.2019
5218 Clouds 30 1016 70 10000 7.7 150 19:19 26.10.2019
5219 Clouds 30 1016 70 10000 7.7 150 18:55 26.10.2019
5220 Clouds 30 1016 70 10000 7.7 150 18:37 26.10.2019
5221 Clouds 30 1016 70 10000 7.7 150 18:18 26.10.2019
5222 Clouds 30 1016 70 10000 7.7 150 18:18 26.10.2019
5223 Clouds 30 1017 79 10000 8.2 140 17:39 26.10.2019
5224 Clouds 30 1017 79 10000 8.2 140 17:21 26.10.2019
5225 Clouds 30 1016 74 10000 7.2 130 16:58 26.10.2019
5226 Clouds 30 1016 74 10000 7.2 130 16:40 26.10.2019
5227 Clouds 30 1016 74 10000 7.2 130 16:21 26.10.2019
5228 Clouds 29 1016 74 10000 5.1 130 15:41 26.10.2019
5229 Clouds 28 1016 88 10000 2.6 120 15:19 26.10.2019
5230 Clouds 28 1016 88 10000 2.6 120 15:19 26.10.2019
5231 Clouds 28 1016 88 10000 2.6 120 14:40 26.10.2019
5232 Clouds 28 1016 88 10000 2.6 120 14:40 26.10.2019
5233 Clouds 28 1016 88 10000 2.6 120 14:40 26.10.2019
5234 Clouds 27 1015 88 10000 3.6 120 14:20 26.10.2019
5235 Clouds 28 1015 82 0 7.52 106 13:59 26.10.2019
5236 Clouds 28 1015 82 0 7.52 106 13:39 26.10.2019
5237 Clouds 26 1015 88 10000 3.6 120 13:20 26.10.2019
5238 Clouds 28 1015 82 0 7.52 106 12:46 26.10.2019
5239 Clouds 27 1014 82 0 8.4 104 12:22 26.10.2019
5240 Clouds 27 1014 82 0 8.4 104 11:48 26.10.2019
5241 Clouds 27 1015 83 10000 2.1 120 11:27 26.10.2019
5242 Clouds 27 1015 83 10000 2.1 120 10:47 26.10.2019
5243 Clouds 27 1015 83 10000 2.1 120 10:27 26.10.2019
5244 Clouds 26 1015 88 10000 2.1 150 09:57 26.10.2019
5245 Clouds 26 1015 88 10000 2.1 150 09:39 26.10.2019
5246 Clouds 26 1015 88 10000 2.1 150 09:20 26.10.2019
5247 Thunderstorm 26 1016 88 10000 3.6 160 08:42 26.10.2019
5248 Thunderstorm 26 1016 88 10000 3.6 160 08:24 26.10.2019
5249 Clouds 27 1016 83 10000 3.1 130 07:44 26.10.2019
5250 Clouds 27 1016 83 10000 3.1 130 07:24 26.10.2019
5251 Clouds 27 1016 83 10000 3.6 130 06:41 26.10.2019
5252 Clouds 28 1017 74 10000 5.1 140 06:18 26.10.2019
5253 Clouds 28 1017 74 10000 5.1 140 05:19 26.10.2019
5254 Clouds 27 1016 83 10000 4.1 120 04:23 26.10.2019
5255 Clouds 28 1015 74 10000 6.7 120 02:37 26.10.2019
5256 Clouds 27 1015 78 10000 7.2 130 01:48 26.10.2019
5257 Rain 28 1015 78 10000 6.2 130 00:58 26.10.2019
5258 Clouds 28 1015 70 10000 7.2 120 00:18 26.10.2019
5259 Clouds 28 1015 70 10000 7.2 120 23:40 25.10.2019
5260 Clouds 29 1015 66 10000 7.2 110 23:19 25.10.2019
5261 Clouds 29 1015 66 10000 7.2 110 22:40 25.10.2019
5262 Clouds 29 1016 62 10000 8.2 120 22:22 25.10.2019
5263 Clouds 29 1016 62 10000 8.2 120 21:57 25.10.2019
5264 Clouds 29 1016 62 10000 8.2 120 21:57 25.10.2019
5265 Clouds 29 1016 62 10000 8.2 120 21:38 25.10.2019
5266 Clouds 30 1016 62 10000 8.2 120 21:19 25.10.2019
5267 Thunderstorm 29 1016 58 10000 6.7 100 20:44 25.10.2019
5268 Thunderstorm 30 1017 58 10000 7.7 100 20:20 25.10.2019
5269 Thunderstorm 30 1017 58 10000 7.7 100 20:20 25.10.2019
5270 Thunderstorm 30 1017 58 10000 7.7 100 20:20 25.10.2019
5271 Thunderstorm 29 1017 58 10000 7.7 100 19:56 25.10.2019
5272 Thunderstorm 29 1017 58 10000 7.7 100 19:38 25.10.2019
5273 Thunderstorm 30 1018 62 10000 8.2 110 19:20 25.10.2019
5274 Thunderstorm 29 1018 62 10000 8.2 110 18:43 25.10.2019
5275 Clouds 29 1018 62 10000 8.2 100 18:21 25.10.2019
5276 Clouds 29 1018 62 10000 8.2 100 17:41 25.10.2019
5277 Clouds 29 1018 66 10000 6.7 110 17:20 25.10.2019
5278 Clouds 29 1018 66 10000 6.7 110 16:47 25.10.2019
5279 Clouds 29 1018 66 10000 6.7 110 16:24 25.10.2019
5280 Clouds 28 1018 69 10000 6.7 110 15:57 25.10.2019
5281 Clouds 28 1018 69 10000 6.7 110 15:39 25.10.2019
5282 Clouds 28 1018 69 10000 6.7 110 15:21 25.10.2019
5283 Rain 27 1017 74 10000 3.6 90 14:43 25.10.2019
5284 Rain 27 1017 78 10000 4.1 90 14:23 25.10.2019
5285 Rain 27 1017 78 10000 4.1 90 14:23 25.10.2019
5286 Rain 27 1017 78 10000 4.1 90 13:59 25.10.2019
5287 Rain 27 1017 78 10000 4.1 90 13:39 25.10.2019
5288 Rain 27 1017 78 10000 4.1 90 13:39 25.10.2019
5289 Rain 27 1017 78 10000 4.1 90 13:21 25.10.2019
5290 Rain 27 1016 76 0 9.89 86 12:43 25.10.2019
5291 Clouds 26 1016 78 10000 4.1 90 12:22 25.10.2019
5292 Clouds 26 1016 78 10000 4.1 90 11:59 25.10.2019
5293 Clouds 26 1016 78 10000 4.1 90 11:38 25.10.2019
5294 Clouds 26 1016 78 10000 4.1 90 11:19 25.10.2019
5295 Clouds 26 1016 83 10000 4.6 90 10:41 25.10.2019
5296 Clouds 26 1016 83 10000 4.6 90 10:23 25.10.2019
5297 Clouds 27 1016 78 10000 4.1 100 09:58 25.10.2019
5298 Clouds 27 1016 78 10000 4.1 100 09:38 25.10.2019
5299 Clouds 27 1016 78 10000 4.1 100 09:19 25.10.2019
5300 Thunderstorm 26 1017 83 10000 3.6 90 08:50 25.10.2019
5301 Thunderstorm 26 1017 83 10000 3.6 90 08:32 25.10.2019
5302 Clouds 26 1017 83 10000 4.6 90 07:56 25.10.2019
5303 Clouds 26 1017 83 10000 4.6 90 07:34 25.10.2019
5304 Rain 26 1018 83 10000 4.6 120 06:42 25.10.2019
5305 Clouds 28 1018 74 10000 6.2 90 05:57 25.10.2019
5306 Clouds 28 1018 74 10000 6.2 90 05:37 25.10.2019
5307 Clouds 28 1018 74 10000 5.1 90 04:52 25.10.2019
5308 Clouds 28 1018 74 10000 5.1 90 03:37 25.10.2019
5309 Clouds 28 1017 74 10000 5.7 90 01:54 25.10.2019
5310 Clouds 28 1016 74 10000 6.7 100 00:59 25.10.2019
5311 Clouds 28 1016 74 10000 6.7 100 00:20 25.10.2019
5312 Clouds 28 1016 70 10000 6.7 100 23:40 24.10.2019
5313 Clouds 29 1016 70 10000 6.7 100 23:22 24.10.2019
5314 Clouds 29 1016 66 10000 7.2 80 22:56 24.10.2019
5315 Clouds 29 1016 66 10000 7.2 80 22:37 24.10.2019
5316 Clouds 29 1016 66 10000 7.2 80 22:18 24.10.2019
5317 Clouds 29 1016 70 10000 7.2 80 21:56 24.10.2019
5318 Clouds 29 1016 70 10000 7.2 80 21:37 24.10.2019
5319 Clouds 29 1016 70 10000 7.2 80 21:19 24.10.2019
5320 Clouds 29 1017 70 10000 7.7 80 20:56 24.10.2019
5321 Clouds 29 1017 70 10000 7.7 80 20:56 24.10.2019
5322 Clouds 29 1017 70 10000 7.7 80 20:37 24.10.2019
5323 Clouds 29 1017 70 10000 7.2 80 20:19 24.10.2019
5324 Clouds 29 1017 70 10000 7.2 80 19:43 24.10.2019
5325 Clouds 29 1017 70 10000 7.2 80 19:23 24.10.2019
5326 Clouds 29 1018 70 10000 6.7 90 18:58 24.10.2019
5327 Clouds 29 1018 70 10000 6.7 90 18:39 24.10.2019
5328 Clouds 29 1018 70 10000 6.7 90 18:21 24.10.2019
5329 Clouds 29 1018 74 10000 6.7 80 17:57 24.10.2019
5330 Clouds 29 1018 74 10000 6.7 80 17:38 24.10.2019
5331 Clouds 29 1018 74 10000 6.7 80 17:19 24.10.2019
5332 Clouds 28 1018 78 10000 6.2 90 16:42 24.10.2019
5333 Clouds 28 1018 78 10000 6.2 90 16:24 24.10.2019
5334 Clouds 28 1018 78 10000 6.2 90 15:59 24.10.2019
5335 Clouds 28 1018 78 10000 6.2 90 15:41 24.10.2019
5336 Clouds 28 1018 78 10000 6.2 90 15:23 24.10.2019
5337 Clouds 27 1017 78 10000 4.1 100 14:59 24.10.2019
5338 Rain 27 1017 78 10000 4.1 100 14:41 24.10.2019
5339 Rain 27 1017 78 10000 4.1 100 14:41 24.10.2019
5340 Rain 27 1017 83 10000 3.1 90 14:22 24.10.2019
5341 Rain 27 1017 83 10000 3.1 90 13:57 24.10.2019
5342 Clouds 27 1017 83 10000 3.1 90 13:37 24.10.2019
5343 Clouds 27 1017 83 10000 3.6 90 13:18 24.10.2019
5344 Clouds 27 1017 83 10000 3.6 90 12:55 24.10.2019
5345 Clouds 27 1017 83 10000 3.6 90 12:37 24.10.2019
5346 Clouds 27 1017 83 10000 3.6 90 12:18 24.10.2019
5347 Clouds 27 1016 78 10000 5.1 90 11:54 24.10.2019
5348 Clouds 27 1016 78 10000 5.1 90 11:36 24.10.2019
5349 Clouds 27 1016 78 10000 5.1 90 11:18 24.10.2019
5350 Clouds 26 1016 83 10000 2.1 90 10:41 24.10.2019
5351 Clouds 26 1016 83 10000 2.1 90 10:22 24.10.2019
5352 Thunderstorm 26 1017 83 10000 5.7 90 09:39 24.10.2019
5353 Thunderstorm 26 1017 83 10000 5.7 90 09:39 24.10.2019
5354 Thunderstorm 26 1017 83 10000 5.7 90 09:19 24.10.2019
5355 Thunderstorm 27 1017 78 10000 3.1 80 08:57 24.10.2019
5356 Thunderstorm 27 1017 78 10000 3.1 80 08:38 24.10.2019
5357 Thunderstorm 27 1017 78 10000 3.1 80 08:18 24.10.2019
5358 Clouds 27 1018 78 10000 4.1 100 07:46 24.10.2019
5359 Clouds 27 1018 78 10000 4.1 100 07:23 24.10.2019
5360 Clouds 28 1018 74 10000 4.6 90 06:48 24.10.2019
5361 Clouds 28 1018 74 10000 3.6 90 06:26 24.10.2019
5362 Clouds 28 1018 74 10000 3.6 90 05:50 24.10.2019
5363 Clouds 28 1018 74 10000 3.6 90 05:29 24.10.2019
5364 Clouds 28 1017 78 10000 3.6 80 03:38 24.10.2019
5365 Clouds 28 1017 78 10000 3.6 80 03:18 24.10.2019
5366 Clouds 28 1017 74 10000 3.1 80 02:26 24.10.2019
5367 Clouds 28 1016 78 10000 4.1 60 01:52 24.10.2019
5368 Clouds 28 1016 78 10000 4.1 60 01:28 24.10.2019
5369 Rain 28 1016 70 10000 3.6 60 00:44 24.10.2019
5370 Rain 28 1016 70 10000 3.6 60 00:44 24.10.2019
5371 Rain 28 1016 70 10000 3.6 60 00:23 24.10.2019
5372 Rain 30 1016 66 10000 3.1 110 23:43 23.10.2019
5373 Rain 29 1016 66 10000 3.1 110 23:23 23.10.2019
5374 Rain 29 1016 66 10000 3.1 110 23:23 23.10.2019
5375 Clouds 29 1016 62 10000 4.1 140 22:57 23.10.2019
5376 Clouds 29 1016 62 10000 4.1 140 22:38 23.10.2019
5377 Clouds 29 1016 62 10000 4.1 140 22:19 23.10.2019
5378 Clouds 30 1015 62 10000 4.6 140 21:57 23.10.2019
5379 Clouds 30 1015 62 10000 4.6 140 21:38 23.10.2019
5380 Clouds 30 1015 62 10000 4.6 140 21:20 23.10.2019
5381 Clouds 30 1015 62 10000 5.1 140 20:57 23.10.2019
5382 Clouds 30 1015 62 10000 5.1 140 20:39 23.10.2019
5383 Clouds 30 1015 62 10000 5.1 140 20:20 23.10.2019
5384 Clouds 30 1016 66 10000 4.6 130 19:57 23.10.2019
5385 Clouds 30 1016 66 10000 4.6 130 19:38 23.10.2019
5386 Clouds 30 1016 66 10000 4.6 130 19:18 23.10.2019
5387 Clouds 30 1017 66 10000 4.6 140 18:54 23.10.2019
5388 Clouds 30 1017 66 10000 4.6 140 18:36 23.10.2019
5389 Clouds 30 1017 66 10000 4.6 140 18:36 23.10.2019
5390 Clouds 30 1017 66 10000 4.6 140 18:18 23.10.2019
5391 Clouds 30 1017 70 10000 5.1 130 17:41 23.10.2019
5392 Clouds 30 1017 70 10000 5.1 130 17:20 23.10.2019
5393 Clouds 29 1017 70 10000 4.6 120 16:55 23.10.2019
5394 Clouds 29 1017 70 10000 4.6 120 16:36 23.10.2019
5395 Clouds 29 1017 70 10000 4.6 120 16:36 23.10.2019
5396 Clouds 29 1017 70 10000 4.6 120 16:18 23.10.2019
5397 Clouds 28 1016 78 10000 4.6 120 15:41 23.10.2019
5398 Clouds 28 1016 83 10000 3.1 90 15:21 23.10.2019
5399 Clouds 28 1016 83 10000 3.1 90 14:58 23.10.2019
5400 Clouds 27 1016 83 10000 3.1 90 14:38 23.10.2019
5401 Clouds 27 1016 78 10000 2.6 90 14:19 23.10.2019
5402 Clouds 27 1016 78 10000 2.6 90 13:57 23.10.2019
5403 Clouds 27 1016 78 10000 2.6 90 13:38 23.10.2019
5404 Clouds 27 1016 78 10000 2.6 90 13:20 23.10.2019
5405 Clouds 27 1016 78 10000 2.1 80 12:41 23.10.2019
5406 Clouds 27 1016 78 10000 2.1 80 12:20 23.10.2019
5407 Clouds 28 1015 74 0 4.53 81 11:58 23.10.2019
5408 Clouds 28 1015 74 0 4.53 81 11:58 23.10.2019
5409 Clouds 28 1015 74 0 4.53 81 11:40 23.10.2019
5410 Clouds 27 1016 83 10000 2.1 80 11:21 23.10.2019
5411 Clouds 27 1016 83 10000 2.1 80 10:59 23.10.2019
5412 Clouds 27 1016 83 10000 2.1 80 10:41 23.10.2019
5413 Clouds 27 1016 83 10000 2.1 80 10:22 23.10.2019
5414 Clouds 25 1016 88 10000 1.5 70 09:41 23.10.2019
5415 Clouds 25 1016 88 10000 1.5 70 09:23 23.10.2019
5416 Clouds 25 1016 88 10000 0.5 0 08:56 23.10.2019
5417 Clouds 25 1016 88 10000 0.5 0 08:38 23.10.2019
5418 Clouds 25 1016 88 10000 0.5 0 08:18 23.10.2019
5419 Clouds 26 1017 88 10000 1 0 07:45 23.10.2019
5420 Clouds 26 1017 88 10000 1 0 07:21 23.10.2019
5421 Clouds 26 1017 88 10000 1.5 70 06:45 23.10.2019
5422 Clouds 26 1017 88 10000 1.5 70 06:19 23.10.2019
5423 Clouds 26 1017 88 0 1.5 80 05:20 23.10.2019
5424 Clouds 26 1016 79 0 4.76 89 03:58 23.10.2019
5425 Clouds 28 1016 78 10000 2.6 110 02:44 23.10.2019
5426 Clouds 28 1016 74 10000 3.1 140 01:43 23.10.2019
5427 Clouds 27 1015 79 0 3.87 90 01:19 23.10.2019
5428 Clouds 27 1014 79 0 3.87 90 00:35 23.10.2019
5429 Clouds 29 1015 66 10000 4.6 140 23:57 22.10.2019
5430 Clouds 29 1015 66 10000 4.6 140 23:37 22.10.2019
5431 Clouds 30 1015 62 10000 4.1 140 23:18 22.10.2019
5432 Clouds 30 1015 62 10000 4.1 140 22:41 22.10.2019
5433 Clouds 30 1015 62 10000 4.1 140 22:41 22.10.2019
5434 Clouds 30 1015 62 10000 4.1 140 22:23 22.10.2019
5435 Clouds 30 1015 66 10000 3.6 140 21:57 22.10.2019
5436 Clouds 29 1015 66 10000 3.6 140 21:39 22.10.2019
5437 Clouds 30 1015 62 10000 3.1 140 21:19 22.10.2019
5438 Clouds 30 1015 62 10000 3.1 140 20:59 22.10.2019
5439 Clouds 30 1015 62 10000 3.1 140 20:41 22.10.2019
5440 Clouds 30 1015 62 10000 3.1 140 20:23 22.10.2019
5441 Clouds 30 1016 62 10000 2.6 120 19:59 22.10.2019
5442 Clouds 30 1016 62 10000 2.6 120 19:41 22.10.2019
5443 Clouds 30 1016 62 10000 2.6 120 19:23 22.10.2019
5444 Clouds 30 1017 62 10000 2.6 130 18:56 22.10.2019
5445 Clouds 30 1017 62 10000 2.6 130 18:38 22.10.2019
5446 Clouds 30 1017 62 10000 2.6 130 18:20 22.10.2019
5447 Clouds 30 1018 66 10000 2.6 150 17:55 22.10.2019
5448 Clouds 30 1018 66 10000 2.6 150 17:36 22.10.2019
5449 Clouds 29 1018 66 10000 2.6 150 17:18 22.10.2019
5450 Clouds 30 1018 74 10000 2.6 140 16:39 22.10.2019
5451 Clouds 29 1018 74 10000 2.6 140 16:20 22.10.2019
5452 Clouds 29 1018 74 10000 2.6 140 16:20 22.10.2019
5453 Clouds 28 1018 78 10000 2.6 110 15:59 22.10.2019
5454 Clouds 28 1018 78 10000 2.6 110 15:41 22.10.2019
5455 Clouds 29 1018 78 10000 2.6 110 15:19 22.10.2019
5456 Clouds 27 1017 88 10000 1.5 80 14:46 22.10.2019
5457 Clouds 27 1017 88 10000 1.5 80 14:22 22.10.2019
5458 Clouds 27 1017 88 10000 1.5 90 13:55 22.10.2019
5459 Clouds 27 1017 88 10000 1.5 90 13:55 22.10.2019
5460 Clouds 26 1017 88 10000 1.5 90 13:37 22.10.2019
5461 Clouds 26 1017 88 10000 1.5 90 13:18 22.10.2019
5462 Clouds 26 1017 88 10000 1 0 12:41 22.10.2019
5463 Clouds 26 1017 88 10000 1 0 12:22 22.10.2019
5464 Clouds 26 1016 88 10000 2.6 140 11:59 22.10.2019
5465 Clouds 26 1016 88 10000 2.6 140 11:40 22.10.2019
5466 Clouds 26 1016 88 10000 2.6 140 11:22 22.10.2019
5467 Clouds 28 1015 76 0 4.68 121 10:58 22.10.2019
5468 Clouds 28 1015 76 0 4.68 121 10:37 22.10.2019
5469 Clouds 27 1016 83 10000 3.6 120 10:19 22.10.2019
5470 Clouds 27 1016 83 10000 3.6 120 09:55 22.10.2019
5471 Clouds 27 1016 83 10000 3.6 120 09:37 22.10.2019
5472 Clouds 27 1016 83 10000 3.6 120 09:19 22.10.2019
5473 Clouds 27 1017 88 10000 3.6 120 08:42 22.10.2019
5474 Clouds 27 1017 88 10000 2.1 120 08:22 22.10.2019
5475 Clouds 27 1017 88 10000 2.1 120 07:49 22.10.2019
5476 Clouds 27 1017 88 10000 2.1 120 07:27 22.10.2019
5477 Clouds 27 1018 88 10000 2.1 140 06:51 22.10.2019
5478 Clouds 27 1018 88 10000 2.1 140 06:31 22.10.2019
5479 Clouds 28 1018 78 10000 2.6 110 05:57 22.10.2019
5480 Clouds 27 1018 78 10000 2.6 110 05:21 22.10.2019
5481 Thunderstorm 28 1017 83 10000 3.1 110 02:47 22.10.2019
5482 Thunderstorm 28 1017 83 10000 3.1 110 02:28 22.10.2019
5483 Clouds 28 1016 83 10000 4.1 140 01:28 22.10.2019
5484 Clouds 29 1016 74 10000 4.6 130 00:57 22.10.2019
5485 Clouds 29 1016 74 10000 4.6 130 00:39 22.10.2019
5486 Clouds 29 1016 74 10000 4.6 130 00:20 22.10.2019
5487 Clouds 30 1016 74 10000 5.1 140 23:54 21.10.2019
5488 Clouds 30 1016 74 10000 5.1 140 23:36 21.10.2019
5489 Clouds 30 1016 74 10000 5.1 140 23:36 21.10.2019
5490 Clouds 30 1016 74 10000 5.1 140 23:18 21.10.2019
5491 Clouds 29 1016 74 10000 5.7 120 22:54 21.10.2019
5492 Clouds 29 1016 74 10000 5.7 120 22:54 21.10.2019
5493 Clouds 30 1016 74 10000 5.7 120 22:36 21.10.2019
5494 Clouds 30 1016 74 10000 5.7 120 22:18 21.10.2019
5495 Clouds 31 1016 66 10000 4.6 150 21:40 21.10.2019
5496 Clouds 31 1016 66 10000 4.6 150 21:22 21.10.2019
5497 Clouds 31 1016 70 10000 5.1 160 20:58 21.10.2019
5498 Clouds 31 1016 70 10000 5.1 160 20:40 21.10.2019
5499 Clouds 31 1016 70 10000 5.1 160 20:21 21.10.2019
5500 Clouds 31 1017 70 10000 4.1 150 19:58 21.10.2019
5501 Clouds 30 1017 70 10000 4.1 150 19:40 21.10.2019
5502 Clouds 30 1017 66 10000 4.1 150 19:21 21.10.2019
5503 Clouds 30 1017 66 10000 4.1 150 18:55 21.10.2019
5504 Clouds 30 1017 66 10000 4.1 150 18:37 21.10.2019
5505 Clouds 30 1016 77 0 0.45 63 18:18 21.10.2019
5506 Clouds 29 1016 78 0 3 129 17:55 21.10.2019
5507 Clouds 29 1017 78 0 3 129 17:37 21.10.2019
5508 Clouds 29 1016 78 0 3 129 17:18 21.10.2019
5509 Clouds 29 1016 77 0 3 129 16:54 21.10.2019
5510 Clouds 29 1016 76 0 3 129 16:36 21.10.2019
5511 Clouds 29 1017 74 10000 3.1 140 16:18 21.10.2019
5512 Clouds 30 1017 74 10000 3.1 140 15:42 21.10.2019
5513 Clouds 27 1017 83 10000 1.5 150 15:22 21.10.2019
5514 Clouds 27 1017 83 10000 1.5 150 14:56 21.10.2019
5515 Clouds 27 1017 83 10000 1.5 150 14:37 21.10.2019
5516 Clouds 27 1016 88 10000 1 0 14:18 21.10.2019
5517 Clouds 26 1016 88 10000 1 0 13:42 21.10.2019
5518 Clouds 26 1016 88 10000 1 0 13:21 21.10.2019
5519 Clouds 25 1016 94 10000 1 0 12:59 21.10.2019
5520 Clouds 25 1016 94 10000 1 0 12:40 21.10.2019
5521 Clouds 25 1016 94 10000 1 0 12:21 21.10.2019
5522 Clouds 25 1015 94 10000 1 0 11:55 21.10.2019
5523 Clouds 25 1015 94 10000 1 0 11:36 21.10.2019
5524 Clouds 25 1015 94 10000 1 0 11:18 21.10.2019
5525 Clouds 28 1014 76 0 3.88 156.683 10:54 21.10.2019
5526 Clouds 28 1014 76 0 3.88 156.683 10:54 21.10.2019
5527 Clouds 28 1014 76 0 3.88 156.683 10:54 21.10.2019
5528 Clouds 28 1014 76 0 3.88 156.683 10:54 21.10.2019
5529 Clouds 28 1014 76 0 3.88 156.683 10:36 21.10.2019
5530 Clouds 28 1014 76 0 3.88 156.683 10:18 21.10.2019
5531 Clouds 28 1014 76 0 3.88 156.683 09:39 21.10.2019
5532 Clouds 26 1016 88 10000 1 0 09:21 21.10.2019
5533 Clouds 26 1016 88 10000 1 0 08:41 21.10.2019
5534 Clouds 26 1016 88 10000 1 0 08:23 21.10.2019
5535 Clouds 26 1016 88 10000 1 0 08:23 21.10.2019
5536 Clouds 26 1016 88 10000 1.5 160 07:46 21.10.2019
5537 Clouds 26 1016 88 10000 1.5 160 07:23 21.10.2019
5538 Clouds 27 1017 88 10000 2.1 160 07:00 21.10.2019
5539 Clouds 27 1017 88 10000 2.1 160 06:41 21.10.2019
5540 Clouds 27 1017 88 10000 2.1 160 06:18 21.10.2019
5541 Clouds 27 1017 88 10000 1 0 05:22 21.10.2019
5542 Clouds 28 1016 83 10000 1 0 03:40 21.10.2019
5543 Clouds 28 1016 83 10000 1 0 02:39 21.10.2019
5544 Clouds 28 1015 83 10000 3.1 170 02:19 21.10.2019
5545 Clouds 28 1015 83 10000 3.1 170 01:44 21.10.2019
5546 Clouds 29 1015 74 10000 3.6 180 00:52 21.10.2019
5547 Thunderstorm 29 1015 70 10000 4.6 170 00:28 21.10.2019
5548 Thunderstorm 29 1015 70 10000 4.6 170 23:57 20.10.2019
5549 Thunderstorm 30 1015 70 10000 4.6 170 23:39 20.10.2019
5550 Clouds 31 1015 70 10000 5.1 160 23:20 20.10.2019
5551 Clouds 32 1015 70 10000 5.1 160 22:41 20.10.2019
5552 Clouds 32 1015 70 10000 5.1 160 22:23 20.10.2019
5553 Clouds 32 1015 66 10000 3.1 190 21:59 20.10.2019
5554 Clouds 32 1015 66 10000 3.1 190 21:39 20.10.2019
5555 Clouds 31 1015 70 10000 4.6 220 21:21 20.10.2019
5556 Clouds 32 1015 70 10000 4.6 220 20:54 20.10.2019
5557 Clouds 32 1015 70 10000 4.6 220 20:36 20.10.2019
5558 Clouds 31 1015 70 10000 4.6 220 20:18 20.10.2019
5559 Clouds 31 1016 74 10000 5.1 210 19:55 20.10.2019
5560 Clouds 31 1016 74 10000 5.1 210 19:36 20.10.2019
5561 Clouds 31 1016 74 10000 5.1 210 19:18 20.10.2019
5562 Clouds 31 1016 70 10000 5.1 200 18:40 20.10.2019
5563 Clouds 31 1016 70 10000 5.1 200 18:20 20.10.2019
5564 Clouds 31 1016 74 10000 5.7 200 17:56 20.10.2019
5565 Clouds 31 1016 74 10000 5.7 200 17:37 20.10.2019
5566 Clouds 31 1016 74 10000 5.7 200 17:19 20.10.2019
5567 Rain 30 1016 79 10000 5.1 220 16:43 20.10.2019
5568 Rain 30 1016 79 10000 5.1 220 16:24 20.10.2019
5569 Clouds 30 1016 83 10000 3.6 190 15:59 20.10.2019
5570 Clouds 30 1016 83 10000 3.6 190 15:38 20.10.2019
5571 Clouds 30 1016 83 10000 3.6 190 15:20 20.10.2019
5572 Clouds 29 1015 83 10000 3.6 170 14:58 20.10.2019
5573 Clouds 29 1015 83 10000 3.6 170 14:38 20.10.2019
5574 Clouds 28 1015 83 10000 4.1 180 14:19 20.10.2019
5575 Clouds 28 1015 83 10000 4.1 180 13:55 20.10.2019
5576 Clouds 28 1015 83 10000 4.1 180 13:36 20.10.2019
5577 Clouds 28 1015 83 10000 4.1 180 13:18 20.10.2019
5578 Clouds 28 1014 83 10000 4.1 170 12:56 20.10.2019
5579 Clouds 28 1014 83 10000 4.1 170 12:37 20.10.2019
5580 Clouds 28 1014 83 10000 4.1 170 12:19 20.10.2019
5581 Clouds 27 1014 88 10000 4.1 170 11:54 20.10.2019
5582 Clouds 27 1014 88 10000 4.1 170 11:36 20.10.2019
5583 Clouds 27 1014 88 10000 4.1 170 11:18 20.10.2019
5584 Clouds 28 1014 83 10000 4.6 170 10:40 20.10.2019
5585 Clouds 28 1014 83 10000 4.6 170 10:22 20.10.2019
5586 Clouds 28 1014 83 10000 4.6 170 09:57 20.10.2019
5587 Clouds 28 1014 83 10000 4.6 170 09:39 20.10.2019
5588 Clouds 28 1014 83 10000 4.6 170 09:20 20.10.2019
5589 Clouds 27 1014 88 10000 5.1 160 08:45 20.10.2019
5590 Clouds 27 1014 88 10000 5.1 160 08:22 20.10.2019
5591 Clouds 27 1015 88 10000 5.1 160 07:49 20.10.2019
5592 Clouds 27 1015 88 10000 5.1 160 07:49 20.10.2019
5593 Clouds 27 1015 88 10000 5.1 160 07:29 20.10.2019
5594 Clouds 27 1015 88 10000 4.6 170 06:31 20.10.2019
5595 Clouds 28 1015 83 10000 4.6 160 04:41 20.10.2019
5596 Clouds 28 1015 83 10000 4.1 150 03:59 20.10.2019
5597 Clouds 28 1015 83 10000 4.1 150 03:39 20.10.2019
5598 Clouds 28 1015 83 10000 4.1 150 03:18 20.10.2019
5599 Clouds 28 1014 83 10000 3.1 180 02:28 20.10.2019
5600 Clouds 28 1014 83 10000 3.1 180 01:54 20.10.2019
5601 Clouds 29 1014 79 10000 5.1 160 01:23 20.10.2019
5602 Clouds 29 1014 79 10000 5.1 160 00:53 20.10.2019
5603 Clouds 29 1014 79 10000 5.1 160 00:21 20.10.2019
5604 Clouds 29 1014 79 10000 5.1 170 23:55 19.10.2019
5605 Clouds 29 1014 79 10000 5.1 170 23:37 19.10.2019
5606 Clouds 29 1014 79 10000 5.1 170 23:19 19.10.2019
5607 Rain 29 1013 78 0 5.82 150.687 22:41 19.10.2019
5608 Clouds 29 1014 79 10000 5.7 170 22:23 19.10.2019
5609 Clouds 29 1014 79 10000 5.7 170 21:58 19.10.2019
5610 Clouds 29 1014 79 10000 5.7 170 21:40 19.10.2019
5611 Clouds 29 1014 79 10000 5.7 170 21:40 19.10.2019
5612 Clouds 29 1014 79 10000 5.7 170 21:20 19.10.2019
5613 Clouds 29 1014 79 10000 5.7 170 20:43 19.10.2019
5614 Clouds 29 1013 77 0 0.45 250 20:21 19.10.2019
5615 Clouds 29 1014 77 0 0.45 360 19:45 19.10.2019
5616 Clouds 29 1014 77 0 0.45 265 19:27 19.10.2019
5617 Clouds 29 1015 79 10000 2.1 160 18:59 19.10.2019
5618 Clouds 29 1015 79 10000 2.1 160 18:41 19.10.2019
5619 Clouds 29 1015 79 10000 2.1 160 18:41 19.10.2019
5620 Clouds 29 1015 79 10000 2.1 160 18:22 19.10.2019
5621 Clouds 30 1015 74 10000 7.2 150 17:41 19.10.2019
5622 Clouds 30 1015 74 10000 7.2 150 17:41 19.10.2019
5623 Clouds 30 1015 74 10000 6.2 160 17:23 19.10.2019
5624 Clouds 29 1015 74 10000 6.2 160 16:57 19.10.2019
5625 Clouds 29 1015 74 10000 6.2 160 16:38 19.10.2019
5626 Clouds 29 1015 74 10000 6.2 160 16:38 19.10.2019
5627 Clouds 29 1015 74 10000 6.2 160 16:19 19.10.2019
5628 Clouds 28 1015 78 10000 5.7 150 15:43 19.10.2019
5629 Clouds 28 1015 78 10000 5.7 150 15:24 19.10.2019
5630 Clouds 27 1014 78 10000 5.1 150 14:39 19.10.2019
5631 Clouds 27 1014 78 10000 5.1 150 14:39 19.10.2019
5632 Clouds 27 1014 78 10000 5.1 150 14:39 19.10.2019
5633 Clouds 27 1013 83 10000 5.1 150 14:21 19.10.2019
5634 Clouds 27 1013 83 10000 5.1 150 14:21 19.10.2019
5635 Clouds 27 1013 83 10000 5.1 150 13:58 19.10.2019
5636 Clouds 27 1013 83 10000 5.1 150 13:40 19.10.2019
5637 Clouds 27 1013 83 10000 5.1 150 13:20 19.10.2019
5638 Clouds 27 1013 83 10000 5.1 150 12:58 19.10.2019
5639 Clouds 27 1013 83 10000 5.1 150 12:38 19.10.2019
5640 Clouds 27 1013 83 10000 5.1 150 12:19 19.10.2019
5641 Clouds 27 1013 83 10000 4.6 150 11:41 19.10.2019
5642 Clouds 27 1013 83 10000 4.6 150 11:23 19.10.2019
5643 Rain 28 1013 77 0 5.01 150.778 10:56 19.10.2019
5644 Rain 28 1013 77 0 5.01 150.778 10:38 19.10.2019
5645 Rain 28 1013 77 0 5.01 150.778 10:20 19.10.2019
5646 Rain 28 1013 77 0 5.01 150.778 09:43 19.10.2019
5647 Rain 28 1013 77 0 5.01 150.778 09:25 19.10.2019
5648 Clouds 28 1013 76 0 6.15 144.868 08:59 19.10.2019
5649 Clouds 28 1013 76 0 6.15 144.868 08:59 19.10.2019
5650 Clouds 28 1013 76 0 6.15 144.868 08:59 19.10.2019
5651 Clouds 28 1013 76 0 6.15 144.868 08:40 19.10.2019
5652 Clouds 28 1013 76 0 6.15 144.868 08:21 19.10.2019
5653 Clouds 28 1013 76 0 6.15 144.868 07:44 19.10.2019
5654 Clouds 28 1013 76 0 6.15 144.868 07:25 19.10.2019
5655 Clouds 28 1013 76 0 6.15 144.868 07:25 19.10.2019
5656 Clouds 28 1013 76 0 6.15 144.868 06:47 19.10.2019
5657 Rain 28 1014 76 0 5.75 146.929 05:58 19.10.2019
5658 Clouds 27 1015 83 10000 2.6 160 05:32 19.10.2019
5659 Clouds 27 1014 83 10000 2.1 140 04:21 19.10.2019
5660 Clouds 27 1013 83 10000 2.1 160 02:44 19.10.2019
5661 Clouds 28 1013 78 10000 2.1 110 01:53 19.10.2019
5662 Clouds 28 1014 83 10000 1.5 160 01:20 19.10.2019
5663 Clouds 28 1014 83 10000 1.5 160 01:20 19.10.2019
5664 Clouds 28 1014 83 10000 1.5 160 00:47 19.10.2019
5665 Clouds 28 1014 83 10000 1.5 160 00:25 19.10.2019
5666 Clouds 29 1013 74 10000 2.6 110 23:43 18.10.2019
5667 Clouds 29 1013 74 10000 2.6 110 23:25 18.10.2019
5668 Clouds 29 1013 74 10000 3.1 80 22:56 18.10.2019
5669 Clouds 29 1013 74 10000 3.1 80 22:38 18.10.2019
5670 Clouds 29 1013 74 10000 3.1 80 22:20 18.10.2019
5671 Clouds 29 1013 74 10000 3.1 80 22:20 18.10.2019
5672 Rain 28 1013 74 10000 2.1 80 21:57 18.10.2019
5673 Rain 28 1013 74 10000 2.1 80 21:38 18.10.2019
5674 Rain 28 1013 74 10000 2.1 80 21:20 18.10.2019
5675 Rain 29 1014 70 10000 5.1 340 20:56 18.10.2019
5676 Rain 30 1014 70 10000 5.1 340 20:38 18.10.2019
5677 Rain 30 1014 70 10000 5.1 340 20:19 18.10.2019
5678 Clouds 29 1014 74 10000 3.6 10 19:54 18.10.2019
5679 Clouds 29 1014 74 10000 3.6 10 19:36 18.10.2019
5680 Clouds 29 1014 74 10000 3.6 10 19:18 18.10.2019
5681 Clouds 30 1015 70 10000 3.1 350 18:42 18.10.2019
5682 Clouds 30 1015 70 10000 3.1 350 18:23 18.10.2019
5683 Clouds 30 1015 70 10000 1 0 17:57 18.10.2019
5684 Clouds 30 1015 70 10000 1 0 17:38 18.10.2019
5685 Clouds 30 1015 74 10000 2.1 210 17:20 18.10.2019
5686 Clouds 29 1015 74 10000 2.1 210 16:44 18.10.2019
5687 Clouds 29 1015 74 10000 2.1 210 16:44 18.10.2019
5688 Clouds 29 1015 74 10000 2.1 210 16:22 18.10.2019
5689 Clouds 28 1014 78 10000 1.5 170 15:58 18.10.2019
5690 Clouds 28 1014 78 10000 1.5 170 15:39 18.10.2019
5691 Clouds 26 1014 94 10000 0.5 0 15:20 18.10.2019
5692 Clouds 27 1014 94 10000 0.5 0 14:57 18.10.2019
5693 Clouds 27 1014 94 10000 0.5 0 14:38 18.10.2019
5694 Clouds 25 1014 94 10000 0.83 304.998 14:19 18.10.2019
5695 Clouds 25 1014 94 10000 0.83 304.998 13:57 18.10.2019
5696 Clouds 24 1014 94 10000 0.83 304.998 13:38 18.10.2019
5697 Clouds 24 1014 94 10000 0.13 176.158 13:19 18.10.2019
5698 Clouds 24 1014 94 10000 1 0 12:55 18.10.2019
5699 Clouds 24 1014 94 10000 1 0 12:37 18.10.2019
5700 Clouds 24 1014 94 10000 1 0 12:19 18.10.2019
5701 Clear 24 1013 94 10000 1.76 175.299 11:42 18.10.2019
5702 Clear 24 1013 94 10000 1.76 175.299 11:21 18.10.2019
5703 Clear 24 1013 94 10000 1.76 175.299 10:59 18.10.2019
5704 Clear 24 1013 94 10000 1.76 175.299 10:59 18.10.2019
5705 Clear 24 1013 94 10000 1.76 175.299 10:41 18.10.2019
5706 Clear 24 1014 94 10000 1.76 175.299 10:22 18.10.2019
5707 Clear 24 1014 94 10000 1.76 175.299 09:57 18.10.2019
5708 Clear 24 1014 94 10000 1.76 175.299 09:39 18.10.2019
5709 Clear 24 1014 94 10000 1.76 175.299 09:39 18.10.2019
5710 Clear 24 1014 94 10000 2.27 162.565 09:19 18.10.2019
5711 Clear 24 1014 94 10000 1.5 200 08:45 18.10.2019
5712 Clear 24 1014 94 10000 1.5 200 08:25 18.10.2019
5713 Clear 25 1014 94 10000 2.27 162.565 07:57 18.10.2019
5714 Clear 25 1014 94 10000 2.27 162.565 07:38 18.10.2019
5715 Clear 25 1014 88 10000 2.27 162.565 06:56 18.10.2019
5716 Clear 25 1014 88 10000 2.27 162.565 06:36 18.10.2019
5717 Clear 25 1014 88 10000 0.96 136.436 06:18 18.10.2019
5718 Clear 25 1014 94 10000 1.5 180 05:52 18.10.2019
5719 Clear 26 1014 94 10000 1.5 180 05:18 18.10.2019
5720 Clear 27 1014 83 10000 2.1 340 03:38 18.10.2019
5721 Clear 27 1014 83 10000 2.1 340 02:54 18.10.2019
5722 Clear 27 1014 83 10000 2.1 340 02:32 18.10.2019
5723 Clouds 28 1013 78 10000 2.1 350 01:39 18.10.2019
5724 Clouds 28 1013 78 10000 2.1 350 01:20 18.10.2019
5725 Clouds 28 1013 70 10000 3.6 340 00:41 18.10.2019
5726 Clouds 28 1013 70 10000 3.6 340 00:19 18.10.2019
5727 -273 0 0 0 0 0 23:39 17.10.2019
5728 Clouds 29 1013 74 10000 3.6 340 23:20 17.10.2019
5729 Clouds 29 1013 70 10000 3.6 310 22:56 17.10.2019
5730 Clouds 29 1013 70 10000 3.6 310 22:56 17.10.2019
5731 -273 0 0 0 0 0 22:56 17.10.2019
5732 Clouds 29 1013 70 10000 3.6 310 22:38 17.10.2019
5733 Clouds 30 1013 70 10000 3.6 310 22:19 17.10.2019
5734 Clouds 29 1013 74 10000 4.1 330 21:56 17.10.2019
5735 Clouds 29 1013 74 10000 4.1 330 21:38 17.10.2019
5736 Clouds 29 1013 74 10000 4.1 330 21:20 17.10.2019
5737 Clouds 29 1013 74 10000 4.1 330 21:20 17.10.2019
5738 Clouds 29 1013 74 10000 4.1 290 20:57 17.10.2019
5739 Clouds 29 1013 74 10000 4.1 290 20:38 17.10.2019
5740 Clouds 29 1013 74 10000 4.1 290 20:19 17.10.2019
5741 Rain 30 1015 74 10000 3.6 280 19:56 17.10.2019
5742 Rain 29 1015 74 10000 3.6 280 19:37 17.10.2019
5743 Rain 29 1015 74 10000 3.6 280 19:18 17.10.2019
5744 Rain 31 1015 70 10000 4.6 270 18:42 17.10.2019
5745 Rain 30 1015 70 10000 4.6 270 18:21 17.10.2019
5746 Clouds 29 1015 74 10000 4.1 270 17:55 17.10.2019
5747 Clouds 29 1015 74 10000 4.1 270 17:37 17.10.2019
5748 Clouds 29 1015 78 10000 3.6 260 17:19 17.10.2019
5749 Clouds 28 1015 78 10000 3.6 260 16:42 17.10.2019
5750 Clouds 28 1015 78 10000 3.6 260 16:42 17.10.2019
5751 Clouds 28 1015 78 10000 3.6 260 16:19 17.10.2019
5752 Clouds 28 1015 83 10000 3.6 260 15:59 17.10.2019
5753 Clouds 28 1015 83 10000 3.6 260 15:40 17.10.2019
5754 Clouds 28 1015 83 10000 3.6 260 15:20 17.10.2019
5755 -273 0 0 0 0 0 14:57 17.10.2019
5756 Clouds 27 1014 88 10000 1.5 250 14:38 17.10.2019
5757 Clouds 26 1014 88 10000 1.5 250 14:20 17.10.2019
5758 Clouds 25 1014 94 10000 2.1 240 13:41 17.10.2019
5759 Clouds 25 1013 94 10000 1.5 240 13:21 17.10.2019
5760 Clouds 25 1013 94 10000 1.5 240 12:58 17.10.2019
5761 Clouds 25 1013 94 10000 1.5 240 12:38 17.10.2019
5762 Clouds 25 1013 94 10000 1.5 240 12:19 17.10.2019
5763 Clouds 27 1013 79 0 5.234 256 11:55 17.10.2019
5764 Clouds 27 1013 79 0 5.234 256 11:55 17.10.2019
5765 Clouds 27 1013 79 0 5.234 256 11:55 17.10.2019
5766 Clouds 27 1013 79 0 5.234 256 11:55 17.10.2019
5767 Clouds 27 1013 79 0 5.234 256 11:37 17.10.2019
5768 Clouds 27 1013 79 0 5.234 256 11:18 17.10.2019
5769 Clouds 27 1013 79 0 5.234 256 10:42 17.10.2019
5770 Clouds 27 1013 79 0 5.234 256 10:41 17.10.2019
5771 Clouds 27 1013 79 0 5.234 256 10:19 17.10.2019
5772 Clouds 27 1013 79 0 5.234 256 09:56 17.10.2019
5773 Clouds 27 1013 79 0 5.234 256 09:56 17.10.2019
5774 Clouds 27 1013 80 0 4.259 255 09:38 17.10.2019
5775 Clouds 25 1013 88 10000 1.5 250 09:19 17.10.2019
5776 Clouds 25 1013 88 10000 1.5 250 08:48 17.10.2019
5777 Clouds 25 1013 88 10000 1.5 250 08:27 17.10.2019
5778 Clouds 24 1014 94 10000 2.1 230 07:59 17.10.2019
5779 Clouds 24 1014 94 10000 2.1 230 07:41 17.10.2019
5780 Clouds 24 1014 94 10000 2.1 230 07:21 17.10.2019
5781 Clouds 24 1014 94 10000 2.1 230 07:21 17.10.2019
5782 Clouds 25 1014 88 10000 2.1 160 06:43 17.10.2019
5783 Clouds 26 1015 83 10000 2.1 150 06:24 17.10.2019
5784 Clouds 26 1015 83 10000 2.1 150 05:59 17.10.2019
5785 Clouds 26 1015 83 10000 2.1 150 05:35 17.10.2019
5786 Clouds 25 1015 83 10000 1.5 150 04:58 17.10.2019
5787 Clouds 25 1015 83 10000 1.5 150 04:31 17.10.2019
5788 Clouds 26 1015 78 10000 1.5 160 03:45 17.10.2019
5789 Clouds 27 1014 74 10000 1.5 180 01:56 17.10.2019
5790 Clouds 27 1014 74 10000 1.5 180 01:56 17.10.2019
5791 Clouds 28 1014 69 10000 2.6 180 00:42 17.10.2019
5792 Clouds 29 1014 66 10000 3.1 180 00:20 17.10.2019
5793 Clouds 29 1014 66 10000 3.1 180 23:42 16.10.2019
5794 Clouds 30 1014 66 10000 3.1 180 23:22 16.10.2019
5795 Clouds 30 1014 62 10000 2.6 220 22:58 16.10.2019
5796 Clouds 30 1014 62 10000 2.6 220 22:38 16.10.2019
5797 Clouds 30 1014 62 10000 2.6 200 22:20 16.10.2019
5798 Clouds 30 1014 62 10000 2.6 200 21:58 16.10.2019
5799 Clouds 30 1014 62 10000 2.6 200 21:38 16.10.2019
5800 Clouds 30 1014 62 10000 2.6 200 21:20 16.10.2019
5801 Clouds 30 1015 62 10000 3.1 240 20:59 16.10.2019
5802 Clouds 30 1015 62 10000 3.1 240 20:59 16.10.2019
5803 Clouds 30 1015 62 10000 3.1 240 20:41 16.10.2019
5804 Clouds 30 1015 58 10000 3.1 220 20:22 16.10.2019
5805 Clouds 30 1015 58 10000 3.1 220 19:59 16.10.2019
5806 Clouds 30 1015 58 10000 3.1 220 19:40 16.10.2019
5807 Clouds 30 1015 58 10000 3.1 220 19:21 16.10.2019
5808 -273 0 0 0 0 0 18:56 16.10.2019
5809 Clouds 30 1016 58 10000 3.1 150 18:56 16.10.2019
5810 Clouds 30 1016 58 10000 3.1 150 18:56 16.10.2019
5811 Clouds 30 1016 58 10000 3.1 150 18:37 16.10.2019
5812 Clouds 30 1016 58 10000 3.1 150 18:18 16.10.2019
5813 Clouds 29 1016 62 10000 2.6 180 17:54 16.10.2019
5814 Clouds 30 1016 62 10000 2.6 180 17:36 16.10.2019
5815 Clouds 29 1017 65 10000 2.6 170 17:18 16.10.2019
5816 Clouds 29 1017 65 10000 2.6 170 16:43 16.10.2019
5817 Clouds 28 1016 74 10000 2.1 140 16:21 16.10.2019
5818 Clouds 28 1016 74 10000 2.1 140 15:58 16.10.2019
5819 Clouds 28 1016 74 10000 2.1 140 15:39 16.10.2019
5820 Clouds 28 1016 74 10000 2.1 140 15:39 16.10.2019
5821 Clouds 28 1016 74 10000 2.1 140 15:39 16.10.2019
5822 Clouds 25 1016 94 10000 0.5 0 15:19 16.10.2019
5823 Clouds 25 1016 94 10000 0.5 0 14:58 16.10.2019
5824 Clouds 25 1016 94 10000 0.5 0 14:38 16.10.2019
5825 Clouds 24 1016 94 10000 0.5 0 14:19 16.10.2019
5826 Clouds 23 1016 94 10000 2.511 146 13:57 16.10.2019
5827 Clouds 23 1016 94 10000 2.511 146 13:56 16.10.2019
5828 Clouds 23 1016 94 10000 2.511 146 13:38 16.10.2019
5829 Clouds 23 1016 94 10000 2.511 146 13:38 16.10.2019
5830 Clouds 22 1016 94 10000 2.511 146 13:19 16.10.2019
5831 -273 0 0 0 0 0 12:42 16.10.2019
5832 Clouds 21 1016 94 10000 3.553 129 12:19 16.10.2019
5833 Clouds 21 1015 94 10000 3.553 129 11:44 16.10.2019
5834 Clouds 21 1015 94 10000 3.553 129 11:19 16.10.2019
5835 Clouds 22 1015 94 10000 3.553 129 10:41 16.10.2019
5836 Clouds 22 1015 94 10000 3.553 129 10:22 16.10.2019
5837 Clouds 22 1015 94 10000 3.553 129 10:22 16.10.2019
5838 Clouds 22 1016 94 10000 3.553 129 09:58 16.10.2019
5839 Clouds 22 1016 94 10000 2.943 120 09:38 16.10.2019
5840 Clouds 22 1016 94 10000 3.687 96 09:20 16.10.2019
5841 Clouds 23 1016 88 10000 1 0 08:43 16.10.2019
5842 Clouds 23 1016 88 10000 1 0 08:25 16.10.2019
5843 Clouds 22 1016 94 10000 0.5 0 07:56 16.10.2019
5844 Clouds 22 1016 94 10000 0.5 0 07:56 16.10.2019
5845 Clouds 22 1016 94 10000 0.5 0 07:38 16.10.2019
5846 Clouds 22 1016 94 10000 0.5 0 07:19 16.10.2019
5847 Clouds 23 1016 88 10000 0.5 0 06:40 16.10.2019
5848 Clouds 23 1017 88 10000 4.473 92 05:56 16.10.2019
5849 Clouds 26 1016 74 10000 2.1 100 03:27 16.10.2019
5850 Clouds 26 1016 74 10000 2.6 90 02:50 16.10.2019
5851 Clouds 27 1016 69 10000 3.1 90 01:20 16.10.2019
5852 Clouds 27 1016 69 10000 4.1 90 00:52 16.10.2019
5853 Clouds 27 1016 69 10000 4.1 90 00:32 16.10.2019
5854 Clouds 27 1016 69 10000 4.1 70 23:41 15.10.2019
5855 Clouds 27 1016 69 10000 4.1 70 23:41 15.10.2019
5856 Clouds 28 1016 69 10000 3.6 80 23:22 15.10.2019
5857 Clouds 28 1016 69 10000 3.6 80 22:56 15.10.2019
5858 Clouds 28 1016 69 10000 3.6 80 22:38 15.10.2019
5859 Clouds 28 1016 69 10000 3.6 80 22:38 15.10.2019
5860 Clouds 28 1016 69 10000 3.6 80 22:20 15.10.2019
5861 Clouds 28 1016 66 10000 4.1 70 21:56 15.10.2019
5862 Clouds 28 1016 66 10000 4.1 70 21:56 15.10.2019
5863 -273 0 0 0 0 0 21:56 15.10.2019
5864 Clouds 28 1016 66 10000 4.1 70 21:56 15.10.2019
5865 Clouds 28 1016 66 10000 4.1 70 21:38 15.10.2019
5866 Clouds 28 1016 66 10000 4.1 70 21:20 15.10.2019
5867 Clouds 28 1017 69 0 4.1 80 20:57 15.10.2019
5868 Clouds 28 1017 69 0 4.1 80 20:39 15.10.2019
5869 Clouds 28 1017 69 0 4.1 80 20:39 15.10.2019
5870 Clouds 28 1017 69 0 4.1 80 20:39 15.10.2019
5871 Clouds 28 1017 69 0 4.1 80 20:20 15.10.2019
5872 Clouds 28 1017 69 0 4.1 80 20:20 15.10.2019
5873 Clouds 28 1017 69 10000 4.6 80 19:58 15.10.2019
5874 Clouds 28 1017 69 10000 4.6 80 19:40 15.10.2019
5875 Clouds 28 1017 69 10000 4.6 80 19:19 15.10.2019
5876 Clouds 28 1018 69 10000 4.6 80 18:47 15.10.2019
5877 Clouds 28 1018 69 10000 4.6 80 18:28 15.10.2019
5878 Clouds 27 1019 74 10000 5.1 70 17:58 15.10.2019
5879 Clouds 27 1019 74 10000 5.1 70 17:39 15.10.2019
5880 Clouds 27 1019 74 10000 5.1 70 17:20 15.10.2019
5881 Clouds 27 1018 74 10000 5.1 90 16:46 15.10.2019
5882 Clouds 27 1018 74 10000 5.1 90 16:24 15.10.2019
5883 Clouds 27 1018 74 10000 5.1 90 15:59 15.10.2019
5884 Clouds 27 1018 74 10000 5.1 90 15:41 15.10.2019
5885 Clouds 27 1018 74 10000 5.1 90 15:41 15.10.2019
5886 Clouds 27 1018 74 10000 5.1 90 15:20 15.10.2019
5887 Clouds 26 1018 78 10000 3.1 90 14:57 15.10.2019
5888 Clouds 26 1018 78 10000 3.1 90 14:38 15.10.2019
5889 Clouds 26 1018 78 10000 3.1 90 14:19 15.10.2019
5890 Clouds 26 1018 78 10000 2.6 90 13:44 15.10.2019
5891 Clouds 26 1018 78 10000 2.6 90 13:21 15.10.2019
5892 Clouds 26 1017 78 10000 3.1 80 12:59 15.10.2019
5893 Clouds 26 1017 78 10000 3.1 80 12:39 15.10.2019
5894 Clouds 26 1017 78 10000 3.1 80 12:39 15.10.2019
5895 Clouds 26 1017 78 10000 3.1 80 12:20 15.10.2019
5896 Clouds 26 1017 83 10000 2.6 70 11:44 15.10.2019
5897 Clouds 26 1017 83 10000 2.6 70 11:21 15.10.2019
5898 Clouds 26 1017 83 10000 3.1 90 10:58 15.10.2019
5899 Clouds 26 1017 83 10000 3.1 90 10:39 15.10.2019
5900 Clouds 26 1017 83 10000 3.1 90 10:19 15.10.2019
5901 Clouds 26 1017 83 10000 2.6 80 09:57 15.10.2019
5902 Clouds 26 1017 83 10000 2.6 80 09:37 15.10.2019
5903 Clouds 26 1017 83 10000 2.6 80 09:19 15.10.2019
5904 Clouds 26 1018 83 10000 2.6 70 08:42 15.10.2019
5905 Clouds 26 1018 83 10000 2.6 70 08:21 15.10.2019
5906 Clouds 26 1018 83 10000 2.6 90 07:56 15.10.2019
5907 Clouds 26 1018 83 10000 2.6 90 07:56 15.10.2019
5908 Clouds 26 1018 83 10000 2.6 90 07:56 15.10.2019
5909 Clouds 26 1018 83 10000 2.6 90 07:38 15.10.2019
5910 Clouds 26 1018 83 10000 2.6 90 07:18 15.10.2019
5911 Clouds 26 1018 83 10000 2.1 90 06:43 15.10.2019
5912 Clouds 26 1018 83 10000 2.1 90 06:22 15.10.2019
5913 Clouds 26 1018 83 10000 2.1 90 05:37 15.10.2019
5914 Clouds 26 1018 83 10000 2.1 90 05:19 15.10.2019
5915 Clouds 26 1018 78 10000 3.6 100 04:23 15.10.2019
5916 Clouds 27 1017 78 10000 3.6 100 03:36 15.10.2019
5917 Clouds 27 1017 78 10000 4.1 70 02:22 15.10.2019
5918 Clouds 27 1017 78 10000 3.1 80 01:47 15.10.2019
5919 Clouds 27 1017 78 10000 3.1 80 01:18 15.10.2019
5920 Clouds 27 1017 78 10000 4.1 80 00:28 15.10.2019
5921 Clouds 28 1017 70 10000 5.1 60 23:59 14.10.2019
5922 Clouds 28 1017 70 10000 5.1 60 23:39 14.10.2019
5923 Clouds 28 1017 70 10000 5.1 60 23:19 14.10.2019
5924 Clouds 28 1017 66 10000 5.7 70 22:40 14.10.2019
5925 Clouds 28 1017 66 10000 5.7 70 22:21 14.10.2019
5926 Clouds 28 1017 70 0 5.7 50 21:59 14.10.2019
5927 Clouds 28 1017 70 0 5.7 50 21:40 14.10.2019
5928 Clouds 28 1017 70 0 5.7 50 21:40 14.10.2019
5929 Clouds 29 1017 70 0 5.7 50 21:21 14.10.2019
5930 Clouds 28 1017 69 10000 5.7 50 20:58 14.10.2019
5931 Clouds 28 1017 69 10000 5.7 50 20:38 14.10.2019
5932 Clouds 28 1018 62 10000 4.6 60 20:19 14.10.2019
5933 Clouds 28 1018 62 10000 4.6 60 19:55 14.10.2019
5934 Clouds 28 1018 62 10000 4.6 60 19:54 14.10.2019
5935 Clouds 28 1018 62 10000 4.6 60 19:36 14.10.2019
5936 Clouds 28 1018 62 10000 4.6 60 19:18 14.10.2019
5937 Clouds 28 1018 69 10000 5.1 80 18:54 14.10.2019
5938 Clouds 28 1018 69 10000 5.1 80 18:36 14.10.2019
5939 Clouds 28 1018 69 10000 5.1 80 18:18 14.10.2019
5940 Clouds 28 1019 69 10000 5.7 60 17:41 14.10.2019
5941 Clouds 28 1019 69 10000 5.7 60 17:22 14.10.2019
5942 Rain 28 1018 76 0 3.13 39 16:54 14.10.2019
5943 Rain 28 1018 76 0 3.13 63 16:36 14.10.2019
5944 Clouds 28 1018 69 10000 3.6 70 16:18 14.10.2019
5945 Clouds 28 1018 69 10000 3.6 70 15:40 14.10.2019
5946 Clouds 28 1018 69 10000 3.6 70 15:40 14.10.2019
5947 Clouds 27 1017 83 10000 2.6 70 15:21 14.10.2019
5948 Clouds 27 1017 83 10000 2.6 70 14:44 14.10.2019
5949 Clouds 26 1017 83 10000 2.6 70 14:25 14.10.2019
5950 Clouds 26 1017 83 10000 2.1 70 13:57 14.10.2019
5951 -273 0 0 0 0 0 13:39 14.10.2019
5952 Clouds 25 1016 83 10000 1.5 90 13:20 14.10.2019
5953 Clouds 25 1016 83 10000 1.5 90 12:41 14.10.2019
5954 Clouds 25 1016 83 10000 1.5 90 12:20 14.10.2019
5955 Clouds 27 1015 79 0 5.59 54.914 11:48 14.10.2019
5956 Clear 25 1016 83 10000 1 0 11:27 14.10.2019
5957 Clouds 27 1015 79 0 5.59 54.914 10:59 14.10.2019
5958 Clouds 27 1015 79 0 5.59 54.914 10:41 14.10.2019
5959 Clouds 27 1015 79 0 5.59 54.914 10:21 14.10.2019
5960 Clouds 27 1015 79 0 5.59 54.914 10:21 14.10.2019
5961 Clouds 27 1015 79 0 5.59 54.914 09:57 14.10.2019
5962 Clouds 27 1015 79 0 5.59 54.914 09:38 14.10.2019
5963 Clouds 27 1016 81 0 7.4 73.219 09:19 14.10.2019
5964 Clouds 27 1016 81 0 7.4 73.219 08:45 14.10.2019
5965 Clouds 27 1016 81 0 7.4 73.219 08:22 14.10.2019
5966 Clouds 27 1016 81 0 7.4 73.219 07:43 14.10.2019
5967 Clouds 27 1016 81 0 7.4 73.219 07:19 14.10.2019
5968 Clouds 27 1016 81 0 7.4 73.219 06:53 14.10.2019
5969 Clouds 27 1016 81 0 7.4 73.219 06:26 14.10.2019
5970 Clouds 27 1017 82 0 8.2 75.322 05:49 14.10.2019
5971 Clouds 27 1018 74 10000 4.1 90 04:48 14.10.2019
5972 Clouds 27 1017 74 10000 4.1 90 03:28 14.10.2019
5973 Clouds 27 1017 74 10000 3.6 90 02:49 14.10.2019
5974 Clouds 27 1016 74 10000 3.6 90 01:24 14.10.2019
5975 Rain 27 1016 69 10000 4.6 110 00:58 14.10.2019
5976 Rain 27 1016 69 10000 4.6 110 00:20 14.10.2019
5977 Clouds 28 1016 65 10000 5.1 90 23:45 13.10.2019
5978 Clouds 28 1016 65 10000 5.1 90 23:20 13.10.2019
5979 Rain 28 1016 66 10000 5.1 110 22:58 13.10.2019
5980 Rain 28 1016 66 10000 5.1 110 22:40 13.10.2019
5981 Rain 28 1016 66 10000 5.1 110 22:40 13.10.2019
5982 Rain 29 1016 66 10000 5.1 110 22:21 13.10.2019
5983 Rain 29 1016 62 10000 4.6 100 21:58 13.10.2019
5984 Rain 29 1016 62 10000 4.6 100 21:37 13.10.2019
5985 Rain 29 1016 62 10000 4.6 100 21:19 13.10.2019
5986 Clouds 29 1017 66 10000 5.7 80 20:57 13.10.2019
5987 Clouds 29 1017 66 10000 5.7 80 20:57 13.10.2019
5988 Clouds 29 1017 66 10000 5.7 80 20:38 13.10.2019
5989 Clouds 29 1017 66 10000 5.7 80 20:20 13.10.2019
5990 Clouds 29 1017 66 10000 6.2 90 19:58 13.10.2019
5991 -273 0 0 0 0 0 19:39 13.10.2019
5992 Clouds 29 1017 66 10000 6.2 90 19:21 13.10.2019
5993 Clouds 28 1018 69 10000 5.7 80 18:57 13.10.2019
5994 Clouds 28 1018 69 10000 5.7 80 18:57 13.10.2019
5995 Clouds 28 1018 69 10000 5.7 80 18:37 13.10.2019
5996 Clouds 29 1017 66 10000 4.6 100 18:19 13.10.2019
5997 Clouds 29 1017 66 10000 4.6 100 17:57 13.10.2019
5998 Clouds 29 1017 66 10000 4.6 100 17:38 13.10.2019
5999 Clouds 29 1017 66 10000 4.6 100 17:20 13.10.2019
6000 Rain 27 1017 74 10000 4.1 90 16:41 13.10.2019
6001 Rain 27 1017 74 10000 4.1 90 16:18 13.10.2019
6002 Clouds 27 1016 74 10000 4.1 120 15:57 13.10.2019
6003 Clouds 27 1016 74 10000 4.1 120 15:37 13.10.2019
6004 Clouds 27 1016 74 10000 4.1 120 15:37 13.10.2019
6005 Clouds 26 1015 74 10000 4.1 90 15:18 13.10.2019
6006 Clouds 26 1015 74 10000 4.1 90 14:56 13.10.2019
6007 -273 0 0 0 0 0 14:56 13.10.2019
6008 Clouds 26 1015 74 10000 4.1 90 14:37 13.10.2019
6009 Clouds 26 1015 74 10000 3.6 100 14:18 13.10.2019
6010 Clouds 26 1015 74 10000 3.6 100 13:39 13.10.2019
6011 Clouds 26 1015 74 10000 3.6 100 13:39 13.10.2019
6012 Clouds 26 1015 74 10000 3.6 100 13:21 13.10.2019
6013 Rain 25 1015 78 10000 3.1 100 12:57 13.10.2019
6014 Rain 25 1015 78 10000 3.1 100 12:39 13.10.2019
6015 Rain 25 1015 78 10000 3.1 100 12:39 13.10.2019
6016 Rain 25 1015 78 10000 3.1 100 12:20 13.10.2019
6017 Rain 26 1015 74 10000 2.6 100 11:58 13.10.2019
6018 Rain 26 1015 74 10000 2.6 100 11:38 13.10.2019
6019 Rain 26 1015 74 10000 2.6 100 11:19 13.10.2019
6020 Rain 25 1015 73 10000 3.1 120 10:42 13.10.2019
6021 Rain 25 1015 73 10000 3.1 120 10:23 13.10.2019
6022 Thunderstorm 26 1016 69 10000 3.1 110 09:58 13.10.2019
6023 Thunderstorm 26 1016 69 10000 3.1 110 09:58 13.10.2019
6024 Thunderstorm 26 1016 69 10000 3.1 110 09:38 13.10.2019
6025 Thunderstorm 26 1016 69 10000 3.1 110 09:19 13.10.2019
6026 Thunderstorm 26 1016 69 10000 3.6 100 08:43 13.10.2019
6027 Thunderstorm 26 1016 69 10000 3.6 100 08:23 13.10.2019
6028 Thunderstorm 26 1017 69 10000 3.6 100 07:50 13.10.2019
6029 Thunderstorm 26 1017 69 10000 3.6 100 07:30 13.10.2019
6030 Thunderstorm 26 1017 69 10000 4.6 100 06:48 13.10.2019
6031 Thunderstorm 27 1017 65 10000 5.1 90 05:57 13.10.2019
6032 Thunderstorm 27 1017 69 10000 5.1 90 04:52 13.10.2019
6033 Thunderstorm 27 1017 65 10000 6.7 90 04:33 13.10.2019
6034 Clouds 27 1016 69 10000 5.1 80 02:48 13.10.2019
6035 Clouds 27 1016 69 10000 5.1 80 02:23 13.10.2019
6036 Clouds 27 1015 65 10000 6.2 80 01:34 13.10.2019
6037 Clouds 27 1015 74 10000 5.7 80 00:52 13.10.2019
6038 Clouds 27 1015 74 10000 5.7 80 00:52 13.10.2019
6039 Clouds 28 1014 69 10000 6.7 80 00:22 13.10.2019
6040 Clouds 28 1014 69 10000 6.7 80 23:58 12.10.2019
6041 Clouds 28 1014 69 10000 6.7 80 23:39 12.10.2019
6042 Clouds 28 1014 69 10000 6.7 80 23:21 12.10.2019
6043 Clouds 29 1014 66 10000 6.7 80 22:58 12.10.2019
6044 Clouds 29 1014 66 10000 6.7 80 22:58 12.10.2019
6045 Clouds 29 1014 66 10000 6.7 80 22:39 12.10.2019
6046 Clouds 27 1013 78 0 8.97 64.81 22:20 12.10.2019
6047 Clouds 27 1013 78 0 8.97 64.81 21:55 12.10.2019
6048 Clouds 27 1013 78 0 8.97 64.81 21:37 12.10.2019
6049 Clouds 28 1014 74 10000 6.2 80 21:19 12.10.2019
6050 Clouds 28 1014 74 10000 6.2 80 21:19 12.10.2019
6051 Clouds 28 1014 74 10000 6.2 80 20:41 12.10.2019
6052 Clouds 28 1014 74 10000 6.2 80 20:41 12.10.2019
6053 Clouds 28 1014 74 10000 6.2 80 20:41 12.10.2019
6054 Clouds 28 1014 74 10000 6.2 80 20:23 12.10.2019
6055 Clouds 28 1015 74 10000 6.7 80 19:40 12.10.2019
6056 Clouds 28 1015 74 10000 6.7 80 19:40 12.10.2019
6057 Rain 28 1015 74 10000 7.2 80 19:22 12.10.2019
6058 Rain 28 1015 74 10000 7.2 80 18:59 12.10.2019
6059 Rain 28 1015 74 10000 7.2 80 18:40 12.10.2019
6060 Rain 28 1015 74 10000 7.2 80 18:22 12.10.2019
6061 Clouds 29 1015 70 10000 6.7 90 17:44 12.10.2019
6062 Clouds 29 1015 70 10000 6.7 90 17:19 12.10.2019
6063 Rain 28 1015 74 10000 6.2 80 16:55 12.10.2019
6064 Rain 28 1015 74 10000 6.2 80 16:36 12.10.2019
6065 Rain 28 1015 74 10000 6.2 80 16:36 12.10.2019
6066 Rain 28 1015 74 10000 6.2 80 16:18 12.10.2019
6067 Rain 27 1015 78 10000 5.1 80 15:44 12.10.2019
6068 Rain 27 1015 78 10000 5.1 80 15:25 12.10.2019
6069 Rain 27 1015 78 10000 5.1 80 15:25 12.10.2019
6070 Rain 27 1014 78 10000 4.1 80 14:43 12.10.2019
6071 Thunderstorm 26 1014 83 10000 4.6 90 14:22 12.10.2019
6072 Thunderstorm 26 1014 83 10000 4.6 90 13:59 12.10.2019
6073 Thunderstorm 26 1014 83 10000 4.6 90 13:40 12.10.2019
6074 Thunderstorm 26 1014 88 10000 4.6 90 13:21 12.10.2019
6075 Thunderstorm 26 1014 88 10000 4.6 90 12:40 12.10.2019
6076 Thunderstorm 27 1014 78 10000 5.1 80 12:21 12.10.2019
6077 Thunderstorm 27 1014 78 10000 5.1 80 11:58 12.10.2019
6078 Thunderstorm 27 1014 78 10000 5.1 80 11:39 12.10.2019
6079 Rain 27 1012 81 0 7.71 78.985 11:20 12.10.2019
6080 Rain 27 1012 81 0 7.71 78.985 10:43 12.10.2019
6081 Clouds 27 1014 78 10000 4.6 90 10:23 12.10.2019
6082 Clouds 27 1014 78 10000 4.6 90 09:58 12.10.2019
6083 Clouds 27 1014 78 10000 4.6 90 09:39 12.10.2019
6084 Clouds 27 1014 78 10000 4.6 90 09:21 12.10.2019
6085 Clouds 27 1014 74 10000 3.6 90 08:57 12.10.2019
6086 Clouds 27 1014 74 10000 3.6 90 08:57 12.10.2019
6087 Clouds 27 1014 74 10000 3.6 90 08:38 12.10.2019
6088 Thunderstorm 27 1015 78 10000 4.1 100 08:18 12.10.2019
6089 Thunderstorm 27 1015 78 10000 4.1 100 07:33 12.10.2019
6090 Thunderstorm 27 1015 78 10000 4.1 100 06:51 12.10.2019
6091 Thunderstorm 27 1015 78 10000 4.6 100 05:47 12.10.2019
6092 Thunderstorm 27 1015 78 10000 4.6 100 05:22 12.10.2019
6093 Thunderstorm 27 1014 83 10000 5.1 80 03:58 12.10.2019
6094 Clouds 27 1013 78 10000 4.1 90 02:57 12.10.2019
6095 Clouds 28 1013 78 10000 4.6 70 01:36 12.10.2019
6096 Clouds 28 1013 78 10000 4.6 70 01:36 12.10.2019
6097 Rain 28 1013 74 10000 4.6 80 00:59 12.10.2019
6098 Rain 28 1013 74 10000 4.6 80 00:39 12.10.2019
6099 Thunderstorm 29 1013 74 10000 5.1 80 23:57 11.10.2019
6100 Thunderstorm 29 1013 74 10000 5.1 80 23:38 11.10.2019
6101 Thunderstorm 29 1013 70 10000 5.7 70 23:19 11.10.2019
6102 Thunderstorm 29 1013 70 10000 5.7 70 22:39 11.10.2019
6103 Thunderstorm 29 1013 70 10000 5.7 70 22:21 11.10.2019
6104 Clouds 29 1013 74 10000 6.7 90 21:55 11.10.2019
6105 Clouds 29 1013 74 10000 6.7 90 21:37 11.10.2019
6106 Clouds 29 1013 74 10000 6.7 90 21:18 11.10.2019
6107 Clouds 29 1013 74 10000 5.1 40 20:43 11.10.2019
6108 Clouds 29 1014 70 10000 4.6 60 20:25 11.10.2019
6109 Clouds 29 1014 70 10000 4.6 60 19:56 11.10.2019
6110 Clouds 29 1014 70 10000 4.6 60 19:38 11.10.2019
6111 Clouds 29 1014 70 10000 4.6 60 19:38 11.10.2019
6112 Clouds 29 1014 70 10000 4.6 60 19:18 11.10.2019
6113 Clouds 29 1014 70 10000 4.6 50 18:56 11.10.2019
6114 Clouds 29 1014 70 10000 4.6 50 18:37 11.10.2019
6115 Clouds 29 1014 70 10000 4.6 50 18:18 11.10.2019
6116 Clouds 29 1014 70 10000 4.6 90 17:57 11.10.2019
6117 Clouds 29 1014 70 10000 4.6 90 17:37 11.10.2019
6118 Clouds 29 1014 70 10000 4.6 90 17:18 11.10.2019
6119 Clouds 28 1014 74 10000 4.1 70 16:42 11.10.2019
6120 Clouds 28 1014 74 10000 4.1 70 16:21 11.10.2019
6121 Clouds 28 1014 78 10000 3.6 70 15:59 11.10.2019
6122 Clouds 28 1014 78 10000 3.6 70 15:39 11.10.2019
6123 Clouds 27 1013 83 10000 3.6 70 15:19 11.10.2019
6124 Clouds 27 1013 83 10000 3.6 70 14:47 11.10.2019
6125 Clouds 28 1012 70 0 4.2 34.857 14:29 11.10.2019
6126 Clouds 28 1012 70 0 4.2 34.857 13:57 11.10.2019
6127 Clouds 28 1012 70 0 4.2 34.857 13:38 11.10.2019
6128 Clouds 27 1012 83 10000 2.6 90 13:19 11.10.2019
6129 Clouds 27 1012 83 10000 2.6 90 12:56 11.10.2019
6130 Clouds 27 1012 83 10000 2.6 90 12:38 11.10.2019
6131 Clouds 27 1012 83 10000 2.6 90 12:18 11.10.2019
6132 Clouds 27 1012 78 10000 2.6 80 11:41 11.10.2019
6133 Clouds 27 1012 78 10000 2.6 80 11:22 11.10.2019
6134 Clouds 27 1012 78 10000 2.6 80 11:22 11.10.2019
6135 Clouds 28 1011 74 0 4.48 29.888 10:58 11.10.2019
6136 Clouds 28 1011 74 0 4.48 29.888 10:58 11.10.2019
6137 Clouds 28 1011 74 0 4.48 29.888 10:40 11.10.2019
6138 Clouds 28 1011 74 0 4.48 29.888 10:22 11.10.2019
6139 Clouds 28 1011 74 0 4.48 29.888 09:55 11.10.2019
6140 Clear 28 1011 76 0 4.19 20.599 09:37 11.10.2019
6141 Rain 28 1011 73 0 3.18 29.803 09:18 11.10.2019
6142 Rain 28 1011 73 0 3.18 29.803 08:54 11.10.2019
6143 Rain 28 1011 73 0 3.18 29.803 08:54 11.10.2019
6144 Rain 28 1011 73 0 3.18 29.803 08:36 11.10.2019
6145 Rain 28 1011 73 0 3.18 29.803 08:18 11.10.2019
6146 Rain 28 1011 73 0 3.18 29.803 07:41 11.10.2019
6147 Rain 28 1011 73 0 3.18 29.803 07:22 11.10.2019
6148 Rain 28 1011 73 0 3.18 29.803 06:47 11.10.2019
6149 Clouds 27 1014 78 10000 1.5 20 06:22 11.10.2019
6150 Clouds 27 1014 78 10000 1.5 20 05:37 11.10.2019
6151 Clouds 27 1014 83 10000 1.5 10 04:59 11.10.2019
6152 Clouds 27 1014 83 10000 1.5 10 04:24 11.10.2019
6153 Rain 27 1012 83 10000 1 0 02:18 11.10.2019
6154 Rain 27 1013 83 10000 2.6 70 00:42 11.10.2019
6155 Rain 28 1012 78 10000 2.1 350 00:23 11.10.2019
6156 Rain 28 1012 78 10000 2.1 350 00:23 11.10.2019
6157 Rain 28 1012 78 10000 2.1 350 23:42 10.10.2019
6158 Clouds 28 1011 72 0 4.26 354.522 23:21 10.10.2019
6159 Clouds 28 1011 72 0 4.26 354.522 22:57 10.10.2019
6160 Clouds 28 1011 72 0 4.26 354.522 22:38 10.10.2019
6161 Rain 30 1013 70 10000 2.6 30 22:19 10.10.2019
6162 Rain 30 1013 70 10000 2.6 30 21:54 10.10.2019
6163 Rain 30 1013 70 10000 2.6 30 21:36 10.10.2019
6164 Clouds 29 1013 74 10000 3.1 40 21:18 10.10.2019
6165 Clouds 29 1013 74 10000 3.1 40 20:41 10.10.2019
6166 Clouds 29 1013 74 10000 3.1 40 20:21 10.10.2019
6167 Clouds 29 1014 70 10000 3.1 360 19:58 10.10.2019
6168 Clouds 29 1014 70 10000 3.1 360 19:39 10.10.2019
6169 Clouds 29 1015 74 10000 2.6 360 19:19 10.10.2019
6170 Clouds 29 1015 74 10000 2.6 360 18:54 10.10.2019
6171 Clouds 29 1015 74 10000 2.6 360 18:36 10.10.2019
6172 Clouds 29 1015 74 10000 4.1 360 18:18 10.10.2019
6173 Clouds 29 1015 74 10000 4.1 360 17:40 10.10.2019
6174 Clouds 29 1015 74 10000 4.1 360 17:20 10.10.2019
6175 Clouds 28 1015 83 10000 3.1 340 16:58 10.10.2019
6176 Clouds 28 1015 83 10000 3.1 340 16:39 10.10.2019
6177 Clouds 28 1015 83 10000 3.1 340 16:21 10.10.2019
6178 Clouds 28 1014 83 10000 3.1 340 15:43 10.10.2019
6179 Clouds 26 1014 94 10000 0.75 196.545 15:23 10.10.2019
6180 Clouds 26 1014 94 10000 0.75 196.545 14:59 10.10.2019
6181 Clouds 26 1014 94 10000 0.75 196.545 14:37 10.10.2019
6182 Clouds 25 1014 94 10000 0.75 196.545 14:19 10.10.2019
6183 Clouds 25 1014 94 10000 0.75 196.545 13:58 10.10.2019
6184 Clouds 25 1014 94 10000 0.75 196.545 13:39 10.10.2019
6185 Clouds 25 1014 94 10000 0.69 218.673 13:18 10.10.2019
6186 Clouds 24 1013 100 10000 0.5 0 12:42 10.10.2019
6187 Clouds 24 1013 100 10000 0.5 0 12:21 10.10.2019
6188 Clouds 25 1013 94 0 1.5 10 11:58 10.10.2019
6189 Clouds 25 1013 94 0 1.5 10 11:40 10.10.2019
6190 Clouds 25 1013 94 10000 0.5 0 11:19 10.10.2019
6191 Clouds 25 1013 94 10000 0.5 0 10:47 10.10.2019
6192 Clouds 25 1013 94 10000 0.5 0 10:47 10.10.2019
6193 Clouds 25 1013 94 10000 0.5 0 10:28 10.10.2019
6194 Clouds 25 1013 94 10000 0.5 0 10:28 10.10.2019
6195 Clouds 25 1013 94 10000 2.6 190 09:59 10.10.2019
6196 Clouds 25 1013 94 10000 2.6 190 09:41 10.10.2019
6197 Clouds 25 1013 94 10000 2.6 190 09:23 10.10.2019
6198 Clouds 25 1015 94 10000 1.03 182.164 08:59 10.10.2019
6199 Clouds 25 1015 94 10000 1.03 182.164 08:40 10.10.2019
6200 Clouds 25 1015 94 10000 1.03 182.164 08:20 10.10.2019
6201 Clouds 25 1015 94 10000 1.03 182.164 07:47 10.10.2019
6202 Clouds 25 1015 94 10000 1.03 182.164 07:25 10.10.2019
6203 Clouds 25 1016 94 10000 0.5 0 06:55 10.10.2019
6204 Clouds 25 1016 94 10000 0.5 0 06:36 10.10.2019
6205 Clouds 26 1015 88 10000 0.5 0 05:39 10.10.2019
6206 Clouds 26 1015 88 10000 0.5 0 05:18 10.10.2019
6207 Clouds 26 1015 94 10000 0.5 0 04:34 10.10.2019
6208 Clouds 29 1013 74 10000 1.5 30 02:29 10.10.2019
6209 Clouds 29 1013 74 10000 1.5 30 01:37 10.10.2019
6210 Clouds 29 1013 74 10000 1.5 30 01:18 10.10.2019
6211 Rain 29 1013 74 10000 1.5 30 00:25 10.10.2019
6212 Rain 29 1013 74 10000 1.5 30 23:42 09.10.2019
6213 Rain 29 1013 74 10000 1.5 30 23:23 09.10.2019
6214 Rain 29 1013 74 10000 2.6 20 22:59 09.10.2019
6215 Rain 29 1013 74 10000 2.6 20 22:59 09.10.2019
6216 Rain 29 1013 74 10000 2.6 20 22:40 09.10.2019
6217 Rain 29 1014 79 10000 3.6 30 22:22 09.10.2019
6218 Rain 29 1014 79 10000 3.6 30 21:42 09.10.2019
6219 Rain 29 1014 79 10000 3.6 30 21:21 09.10.2019
6220 Rain 29 1014 79 10000 3.6 30 21:21 09.10.2019
6221 Rain 29 1014 79 10000 2.1 50 20:56 09.10.2019
6222 Rain 29 1014 79 10000 2.1 50 20:38 09.10.2019
6223 Rain 29 1015 83 10000 3.1 300 20:19 09.10.2019
6224 Rain 29 1015 83 10000 3.1 300 19:59 09.10.2019
6225 Rain 29 1015 83 10000 3.1 300 19:59 09.10.2019
6226 Rain 29 1015 83 10000 3.1 300 19:59 09.10.2019
6227 Rain 29 1015 83 10000 3.1 300 19:40 09.10.2019
6228 Rain 29 1015 83 10000 3.1 300 19:22 09.10.2019
6229 Clouds 29 1013 71 0 1.79 168.401 18:38 09.10.2019
6230 Clouds 29 1016 79 10000 4.1 260 18:20 09.10.2019
6231 Clouds 29 1016 79 10000 4.1 260 17:58 09.10.2019
6232 Clouds 29 1016 79 10000 4.1 260 17:58 09.10.2019
6233 Clouds 29 1016 79 10000 4.1 260 17:37 09.10.2019
6234 Clouds 29 1016 79 10000 4.1 260 17:37 09.10.2019
6235 Clouds 29 1016 79 10000 3.1 210 17:19 09.10.2019
6236 Clouds 29 1016 79 10000 3.1 210 16:56 09.10.2019
6237 Clouds 29 1016 79 10000 3.1 210 16:37 09.10.2019
6238 Clouds 29 1015 83 10000 2.1 210 16:18 09.10.2019
6239 Clouds 29 1015 83 10000 2.1 210 16:18 09.10.2019
6240 Clouds 29 1015 83 10000 2.1 210 15:55 09.10.2019
6241 Clouds 28 1015 83 10000 2.1 210 15:36 09.10.2019
6242 Clouds 27 1015 94 10000 1.5 210 15:18 09.10.2019
6243 Clouds 27 1015 94 10000 1.5 210 14:44 09.10.2019
6244 Clouds 27 1014 94 10000 1 0 14:19 09.10.2019
6245 Clouds 26 1014 94 10000 1 0 13:58 09.10.2019
6246 Clouds 26 1014 94 10000 1 0 13:36 09.10.2019
6247 Clouds 26 1014 94 10000 1 0 13:18 09.10.2019
6248 Clouds 25 1014 94 10000 1.5 210 12:42 09.10.2019
6249 Thunderstorm 25 1013 94 10000 1.5 180 12:22 09.10.2019
6250 Thunderstorm 25 1013 94 10000 1.5 180 11:58 09.10.2019
6251 Thunderstorm 25 1013 94 10000 1.5 180 11:39 09.10.2019
6252 Thunderstorm 25 1013 94 10000 1.5 180 11:20 09.10.2019
6253 Clouds 28 1012 77 0 3.55 169.402 10:57 09.10.2019
6254 Clouds 28 1012 77 0 3.55 169.402 10:57 09.10.2019
6255 Clouds 28 1012 77 0 3.55 169.402 10:39 09.10.2019
6256 Clouds 28 1012 77 0 3.55 169.402 10:18 09.10.2019
6257 Clouds 28 1012 77 0 3.55 169.402 09:42 09.10.2019
6258 Rain 28 1013 77 0 1.14 54.532 09:19 09.10.2019
6259 Rain 28 1013 77 0 1.14 54.532 08:56 09.10.2019
6260 Rain 28 1014 80 0 1.52 224.149 08:37 09.10.2019
6261 Thunderstorm 26 1015 94 10000 1.5 270 08:18 09.10.2019
6262 Thunderstorm 26 1015 94 10000 1.5 270 07:42 09.10.2019
6263 Thunderstorm 26 1015 94 10000 1.5 270 07:22 09.10.2019
6264 Thunderstorm 26 1015 94 10000 1 0 06:52 09.10.2019
6265 Thunderstorm 26 1015 94 10000 1 0 06:20 09.10.2019
6266 Thunderstorm 26 1015 94 10000 1 0 06:20 09.10.2019
6267 Thunderstorm 28 1016 83 10000 1 0 05:46 09.10.2019
6268 Thunderstorm 28 1015 88 10000 1 0 04:27 09.10.2019
6269 Thunderstorm 28 1014 88 10000 3.1 210 02:54 09.10.2019
6270 Clouds 28 1013 83 10000 3.1 180 01:44 09.10.2019
6271 Clouds 28 1013 83 10000 3.1 180 01:21 09.10.2019
6272 Clouds 28 1013 79 10000 4.1 190 00:57 09.10.2019
6273 Clouds 29 1013 79 10000 4.1 190 00:38 09.10.2019
6274 Clouds 29 1013 79 10000 4.1 190 00:20 09.10.2019
6275 Clouds 30 1012 74 10000 5.7 180 23:39 08.10.2019
6276 Clouds 30 1012 74 10000 5.7 180 23:19 08.10.2019
6277 Clouds 30 1012 74 10000 5.7 190 22:57 08.10.2019
6278 Clouds 31 1012 74 10000 5.7 190 22:38 08.10.2019
6279 Clouds 31 1012 74 10000 5.7 190 22:19 08.10.2019
6280 Clouds 31 1013 70 10000 6.2 200 21:57 08.10.2019
6281 Clouds 31 1013 70 10000 6.2 200 21:39 08.10.2019
6282 Clouds 31 1013 70 10000 6.2 200 21:19 08.10.2019
6283 Clouds 31 1013 74 10000 6.2 170 20:56 08.10.2019
6284 Clouds 31 1013 74 10000 6.2 170 20:37 08.10.2019
6285 Clouds 31 1013 74 10000 6.2 170 20:19 08.10.2019
6286 Clouds 31 1014 79 10000 7.2 200 19:56 08.10.2019
6287 Clouds 31 1014 79 10000 7.2 200 19:37 08.10.2019
6288 Clouds 31 1014 79 10000 7.2 200 19:19 08.10.2019
6289 Clouds 31 1015 74 10000 6.7 200 18:46 08.10.2019
6290 Clouds 30 1015 79 10000 6.7 190 18:27 08.10.2019
6291 Clouds 31 1015 79 10000 6.7 190 17:59 08.10.2019
6292 Clouds 31 1015 79 10000 6.7 190 17:40 08.10.2019
6293 Clouds 31 1015 79 10000 6.7 190 17:40 08.10.2019
6294 Clouds 31 1015 79 10000 6.7 190 17:40 08.10.2019
6295 Clouds 30 1015 79 10000 6.7 190 17:20 08.10.2019
6296 Clouds 30 1015 79 10000 6.7 190 17:20 08.10.2019
6297 Clouds 29 1015 83 10000 5.7 190 16:56 08.10.2019
6298 Clouds 30 1015 83 10000 5.7 190 16:37 08.10.2019
6299 Clouds 29 1015 83 10000 5.7 190 16:19 08.10.2019
6300 Clouds 29 1014 83 10000 5.1 190 15:40 08.10.2019
6301 Clouds 28 1014 88 10000 3.6 170 15:20 08.10.2019
6302 Clouds 28 1014 88 10000 3.6 170 14:57 08.10.2019
6303 Clouds 27 1014 88 10000 3.6 170 14:38 08.10.2019
6304 Rain 27 1013 88 10000 3.6 180 14:20 08.10.2019
6305 Rain 27 1013 88 10000 3.6 180 13:55 08.10.2019
6306 Rain 27 1013 88 10000 3.6 180 13:55 08.10.2019
6307 Rain 27 1013 88 10000 3.6 180 13:37 08.10.2019
6308 Rain 27 1013 88 10000 3.6 180 13:37 08.10.2019
6309 Rain 27 1013 88 10000 3.6 180 13:18 08.10.2019
6310 Rain 26 1013 94 10000 2.6 170 12:41 08.10.2019
6311 Rain 26 1013 94 10000 2.6 170 12:20 08.10.2019
6312 Rain 26 1013 88 10000 3.6 120 11:58 08.10.2019
6313 Rain 26 1013 88 10000 3.6 120 11:39 08.10.2019
6314 Rain 26 1013 88 10000 3.6 120 11:21 08.10.2019
6315 Thunderstorm 25 1013 94 10000 2.6 140 10:54 08.10.2019
6316 Thunderstorm 25 1013 94 10000 2.6 140 10:54 08.10.2019
6317 Thunderstorm 25 1013 94 10000 2.6 140 10:36 08.10.2019
6318 Thunderstorm 25 1013 94 10000 2.6 140 10:18 08.10.2019
6319 Thunderstorm 25 1013 94 10000 1.5 110 09:40 08.10.2019
6320 Thunderstorm 25 1013 94 10000 1.5 110 09:22 08.10.2019
6321 Thunderstorm 25 1013 94 10000 0.5 0 08:45 08.10.2019
6322 Thunderstorm 25 1013 94 10000 0.5 0 08:25 08.10.2019
6323 Thunderstorm 25 1014 94 10000 1 0 07:58 08.10.2019
6324 Thunderstorm 25 1014 94 10000 1 0 07:40 08.10.2019
6325 Thunderstorm 25 1014 94 10000 1 0 07:19 08.10.2019
6326 Thunderstorm 25 1015 94 10000 1 0 06:46 08.10.2019
6327 Thunderstorm 25 1015 94 10000 1 0 06:23 08.10.2019
6328 Rain 25 1015 94 10000 1 0 05:43 08.10.2019
6329 Rain 25 1015 94 10000 1 0 05:43 08.10.2019
6330 Rain 25 1015 94 10000 1 0 05:19 08.10.2019
6331 Rain 23 1014 100 10000 1.5 100 03:31 08.10.2019
6332 Thunderstorm 23 1014 94 6000 6.2 270 02:43 08.10.2019
6333 Clouds 25 1013 94 10000 1.5 210 02:25 08.10.2019
6334 Clouds 25 1013 94 10000 1.5 210 01:41 08.10.2019
6335 Rain 24 1012 94 10000 4.1 160 00:56 08.10.2019
6336 Rain 26 1012 83 10000 3.1 180 00:25 08.10.2019
6337 Rain 26 1012 83 10000 3.1 180 23:56 07.10.2019
6338 Thunderstorm 28 1012 83 10000 3.1 180 23:37 07.10.2019
6339 Rain 28 1011 78 0 9.88 226.935 23:19 07.10.2019
6340 Rain 29 1011 78 0 0.45 262 22:54 07.10.2019
6341 Rain 29 1011 78 0 0.45 262 22:54 07.10.2019
6342 Rain 29 1011 78 0 9.88 226.935 22:36 07.10.2019
6343 Clouds 26 1012 94 10000 2.6 230 22:18 07.10.2019
6344 Clouds 27 1012 94 10000 2.6 230 21:54 07.10.2019
6345 Clouds 27 1012 94 10000 2.6 230 21:36 07.10.2019
6346 Clouds 27 1012 94 10000 2.6 230 21:18 07.10.2019
6347 Clouds 27 1012 94 10000 2.6 230 21:18 07.10.2019
6348 Rain 28 1013 83 8000 4.1 190 20:54 07.10.2019
6349 Rain 28 1013 83 8000 4.1 190 20:36 07.10.2019
6350 Rain 28 1013 78 10000 6.7 180 20:18 07.10.2019
6351 Rain 28 1013 78 10000 6.7 180 19:41 07.10.2019
6352 Thunderstorm 30 1014 70 10000 7.7 180 19:20 07.10.2019
6353 Thunderstorm 30 1014 70 10000 7.7 180 18:59 07.10.2019
6354 Thunderstorm 30 1014 70 10000 7.7 180 18:40 07.10.2019
6355 Clouds 29 1014 74 10000 8.2 190 18:19 07.10.2019
6356 Clouds 29 1014 74 10000 8.2 190 18:19 07.10.2019
6357 Clouds 29 1014 74 10000 8.2 190 17:55 07.10.2019
6358 Clouds 30 1014 74 10000 8.2 190 17:37 07.10.2019
6359 Clouds 30 1014 74 10000 8.2 190 17:18 07.10.2019
6360 Rain 30 1013 79 10000 7.2 190 16:43 07.10.2019
6361 Rain 29 1013 79 10000 7.2 190 16:25 07.10.2019
6362 Rain 28 1013 78 10000 4.6 200 15:46 07.10.2019
6363 Clouds 27 1012 83 10000 4.6 190 15:27 07.10.2019
6364 Clouds 27 1012 83 10000 4.6 190 14:59 07.10.2019
6365 Clouds 27 1012 83 10000 4.6 190 14:40 07.10.2019
6366 Clouds 27 1012 83 10000 4.6 190 14:22 07.10.2019
6367 Clouds 26 1012 88 10000 4.6 180 13:44 07.10.2019
6368 Clouds 26 1012 88 10000 4.1 160 13:21 07.10.2019
6369 Clouds 26 1012 88 10000 4.1 160 12:57 07.10.2019
6370 Clouds 26 1012 88 10000 4.1 160 12:39 07.10.2019
6371 Clouds 26 1012 88 10000 4.1 160 12:19 07.10.2019
6372 Rain 24 1012 94 10000 8.2 180 11:58 07.10.2019
6373 Rain 24 1012 94 10000 8.2 180 11:38 07.10.2019
6374 Rain 28 1010 78 0 6.75 117.009 11:20 07.10.2019
6375 Rain 28 1010 78 0 6.75 117.009 10:42 07.10.2019
6376 Rain 25 1012 94 9000 6.7 170 10:21 07.10.2019
6377 Rain 25 1012 94 9000 6.7 170 09:55 07.10.2019
6378 Rain 25 1012 94 9000 6.7 170 09:55 07.10.2019
6379 Rain 25 1012 94 9000 6.7 170 09:54 07.10.2019
6380 Rain 25 1012 94 9000 6.7 170 09:36 07.10.2019
6381 Clouds 27 1012 83 10000 4.1 130 09:18 07.10.2019
6382 Clouds 27 1012 83 10000 4.1 130 08:41 07.10.2019
6383 Clouds 27 1013 83 10000 3.6 120 08:20 07.10.2019
6384 Clouds 26 1013 83 10000 3.6 120 07:44 07.10.2019
6385 Clouds 26 1013 83 10000 3.6 120 07:25 07.10.2019
6386 Clouds 26 1013 83 10000 3.6 140 06:56 07.10.2019
6387 Clouds 26 1013 83 10000 3.6 140 06:37 07.10.2019
6388 Clouds 26 1013 88 10000 2.1 130 05:54 07.10.2019
6389 Clouds 27 1013 88 10000 2.1 130 05:25 07.10.2019
6390 Clouds 26 1013 88 10000 3.1 120 04:44 07.10.2019
6391 Clouds 27 1013 78 10000 2.6 110 03:45 07.10.2019
6392 Clouds 27 1013 78 10000 2.6 110 03:23 07.10.2019
6393 Clouds 27 1012 74 10000 3.6 120 02:23 07.10.2019
6394 Clouds 28 1012 74 10000 4.6 140 01:57 07.10.2019
6395 Clouds 28 1012 74 10000 4.6 140 01:22 07.10.2019
6396 Clouds 28 1012 74 10000 6.2 150 00:44 07.10.2019
6397 Clouds 29 1012 70 10000 6.2 150 00:22 07.10.2019
6398 Clouds 29 1012 70 10000 6.2 150 23:56 06.10.2019
6399 Clouds 29 1012 70 10000 6.2 150 23:38 06.10.2019
6400 Clouds 29 1012 70 10000 6.2 150 23:18 06.10.2019
6401 Clouds 29 1012 70 10000 4.1 80 22:42 06.10.2019
6402 Clouds 29 1012 70 10000 4.1 80 22:22 06.10.2019
6403 Clouds 28 1012 70 10000 4.1 50 21:58 06.10.2019
6404 Clouds 28 1012 70 10000 4.1 50 21:58 06.10.2019
6405 Clouds 29 1012 70 10000 4.1 50 21:38 06.10.2019
6406 Clouds 29 1012 70 10000 4.1 50 21:19 06.10.2019
6407 Clouds 29 1013 70 10000 5.1 50 20:59 06.10.2019
6408 Clouds 29 1013 70 10000 5.1 50 20:40 06.10.2019
6409 Clouds 29 1013 70 10000 5.1 50 20:21 06.10.2019
6410 Clouds 29 1013 66 10000 5.1 70 19:58 06.10.2019
6411 Clouds 29 1013 66 10000 5.1 70 19:38 06.10.2019
6412 Clouds 29 1013 66 10000 5.1 70 19:20 06.10.2019
6413 Rain 29 1012 74 0 0.89 58 18:57 06.10.2019
6414 Rain 28 1013 75 0 1.34 55 18:39 06.10.2019
6415 Clouds 28 1014 74 10000 5.1 50 18:20 06.10.2019
6416 Clouds 28 1014 74 10000 5.1 50 17:59 06.10.2019
6417 Clouds 28 1014 74 10000 5.1 50 17:39 06.10.2019
6418 Clouds 28 1014 74 10000 5.1 50 17:19 06.10.2019
6419 Clouds 28 1014 74 10000 4.6 50 16:42 06.10.2019
6420 Clouds 28 1014 74 10000 4.6 50 16:24 06.10.2019
6421 Clouds 27 1014 74 10000 3.6 70 15:58 06.10.2019
6422 Clouds 27 1014 74 10000 3.6 70 15:58 06.10.2019
6423 Clouds 27 1014 74 10000 3.6 70 15:39 06.10.2019
6424 Clouds 27 1014 74 10000 3.6 70 15:18 06.10.2019
6425 Clouds 27 1014 74 10000 3.6 70 15:18 06.10.2019
6426 Clouds 27 1014 74 10000 3.6 80 14:43 06.10.2019
6427 Clouds 27 1014 74 10000 3.6 80 14:24 06.10.2019
6428 Clouds 26 1013 74 10000 3.1 80 13:58 06.10.2019
6429 Clouds 26 1013 74 10000 3.1 80 13:39 06.10.2019
6430 Clouds 26 1013 74 10000 3.1 80 13:20 06.10.2019
6431 Clouds 26 1013 74 10000 3.6 70 12:57 06.10.2019
6432 Clouds 26 1013 74 10000 3.6 70 12:57 06.10.2019
6433 Clouds 26 1013 74 10000 3.6 70 12:38 06.10.2019
6434 Clouds 26 1013 74 10000 3.6 70 12:20 06.10.2019
6435 Clouds 26 1012 78 10000 3.1 90 11:56 06.10.2019
6436 Clouds 26 1012 78 10000 3.1 90 11:37 06.10.2019
6437 Clouds 26 1012 78 10000 3.1 90 11:37 06.10.2019
6438 Clouds 26 1012 78 10000 3.1 90 11:18 06.10.2019
6439 Rain 27 1012 76 0 7.89 68.485 10:42 06.10.2019
6440 Clouds 27 1013 74 10000 4.6 90 10:24 06.10.2019
6441 Clouds 27 1013 74 10000 4.6 90 09:56 06.10.2019
6442 Clouds 27 1013 74 10000 4.6 90 09:38 06.10.2019
6443 Clouds 27 1013 74 10000 4.6 90 09:18 06.10.2019
6444 Clouds 27 1013 78 10000 3.1 100 08:40 06.10.2019
6445 Clouds 27 1013 78 10000 3.1 100 08:20 06.10.2019
6446 Clouds 27 1013 78 10000 4.6 110 07:44 06.10.2019
6447 Clouds 27 1013 78 10000 4.6 110 07:18 06.10.2019
6448 Clouds 27 1014 78 10000 4.6 100 06:19 06.10.2019
6449 Clouds 27 1014 78 10000 4.1 90 05:28 06.10.2019
6450 Clouds 28 1013 74 10000 4.1 90 03:35 06.10.2019
6451 Clouds 28 1013 74 10000 4.1 90 02:42 06.10.2019
6452 Clouds 28 1013 74 10000 5.7 90 02:19 06.10.2019
6453 Clouds 28 1013 74 10000 5.7 90 01:38 06.10.2019
6454 Clouds 28 1013 74 10000 6.7 90 01:20 06.10.2019
6455 Clouds 28 1013 74 10000 6.7 90 00:45 06.10.2019
6456 Clouds 29 1013 70 10000 7.2 80 00:24 06.10.2019
6457 Clouds 29 1013 70 10000 7.2 80 23:43 05.10.2019
6458 Clouds 30 1013 66 10000 6.2 90 23:22 05.10.2019
6459 Clouds 30 1013 66 10000 6.2 90 22:57 05.10.2019
6460 Clouds 30 1013 66 10000 6.2 90 22:38 05.10.2019
6461 Clouds 30 1013 66 10000 6.2 90 22:38 05.10.2019
6462 Clouds 30 1013 66 10000 6.7 80 22:19 05.10.2019
6463 Clouds 30 1013 66 10000 6.7 80 21:42 05.10.2019
6464 Clouds 30 1013 66 10000 6.7 80 21:42 05.10.2019
6465 Clouds 30 1013 66 10000 6.7 80 21:24 05.10.2019
6466 Rain 30 1014 70 10000 6.2 80 20:59 05.10.2019
6467 Rain 30 1014 70 10000 6.2 80 20:40 05.10.2019
6468 Clouds 29 1014 70 10000 6.2 80 20:20 05.10.2019
6469 Clouds 29 1014 70 10000 6.2 80 19:56 05.10.2019
6470 Clouds 29 1014 70 10000 6.2 80 19:37 05.10.2019
6471 Clouds 29 1014 70 10000 6.2 80 19:18 05.10.2019
6472 Rain 28 1013 78 0 7.5 67.425 18:55 05.10.2019
6473 Rain 28 1013 78 0 7.5 67.425 18:55 05.10.2019
6474 Clouds 28 1015 78 0 5.7 90 18:36 05.10.2019
6475 Clouds 28 1015 78 0 5.7 90 18:18 05.10.2019
6476 Clouds 28 1015 78 0 5.7 90 17:42 05.10.2019
6477 Clouds 28 1015 78 0 5.7 90 17:21 05.10.2019
6478 Clouds 29 1015 74 10000 5.1 80 16:55 05.10.2019
6479 Clouds 29 1015 74 10000 5.1 80 16:55 05.10.2019
6480 Clouds 29 1015 74 10000 5.1 80 16:36 05.10.2019
6481 Clouds 28 1014 78 10000 4.6 80 16:18 05.10.2019
6482 Clouds 28 1014 78 10000 4.6 80 15:55 05.10.2019
6483 Clouds 28 1014 78 10000 4.6 80 15:37 05.10.2019
6484 Clouds 27 1014 83 10000 3.1 80 15:18 05.10.2019
6485 Clouds 27 1014 83 10000 3.1 80 14:41 05.10.2019
6486 Clouds 26 1013 83 10000 2.6 70 14:22 05.10.2019
6487 Clouds 26 1013 83 10000 2.6 70 13:43 05.10.2019
6488 Clouds 26 1013 83 10000 2.6 70 13:25 05.10.2019
6489 Clouds 26 1013 83 10000 2.6 70 12:58 05.10.2019
6490 Clouds 26 1013 83 10000 2.6 70 12:40 05.10.2019
6491 Clouds 26 1013 83 10000 2.6 70 12:18 05.10.2019
6492 Clouds 26 1013 83 10000 2.6 80 11:39 05.10.2019
6493 Clouds 26 1013 83 10000 2.6 80 11:20 05.10.2019
6494 Clouds 26 1013 83 10000 2.1 80 10:55 05.10.2019
6495 Clouds 26 1013 83 10000 2.1 80 10:37 05.10.2019
6496 Clouds 26 1013 83 10000 2.1 80 10:18 05.10.2019
6497 Clouds 26 1013 83 10000 1.5 80 09:39 05.10.2019
6498 Clouds 26 1013 83 10000 1.5 80 09:21 05.10.2019
6499 Clouds 26 1013 88 10000 2.1 90 08:41 05.10.2019
6500 Clouds 26 1014 88 10000 1.5 80 08:21 05.10.2019
6501 Clouds 26 1014 88 10000 1.5 80 07:58 05.10.2019
6502 Clouds 26 1014 88 10000 1.5 80 07:37 05.10.2019
6503 Clouds 26 1014 88 10000 1.5 80 07:19 05.10.2019
6504 Clouds 26 1015 88 10000 1.5 80 06:28 05.10.2019
6505 Clouds 27 1015 83 10000 2.1 80 05:52 05.10.2019
6506 Clouds 27 1014 79 0 5.02 87.99 04:33 05.10.2019
6507 Clouds 27 1014 83 10000 2.1 90 03:29 05.10.2019
6508 Clouds 27 1014 83 10000 1.5 130 01:52 05.10.2019
6509 Clouds 27 1013 78 10000 3.6 170 01:23 05.10.2019
6510 Clouds 27 1013 78 10000 3.6 170 00:44 05.10.2019
6511 Rain 28 1014 74 10000 1.5 120 00:25 05.10.2019
6512 Rain 28 1014 74 10000 1.5 120 23:45 04.10.2019
6513 Rain 28 1014 74 10000 1.5 120 23:26 04.10.2019
6514 Rain 28 1014 74 10000 1.5 120 23:26 04.10.2019
6515 Rain 28 1014 78 10000 1.5 190 22:59 04.10.2019
6516 Rain 28 1014 78 10000 1.5 190 22:39 04.10.2019
6517 Rain 28 1014 78 10000 1.5 190 22:20 04.10.2019
6518 Rain 29 1014 74 10000 2.6 110 21:57 04.10.2019
6519 Rain 29 1014 74 10000 2.6 110 21:38 04.10.2019
6520 Clouds 29 1015 74 10000 2.6 120 21:19 04.10.2019
6521 Clouds 29 1015 74 10000 2.6 120 20:55 04.10.2019
6522 Clouds 29 1015 74 10000 2.6 120 20:55 04.10.2019
6523 Clouds 29 1015 74 10000 2.6 120 20:36 04.10.2019
6524 Clouds 28 1015 78 10000 2.1 120 20:18 04.10.2019
6525 Clouds 28 1015 78 10000 2.1 120 19:45 04.10.2019
6526 Rain 27 1016 83 10000 2.6 120 19:26 04.10.2019
6527 Rain 27 1016 83 10000 2.6 120 18:57 04.10.2019
6528 Rain 27 1016 83 10000 2.6 120 18:38 04.10.2019
6529 Rain 27 1016 88 10000 1.5 70 18:19 04.10.2019
6530 Rain 27 1016 88 10000 1.5 70 17:42 04.10.2019
6531 Rain 27 1016 88 10000 1.5 70 17:42 04.10.2019
6532 Rain 28 1016 83 10000 2.1 150 17:22 04.10.2019
6533 Rain 28 1016 83 10000 2.1 150 16:59 04.10.2019
6534 Rain 28 1016 83 10000 2.1 150 16:41 04.10.2019
6535 Clouds 27 1016 83 10000 2.1 120 16:19 04.10.2019
6536 Clouds 27 1016 83 10000 2.1 120 16:19 04.10.2019
6537 Clouds 27 1016 83 10000 2.1 120 15:58 04.10.2019
6538 Clouds 27 1016 83 10000 2.1 120 15:39 04.10.2019
6539 Clouds 26 1015 88 10000 4.24 56.01 15:20 04.10.2019
6540 Clouds 27 1014 76 0 4.24 56.01 14:56 04.10.2019
6541 Clouds 27 1014 76 0 4.24 56.01 14:38 04.10.2019
6542 Clouds 24 1015 94 10000 4.24 56.01 14:20 04.10.2019
6543 Clouds 24 1015 94 10000 4.24 56.01 13:45 04.10.2019
6544 Clouds 24 1015 94 10000 4.2 52.682 13:22 04.10.2019
6545 Clouds 27 1014 76 0 4.2 52.682 12:55 04.10.2019
6546 Clouds 27 1014 76 0 4.2 52.682 12:55 04.10.2019
6547 Clouds 27 1014 76 0 4.2 52.682 12:36 04.10.2019
6548 Clouds 23 1014 94 10000 1 0 12:18 04.10.2019
6549 Clouds 23 1014 94 10000 1 0 11:42 04.10.2019
6550 Clouds 23 1014 94 10000 1 0 11:22 04.10.2019
6551 Clouds 24 1014 94 10000 4.15 60.526 10:42 04.10.2019
6552 Clouds 27 1013 79 0 4.15 60.526 10:22 04.10.2019
6553 Clouds 27 1013 79 0 4.15 60.526 09:58 04.10.2019
6554 Clouds 27 1013 79 0 4.15 60.526 09:58 04.10.2019
6555 Clouds 27 1013 79 0 4.15 60.526 09:58 04.10.2019
6556 Clouds 27 1013 79 0 4.15 60.526 09:40 04.10.2019
6557 Clouds 27 1013 79 0 4.15 60.526 09:40 04.10.2019
6558 Clouds 24 1015 88 10000 1 0 09:22 04.10.2019
6559 Clouds 24 1015 88 10000 1 0 08:45 04.10.2019
6560 Clouds 27 1014 81 0 4.38 70.994 08:26 04.10.2019
6561 Clouds 27 1014 81 0 4.38 70.994 07:47 04.10.2019
6562 -273 0 0 0 0 0 07:24 04.10.2019
6563 Clouds 27 1014 81 0 4.38 70.994 06:56 04.10.2019
6564 Clouds 27 1014 81 0 4.38 70.994 06:37 04.10.2019
6565 Clouds 27 1016 83 10000 2.6 90 06:18 04.10.2019
6566 Clouds 27 1016 83 10000 2.6 90 05:19 04.10.2019
6567 Clouds 28 1015 78 10000 3.1 100 04:35 04.10.2019
6568 Clouds 27 1015 78 10000 3.1 90 02:56 04.10.2019
6569 Clouds 27 1015 78 10000 3.1 90 02:37 04.10.2019
6570 Clouds 28 1014 74 10000 4.1 90 01:43 04.10.2019
6571 Clouds 28 1014 74 10000 4.1 90 01:25 04.10.2019
6572 Clouds 29 1014 70 10000 5.7 70 00:29 04.10.2019
6573 Clouds 29 1014 70 10000 5.7 70 23:38 03.10.2019
6574 Clouds 29 1014 70 10000 5.7 70 23:19 03.10.2019
6575 Clouds 29 1014 70 10000 6.2 70 22:57 03.10.2019
6576 Clouds 29 1014 70 10000 6.2 70 22:39 03.10.2019
6577 Clouds 29 1014 70 10000 5.7 80 22:21 03.10.2019
6578 Clouds 29 1014 70 10000 5.7 80 21:56 03.10.2019
6579 Clouds 29 1014 70 10000 5.7 80 21:37 03.10.2019
6580 Clouds 29 1014 70 10000 5.7 80 21:37 03.10.2019
6581 Clouds 29 1014 70 10000 5.7 80 21:19 03.10.2019
6582 Rain 27 1014 81 0 5.45 75.303 20:56 03.10.2019
6583 Rain 27 1013 81 0 5.92 81.406 20:37 03.10.2019
6584 Rain 27 1013 81 0 5.92 81.406 20:19 03.10.2019
6585 Rain 29 1015 70 10000 6.2 70 19:55 03.10.2019
6586 Rain 29 1015 70 10000 6.2 70 19:36 03.10.2019
6587 Rain 29 1015 70 10000 6.2 70 19:18 03.10.2019
6588 Clouds 29 1015 70 10000 5.1 70 18:40 03.10.2019
6589 Clouds 29 1015 70 10000 5.1 70 18:19 03.10.2019
6590 Clouds 29 1015 70 10000 5.1 70 18:19 03.10.2019
6591 Clouds 29 1015 70 10000 5.1 70 18:19 03.10.2019
6592 Clouds 29 1016 70 10000 4.6 80 17:59 03.10.2019
6593 Clouds 29 1016 70 10000 4.6 80 17:41 03.10.2019
6594 Clouds 29 1016 70 10000 4.6 80 17:19 03.10.2019
6595 Clouds 29 1015 70 10000 4.6 90 16:44 03.10.2019
6596 Clouds 29 1015 70 10000 4.6 90 16:26 03.10.2019
6597 Clouds 28 1015 74 10000 4.6 90 15:56 03.10.2019
6598 Clouds 28 1015 74 10000 4.6 90 15:38 03.10.2019
6599 Clouds 28 1015 74 10000 4.6 90 15:20 03.10.2019
6600 Clouds 27 1014 78 10000 2.6 90 14:46 03.10.2019
6601 Clouds 27 1014 78 10000 2.6 90 14:27 03.10.2019
6602 Clouds 26 1014 83 10000 2.6 90 13:59 03.10.2019
6603 Clouds 26 1014 83 10000 2.6 90 13:41 03.10.2019
6604 Clouds 26 1014 83 10000 2.6 90 13:19 03.10.2019
6605 Clouds 26 1013 83 10000 2.1 80 12:56 03.10.2019
6606 Clouds 26 1013 83 10000 2.1 80 12:37 03.10.2019
6607 Clouds 26 1013 83 10000 2.1 80 12:19 03.10.2019
6608 Clouds 26 1013 83 10000 2.1 80 12:19 03.10.2019
6609 Clouds 26 1013 83 10000 2.1 80 12:19 03.10.2019
6610 Clouds 26 1013 83 10000 2.1 100 11:41 03.10.2019
6611 Clouds 26 1013 83 10000 2.1 100 11:41 03.10.2019
6612 Clouds 26 1013 83 10000 2.1 100 11:23 03.10.2019
6613 Clouds 26 1013 83 10000 2.6 90 10:59 03.10.2019
6614 Clouds 26 1013 83 10000 2.6 90 10:40 03.10.2019
6615 Clouds 26 1013 83 10000 2.6 90 10:19 03.10.2019
6616 Clouds 26 1013 83 10000 1.5 100 09:58 03.10.2019
6617 Clouds 26 1013 83 10000 1.5 100 09:39 03.10.2019
6618 Clouds 26 1013 83 10000 1.5 100 09:20 03.10.2019
6619 Clouds 26 1013 83 10000 2.6 90 08:44 03.10.2019
6620 Clouds 26 1013 83 10000 2.6 90 08:26 03.10.2019
6621 Clouds 26 1014 83 10000 2.1 90 07:57 03.10.2019
6622 Clouds 26 1014 83 10000 2.1 90 07:38 03.10.2019
6623 Clouds 26 1014 83 10000 2.1 90 07:19 03.10.2019
6624 Clouds 27 1014 78 10000 2.6 90 06:45 03.10.2019
6625 Clouds 27 1014 78 10000 2.6 90 06:18 03.10.2019
6626 Clouds 27 1014 78 10000 2.6 80 05:38 03.10.2019
6627 Clouds 27 1014 78 10000 2.6 100 04:51 03.10.2019
6628 Clouds 27 1014 78 10000 2.6 100 04:25 03.10.2019
6629 Clouds 27 1014 78 10000 2.6 100 04:25 03.10.2019
6630 Clouds 27 1013 78 10000 3.6 90 03:21 03.10.2019
6631 Clouds 27 1013 78 10000 3.6 90 02:33 03.10.2019
6632 Rain 27 1012 78 10000 4.6 100 01:50 03.10.2019
6633 Rain 28 1012 78 10000 5.7 90 01:31 03.10.2019
6634 Rain 28 1012 78 10000 5.7 90 00:45 03.10.2019
6635 Rain 27 1011 79 0 6.3 82.951 23:58 02.10.2019
6636 Rain 27 1011 79 0 6.3 82.951 23:38 02.10.2019
6637 Rain 27 1011 79 0 6.3 82.951 23:19 02.10.2019
6638 Rain 27 1011 79 0 6.3 82.951 22:43 02.10.2019
6639 Rain 27 1011 79 0 6.3 82.951 22:21 02.10.2019
6640 Rain 27 1011 79 0 6.3 82.951 21:56 02.10.2019
6641 Rain 27 1011 79 0 6.3 82.951 21:38 02.10.2019
6642 Rain 29 1013 74 10000 6.2 80 21:19 02.10.2019
6643 Rain 29 1013 74 10000 6.2 80 21:19 02.10.2019
6644 Rain 29 1013 74 10000 6.2 80 20:55 02.10.2019
6645 Rain 29 1013 74 10000 6.2 80 20:37 02.10.2019
6646 Rain 27 1011 81 0 6.6 80.335 20:19 02.10.2019
6647 Rain 27 1011 81 0 6.6 80.335 19:45 02.10.2019
6648 Rain 27 1011 81 0 6.6 80.335 19:45 02.10.2019
6649 Rain 27 1011 81 0 6.6 80.335 19:23 02.10.2019
6650 Rain 27 1011 81 0 6.6 80.335 18:59 02.10.2019
6651 Rain 27 1011 81 0 6.6 80.335 18:40 02.10.2019
6652 Clear 27 1013 80 0 6.26 77.134 18:21 02.10.2019
6653 Clear 27 1013 80 0 6.26 77.134 17:58 02.10.2019
6654 Clear 27 1013 80 0 6.26 77.134 17:39 02.10.2019
6655 Clear 27 1013 80 0 6.26 77.134 17:39 02.10.2019
6656 Clear 27 1013 80 0 6.26 77.134 17:20 02.10.2019
6657 Clear 27 1013 80 0 6.26 77.134 16:57 02.10.2019
6658 Clear 27 1013 80 0 6.26 77.134 16:37 02.10.2019
6659 Clear 27 1013 80 0 6.26 77.134 16:18 02.10.2019
6660 Clear 27 1013 80 0 6.26 77.134 15:55 02.10.2019
6661 Clear 27 1013 80 0 6.26 77.134 15:36 02.10.2019
6662 Rain 27 1011 78 0 5.78 85.526 15:18 02.10.2019
6663 Rain 27 1011 78 0 5.78 85.526 14:43 02.10.2019
6664 Rain 27 1011 78 0 5.78 85.526 14:22 02.10.2019
6665 Rain 27 1011 78 0 5.78 85.526 13:48 02.10.2019
6666 Clouds 27 1011 78 0 5.41 89.65 13:29 02.10.2019
6667 Clouds 27 1011 78 0 5.41 89.65 12:59 02.10.2019
6668 Clouds 27 1011 78 0 5.41 89.65 12:39 02.10.2019
6669 Rain 27 1010 79 0 5.52 97.276 12:20 02.10.2019
6670 Rain 27 1010 79 0 5.52 97.276 11:45 02.10.2019
6671 Rain 27 1010 79 0 5.52 97.276 11:23 02.10.2019
6672 Rain 27 1010 79 0 5.52 97.276 10:42 02.10.2019
6673 Rain 27 1010 79 0 5.52 97.276 10:20 02.10.2019
6674 Rain 27 1010 79 0 5.52 97.276 09:59 02.10.2019
6675 Rain 27 1010 79 0 5.52 97.276 09:38 02.10.2019
6676 Rain 27 1011 81 0 6.72 100.473 09:20 02.10.2019
6677 Rain 27 1011 80 0 6.59 107.973 08:45 02.10.2019
6678 Rain 27 1011 80 0